<?xml version="1.0" encoding="UTF-8" standalone="no" ?>
<gpx xmlns="http://www.topografix.com/GPX/1/1" xmlns:xsi="http://www.w3.org/2001/XMLSchema-instance" xsi:schemaLocation="http://www.topografix.com/GPX/1/1 http://www.topografix.com/GPX/1/1/gpx.xsd" version="1.1" creator="VisuGPX - https://www.visugpx.com">
  <metadata>
    <name>Clermont-Ferrand Saint Bonnet pres d'orcival</name>
  </metadata>
  <trk>
    <name><![CDATA[Route, à bloque en descente 😋]]></name>
    <trkseg>
      <trkpt lat="45.76518" lon="3.0823">
        <ele>388.7</ele>
        <time>2022-08-06T07:45:46Z</time>
      </trkpt>
      <trkpt lat="45.76509" lon="3.08228">
        <ele>388.9</ele>
        <time>2022-08-06T07:45:49Z</time>
      </trkpt>
      <trkpt lat="45.76501" lon="3.08228">
        <ele>389.2</ele>
        <time>2022-08-06T07:45:51Z</time>
      </trkpt>
      <trkpt lat="45.76494" lon="3.08228">
        <ele>389.4</ele>
        <time>2022-08-06T07:45:53Z</time>
      </trkpt>
      <trkpt lat="45.76486" lon="3.08227">
        <ele>389.7</ele>
        <time>2022-08-06T07:45:55Z</time>
      </trkpt>
      <trkpt lat="45.76478" lon="3.08228">
        <ele>390</ele>
        <time>2022-08-06T07:45:57Z</time>
      </trkpt>
      <trkpt lat="45.76469" lon="3.08228">
        <ele>390.4</ele>
        <time>2022-08-06T07:45:59Z</time>
      </trkpt>
      <trkpt lat="45.7646" lon="3.08227">
        <ele>390.8</ele>
        <time>2022-08-06T07:46:01Z</time>
      </trkpt>
      <trkpt lat="45.76451" lon="3.08228">
        <ele>391.1</ele>
        <time>2022-08-06T07:46:03Z</time>
      </trkpt>
      <trkpt lat="45.76442" lon="3.08228">
        <ele>391.5</ele>
        <time>2022-08-06T07:46:05Z</time>
      </trkpt>
      <trkpt lat="45.76433" lon="3.08229">
        <ele>391.7</ele>
        <time>2022-08-06T07:46:07Z</time>
      </trkpt>
      <trkpt lat="45.76423" lon="3.08231">
        <ele>391.9</ele>
        <time>2022-08-06T07:46:09Z</time>
      </trkpt>
      <trkpt lat="45.76415" lon="3.08234">
        <ele>392.4</ele>
        <time>2022-08-06T07:46:11Z</time>
      </trkpt>
      <trkpt lat="45.76407" lon="3.08236">
        <ele>392.8</ele>
        <time>2022-08-06T07:46:13Z</time>
      </trkpt>
      <trkpt lat="45.76399" lon="3.08236">
        <ele>393.3</ele>
        <time>2022-08-06T07:46:15Z</time>
      </trkpt>
      <trkpt lat="45.76391" lon="3.08237">
        <ele>393.8</ele>
        <time>2022-08-06T07:46:17Z</time>
      </trkpt>
      <trkpt lat="45.76382" lon="3.08238">
        <ele>394.3</ele>
        <time>2022-08-06T07:46:19Z</time>
      </trkpt>
      <trkpt lat="45.76373" lon="3.08237">
        <ele>394.9</ele>
        <time>2022-08-06T07:46:21Z</time>
      </trkpt>
      <trkpt lat="45.76365" lon="3.08238">
        <ele>395.4</ele>
        <time>2022-08-06T07:46:23Z</time>
      </trkpt>
      <trkpt lat="45.76357" lon="3.08241">
        <ele>395.9</ele>
        <time>2022-08-06T07:46:25Z</time>
      </trkpt>
      <trkpt lat="45.76349" lon="3.08241">
        <ele>396.4</ele>
        <time>2022-08-06T07:46:27Z</time>
      </trkpt>
      <trkpt lat="45.76341" lon="3.08241">
        <ele>396.8</ele>
        <time>2022-08-06T07:46:29Z</time>
      </trkpt>
      <trkpt lat="45.76333" lon="3.08242">
        <ele>397.3</ele>
        <time>2022-08-06T07:46:31Z</time>
      </trkpt>
      <trkpt lat="45.76325" lon="3.08244">
        <ele>397.6</ele>
        <time>2022-08-06T07:46:33Z</time>
      </trkpt>
      <trkpt lat="45.76317" lon="3.08246">
        <ele>397.8</ele>
        <time>2022-08-06T07:46:35Z</time>
      </trkpt>
      <trkpt lat="45.76307" lon="3.08246">
        <ele>398</ele>
        <time>2022-08-06T07:46:37Z</time>
      </trkpt>
      <trkpt lat="45.76296" lon="3.08247">
        <ele>398.1</ele>
        <time>2022-08-06T07:46:39Z</time>
      </trkpt>
      <trkpt lat="45.76285" lon="3.0825">
        <ele>398.2</ele>
        <time>2022-08-06T07:46:41Z</time>
      </trkpt>
      <trkpt lat="45.76273" lon="3.08252">
        <ele>398.4</ele>
        <time>2022-08-06T07:46:43Z</time>
      </trkpt>
      <trkpt lat="45.76262" lon="3.08256">
        <ele>398.5</ele>
        <time>2022-08-06T07:46:45Z</time>
      </trkpt>
      <trkpt lat="45.7625" lon="3.08259">
        <ele>398.6</ele>
        <time>2022-08-06T07:46:47Z</time>
      </trkpt>
      <trkpt lat="45.76239" lon="3.08258">
        <ele>398.8</ele>
        <time>2022-08-06T07:46:49Z</time>
      </trkpt>
      <trkpt lat="45.76228" lon="3.08253">
        <ele>399.3</ele>
        <time>2022-08-06T07:46:51Z</time>
      </trkpt>
      <trkpt lat="45.76219" lon="3.0825">
        <ele>399.7</ele>
        <time>2022-08-06T07:46:53Z</time>
      </trkpt>
      <trkpt lat="45.76209" lon="3.08246">
        <ele>400.1</ele>
        <time>2022-08-06T07:46:55Z</time>
      </trkpt>
      <trkpt lat="45.76201" lon="3.08242">
        <ele>400.5</ele>
        <time>2022-08-06T07:46:57Z</time>
      </trkpt>
      <trkpt lat="45.76192" lon="3.0824">
        <ele>401</ele>
        <time>2022-08-06T07:46:59Z</time>
      </trkpt>
      <trkpt lat="45.76185" lon="3.08238">
        <ele>401.3</ele>
        <time>2022-08-06T07:47:01Z</time>
      </trkpt>
      <trkpt lat="45.76179" lon="3.08237">
        <ele>401.6</ele>
        <time>2022-08-06T07:47:03Z</time>
      </trkpt>
      <trkpt lat="45.76174" lon="3.08237">
        <ele>401.8</ele>
        <time>2022-08-06T07:47:05Z</time>
      </trkpt>
      <trkpt lat="45.76171" lon="3.08234">
        <ele>401.9</ele>
        <time>2022-08-06T07:47:07Z</time>
      </trkpt>
      <trkpt lat="45.76169" lon="3.08233">
        <ele>402</ele>
        <time>2022-08-06T07:47:09Z</time>
      </trkpt>
      <trkpt lat="45.76168" lon="3.08232">
        <ele>402.1</ele>
        <time>2022-08-06T07:47:11Z</time>
      </trkpt>
      <trkpt lat="45.76162" lon="3.0823">
        <ele>402.3</ele>
        <time>2022-08-06T07:47:13Z</time>
      </trkpt>
      <trkpt lat="45.76155" lon="3.08225">
        <ele>402.5</ele>
        <time>2022-08-06T07:47:15Z</time>
      </trkpt>
      <trkpt lat="45.76148" lon="3.08223">
        <ele>402.6</ele>
        <time>2022-08-06T07:47:17Z</time>
      </trkpt>
      <trkpt lat="45.76139" lon="3.0822">
        <ele>402.9</ele>
        <time>2022-08-06T07:47:19Z</time>
      </trkpt>
      <trkpt lat="45.76131" lon="3.08217">
        <ele>403.1</ele>
        <time>2022-08-06T07:47:21Z</time>
      </trkpt>
      <trkpt lat="45.76123" lon="3.08213">
        <ele>403.3</ele>
        <time>2022-08-06T07:47:23Z</time>
      </trkpt>
      <trkpt lat="45.76115" lon="3.0821">
        <ele>403.6</ele>
        <time>2022-08-06T07:47:25Z</time>
      </trkpt>
      <trkpt lat="45.76107" lon="3.08207">
        <ele>403.9</ele>
        <time>2022-08-06T07:47:27Z</time>
      </trkpt>
      <trkpt lat="45.76099" lon="3.08204">
        <ele>404.2</ele>
        <time>2022-08-06T07:47:29Z</time>
      </trkpt>
      <trkpt lat="45.7609" lon="3.082">
        <ele>404.6</ele>
        <time>2022-08-06T07:47:31Z</time>
      </trkpt>
      <trkpt lat="45.76081" lon="3.08197">
        <ele>404.9</ele>
        <time>2022-08-06T07:47:33Z</time>
      </trkpt>
      <trkpt lat="45.76072" lon="3.08193">
        <ele>405.3</ele>
        <time>2022-08-06T07:47:35Z</time>
      </trkpt>
      <trkpt lat="45.76063" lon="3.0819">
        <ele>405.4</ele>
        <time>2022-08-06T07:47:37Z</time>
      </trkpt>
      <trkpt lat="45.76054" lon="3.08186">
        <ele>405.7</ele>
        <time>2022-08-06T07:47:39Z</time>
      </trkpt>
      <trkpt lat="45.76045" lon="3.08182">
        <ele>406.1</ele>
        <time>2022-08-06T07:47:41Z</time>
      </trkpt>
      <trkpt lat="45.76036" lon="3.08178">
        <ele>406.5</ele>
        <time>2022-08-06T07:47:43Z</time>
      </trkpt>
      <trkpt lat="45.76028" lon="3.08175">
        <ele>406.8</ele>
        <time>2022-08-06T07:47:45Z</time>
      </trkpt>
      <trkpt lat="45.76019" lon="3.08172">
        <ele>407.2</ele>
        <time>2022-08-06T07:47:47Z</time>
      </trkpt>
      <trkpt lat="45.7601" lon="3.08169">
        <ele>407.6</ele>
        <time>2022-08-06T07:47:49Z</time>
      </trkpt>
      <trkpt lat="45.76001" lon="3.08167">
        <ele>408</ele>
        <time>2022-08-06T07:47:51Z</time>
      </trkpt>
      <trkpt lat="45.75993" lon="3.08162">
        <ele>408.4</ele>
        <time>2022-08-06T07:47:53Z</time>
      </trkpt>
      <trkpt lat="45.75984" lon="3.08159">
        <ele>408.8</ele>
        <time>2022-08-06T07:47:55Z</time>
      </trkpt>
      <trkpt lat="45.75975" lon="3.08155">
        <ele>409.3</ele>
        <time>2022-08-06T07:47:57Z</time>
      </trkpt>
      <trkpt lat="45.75966" lon="3.08152">
        <ele>409.7</ele>
        <time>2022-08-06T07:47:59Z</time>
      </trkpt>
      <trkpt lat="45.75957" lon="3.08149">
        <ele>410.1</ele>
        <time>2022-08-06T07:48:01Z</time>
      </trkpt>
      <trkpt lat="45.75949" lon="3.08145">
        <ele>410.5</ele>
        <time>2022-08-06T07:48:03Z</time>
      </trkpt>
      <trkpt lat="45.75941" lon="3.08141">
        <ele>410.9</ele>
        <time>2022-08-06T07:48:05Z</time>
      </trkpt>
      <trkpt lat="45.75932" lon="3.08137">
        <ele>411.3</ele>
        <time>2022-08-06T07:48:07Z</time>
      </trkpt>
      <trkpt lat="45.75924" lon="3.08134">
        <ele>411.6</ele>
        <time>2022-08-06T07:48:09Z</time>
      </trkpt>
      <trkpt lat="45.75915" lon="3.0813">
        <ele>411.7</ele>
        <time>2022-08-06T07:48:11Z</time>
      </trkpt>
      <trkpt lat="45.75907" lon="3.08127">
        <ele>411.9</ele>
        <time>2022-08-06T07:48:13Z</time>
      </trkpt>
      <trkpt lat="45.75899" lon="3.08124">
        <ele>412.1</ele>
        <time>2022-08-06T07:48:15Z</time>
      </trkpt>
      <trkpt lat="45.75891" lon="3.0812">
        <ele>412.2</ele>
        <time>2022-08-06T07:48:17Z</time>
      </trkpt>
      <trkpt lat="45.75882" lon="3.08116">
        <ele>412.5</ele>
        <time>2022-08-06T07:48:19Z</time>
      </trkpt>
      <trkpt lat="45.75874" lon="3.08113">
        <ele>412.9</ele>
        <time>2022-08-06T07:48:21Z</time>
      </trkpt>
      <trkpt lat="45.75866" lon="3.08111">
        <ele>413.4</ele>
        <time>2022-08-06T07:48:23Z</time>
      </trkpt>
      <trkpt lat="45.75857" lon="3.08107">
        <ele>413.8</ele>
        <time>2022-08-06T07:48:25Z</time>
      </trkpt>
      <trkpt lat="45.75849" lon="3.08104">
        <ele>414.2</ele>
        <time>2022-08-06T07:48:27Z</time>
      </trkpt>
      <trkpt lat="45.75841" lon="3.081">
        <ele>414.4</ele>
        <time>2022-08-06T07:48:29Z</time>
      </trkpt>
      <trkpt lat="45.75833" lon="3.08097">
        <ele>414.7</ele>
        <time>2022-08-06T07:48:31Z</time>
      </trkpt>
      <trkpt lat="45.75825" lon="3.08093">
        <ele>415.1</ele>
        <time>2022-08-06T07:48:33Z</time>
      </trkpt>
      <trkpt lat="45.75816" lon="3.0809">
        <ele>415.4</ele>
        <time>2022-08-06T07:48:35Z</time>
      </trkpt>
      <trkpt lat="45.75808" lon="3.08088">
        <ele>415.8</ele>
        <time>2022-08-06T07:48:37Z</time>
      </trkpt>
      <trkpt lat="45.758" lon="3.08083">
        <ele>416.2</ele>
        <time>2022-08-06T07:48:39Z</time>
      </trkpt>
      <trkpt lat="45.75792" lon="3.08079">
        <ele>416.4</ele>
        <time>2022-08-06T07:48:41Z</time>
      </trkpt>
      <trkpt lat="45.75784" lon="3.08076">
        <ele>416.7</ele>
        <time>2022-08-06T07:48:43Z</time>
      </trkpt>
      <trkpt lat="45.75776" lon="3.08074">
        <ele>417</ele>
        <time>2022-08-06T07:48:45Z</time>
      </trkpt>
      <trkpt lat="45.75768" lon="3.08075">
        <ele>417.2</ele>
        <time>2022-08-06T07:48:47Z</time>
      </trkpt>
      <trkpt lat="45.75761" lon="3.08077">
        <ele>417.5</ele>
        <time>2022-08-06T07:48:49Z</time>
      </trkpt>
      <trkpt lat="45.75755" lon="3.08079">
        <ele>417.7</ele>
        <time>2022-08-06T07:48:51Z</time>
      </trkpt>
      <trkpt lat="45.7575" lon="3.08083">
        <ele>417.9</ele>
        <time>2022-08-06T07:48:53Z</time>
      </trkpt>
      <trkpt lat="45.75743" lon="3.0809">
        <ele>418</ele>
        <time>2022-08-06T07:48:55Z</time>
      </trkpt>
      <trkpt lat="45.75737" lon="3.08099">
        <ele>418.1</ele>
        <time>2022-08-06T07:48:57Z</time>
      </trkpt>
      <trkpt lat="45.75731" lon="3.08109">
        <ele>418.2</ele>
        <time>2022-08-06T07:48:59Z</time>
      </trkpt>
      <trkpt lat="45.75726" lon="3.0812">
        <ele>418.6</ele>
        <time>2022-08-06T07:49:01Z</time>
      </trkpt>
      <trkpt lat="45.75722" lon="3.08131">
        <ele>418.9</ele>
        <time>2022-08-06T07:49:03Z</time>
      </trkpt>
      <trkpt lat="45.7572" lon="3.08143">
        <ele>419.3</ele>
        <time>2022-08-06T07:49:05Z</time>
      </trkpt>
      <trkpt lat="45.75718" lon="3.08154">
        <ele>419.6</ele>
        <time>2022-08-06T07:49:07Z</time>
      </trkpt>
      <trkpt lat="45.75717" lon="3.08167">
        <ele>420</ele>
        <time>2022-08-06T07:49:09Z</time>
      </trkpt>
      <trkpt lat="45.75718" lon="3.08178">
        <ele>420.3</ele>
        <time>2022-08-06T07:49:11Z</time>
      </trkpt>
      <trkpt lat="45.75719" lon="3.08191">
        <ele>420.7</ele>
        <time>2022-08-06T07:49:13Z</time>
      </trkpt>
      <trkpt lat="45.7572" lon="3.08203">
        <ele>421.1</ele>
        <time>2022-08-06T07:49:15Z</time>
      </trkpt>
      <trkpt lat="45.7572" lon="3.08215">
        <ele>421.4</ele>
        <time>2022-08-06T07:49:17Z</time>
      </trkpt>
      <trkpt lat="45.75721" lon="3.08226">
        <ele>421.8</ele>
        <time>2022-08-06T07:49:19Z</time>
      </trkpt>
      <trkpt lat="45.75721" lon="3.08239">
        <ele>422.1</ele>
        <time>2022-08-06T07:49:21Z</time>
      </trkpt>
      <trkpt lat="45.75721" lon="3.08251">
        <ele>422.6</ele>
        <time>2022-08-06T07:49:23Z</time>
      </trkpt>
      <trkpt lat="45.75722" lon="3.08263">
        <ele>422.9</ele>
        <time>2022-08-06T07:49:25Z</time>
      </trkpt>
      <trkpt lat="45.75722" lon="3.08276">
        <ele>423.3</ele>
        <time>2022-08-06T07:49:27Z</time>
      </trkpt>
      <trkpt lat="45.75722" lon="3.08289">
        <ele>423.8</ele>
        <time>2022-08-06T07:49:29Z</time>
      </trkpt>
      <trkpt lat="45.75722" lon="3.08301">
        <ele>424.2</ele>
        <time>2022-08-06T07:49:31Z</time>
      </trkpt>
      <trkpt lat="45.75722" lon="3.08313">
        <ele>424.5</ele>
        <time>2022-08-06T07:49:33Z</time>
      </trkpt>
      <trkpt lat="45.75723" lon="3.08324">
        <ele>424.9</ele>
        <time>2022-08-06T07:49:35Z</time>
      </trkpt>
      <trkpt lat="45.75722" lon="3.08336">
        <ele>425.3</ele>
        <time>2022-08-06T07:49:37Z</time>
      </trkpt>
      <trkpt lat="45.75721" lon="3.08348">
        <ele>425.7</ele>
        <time>2022-08-06T07:49:39Z</time>
      </trkpt>
      <trkpt lat="45.75719" lon="3.0836">
        <ele>426.1</ele>
        <time>2022-08-06T07:49:41Z</time>
      </trkpt>
      <trkpt lat="45.75717" lon="3.08371">
        <ele>426.5</ele>
        <time>2022-08-06T07:49:43Z</time>
      </trkpt>
      <trkpt lat="45.75712" lon="3.08381">
        <ele>426.9</ele>
        <time>2022-08-06T07:49:45Z</time>
      </trkpt>
      <trkpt lat="45.75706" lon="3.08389">
        <ele>427.3</ele>
        <time>2022-08-06T07:49:47Z</time>
      </trkpt>
      <trkpt lat="45.75699" lon="3.08397">
        <ele>427.8</ele>
        <time>2022-08-06T07:49:49Z</time>
      </trkpt>
      <trkpt lat="45.75692" lon="3.08402">
        <ele>428.3</ele>
        <time>2022-08-06T07:49:51Z</time>
      </trkpt>
      <trkpt lat="45.75683" lon="3.08406">
        <ele>428.7</ele>
        <time>2022-08-06T07:49:53Z</time>
      </trkpt>
      <trkpt lat="45.75675" lon="3.0841">
        <ele>429.2</ele>
        <time>2022-08-06T07:49:55Z</time>
      </trkpt>
      <trkpt lat="45.75667" lon="3.08412">
        <ele>429.7</ele>
        <time>2022-08-06T07:49:57Z</time>
      </trkpt>
      <trkpt lat="45.75659" lon="3.08414">
        <ele>430.1</ele>
        <time>2022-08-06T07:49:59Z</time>
      </trkpt>
      <trkpt lat="45.75651" lon="3.08416">
        <ele>430.6</ele>
        <time>2022-08-06T07:50:01Z</time>
      </trkpt>
      <trkpt lat="45.75644" lon="3.08418">
        <ele>430.9</ele>
        <time>2022-08-06T07:50:03Z</time>
      </trkpt>
      <trkpt lat="45.75637" lon="3.08422">
        <ele>431.3</ele>
        <time>2022-08-06T07:50:05Z</time>
      </trkpt>
      <trkpt lat="45.7563" lon="3.08425">
        <ele>431.7</ele>
        <time>2022-08-06T07:50:07Z</time>
      </trkpt>
      <trkpt lat="45.75621" lon="3.0843">
        <ele>431.9</ele>
        <time>2022-08-06T07:50:09Z</time>
      </trkpt>
      <trkpt lat="45.75613" lon="3.08433">
        <ele>432.2</ele>
        <time>2022-08-06T07:50:11Z</time>
      </trkpt>
      <trkpt lat="45.75605" lon="3.08436">
        <ele>432.4</ele>
        <time>2022-08-06T07:50:13Z</time>
      </trkpt>
      <trkpt lat="45.75597" lon="3.0844">
        <ele>432.8</ele>
        <time>2022-08-06T07:50:15Z</time>
      </trkpt>
      <trkpt lat="45.75589" lon="3.08444">
        <ele>433.1</ele>
        <time>2022-08-06T07:50:17Z</time>
      </trkpt>
      <trkpt lat="45.7558" lon="3.08447">
        <ele>433.3</ele>
        <time>2022-08-06T07:50:19Z</time>
      </trkpt>
      <trkpt lat="45.75572" lon="3.0845">
        <ele>433.6</ele>
        <time>2022-08-06T07:50:21Z</time>
      </trkpt>
      <trkpt lat="45.75564" lon="3.08454">
        <ele>433.8</ele>
        <time>2022-08-06T07:50:23Z</time>
      </trkpt>
      <trkpt lat="45.75556" lon="3.08458">
        <ele>434.2</ele>
        <time>2022-08-06T07:50:25Z</time>
      </trkpt>
      <trkpt lat="45.75547" lon="3.08462">
        <ele>434.5</ele>
        <time>2022-08-06T07:50:27Z</time>
      </trkpt>
      <trkpt lat="45.75539" lon="3.08465">
        <ele>434.9</ele>
        <time>2022-08-06T07:50:29Z</time>
      </trkpt>
      <trkpt lat="45.75531" lon="3.08469">
        <ele>435</ele>
        <time>2022-08-06T07:50:31Z</time>
      </trkpt>
      <trkpt lat="45.75523" lon="3.08473">
        <ele>435.2</ele>
        <time>2022-08-06T07:50:33Z</time>
      </trkpt>
      <trkpt lat="45.75515" lon="3.08475">
        <ele>435.5</ele>
        <time>2022-08-06T07:50:35Z</time>
      </trkpt>
      <trkpt lat="45.75506" lon="3.08479">
        <ele>435.9</ele>
        <time>2022-08-06T07:50:37Z</time>
      </trkpt>
      <trkpt lat="45.75498" lon="3.08482">
        <ele>436.3</ele>
        <time>2022-08-06T07:50:39Z</time>
      </trkpt>
      <trkpt lat="45.75488" lon="3.08485">
        <ele>436.8</ele>
        <time>2022-08-06T07:50:41Z</time>
      </trkpt>
      <trkpt lat="45.7548" lon="3.08489">
        <ele>437.2</ele>
        <time>2022-08-06T07:50:43Z</time>
      </trkpt>
      <trkpt lat="45.75472" lon="3.08492">
        <ele>437.6</ele>
        <time>2022-08-06T07:50:45Z</time>
      </trkpt>
      <trkpt lat="45.75464" lon="3.08496">
        <ele>438</ele>
        <time>2022-08-06T07:50:47Z</time>
      </trkpt>
      <trkpt lat="45.75455" lon="3.08499">
        <ele>438.4</ele>
        <time>2022-08-06T07:50:49Z</time>
      </trkpt>
      <trkpt lat="45.75447" lon="3.08502">
        <ele>438.8</ele>
        <time>2022-08-06T07:50:51Z</time>
      </trkpt>
      <trkpt lat="45.75439" lon="3.08506">
        <ele>439.2</ele>
        <time>2022-08-06T07:50:53Z</time>
      </trkpt>
      <trkpt lat="45.7543" lon="3.0851">
        <ele>439.6</ele>
        <time>2022-08-06T07:50:55Z</time>
      </trkpt>
      <trkpt lat="45.75422" lon="3.08513">
        <ele>440.1</ele>
        <time>2022-08-06T07:50:57Z</time>
      </trkpt>
      <trkpt lat="45.75415" lon="3.08515">
        <ele>440.5</ele>
        <time>2022-08-06T07:50:59Z</time>
      </trkpt>
      <trkpt lat="45.75407" lon="3.08517">
        <ele>440.9</ele>
        <time>2022-08-06T07:51:01Z</time>
      </trkpt>
      <trkpt lat="45.75399" lon="3.08518">
        <ele>441.2</ele>
        <time>2022-08-06T07:51:03Z</time>
      </trkpt>
      <trkpt lat="45.75391" lon="3.08518">
        <ele>441.5</ele>
        <time>2022-08-06T07:51:05Z</time>
      </trkpt>
      <trkpt lat="45.75382" lon="3.08517">
        <ele>441.7</ele>
        <time>2022-08-06T07:51:07Z</time>
      </trkpt>
      <trkpt lat="45.75373" lon="3.08514">
        <ele>441.9</ele>
        <time>2022-08-06T07:51:09Z</time>
      </trkpt>
      <trkpt lat="45.75365" lon="3.08511">
        <ele>442.2</ele>
        <time>2022-08-06T07:51:11Z</time>
      </trkpt>
      <trkpt lat="45.75358" lon="3.08507">
        <ele>442.4</ele>
        <time>2022-08-06T07:51:13Z</time>
      </trkpt>
      <trkpt lat="45.75349" lon="3.08501">
        <ele>442.7</ele>
        <time>2022-08-06T07:51:15Z</time>
      </trkpt>
      <trkpt lat="45.75341" lon="3.08493">
        <ele>443</ele>
        <time>2022-08-06T07:51:17Z</time>
      </trkpt>
      <trkpt lat="45.75334" lon="3.08486">
        <ele>443.2</ele>
        <time>2022-08-06T07:51:19Z</time>
      </trkpt>
      <trkpt lat="45.75327" lon="3.08477">
        <ele>443.5</ele>
        <time>2022-08-06T07:51:21Z</time>
      </trkpt>
      <trkpt lat="45.7532" lon="3.08467">
        <ele>443.7</ele>
        <time>2022-08-06T07:51:23Z</time>
      </trkpt>
      <trkpt lat="45.75315" lon="3.08455">
        <ele>443.9</ele>
        <time>2022-08-06T07:51:25Z</time>
      </trkpt>
      <trkpt lat="45.7531" lon="3.08442">
        <ele>444.1</ele>
        <time>2022-08-06T07:51:27Z</time>
      </trkpt>
      <trkpt lat="45.75306" lon="3.0843">
        <ele>444.3</ele>
        <time>2022-08-06T07:51:29Z</time>
      </trkpt>
      <trkpt lat="45.75301" lon="3.08417">
        <ele>444.5</ele>
        <time>2022-08-06T07:51:31Z</time>
      </trkpt>
      <trkpt lat="45.75297" lon="3.08405">
        <ele>444.7</ele>
        <time>2022-08-06T07:51:33Z</time>
      </trkpt>
      <trkpt lat="45.75293" lon="3.08393">
        <ele>445</ele>
        <time>2022-08-06T07:51:35Z</time>
      </trkpt>
      <trkpt lat="45.75289" lon="3.0838">
        <ele>445.2</ele>
        <time>2022-08-06T07:51:37Z</time>
      </trkpt>
      <trkpt lat="45.75284" lon="3.08369">
        <ele>445.5</ele>
        <time>2022-08-06T07:51:39Z</time>
      </trkpt>
      <trkpt lat="45.7528" lon="3.08357">
        <ele>445.7</ele>
        <time>2022-08-06T07:51:41Z</time>
      </trkpt>
      <trkpt lat="45.75276" lon="3.08345">
        <ele>446</ele>
        <time>2022-08-06T07:51:43Z</time>
      </trkpt>
      <trkpt lat="45.75271" lon="3.08333">
        <ele>446.3</ele>
        <time>2022-08-06T07:51:45Z</time>
      </trkpt>
      <trkpt lat="45.75267" lon="3.08322">
        <ele>446.4</ele>
        <time>2022-08-06T07:51:47Z</time>
      </trkpt>
      <trkpt lat="45.75264" lon="3.08311">
        <ele>446.6</ele>
        <time>2022-08-06T07:51:49Z</time>
      </trkpt>
      <trkpt lat="45.7526" lon="3.083">
        <ele>446.9</ele>
        <time>2022-08-06T07:51:51Z</time>
      </trkpt>
      <trkpt lat="45.75257" lon="3.08292">
        <ele>447.1</ele>
        <time>2022-08-06T07:51:53Z</time>
      </trkpt>
      <trkpt lat="45.75254" lon="3.08285">
        <ele>447.3</ele>
        <time>2022-08-06T07:51:55Z</time>
      </trkpt>
      <trkpt lat="45.75252" lon="3.08277">
        <ele>447.5</ele>
        <time>2022-08-06T07:51:57Z</time>
      </trkpt>
      <trkpt lat="45.75248" lon="3.08268">
        <ele>447.7</ele>
        <time>2022-08-06T07:51:59Z</time>
      </trkpt>
      <trkpt lat="45.75244" lon="3.08257">
        <ele>448</ele>
        <time>2022-08-06T07:52:01Z</time>
      </trkpt>
      <trkpt lat="45.7524" lon="3.08245">
        <ele>448.3</ele>
        <time>2022-08-06T07:52:03Z</time>
      </trkpt>
      <trkpt lat="45.75237" lon="3.08233">
        <ele>448.6</ele>
        <time>2022-08-06T07:52:05Z</time>
      </trkpt>
      <trkpt lat="45.75233" lon="3.0822">
        <ele>448.9</ele>
        <time>2022-08-06T07:52:07Z</time>
      </trkpt>
      <trkpt lat="45.75228" lon="3.08207">
        <ele>449.2</ele>
        <time>2022-08-06T07:52:09Z</time>
      </trkpt>
      <trkpt lat="45.75224" lon="3.08195">
        <ele>449.5</ele>
        <time>2022-08-06T07:52:11Z</time>
      </trkpt>
      <trkpt lat="45.7522" lon="3.08182">
        <ele>449.8</ele>
        <time>2022-08-06T07:52:13Z</time>
      </trkpt>
      <trkpt lat="45.75215" lon="3.08169">
        <ele>450.2</ele>
        <time>2022-08-06T07:52:15Z</time>
      </trkpt>
      <trkpt lat="45.75211" lon="3.08157">
        <ele>450.5</ele>
        <time>2022-08-06T07:52:17Z</time>
      </trkpt>
      <trkpt lat="45.75207" lon="3.08144">
        <ele>450.8</ele>
        <time>2022-08-06T07:52:19Z</time>
      </trkpt>
      <trkpt lat="45.75203" lon="3.0813">
        <ele>451.1</ele>
        <time>2022-08-06T07:52:21Z</time>
      </trkpt>
      <trkpt lat="45.75198" lon="3.08117">
        <ele>451.4</ele>
        <time>2022-08-06T07:52:23Z</time>
      </trkpt>
      <trkpt lat="45.75194" lon="3.08105">
        <ele>451.8</ele>
        <time>2022-08-06T07:52:25Z</time>
      </trkpt>
      <trkpt lat="45.7519" lon="3.08093">
        <ele>452.1</ele>
        <time>2022-08-06T07:52:27Z</time>
      </trkpt>
      <trkpt lat="45.75185" lon="3.0808">
        <ele>452.5</ele>
        <time>2022-08-06T07:52:29Z</time>
      </trkpt>
      <trkpt lat="45.7518" lon="3.08067">
        <ele>452.8</ele>
        <time>2022-08-06T07:52:31Z</time>
      </trkpt>
      <trkpt lat="45.75176" lon="3.08055">
        <ele>453.1</ele>
        <time>2022-08-06T07:52:33Z</time>
      </trkpt>
      <trkpt lat="45.75171" lon="3.08042">
        <ele>453.4</ele>
        <time>2022-08-06T07:52:35Z</time>
      </trkpt>
      <trkpt lat="45.75166" lon="3.0803">
        <ele>453.7</ele>
        <time>2022-08-06T07:52:37Z</time>
      </trkpt>
      <trkpt lat="45.7516" lon="3.0802">
        <ele>453.9</ele>
        <time>2022-08-06T07:52:39Z</time>
      </trkpt>
      <trkpt lat="45.75152" lon="3.0801">
        <ele>454.2</ele>
        <time>2022-08-06T07:52:41Z</time>
      </trkpt>
      <trkpt lat="45.75144" lon="3.08001">
        <ele>454.5</ele>
        <time>2022-08-06T07:52:43Z</time>
      </trkpt>
      <trkpt lat="45.75136" lon="3.07993">
        <ele>454.8</ele>
        <time>2022-08-06T07:52:45Z</time>
      </trkpt>
      <trkpt lat="45.75128" lon="3.07986">
        <ele>455.1</ele>
        <time>2022-08-06T07:52:47Z</time>
      </trkpt>
      <trkpt lat="45.75119" lon="3.07981">
        <ele>455.4</ele>
        <time>2022-08-06T07:52:49Z</time>
      </trkpt>
      <trkpt lat="45.7511" lon="3.07976">
        <ele>455.8</ele>
        <time>2022-08-06T07:52:51Z</time>
      </trkpt>
      <trkpt lat="45.75099" lon="3.07971">
        <ele>456.2</ele>
        <time>2022-08-06T07:52:53Z</time>
      </trkpt>
      <trkpt lat="45.75089" lon="3.07966">
        <ele>456.7</ele>
        <time>2022-08-06T07:52:55Z</time>
      </trkpt>
      <trkpt lat="45.75079" lon="3.0796">
        <ele>457.1</ele>
        <time>2022-08-06T07:52:57Z</time>
      </trkpt>
      <trkpt lat="45.7507" lon="3.07956">
        <ele>457.5</ele>
        <time>2022-08-06T07:52:59Z</time>
      </trkpt>
      <trkpt lat="45.7506" lon="3.07952">
        <ele>457.9</ele>
        <time>2022-08-06T07:53:01Z</time>
      </trkpt>
      <trkpt lat="45.75052" lon="3.07947">
        <ele>458.3</ele>
        <time>2022-08-06T07:53:03Z</time>
      </trkpt>
      <trkpt lat="45.75043" lon="3.07942">
        <ele>458.7</ele>
        <time>2022-08-06T07:53:05Z</time>
      </trkpt>
      <trkpt lat="45.75034" lon="3.07937">
        <ele>459</ele>
        <time>2022-08-06T07:53:07Z</time>
      </trkpt>
      <trkpt lat="45.75025" lon="3.07932">
        <ele>459.3</ele>
        <time>2022-08-06T07:53:09Z</time>
      </trkpt>
      <trkpt lat="45.75016" lon="3.07928">
        <ele>459.6</ele>
        <time>2022-08-06T07:53:11Z</time>
      </trkpt>
      <trkpt lat="45.75008" lon="3.07924">
        <ele>459.9</ele>
        <time>2022-08-06T07:53:13Z</time>
      </trkpt>
      <trkpt lat="45.75001" lon="3.0792">
        <ele>460.3</ele>
        <time>2022-08-06T07:53:15Z</time>
      </trkpt>
      <trkpt lat="45.74992" lon="3.07916">
        <ele>460.8</ele>
        <time>2022-08-06T07:53:17Z</time>
      </trkpt>
      <trkpt lat="45.74981" lon="3.07911">
        <ele>461.2</ele>
        <time>2022-08-06T07:53:19Z</time>
      </trkpt>
      <trkpt lat="45.74972" lon="3.07905">
        <ele>461.5</ele>
        <time>2022-08-06T07:53:21Z</time>
      </trkpt>
      <trkpt lat="45.74963" lon="3.07899">
        <ele>461.7</ele>
        <time>2022-08-06T07:53:23Z</time>
      </trkpt>
      <trkpt lat="45.74953" lon="3.07895">
        <ele>462.1</ele>
        <time>2022-08-06T07:53:25Z</time>
      </trkpt>
      <trkpt lat="45.74945" lon="3.0789">
        <ele>462.5</ele>
        <time>2022-08-06T07:53:27Z</time>
      </trkpt>
      <trkpt lat="45.74936" lon="3.07886">
        <ele>462.9</ele>
        <time>2022-08-06T07:53:29Z</time>
      </trkpt>
      <trkpt lat="45.74927" lon="3.07882">
        <ele>463.2</ele>
        <time>2022-08-06T07:53:31Z</time>
      </trkpt>
      <trkpt lat="45.74918" lon="3.07877">
        <ele>463.8</ele>
        <time>2022-08-06T07:53:33Z</time>
      </trkpt>
      <trkpt lat="45.7491" lon="3.07873">
        <ele>464.3</ele>
        <time>2022-08-06T07:53:35Z</time>
      </trkpt>
      <trkpt lat="45.74901" lon="3.07868">
        <ele>464.9</ele>
        <time>2022-08-06T07:53:37Z</time>
      </trkpt>
      <trkpt lat="45.74893" lon="3.07863">
        <ele>465.6</ele>
        <time>2022-08-06T07:53:39Z</time>
      </trkpt>
      <trkpt lat="45.74883" lon="3.07858">
        <ele>466.2</ele>
        <time>2022-08-06T07:53:41Z</time>
      </trkpt>
      <trkpt lat="45.74875" lon="3.07852">
        <ele>466.5</ele>
        <time>2022-08-06T07:53:43Z</time>
      </trkpt>
      <trkpt lat="45.74867" lon="3.07843">
        <ele>466.8</ele>
        <time>2022-08-06T07:53:45Z</time>
      </trkpt>
      <trkpt lat="45.7486" lon="3.07835">
        <ele>467.1</ele>
        <time>2022-08-06T07:53:47Z</time>
      </trkpt>
      <trkpt lat="45.74854" lon="3.07825">
        <ele>467.4</ele>
        <time>2022-08-06T07:53:49Z</time>
      </trkpt>
      <trkpt lat="45.7485" lon="3.07815">
        <ele>467.6</ele>
        <time>2022-08-06T07:53:51Z</time>
      </trkpt>
      <trkpt lat="45.74847" lon="3.07804">
        <ele>467.9</ele>
        <time>2022-08-06T07:53:53Z</time>
      </trkpt>
      <trkpt lat="45.74843" lon="3.07792">
        <ele>468.2</ele>
        <time>2022-08-06T07:53:55Z</time>
      </trkpt>
      <trkpt lat="45.74841" lon="3.07779">
        <ele>468.6</ele>
        <time>2022-08-06T07:53:57Z</time>
      </trkpt>
      <trkpt lat="45.74839" lon="3.07767">
        <ele>468.9</ele>
        <time>2022-08-06T07:53:59Z</time>
      </trkpt>
      <trkpt lat="45.74838" lon="3.07755">
        <ele>469.3</ele>
        <time>2022-08-06T07:54:01Z</time>
      </trkpt>
      <trkpt lat="45.74836" lon="3.07743">
        <ele>469.7</ele>
        <time>2022-08-06T07:54:03Z</time>
      </trkpt>
      <trkpt lat="45.74834" lon="3.07731">
        <ele>470</ele>
        <time>2022-08-06T07:54:05Z</time>
      </trkpt>
      <trkpt lat="45.74832" lon="3.07719">
        <ele>470.4</ele>
        <time>2022-08-06T07:54:07Z</time>
      </trkpt>
      <trkpt lat="45.7483" lon="3.07708">
        <ele>470.8</ele>
        <time>2022-08-06T07:54:09Z</time>
      </trkpt>
      <trkpt lat="45.74827" lon="3.07696">
        <ele>471.1</ele>
        <time>2022-08-06T07:54:11Z</time>
      </trkpt>
      <trkpt lat="45.74826" lon="3.07684">
        <ele>471.5</ele>
        <time>2022-08-06T07:54:13Z</time>
      </trkpt>
      <trkpt lat="45.74823" lon="3.07671">
        <ele>472</ele>
        <time>2022-08-06T07:54:15Z</time>
      </trkpt>
      <trkpt lat="45.74821" lon="3.0766">
        <ele>472.4</ele>
        <time>2022-08-06T07:54:17Z</time>
      </trkpt>
      <trkpt lat="45.74819" lon="3.07648">
        <ele>472.8</ele>
        <time>2022-08-06T07:54:19Z</time>
      </trkpt>
      <trkpt lat="45.74817" lon="3.07637">
        <ele>473.2</ele>
        <time>2022-08-06T07:54:21Z</time>
      </trkpt>
      <trkpt lat="45.74815" lon="3.07626">
        <ele>473.6</ele>
        <time>2022-08-06T07:54:23Z</time>
      </trkpt>
      <trkpt lat="45.74813" lon="3.07614">
        <ele>474.1</ele>
        <time>2022-08-06T07:54:25Z</time>
      </trkpt>
      <trkpt lat="45.74811" lon="3.07602">
        <ele>474.5</ele>
        <time>2022-08-06T07:54:27Z</time>
      </trkpt>
      <trkpt lat="45.74809" lon="3.0759">
        <ele>475</ele>
        <time>2022-08-06T07:54:29Z</time>
      </trkpt>
      <trkpt lat="45.74808" lon="3.07578">
        <ele>475.3</ele>
        <time>2022-08-06T07:54:31Z</time>
      </trkpt>
      <trkpt lat="45.74805" lon="3.07567">
        <ele>475.4</ele>
        <time>2022-08-06T07:54:33Z</time>
      </trkpt>
      <trkpt lat="45.74804" lon="3.07555">
        <ele>475.7</ele>
        <time>2022-08-06T07:54:35Z</time>
      </trkpt>
      <trkpt lat="45.74801" lon="3.07543">
        <ele>476</ele>
        <time>2022-08-06T07:54:37Z</time>
      </trkpt>
      <trkpt lat="45.74799" lon="3.07532">
        <ele>476.4</ele>
        <time>2022-08-06T07:54:39Z</time>
      </trkpt>
      <trkpt lat="45.74798" lon="3.0752">
        <ele>476.7</ele>
        <time>2022-08-06T07:54:41Z</time>
      </trkpt>
      <trkpt lat="45.74796" lon="3.07509">
        <ele>477.1</ele>
        <time>2022-08-06T07:54:43Z</time>
      </trkpt>
      <trkpt lat="45.74794" lon="3.07496">
        <ele>477.5</ele>
        <time>2022-08-06T07:54:45Z</time>
      </trkpt>
      <trkpt lat="45.74792" lon="3.07484">
        <ele>477.9</ele>
        <time>2022-08-06T07:54:47Z</time>
      </trkpt>
      <trkpt lat="45.7479" lon="3.07472">
        <ele>478.3</ele>
        <time>2022-08-06T07:54:49Z</time>
      </trkpt>
      <trkpt lat="45.74788" lon="3.0746">
        <ele>478.7</ele>
        <time>2022-08-06T07:54:51Z</time>
      </trkpt>
      <trkpt lat="45.74786" lon="3.07448">
        <ele>479.2</ele>
        <time>2022-08-06T07:54:53Z</time>
      </trkpt>
      <trkpt lat="45.74783" lon="3.07436">
        <ele>479.6</ele>
        <time>2022-08-06T07:54:55Z</time>
      </trkpt>
      <trkpt lat="45.74781" lon="3.07424">
        <ele>480</ele>
        <time>2022-08-06T07:54:57Z</time>
      </trkpt>
      <trkpt lat="45.74779" lon="3.07411">
        <ele>480.4</ele>
        <time>2022-08-06T07:54:59Z</time>
      </trkpt>
      <trkpt lat="45.74777" lon="3.07398">
        <ele>480.9</ele>
        <time>2022-08-06T07:55:01Z</time>
      </trkpt>
      <trkpt lat="45.74775" lon="3.07386">
        <ele>481.3</ele>
        <time>2022-08-06T07:55:03Z</time>
      </trkpt>
      <trkpt lat="45.74773" lon="3.07374">
        <ele>481.7</ele>
        <time>2022-08-06T07:55:05Z</time>
      </trkpt>
      <trkpt lat="45.74771" lon="3.07362">
        <ele>482.1</ele>
        <time>2022-08-06T07:55:07Z</time>
      </trkpt>
      <trkpt lat="45.74768" lon="3.07351">
        <ele>482.5</ele>
        <time>2022-08-06T07:55:09Z</time>
      </trkpt>
      <trkpt lat="45.74766" lon="3.0734">
        <ele>482.9</ele>
        <time>2022-08-06T07:55:11Z</time>
      </trkpt>
      <trkpt lat="45.74765" lon="3.07329">
        <ele>483.2</ele>
        <time>2022-08-06T07:55:13Z</time>
      </trkpt>
      <trkpt lat="45.74762" lon="3.07317">
        <ele>483.6</ele>
        <time>2022-08-06T07:55:15Z</time>
      </trkpt>
      <trkpt lat="45.7476" lon="3.07305">
        <ele>484</ele>
        <time>2022-08-06T07:55:17Z</time>
      </trkpt>
      <trkpt lat="45.74758" lon="3.07292">
        <ele>484.5</ele>
        <time>2022-08-06T07:55:19Z</time>
      </trkpt>
      <trkpt lat="45.74756" lon="3.0728">
        <ele>484.9</ele>
        <time>2022-08-06T07:55:21Z</time>
      </trkpt>
      <trkpt lat="45.74754" lon="3.07269">
        <ele>485.3</ele>
        <time>2022-08-06T07:55:23Z</time>
      </trkpt>
      <trkpt lat="45.74751" lon="3.07258">
        <ele>485.7</ele>
        <time>2022-08-06T07:55:25Z</time>
      </trkpt>
      <trkpt lat="45.74749" lon="3.07246">
        <ele>486.1</ele>
        <time>2022-08-06T07:55:27Z</time>
      </trkpt>
      <trkpt lat="45.74748" lon="3.07235">
        <ele>486.4</ele>
        <time>2022-08-06T07:55:29Z</time>
      </trkpt>
      <trkpt lat="45.74747" lon="3.07227">
        <ele>486.7</ele>
        <time>2022-08-06T07:55:31Z</time>
      </trkpt>
      <trkpt lat="45.74745" lon="3.07217">
        <ele>487</ele>
        <time>2022-08-06T07:55:33Z</time>
      </trkpt>
      <trkpt lat="45.74744" lon="3.07206">
        <ele>487.4</ele>
        <time>2022-08-06T07:55:35Z</time>
      </trkpt>
      <trkpt lat="45.74744" lon="3.07195">
        <ele>487.8</ele>
        <time>2022-08-06T07:55:37Z</time>
      </trkpt>
      <trkpt lat="45.74744" lon="3.07183">
        <ele>488.2</ele>
        <time>2022-08-06T07:55:39Z</time>
      </trkpt>
      <trkpt lat="45.74743" lon="3.07172">
        <ele>488.5</ele>
        <time>2022-08-06T07:55:41Z</time>
      </trkpt>
      <trkpt lat="45.74743" lon="3.07161">
        <ele>488.9</ele>
        <time>2022-08-06T07:55:43Z</time>
      </trkpt>
      <trkpt lat="45.74743" lon="3.07151">
        <ele>489.3</ele>
        <time>2022-08-06T07:55:45Z</time>
      </trkpt>
      <trkpt lat="45.74744" lon="3.07142">
        <ele>489.6</ele>
        <time>2022-08-06T07:55:47Z</time>
      </trkpt>
      <trkpt lat="45.74743" lon="3.07136">
        <ele>489.8</ele>
        <time>2022-08-06T07:55:49Z</time>
      </trkpt>
      <trkpt lat="45.74743" lon="3.07136">
        <ele>489.8</ele>
        <time>2022-08-06T07:55:51Z</time>
      </trkpt>
      <trkpt lat="45.74743" lon="3.07136">
        <ele>489.8</ele>
        <time>2022-08-06T07:55:53Z</time>
      </trkpt>
      <trkpt lat="45.74743" lon="3.07136">
        <ele>489.8</ele>
        <time>2022-08-06T07:55:55Z</time>
      </trkpt>
      <trkpt lat="45.74743" lon="3.07136">
        <ele>489.8</ele>
        <time>2022-08-06T07:55:57Z</time>
      </trkpt>
      <trkpt lat="45.74743" lon="3.07136">
        <ele>489.8</ele>
        <time>2022-08-06T07:55:59Z</time>
      </trkpt>
      <trkpt lat="45.74743" lon="3.07136">
        <ele>489.8</ele>
        <time>2022-08-06T07:56:01Z</time>
      </trkpt>
      <trkpt lat="45.74743" lon="3.07128">
        <ele>490</ele>
        <time>2022-08-06T07:56:29Z</time>
      </trkpt>
      <trkpt lat="45.74744" lon="3.0712">
        <ele>490.3</ele>
        <time>2022-08-06T07:56:31Z</time>
      </trkpt>
      <trkpt lat="45.74743" lon="3.07111">
        <ele>490.7</ele>
        <time>2022-08-06T07:56:33Z</time>
      </trkpt>
      <trkpt lat="45.74743" lon="3.07102">
        <ele>491</ele>
        <time>2022-08-06T07:56:35Z</time>
      </trkpt>
      <trkpt lat="45.74743" lon="3.07092">
        <ele>491.4</ele>
        <time>2022-08-06T07:56:37Z</time>
      </trkpt>
      <trkpt lat="45.74742" lon="3.07081">
        <ele>491.9</ele>
        <time>2022-08-06T07:56:39Z</time>
      </trkpt>
      <trkpt lat="45.74739" lon="3.0707">
        <ele>492.1</ele>
        <time>2022-08-06T07:56:41Z</time>
      </trkpt>
      <trkpt lat="45.74734" lon="3.07059">
        <ele>492.4</ele>
        <time>2022-08-06T07:56:43Z</time>
      </trkpt>
      <trkpt lat="45.74728" lon="3.07049">
        <ele>492.5</ele>
        <time>2022-08-06T07:56:45Z</time>
      </trkpt>
      <trkpt lat="45.74722" lon="3.0704">
        <ele>492.8</ele>
        <time>2022-08-06T07:56:47Z</time>
      </trkpt>
      <trkpt lat="45.74716" lon="3.07032">
        <ele>493.1</ele>
        <time>2022-08-06T07:56:49Z</time>
      </trkpt>
      <trkpt lat="45.74709" lon="3.07025">
        <ele>493.3</ele>
        <time>2022-08-06T07:56:51Z</time>
      </trkpt>
      <trkpt lat="45.747" lon="3.0702">
        <ele>493.6</ele>
        <time>2022-08-06T07:56:53Z</time>
      </trkpt>
      <trkpt lat="45.74692" lon="3.07014">
        <ele>493.9</ele>
        <time>2022-08-06T07:56:55Z</time>
      </trkpt>
      <trkpt lat="45.74683" lon="3.07009">
        <ele>494.2</ele>
        <time>2022-08-06T07:56:57Z</time>
      </trkpt>
      <trkpt lat="45.74674" lon="3.07005">
        <ele>494.5</ele>
        <time>2022-08-06T07:56:59Z</time>
      </trkpt>
      <trkpt lat="45.74665" lon="3.07001">
        <ele>494.8</ele>
        <time>2022-08-06T07:57:01Z</time>
      </trkpt>
      <trkpt lat="45.74655" lon="3.06997">
        <ele>495.1</ele>
        <time>2022-08-06T07:57:03Z</time>
      </trkpt>
      <trkpt lat="45.74647" lon="3.06993">
        <ele>495.4</ele>
        <time>2022-08-06T07:57:05Z</time>
      </trkpt>
      <trkpt lat="45.74638" lon="3.0699">
        <ele>495.6</ele>
        <time>2022-08-06T07:57:07Z</time>
      </trkpt>
      <trkpt lat="45.74628" lon="3.06987">
        <ele>495.7</ele>
        <time>2022-08-06T07:57:09Z</time>
      </trkpt>
      <trkpt lat="45.74619" lon="3.06986">
        <ele>496.1</ele>
        <time>2022-08-06T07:57:11Z</time>
      </trkpt>
      <trkpt lat="45.7461" lon="3.06983">
        <ele>496.5</ele>
        <time>2022-08-06T07:57:13Z</time>
      </trkpt>
      <trkpt lat="45.74601" lon="3.06981">
        <ele>496.9</ele>
        <time>2022-08-06T07:57:15Z</time>
      </trkpt>
      <trkpt lat="45.74593" lon="3.0698">
        <ele>497.2</ele>
        <time>2022-08-06T07:57:17Z</time>
      </trkpt>
      <trkpt lat="45.74583" lon="3.06978">
        <ele>497.6</ele>
        <time>2022-08-06T07:57:19Z</time>
      </trkpt>
      <trkpt lat="45.74575" lon="3.06976">
        <ele>497.9</ele>
        <time>2022-08-06T07:57:21Z</time>
      </trkpt>
      <trkpt lat="45.74565" lon="3.06978">
        <ele>498.3</ele>
        <time>2022-08-06T07:57:23Z</time>
      </trkpt>
      <trkpt lat="45.74556" lon="3.06978">
        <ele>498.7</ele>
        <time>2022-08-06T07:57:25Z</time>
      </trkpt>
      <trkpt lat="45.74547" lon="3.06978">
        <ele>499</ele>
        <time>2022-08-06T07:57:27Z</time>
      </trkpt>
      <trkpt lat="45.74538" lon="3.06978">
        <ele>499.3</ele>
        <time>2022-08-06T07:57:29Z</time>
      </trkpt>
      <trkpt lat="45.74528" lon="3.06978">
        <ele>499.6</ele>
        <time>2022-08-06T07:57:31Z</time>
      </trkpt>
      <trkpt lat="45.74519" lon="3.0698">
        <ele>499.9</ele>
        <time>2022-08-06T07:57:33Z</time>
      </trkpt>
      <trkpt lat="45.7451" lon="3.06983">
        <ele>500.2</ele>
        <time>2022-08-06T07:57:35Z</time>
      </trkpt>
      <trkpt lat="45.74501" lon="3.06984">
        <ele>500.5</ele>
        <time>2022-08-06T07:57:37Z</time>
      </trkpt>
      <trkpt lat="45.74492" lon="3.06985">
        <ele>500.8</ele>
        <time>2022-08-06T07:57:39Z</time>
      </trkpt>
      <trkpt lat="45.74483" lon="3.06985">
        <ele>501.1</ele>
        <time>2022-08-06T07:57:41Z</time>
      </trkpt>
      <trkpt lat="45.74474" lon="3.06986">
        <ele>501.3</ele>
        <time>2022-08-06T07:57:43Z</time>
      </trkpt>
      <trkpt lat="45.74465" lon="3.06989">
        <ele>501.6</ele>
        <time>2022-08-06T07:57:45Z</time>
      </trkpt>
      <trkpt lat="45.74456" lon="3.06991">
        <ele>501.9</ele>
        <time>2022-08-06T07:57:47Z</time>
      </trkpt>
      <trkpt lat="45.74447" lon="3.06993">
        <ele>502.3</ele>
        <time>2022-08-06T07:57:49Z</time>
      </trkpt>
      <trkpt lat="45.74437" lon="3.06994">
        <ele>502.7</ele>
        <time>2022-08-06T07:57:51Z</time>
      </trkpt>
      <trkpt lat="45.74427" lon="3.06995">
        <ele>503.1</ele>
        <time>2022-08-06T07:57:53Z</time>
      </trkpt>
      <trkpt lat="45.74418" lon="3.06997">
        <ele>503.4</ele>
        <time>2022-08-06T07:57:55Z</time>
      </trkpt>
      <trkpt lat="45.74408" lon="3.06997">
        <ele>503.8</ele>
        <time>2022-08-06T07:57:57Z</time>
      </trkpt>
      <trkpt lat="45.74399" lon="3.06998">
        <ele>504.2</ele>
        <time>2022-08-06T07:57:59Z</time>
      </trkpt>
      <trkpt lat="45.7439" lon="3.06999">
        <ele>504.5</ele>
        <time>2022-08-06T07:58:01Z</time>
      </trkpt>
      <trkpt lat="45.74381" lon="3.07">
        <ele>504.9</ele>
        <time>2022-08-06T07:58:03Z</time>
      </trkpt>
      <trkpt lat="45.74372" lon="3.07002">
        <ele>505.3</ele>
        <time>2022-08-06T07:58:05Z</time>
      </trkpt>
      <trkpt lat="45.74363" lon="3.07004">
        <ele>505.6</ele>
        <time>2022-08-06T07:58:07Z</time>
      </trkpt>
      <trkpt lat="45.74354" lon="3.07004">
        <ele>505.9</ele>
        <time>2022-08-06T07:58:09Z</time>
      </trkpt>
      <trkpt lat="45.74346" lon="3.07005">
        <ele>506.3</ele>
        <time>2022-08-06T07:58:11Z</time>
      </trkpt>
      <trkpt lat="45.74337" lon="3.07006">
        <ele>506.6</ele>
        <time>2022-08-06T07:58:13Z</time>
      </trkpt>
      <trkpt lat="45.74327" lon="3.07008">
        <ele>507</ele>
        <time>2022-08-06T07:58:15Z</time>
      </trkpt>
      <trkpt lat="45.74318" lon="3.0701">
        <ele>507.4</ele>
        <time>2022-08-06T07:58:17Z</time>
      </trkpt>
      <trkpt lat="45.74309" lon="3.07011">
        <ele>507.7</ele>
        <time>2022-08-06T07:58:19Z</time>
      </trkpt>
      <trkpt lat="45.743" lon="3.07011">
        <ele>508.1</ele>
        <time>2022-08-06T07:58:21Z</time>
      </trkpt>
      <trkpt lat="45.74291" lon="3.07012">
        <ele>508.5</ele>
        <time>2022-08-06T07:58:23Z</time>
      </trkpt>
      <trkpt lat="45.74282" lon="3.07013">
        <ele>508.8</ele>
        <time>2022-08-06T07:58:25Z</time>
      </trkpt>
      <trkpt lat="45.74273" lon="3.07014">
        <ele>509.2</ele>
        <time>2022-08-06T07:58:27Z</time>
      </trkpt>
      <trkpt lat="45.74263" lon="3.07014">
        <ele>509.6</ele>
        <time>2022-08-06T07:58:29Z</time>
      </trkpt>
      <trkpt lat="45.74254" lon="3.07013">
        <ele>510</ele>
        <time>2022-08-06T07:58:31Z</time>
      </trkpt>
      <trkpt lat="45.74245" lon="3.07013">
        <ele>510.5</ele>
        <time>2022-08-06T07:58:33Z</time>
      </trkpt>
      <trkpt lat="45.74236" lon="3.07012">
        <ele>510.9</ele>
        <time>2022-08-06T07:58:35Z</time>
      </trkpt>
      <trkpt lat="45.74227" lon="3.07011">
        <ele>511.3</ele>
        <time>2022-08-06T07:58:37Z</time>
      </trkpt>
      <trkpt lat="45.74219" lon="3.07008">
        <ele>511.7</ele>
        <time>2022-08-06T07:58:39Z</time>
      </trkpt>
      <trkpt lat="45.7421" lon="3.07007">
        <ele>512.1</ele>
        <time>2022-08-06T07:58:41Z</time>
      </trkpt>
      <trkpt lat="45.74202" lon="3.07006">
        <ele>512.5</ele>
        <time>2022-08-06T07:58:43Z</time>
      </trkpt>
      <trkpt lat="45.74194" lon="3.07005">
        <ele>512.9</ele>
        <time>2022-08-06T07:58:45Z</time>
      </trkpt>
      <trkpt lat="45.74186" lon="3.07003">
        <ele>513.2</ele>
        <time>2022-08-06T07:58:47Z</time>
      </trkpt>
      <trkpt lat="45.74178" lon="3.07">
        <ele>513.6</ele>
        <time>2022-08-06T07:58:49Z</time>
      </trkpt>
      <trkpt lat="45.74169" lon="3.06997">
        <ele>514</ele>
        <time>2022-08-06T07:58:51Z</time>
      </trkpt>
      <trkpt lat="45.74161" lon="3.06993">
        <ele>514.4</ele>
        <time>2022-08-06T07:58:53Z</time>
      </trkpt>
      <trkpt lat="45.74153" lon="3.06989">
        <ele>514.8</ele>
        <time>2022-08-06T07:58:55Z</time>
      </trkpt>
      <trkpt lat="45.74145" lon="3.06985">
        <ele>515.1</ele>
        <time>2022-08-06T07:58:57Z</time>
      </trkpt>
      <trkpt lat="45.74137" lon="3.06982">
        <ele>515.5</ele>
        <time>2022-08-06T07:58:59Z</time>
      </trkpt>
      <trkpt lat="45.7413" lon="3.0698">
        <ele>515.8</ele>
        <time>2022-08-06T07:59:01Z</time>
      </trkpt>
      <trkpt lat="45.74121" lon="3.06976">
        <ele>516.1</ele>
        <time>2022-08-06T07:59:03Z</time>
      </trkpt>
      <trkpt lat="45.74113" lon="3.06972">
        <ele>516.5</ele>
        <time>2022-08-06T07:59:05Z</time>
      </trkpt>
      <trkpt lat="45.74105" lon="3.06969">
        <ele>516.9</ele>
        <time>2022-08-06T07:59:07Z</time>
      </trkpt>
      <trkpt lat="45.74097" lon="3.06967">
        <ele>517.3</ele>
        <time>2022-08-06T07:59:09Z</time>
      </trkpt>
      <trkpt lat="45.74089" lon="3.06965">
        <ele>517.7</ele>
        <time>2022-08-06T07:59:11Z</time>
      </trkpt>
      <trkpt lat="45.74081" lon="3.06961">
        <ele>518.1</ele>
        <time>2022-08-06T07:59:13Z</time>
      </trkpt>
      <trkpt lat="45.74073" lon="3.06957">
        <ele>518.6</ele>
        <time>2022-08-06T07:59:15Z</time>
      </trkpt>
      <trkpt lat="45.74065" lon="3.06955">
        <ele>518.9</ele>
        <time>2022-08-06T07:59:17Z</time>
      </trkpt>
      <trkpt lat="45.74058" lon="3.06951">
        <ele>519.3</ele>
        <time>2022-08-06T07:59:19Z</time>
      </trkpt>
      <trkpt lat="45.7405" lon="3.06947">
        <ele>519.7</ele>
        <time>2022-08-06T07:59:21Z</time>
      </trkpt>
      <trkpt lat="45.74041" lon="3.06943">
        <ele>520.2</ele>
        <time>2022-08-06T07:59:23Z</time>
      </trkpt>
      <trkpt lat="45.74033" lon="3.0694">
        <ele>520.6</ele>
        <time>2022-08-06T07:59:25Z</time>
      </trkpt>
      <trkpt lat="45.74025" lon="3.06938">
        <ele>521</ele>
        <time>2022-08-06T07:59:27Z</time>
      </trkpt>
      <trkpt lat="45.74017" lon="3.06934">
        <ele>521.4</ele>
        <time>2022-08-06T07:59:29Z</time>
      </trkpt>
      <trkpt lat="45.74008" lon="3.0693">
        <ele>521.9</ele>
        <time>2022-08-06T07:59:31Z</time>
      </trkpt>
      <trkpt lat="45.74" lon="3.06926">
        <ele>522.3</ele>
        <time>2022-08-06T07:59:33Z</time>
      </trkpt>
      <trkpt lat="45.73992" lon="3.06925">
        <ele>522.8</ele>
        <time>2022-08-06T07:59:35Z</time>
      </trkpt>
      <trkpt lat="45.73984" lon="3.06921">
        <ele>523.2</ele>
        <time>2022-08-06T07:59:37Z</time>
      </trkpt>
      <trkpt lat="45.73976" lon="3.06917">
        <ele>523.6</ele>
        <time>2022-08-06T07:59:39Z</time>
      </trkpt>
      <trkpt lat="45.73969" lon="3.06914">
        <ele>524</ele>
        <time>2022-08-06T07:59:41Z</time>
      </trkpt>
      <trkpt lat="45.7396" lon="3.0691">
        <ele>524.5</ele>
        <time>2022-08-06T07:59:43Z</time>
      </trkpt>
      <trkpt lat="45.73953" lon="3.06908">
        <ele>525</ele>
        <time>2022-08-06T07:59:45Z</time>
      </trkpt>
      <trkpt lat="45.73945" lon="3.06905">
        <ele>525.4</ele>
        <time>2022-08-06T07:59:47Z</time>
      </trkpt>
      <trkpt lat="45.73939" lon="3.06902">
        <ele>525.7</ele>
        <time>2022-08-06T07:59:49Z</time>
      </trkpt>
      <trkpt lat="45.73931" lon="3.06898">
        <ele>526.1</ele>
        <time>2022-08-06T07:59:51Z</time>
      </trkpt>
      <trkpt lat="45.73923" lon="3.06895">
        <ele>526.4</ele>
        <time>2022-08-06T07:59:53Z</time>
      </trkpt>
      <trkpt lat="45.73915" lon="3.0689">
        <ele>526.8</ele>
        <time>2022-08-06T07:59:55Z</time>
      </trkpt>
      <trkpt lat="45.73908" lon="3.06886">
        <ele>527.1</ele>
        <time>2022-08-06T07:59:57Z</time>
      </trkpt>
      <trkpt lat="45.73902" lon="3.06882">
        <ele>527.4</ele>
        <time>2022-08-06T07:59:59Z</time>
      </trkpt>
      <trkpt lat="45.73895" lon="3.06879">
        <ele>527.8</ele>
        <time>2022-08-06T08:00:01Z</time>
      </trkpt>
      <trkpt lat="45.73887" lon="3.06875">
        <ele>528.2</ele>
        <time>2022-08-06T08:00:03Z</time>
      </trkpt>
      <trkpt lat="45.7388" lon="3.0687">
        <ele>528.6</ele>
        <time>2022-08-06T08:00:05Z</time>
      </trkpt>
      <trkpt lat="45.73873" lon="3.06865">
        <ele>529</ele>
        <time>2022-08-06T08:00:07Z</time>
      </trkpt>
      <trkpt lat="45.73866" lon="3.0686">
        <ele>529.3</ele>
        <time>2022-08-06T08:00:09Z</time>
      </trkpt>
      <trkpt lat="45.73859" lon="3.06856">
        <ele>529.7</ele>
        <time>2022-08-06T08:00:11Z</time>
      </trkpt>
      <trkpt lat="45.73852" lon="3.0685">
        <ele>530</ele>
        <time>2022-08-06T08:00:13Z</time>
      </trkpt>
      <trkpt lat="45.73845" lon="3.06845">
        <ele>530.4</ele>
        <time>2022-08-06T08:00:15Z</time>
      </trkpt>
      <trkpt lat="45.73839" lon="3.06839">
        <ele>530.8</ele>
        <time>2022-08-06T08:00:17Z</time>
      </trkpt>
      <trkpt lat="45.73832" lon="3.06833">
        <ele>531.2</ele>
        <time>2022-08-06T08:00:19Z</time>
      </trkpt>
      <trkpt lat="45.73825" lon="3.06828">
        <ele>531.6</ele>
        <time>2022-08-06T08:00:21Z</time>
      </trkpt>
      <trkpt lat="45.73818" lon="3.06822">
        <ele>532</ele>
        <time>2022-08-06T08:00:23Z</time>
      </trkpt>
      <trkpt lat="45.73811" lon="3.06817">
        <ele>532.4</ele>
        <time>2022-08-06T08:00:25Z</time>
      </trkpt>
      <trkpt lat="45.73805" lon="3.06812">
        <ele>532.8</ele>
        <time>2022-08-06T08:00:27Z</time>
      </trkpt>
      <trkpt lat="45.73798" lon="3.06806">
        <ele>533.1</ele>
        <time>2022-08-06T08:00:29Z</time>
      </trkpt>
      <trkpt lat="45.73791" lon="3.06801">
        <ele>533.4</ele>
        <time>2022-08-06T08:00:31Z</time>
      </trkpt>
      <trkpt lat="45.73785" lon="3.06796">
        <ele>533.8</ele>
        <time>2022-08-06T08:00:33Z</time>
      </trkpt>
      <trkpt lat="45.73778" lon="3.0679">
        <ele>534.1</ele>
        <time>2022-08-06T08:00:35Z</time>
      </trkpt>
      <trkpt lat="45.73772" lon="3.06785">
        <ele>534.5</ele>
        <time>2022-08-06T08:00:37Z</time>
      </trkpt>
      <trkpt lat="45.73765" lon="3.06779">
        <ele>534.9</ele>
        <time>2022-08-06T08:00:39Z</time>
      </trkpt>
      <trkpt lat="45.73758" lon="3.06773">
        <ele>535.3</ele>
        <time>2022-08-06T08:00:41Z</time>
      </trkpt>
      <trkpt lat="45.73752" lon="3.06767">
        <ele>535.7</ele>
        <time>2022-08-06T08:00:43Z</time>
      </trkpt>
      <trkpt lat="45.73745" lon="3.0676">
        <ele>536.1</ele>
        <time>2022-08-06T08:00:45Z</time>
      </trkpt>
      <trkpt lat="45.73737" lon="3.06755">
        <ele>536.5</ele>
        <time>2022-08-06T08:00:47Z</time>
      </trkpt>
      <trkpt lat="45.73731" lon="3.06749">
        <ele>536.9</ele>
        <time>2022-08-06T08:00:49Z</time>
      </trkpt>
      <trkpt lat="45.73724" lon="3.06743">
        <ele>537.2</ele>
        <time>2022-08-06T08:00:51Z</time>
      </trkpt>
      <trkpt lat="45.73718" lon="3.06736">
        <ele>537.6</ele>
        <time>2022-08-06T08:00:53Z</time>
      </trkpt>
      <trkpt lat="45.73712" lon="3.06729">
        <ele>537.9</ele>
        <time>2022-08-06T08:00:55Z</time>
      </trkpt>
      <trkpt lat="45.73707" lon="3.0672">
        <ele>538.3</ele>
        <time>2022-08-06T08:00:57Z</time>
      </trkpt>
      <trkpt lat="45.73701" lon="3.06713">
        <ele>538.6</ele>
        <time>2022-08-06T08:00:59Z</time>
      </trkpt>
      <trkpt lat="45.73695" lon="3.06705">
        <ele>539</ele>
        <time>2022-08-06T08:01:01Z</time>
      </trkpt>
      <trkpt lat="45.7369" lon="3.06695">
        <ele>539.4</ele>
        <time>2022-08-06T08:01:03Z</time>
      </trkpt>
      <trkpt lat="45.73685" lon="3.06686">
        <ele>539.8</ele>
        <time>2022-08-06T08:01:05Z</time>
      </trkpt>
      <trkpt lat="45.7368" lon="3.06677">
        <ele>540.2</ele>
        <time>2022-08-06T08:01:07Z</time>
      </trkpt>
      <trkpt lat="45.73675" lon="3.06667">
        <ele>540.6</ele>
        <time>2022-08-06T08:01:09Z</time>
      </trkpt>
      <trkpt lat="45.73671" lon="3.06657">
        <ele>541</ele>
        <time>2022-08-06T08:01:11Z</time>
      </trkpt>
      <trkpt lat="45.73667" lon="3.06647">
        <ele>541.4</ele>
        <time>2022-08-06T08:01:13Z</time>
      </trkpt>
      <trkpt lat="45.73663" lon="3.06637">
        <ele>541.7</ele>
        <time>2022-08-06T08:01:15Z</time>
      </trkpt>
      <trkpt lat="45.73659" lon="3.06627">
        <ele>542.1</ele>
        <time>2022-08-06T08:01:17Z</time>
      </trkpt>
      <trkpt lat="45.73656" lon="3.06618">
        <ele>542.4</ele>
        <time>2022-08-06T08:01:19Z</time>
      </trkpt>
      <trkpt lat="45.73652" lon="3.06608">
        <ele>542.8</ele>
        <time>2022-08-06T08:01:21Z</time>
      </trkpt>
      <trkpt lat="45.73649" lon="3.06598">
        <ele>543.1</ele>
        <time>2022-08-06T08:01:23Z</time>
      </trkpt>
      <trkpt lat="45.73647" lon="3.06587">
        <ele>543.4</ele>
        <time>2022-08-06T08:01:25Z</time>
      </trkpt>
      <trkpt lat="45.73643" lon="3.06577">
        <ele>543.8</ele>
        <time>2022-08-06T08:01:27Z</time>
      </trkpt>
      <trkpt lat="45.73639" lon="3.06566">
        <ele>544.1</ele>
        <time>2022-08-06T08:01:29Z</time>
      </trkpt>
      <trkpt lat="45.73636" lon="3.06555">
        <ele>544.5</ele>
        <time>2022-08-06T08:01:31Z</time>
      </trkpt>
      <trkpt lat="45.73633" lon="3.06545">
        <ele>544.9</ele>
        <time>2022-08-06T08:01:33Z</time>
      </trkpt>
      <trkpt lat="45.73629" lon="3.06535">
        <ele>545.2</ele>
        <time>2022-08-06T08:01:35Z</time>
      </trkpt>
      <trkpt lat="45.73626" lon="3.06524">
        <ele>545.6</ele>
        <time>2022-08-06T08:01:37Z</time>
      </trkpt>
      <trkpt lat="45.73623" lon="3.06514">
        <ele>545.9</ele>
        <time>2022-08-06T08:01:39Z</time>
      </trkpt>
      <trkpt lat="45.73618" lon="3.06504">
        <ele>546.3</ele>
        <time>2022-08-06T08:01:41Z</time>
      </trkpt>
      <trkpt lat="45.73615" lon="3.06494">
        <ele>546.6</ele>
        <time>2022-08-06T08:01:43Z</time>
      </trkpt>
      <trkpt lat="45.73609" lon="3.06486">
        <ele>547</ele>
        <time>2022-08-06T08:01:45Z</time>
      </trkpt>
      <trkpt lat="45.73603" lon="3.06478">
        <ele>547.4</ele>
        <time>2022-08-06T08:01:47Z</time>
      </trkpt>
      <trkpt lat="45.73597" lon="3.0647">
        <ele>547.8</ele>
        <time>2022-08-06T08:01:49Z</time>
      </trkpt>
      <trkpt lat="45.73591" lon="3.06463">
        <ele>548.2</ele>
        <time>2022-08-06T08:01:51Z</time>
      </trkpt>
      <trkpt lat="45.73583" lon="3.06456">
        <ele>548.6</ele>
        <time>2022-08-06T08:01:53Z</time>
      </trkpt>
      <trkpt lat="45.73576" lon="3.06451">
        <ele>549</ele>
        <time>2022-08-06T08:01:55Z</time>
      </trkpt>
      <trkpt lat="45.73568" lon="3.06446">
        <ele>549.4</ele>
        <time>2022-08-06T08:01:57Z</time>
      </trkpt>
      <trkpt lat="45.73561" lon="3.06441">
        <ele>549.9</ele>
        <time>2022-08-06T08:01:59Z</time>
      </trkpt>
      <trkpt lat="45.73553" lon="3.06436">
        <ele>550.2</ele>
        <time>2022-08-06T08:02:01Z</time>
      </trkpt>
      <trkpt lat="45.73546" lon="3.06433">
        <ele>550.6</ele>
        <time>2022-08-06T08:02:03Z</time>
      </trkpt>
      <trkpt lat="45.73538" lon="3.06429">
        <ele>551</ele>
        <time>2022-08-06T08:02:05Z</time>
      </trkpt>
      <trkpt lat="45.73529" lon="3.06427">
        <ele>551.4</ele>
        <time>2022-08-06T08:02:07Z</time>
      </trkpt>
      <trkpt lat="45.73522" lon="3.06425">
        <ele>551.8</ele>
        <time>2022-08-06T08:02:09Z</time>
      </trkpt>
      <trkpt lat="45.73513" lon="3.06422">
        <ele>552.2</ele>
        <time>2022-08-06T08:02:11Z</time>
      </trkpt>
      <trkpt lat="45.73505" lon="3.0642">
        <ele>552.6</ele>
        <time>2022-08-06T08:02:13Z</time>
      </trkpt>
      <trkpt lat="45.73497" lon="3.06418">
        <ele>553.1</ele>
        <time>2022-08-06T08:02:15Z</time>
      </trkpt>
      <trkpt lat="45.73488" lon="3.06416">
        <ele>553.5</ele>
        <time>2022-08-06T08:02:17Z</time>
      </trkpt>
      <trkpt lat="45.7348" lon="3.06414">
        <ele>553.9</ele>
        <time>2022-08-06T08:02:19Z</time>
      </trkpt>
      <trkpt lat="45.73472" lon="3.06413">
        <ele>554.3</ele>
        <time>2022-08-06T08:02:21Z</time>
      </trkpt>
      <trkpt lat="45.73464" lon="3.06412">
        <ele>554.7</ele>
        <time>2022-08-06T08:02:23Z</time>
      </trkpt>
      <trkpt lat="45.73457" lon="3.06411">
        <ele>555.1</ele>
        <time>2022-08-06T08:02:25Z</time>
      </trkpt>
      <trkpt lat="45.73449" lon="3.06409">
        <ele>555.5</ele>
        <time>2022-08-06T08:02:27Z</time>
      </trkpt>
      <trkpt lat="45.73442" lon="3.06407">
        <ele>555.9</ele>
        <time>2022-08-06T08:02:29Z</time>
      </trkpt>
      <trkpt lat="45.73435" lon="3.06406">
        <ele>556.3</ele>
        <time>2022-08-06T08:02:31Z</time>
      </trkpt>
      <trkpt lat="45.73427" lon="3.06404">
        <ele>556.7</ele>
        <time>2022-08-06T08:02:33Z</time>
      </trkpt>
      <trkpt lat="45.73421" lon="3.06401">
        <ele>557.2</ele>
        <time>2022-08-06T08:02:35Z</time>
      </trkpt>
      <trkpt lat="45.73414" lon="3.064">
        <ele>557.6</ele>
        <time>2022-08-06T08:02:37Z</time>
      </trkpt>
      <trkpt lat="45.73407" lon="3.06399">
        <ele>557.9</ele>
        <time>2022-08-06T08:02:39Z</time>
      </trkpt>
      <trkpt lat="45.73403" lon="3.06398">
        <ele>558.2</ele>
        <time>2022-08-06T08:02:41Z</time>
      </trkpt>
      <trkpt lat="45.73401" lon="3.06398">
        <ele>558.3</ele>
        <time>2022-08-06T08:02:43Z</time>
      </trkpt>
      <trkpt lat="45.73401" lon="3.06398">
        <ele>558.3</ele>
        <time>2022-08-06T08:02:45Z</time>
      </trkpt>
      <trkpt lat="45.73401" lon="3.06398">
        <ele>558.3</ele>
        <time>2022-08-06T08:02:47Z</time>
      </trkpt>
      <trkpt lat="45.73401" lon="3.06398">
        <ele>558.3</ele>
        <time>2022-08-06T08:02:49Z</time>
      </trkpt>
      <trkpt lat="45.73401" lon="3.06398">
        <ele>558.3</ele>
        <time>2022-08-06T08:02:51Z</time>
      </trkpt>
      <trkpt lat="45.73401" lon="3.06398">
        <ele>558.3</ele>
        <time>2022-08-06T08:02:53Z</time>
      </trkpt>
      <trkpt lat="45.73397" lon="3.06396">
        <ele>558.6</ele>
        <time>2022-08-06T08:03:07Z</time>
      </trkpt>
      <trkpt lat="45.73391" lon="3.06395">
        <ele>558.8</ele>
        <time>2022-08-06T08:03:09Z</time>
      </trkpt>
      <trkpt lat="45.73383" lon="3.06393">
        <ele>559.1</ele>
        <time>2022-08-06T08:03:11Z</time>
      </trkpt>
      <trkpt lat="45.73376" lon="3.06393">
        <ele>559.4</ele>
        <time>2022-08-06T08:03:13Z</time>
      </trkpt>
      <trkpt lat="45.73368" lon="3.06391">
        <ele>559.5</ele>
        <time>2022-08-06T08:03:15Z</time>
      </trkpt>
      <trkpt lat="45.73359" lon="3.0639">
        <ele>559.6</ele>
        <time>2022-08-06T08:03:17Z</time>
      </trkpt>
      <trkpt lat="45.73351" lon="3.06388">
        <ele>559.8</ele>
        <time>2022-08-06T08:03:19Z</time>
      </trkpt>
      <trkpt lat="45.73344" lon="3.06386">
        <ele>560</ele>
        <time>2022-08-06T08:03:21Z</time>
      </trkpt>
      <trkpt lat="45.73336" lon="3.06385">
        <ele>560.3</ele>
        <time>2022-08-06T08:03:23Z</time>
      </trkpt>
      <trkpt lat="45.73329" lon="3.06384">
        <ele>560.7</ele>
        <time>2022-08-06T08:03:25Z</time>
      </trkpt>
      <trkpt lat="45.73321" lon="3.06382">
        <ele>561.1</ele>
        <time>2022-08-06T08:03:27Z</time>
      </trkpt>
      <trkpt lat="45.73312" lon="3.0638">
        <ele>561.5</ele>
        <time>2022-08-06T08:03:29Z</time>
      </trkpt>
      <trkpt lat="45.73305" lon="3.06379">
        <ele>561.9</ele>
        <time>2022-08-06T08:03:31Z</time>
      </trkpt>
      <trkpt lat="45.73296" lon="3.06378">
        <ele>562.3</ele>
        <time>2022-08-06T08:03:33Z</time>
      </trkpt>
      <trkpt lat="45.73288" lon="3.06375">
        <ele>562.7</ele>
        <time>2022-08-06T08:03:35Z</time>
      </trkpt>
      <trkpt lat="45.7328" lon="3.06373">
        <ele>563.2</ele>
        <time>2022-08-06T08:03:37Z</time>
      </trkpt>
      <trkpt lat="45.73273" lon="3.06372">
        <ele>563.5</ele>
        <time>2022-08-06T08:03:39Z</time>
      </trkpt>
      <trkpt lat="45.73265" lon="3.0637">
        <ele>564</ele>
        <time>2022-08-06T08:03:41Z</time>
      </trkpt>
      <trkpt lat="45.73257" lon="3.06367">
        <ele>564.4</ele>
        <time>2022-08-06T08:03:43Z</time>
      </trkpt>
      <trkpt lat="45.7325" lon="3.06366">
        <ele>564.5</ele>
        <time>2022-08-06T08:03:45Z</time>
      </trkpt>
      <trkpt lat="45.73242" lon="3.06366">
        <ele>564.6</ele>
        <time>2022-08-06T08:03:47Z</time>
      </trkpt>
      <trkpt lat="45.73234" lon="3.06365">
        <ele>564.7</ele>
        <time>2022-08-06T08:03:49Z</time>
      </trkpt>
      <trkpt lat="45.73226" lon="3.06364">
        <ele>564.9</ele>
        <time>2022-08-06T08:03:51Z</time>
      </trkpt>
      <trkpt lat="45.73218" lon="3.06363">
        <ele>565.3</ele>
        <time>2022-08-06T08:03:53Z</time>
      </trkpt>
      <trkpt lat="45.7321" lon="3.06361">
        <ele>565.7</ele>
        <time>2022-08-06T08:03:55Z</time>
      </trkpt>
      <trkpt lat="45.73202" lon="3.0636">
        <ele>566.2</ele>
        <time>2022-08-06T08:03:57Z</time>
      </trkpt>
      <trkpt lat="45.73194" lon="3.0636">
        <ele>566.6</ele>
        <time>2022-08-06T08:03:59Z</time>
      </trkpt>
      <trkpt lat="45.73186" lon="3.0636">
        <ele>567.1</ele>
        <time>2022-08-06T08:04:01Z</time>
      </trkpt>
      <trkpt lat="45.73177" lon="3.06361">
        <ele>567.6</ele>
        <time>2022-08-06T08:04:03Z</time>
      </trkpt>
      <trkpt lat="45.73169" lon="3.06362">
        <ele>568</ele>
        <time>2022-08-06T08:04:05Z</time>
      </trkpt>
      <trkpt lat="45.7316" lon="3.06363">
        <ele>568.5</ele>
        <time>2022-08-06T08:04:07Z</time>
      </trkpt>
      <trkpt lat="45.73153" lon="3.06364">
        <ele>568.7</ele>
        <time>2022-08-06T08:04:09Z</time>
      </trkpt>
      <trkpt lat="45.73144" lon="3.06366">
        <ele>569</ele>
        <time>2022-08-06T08:04:11Z</time>
      </trkpt>
      <trkpt lat="45.73137" lon="3.06368">
        <ele>569.2</ele>
        <time>2022-08-06T08:04:13Z</time>
      </trkpt>
      <trkpt lat="45.73129" lon="3.06371">
        <ele>569.5</ele>
        <time>2022-08-06T08:04:15Z</time>
      </trkpt>
      <trkpt lat="45.7312" lon="3.06373">
        <ele>569.7</ele>
        <time>2022-08-06T08:04:17Z</time>
      </trkpt>
      <trkpt lat="45.73113" lon="3.06376">
        <ele>570</ele>
        <time>2022-08-06T08:04:19Z</time>
      </trkpt>
      <trkpt lat="45.73106" lon="3.06379">
        <ele>570.4</ele>
        <time>2022-08-06T08:04:21Z</time>
      </trkpt>
      <trkpt lat="45.73098" lon="3.06383">
        <ele>570.8</ele>
        <time>2022-08-06T08:04:23Z</time>
      </trkpt>
      <trkpt lat="45.7309" lon="3.06386">
        <ele>571.2</ele>
        <time>2022-08-06T08:04:25Z</time>
      </trkpt>
      <trkpt lat="45.73082" lon="3.06389">
        <ele>571.6</ele>
        <time>2022-08-06T08:04:27Z</time>
      </trkpt>
      <trkpt lat="45.73075" lon="3.06392">
        <ele>572</ele>
        <time>2022-08-06T08:04:29Z</time>
      </trkpt>
      <trkpt lat="45.73067" lon="3.06396">
        <ele>572.4</ele>
        <time>2022-08-06T08:04:31Z</time>
      </trkpt>
      <trkpt lat="45.73059" lon="3.06398">
        <ele>572.8</ele>
        <time>2022-08-06T08:04:33Z</time>
      </trkpt>
      <trkpt lat="45.73052" lon="3.06401">
        <ele>573.2</ele>
        <time>2022-08-06T08:04:35Z</time>
      </trkpt>
      <trkpt lat="45.73044" lon="3.06404">
        <ele>573.5</ele>
        <time>2022-08-06T08:04:37Z</time>
      </trkpt>
      <trkpt lat="45.73036" lon="3.06407">
        <ele>573.9</ele>
        <time>2022-08-06T08:04:39Z</time>
      </trkpt>
      <trkpt lat="45.73028" lon="3.06411">
        <ele>574.3</ele>
        <time>2022-08-06T08:04:41Z</time>
      </trkpt>
      <trkpt lat="45.7302" lon="3.06415">
        <ele>574.6</ele>
        <time>2022-08-06T08:04:43Z</time>
      </trkpt>
      <trkpt lat="45.73012" lon="3.06418">
        <ele>574.8</ele>
        <time>2022-08-06T08:04:45Z</time>
      </trkpt>
      <trkpt lat="45.73005" lon="3.06421">
        <ele>575</ele>
        <time>2022-08-06T08:04:47Z</time>
      </trkpt>
      <trkpt lat="45.72997" lon="3.06424">
        <ele>575.2</ele>
        <time>2022-08-06T08:04:49Z</time>
      </trkpt>
      <trkpt lat="45.72989" lon="3.06427">
        <ele>575.4</ele>
        <time>2022-08-06T08:04:51Z</time>
      </trkpt>
      <trkpt lat="45.72981" lon="3.06431">
        <ele>575.7</ele>
        <time>2022-08-06T08:04:53Z</time>
      </trkpt>
      <trkpt lat="45.72972" lon="3.06434">
        <ele>576</ele>
        <time>2022-08-06T08:04:55Z</time>
      </trkpt>
      <trkpt lat="45.72963" lon="3.06437">
        <ele>576.2</ele>
        <time>2022-08-06T08:04:57Z</time>
      </trkpt>
      <trkpt lat="45.72954" lon="3.06439">
        <ele>576.4</ele>
        <time>2022-08-06T08:04:59Z</time>
      </trkpt>
      <trkpt lat="45.72944" lon="3.0644">
        <ele>576.6</ele>
        <time>2022-08-06T08:05:01Z</time>
      </trkpt>
      <trkpt lat="45.72934" lon="3.0644">
        <ele>576.8</ele>
        <time>2022-08-06T08:05:03Z</time>
      </trkpt>
      <trkpt lat="45.72924" lon="3.06438">
        <ele>577</ele>
        <time>2022-08-06T08:05:05Z</time>
      </trkpt>
      <trkpt lat="45.72914" lon="3.06435">
        <ele>577.2</ele>
        <time>2022-08-06T08:05:07Z</time>
      </trkpt>
      <trkpt lat="45.72907" lon="3.06429">
        <ele>577.6</ele>
        <time>2022-08-06T08:05:09Z</time>
      </trkpt>
      <trkpt lat="45.72904" lon="3.06417">
        <ele>578.1</ele>
        <time>2022-08-06T08:05:11Z</time>
      </trkpt>
      <trkpt lat="45.72906" lon="3.06408">
        <ele>578.6</ele>
        <time>2022-08-06T08:05:13Z</time>
      </trkpt>
      <trkpt lat="45.7291" lon="3.06402">
        <ele>579.1</ele>
        <time>2022-08-06T08:05:15Z</time>
      </trkpt>
      <trkpt lat="45.72916" lon="3.06398">
        <ele>579.7</ele>
        <time>2022-08-06T08:05:17Z</time>
      </trkpt>
      <trkpt lat="45.72921" lon="3.06395">
        <ele>580.1</ele>
        <time>2022-08-06T08:05:19Z</time>
      </trkpt>
      <trkpt lat="45.72927" lon="3.06392">
        <ele>580.7</ele>
        <time>2022-08-06T08:05:21Z</time>
      </trkpt>
      <trkpt lat="45.72933" lon="3.06389">
        <ele>581.3</ele>
        <time>2022-08-06T08:05:23Z</time>
      </trkpt>
      <trkpt lat="45.72939" lon="3.06386">
        <ele>581.9</ele>
        <time>2022-08-06T08:05:25Z</time>
      </trkpt>
      <trkpt lat="45.72944" lon="3.06381">
        <ele>582.5</ele>
        <time>2022-08-06T08:05:27Z</time>
      </trkpt>
      <trkpt lat="45.72948" lon="3.06374">
        <ele>583.1</ele>
        <time>2022-08-06T08:05:29Z</time>
      </trkpt>
      <trkpt lat="45.72951" lon="3.06367">
        <ele>583.8</ele>
        <time>2022-08-06T08:05:31Z</time>
      </trkpt>
      <trkpt lat="45.72954" lon="3.06359">
        <ele>584.4</ele>
        <time>2022-08-06T08:05:33Z</time>
      </trkpt>
      <trkpt lat="45.72958" lon="3.06351">
        <ele>585</ele>
        <time>2022-08-06T08:05:35Z</time>
      </trkpt>
      <trkpt lat="45.7296" lon="3.06344">
        <ele>585.5</ele>
        <time>2022-08-06T08:05:37Z</time>
      </trkpt>
      <trkpt lat="45.72964" lon="3.06336">
        <ele>586.1</ele>
        <time>2022-08-06T08:05:39Z</time>
      </trkpt>
      <trkpt lat="45.72966" lon="3.06329">
        <ele>586.6</ele>
        <time>2022-08-06T08:05:41Z</time>
      </trkpt>
      <trkpt lat="45.7297" lon="3.06321">
        <ele>586.8</ele>
        <time>2022-08-06T08:05:43Z</time>
      </trkpt>
      <trkpt lat="45.72974" lon="3.06313">
        <ele>587.3</ele>
        <time>2022-08-06T08:05:45Z</time>
      </trkpt>
      <trkpt lat="45.72977" lon="3.06306">
        <ele>587.7</ele>
        <time>2022-08-06T08:05:47Z</time>
      </trkpt>
      <trkpt lat="45.72981" lon="3.06298">
        <ele>588.1</ele>
        <time>2022-08-06T08:05:49Z</time>
      </trkpt>
      <trkpt lat="45.72984" lon="3.06292">
        <ele>588.5</ele>
        <time>2022-08-06T08:05:51Z</time>
      </trkpt>
      <trkpt lat="45.72988" lon="3.06285">
        <ele>588.9</ele>
        <time>2022-08-06T08:05:53Z</time>
      </trkpt>
      <trkpt lat="45.72991" lon="3.06278">
        <ele>589.3</ele>
        <time>2022-08-06T08:05:55Z</time>
      </trkpt>
      <trkpt lat="45.72996" lon="3.06271">
        <ele>589.8</ele>
        <time>2022-08-06T08:05:57Z</time>
      </trkpt>
      <trkpt lat="45.72999" lon="3.06264">
        <ele>590.2</ele>
        <time>2022-08-06T08:05:59Z</time>
      </trkpt>
      <trkpt lat="45.73002" lon="3.06257">
        <ele>590.6</ele>
        <time>2022-08-06T08:06:01Z</time>
      </trkpt>
      <trkpt lat="45.73006" lon="3.0625">
        <ele>591.1</ele>
        <time>2022-08-06T08:06:03Z</time>
      </trkpt>
      <trkpt lat="45.7301" lon="3.06244">
        <ele>591.5</ele>
        <time>2022-08-06T08:06:05Z</time>
      </trkpt>
      <trkpt lat="45.73014" lon="3.06237">
        <ele>591.9</ele>
        <time>2022-08-06T08:06:07Z</time>
      </trkpt>
      <trkpt lat="45.73017" lon="3.0623">
        <ele>592.3</ele>
        <time>2022-08-06T08:06:09Z</time>
      </trkpt>
      <trkpt lat="45.7302" lon="3.06223">
        <ele>592.7</ele>
        <time>2022-08-06T08:06:11Z</time>
      </trkpt>
      <trkpt lat="45.73024" lon="3.06215">
        <ele>593.2</ele>
        <time>2022-08-06T08:06:13Z</time>
      </trkpt>
      <trkpt lat="45.73027" lon="3.06208">
        <ele>593.7</ele>
        <time>2022-08-06T08:06:15Z</time>
      </trkpt>
      <trkpt lat="45.73031" lon="3.06202">
        <ele>594.2</ele>
        <time>2022-08-06T08:06:17Z</time>
      </trkpt>
      <trkpt lat="45.73034" lon="3.06194">
        <ele>594.6</ele>
        <time>2022-08-06T08:06:19Z</time>
      </trkpt>
      <trkpt lat="45.73038" lon="3.06187">
        <ele>595.1</ele>
        <time>2022-08-06T08:06:21Z</time>
      </trkpt>
      <trkpt lat="45.73042" lon="3.06181">
        <ele>595.6</ele>
        <time>2022-08-06T08:06:23Z</time>
      </trkpt>
      <trkpt lat="45.73045" lon="3.06174">
        <ele>596</ele>
        <time>2022-08-06T08:06:25Z</time>
      </trkpt>
      <trkpt lat="45.73049" lon="3.06167">
        <ele>596.5</ele>
        <time>2022-08-06T08:06:27Z</time>
      </trkpt>
      <trkpt lat="45.73052" lon="3.0616">
        <ele>597</ele>
        <time>2022-08-06T08:06:29Z</time>
      </trkpt>
      <trkpt lat="45.73055" lon="3.06153">
        <ele>597.4</ele>
        <time>2022-08-06T08:06:31Z</time>
      </trkpt>
      <trkpt lat="45.73059" lon="3.06147">
        <ele>597.8</ele>
        <time>2022-08-06T08:06:33Z</time>
      </trkpt>
      <trkpt lat="45.73062" lon="3.06142">
        <ele>598.2</ele>
        <time>2022-08-06T08:06:35Z</time>
      </trkpt>
      <trkpt lat="45.73065" lon="3.06135">
        <ele>598.6</ele>
        <time>2022-08-06T08:06:37Z</time>
      </trkpt>
      <trkpt lat="45.73068" lon="3.06129">
        <ele>599</ele>
        <time>2022-08-06T08:06:39Z</time>
      </trkpt>
      <trkpt lat="45.73072" lon="3.06122">
        <ele>599.5</ele>
        <time>2022-08-06T08:06:41Z</time>
      </trkpt>
      <trkpt lat="45.73075" lon="3.06115">
        <ele>599.9</ele>
        <time>2022-08-06T08:06:43Z</time>
      </trkpt>
      <trkpt lat="45.73078" lon="3.06109">
        <ele>600.3</ele>
        <time>2022-08-06T08:06:45Z</time>
      </trkpt>
      <trkpt lat="45.73081" lon="3.06102">
        <ele>600.7</ele>
        <time>2022-08-06T08:06:47Z</time>
      </trkpt>
      <trkpt lat="45.73083" lon="3.06094">
        <ele>601.1</ele>
        <time>2022-08-06T08:06:49Z</time>
      </trkpt>
      <trkpt lat="45.73082" lon="3.06086">
        <ele>601.6</ele>
        <time>2022-08-06T08:06:51Z</time>
      </trkpt>
      <trkpt lat="45.73081" lon="3.06078">
        <ele>602</ele>
        <time>2022-08-06T08:06:53Z</time>
      </trkpt>
      <trkpt lat="45.73078" lon="3.0607">
        <ele>602.5</ele>
        <time>2022-08-06T08:06:55Z</time>
      </trkpt>
      <trkpt lat="45.73075" lon="3.06062">
        <ele>603</ele>
        <time>2022-08-06T08:06:57Z</time>
      </trkpt>
      <trkpt lat="45.7307" lon="3.06057">
        <ele>603.4</ele>
        <time>2022-08-06T08:06:59Z</time>
      </trkpt>
      <trkpt lat="45.73064" lon="3.06055">
        <ele>603.9</ele>
        <time>2022-08-06T08:07:01Z</time>
      </trkpt>
      <trkpt lat="45.73059" lon="3.06054">
        <ele>604.2</ele>
        <time>2022-08-06T08:07:03Z</time>
      </trkpt>
      <trkpt lat="45.73052" lon="3.06054">
        <ele>604.3</ele>
        <time>2022-08-06T08:07:05Z</time>
      </trkpt>
      <trkpt lat="45.73046" lon="3.06055">
        <ele>604.4</ele>
        <time>2022-08-06T08:07:07Z</time>
      </trkpt>
      <trkpt lat="45.73041" lon="3.06058">
        <ele>604.5</ele>
        <time>2022-08-06T08:07:09Z</time>
      </trkpt>
      <trkpt lat="45.73035" lon="3.06061">
        <ele>604.8</ele>
        <time>2022-08-06T08:07:11Z</time>
      </trkpt>
      <trkpt lat="45.7303" lon="3.06065">
        <ele>605.2</ele>
        <time>2022-08-06T08:07:13Z</time>
      </trkpt>
      <trkpt lat="45.73024" lon="3.06069">
        <ele>605.6</ele>
        <time>2022-08-06T08:07:15Z</time>
      </trkpt>
      <trkpt lat="45.73018" lon="3.06073">
        <ele>606</ele>
        <time>2022-08-06T08:07:17Z</time>
      </trkpt>
      <trkpt lat="45.73013" lon="3.06077">
        <ele>606.4</ele>
        <time>2022-08-06T08:07:19Z</time>
      </trkpt>
      <trkpt lat="45.73007" lon="3.0608">
        <ele>606.8</ele>
        <time>2022-08-06T08:07:21Z</time>
      </trkpt>
      <trkpt lat="45.73002" lon="3.06083">
        <ele>607.1</ele>
        <time>2022-08-06T08:07:23Z</time>
      </trkpt>
      <trkpt lat="45.72996" lon="3.06085">
        <ele>607.5</ele>
        <time>2022-08-06T08:07:25Z</time>
      </trkpt>
      <trkpt lat="45.72991" lon="3.06089">
        <ele>608</ele>
        <time>2022-08-06T08:07:27Z</time>
      </trkpt>
      <trkpt lat="45.72984" lon="3.06091">
        <ele>608.5</ele>
        <time>2022-08-06T08:07:29Z</time>
      </trkpt>
      <trkpt lat="45.72978" lon="3.06094">
        <ele>609</ele>
        <time>2022-08-06T08:07:31Z</time>
      </trkpt>
      <trkpt lat="45.72972" lon="3.06097">
        <ele>609.5</ele>
        <time>2022-08-06T08:07:33Z</time>
      </trkpt>
      <trkpt lat="45.72966" lon="3.06099">
        <ele>610</ele>
        <time>2022-08-06T08:07:35Z</time>
      </trkpt>
      <trkpt lat="45.72961" lon="3.06101">
        <ele>610.6</ele>
        <time>2022-08-06T08:07:37Z</time>
      </trkpt>
      <trkpt lat="45.72955" lon="3.06102">
        <ele>611.2</ele>
        <time>2022-08-06T08:07:39Z</time>
      </trkpt>
      <trkpt lat="45.72949" lon="3.06104">
        <ele>611.8</ele>
        <time>2022-08-06T08:07:41Z</time>
      </trkpt>
      <trkpt lat="45.72943" lon="3.06106">
        <ele>612.4</ele>
        <time>2022-08-06T08:07:43Z</time>
      </trkpt>
      <trkpt lat="45.72936" lon="3.06107">
        <ele>613.1</ele>
        <time>2022-08-06T08:07:45Z</time>
      </trkpt>
      <trkpt lat="45.72931" lon="3.06108">
        <ele>613.7</ele>
        <time>2022-08-06T08:07:47Z</time>
      </trkpt>
      <trkpt lat="45.72925" lon="3.0611">
        <ele>614.3</ele>
        <time>2022-08-06T08:07:49Z</time>
      </trkpt>
      <trkpt lat="45.72919" lon="3.06111">
        <ele>614.9</ele>
        <time>2022-08-06T08:07:51Z</time>
      </trkpt>
      <trkpt lat="45.72913" lon="3.06111">
        <ele>615.5</ele>
        <time>2022-08-06T08:07:53Z</time>
      </trkpt>
      <trkpt lat="45.72908" lon="3.06112">
        <ele>616.1</ele>
        <time>2022-08-06T08:07:55Z</time>
      </trkpt>
      <trkpt lat="45.72902" lon="3.06113">
        <ele>616.6</ele>
        <time>2022-08-06T08:07:57Z</time>
      </trkpt>
      <trkpt lat="45.72896" lon="3.06115">
        <ele>617.3</ele>
        <time>2022-08-06T08:07:59Z</time>
      </trkpt>
      <trkpt lat="45.7289" lon="3.06116">
        <ele>617.9</ele>
        <time>2022-08-06T08:08:01Z</time>
      </trkpt>
      <trkpt lat="45.72884" lon="3.06117">
        <ele>618.5</ele>
        <time>2022-08-06T08:08:03Z</time>
      </trkpt>
      <trkpt lat="45.72878" lon="3.06119">
        <ele>619.1</ele>
        <time>2022-08-06T08:08:05Z</time>
      </trkpt>
      <trkpt lat="45.72873" lon="3.0612">
        <ele>619.7</ele>
        <time>2022-08-06T08:08:07Z</time>
      </trkpt>
      <trkpt lat="45.72867" lon="3.06123">
        <ele>620.3</ele>
        <time>2022-08-06T08:08:09Z</time>
      </trkpt>
      <trkpt lat="45.72862" lon="3.06126">
        <ele>620.8</ele>
        <time>2022-08-06T08:08:11Z</time>
      </trkpt>
      <trkpt lat="45.72856" lon="3.0613">
        <ele>621.3</ele>
        <time>2022-08-06T08:08:13Z</time>
      </trkpt>
      <trkpt lat="45.72851" lon="3.06134">
        <ele>621.8</ele>
        <time>2022-08-06T08:08:15Z</time>
      </trkpt>
      <trkpt lat="45.72846" lon="3.06139">
        <ele>622.4</ele>
        <time>2022-08-06T08:08:17Z</time>
      </trkpt>
      <trkpt lat="45.72841" lon="3.06144">
        <ele>622.9</ele>
        <time>2022-08-06T08:08:19Z</time>
      </trkpt>
      <trkpt lat="45.72836" lon="3.06149">
        <ele>623.4</ele>
        <time>2022-08-06T08:08:21Z</time>
      </trkpt>
      <trkpt lat="45.72831" lon="3.06154">
        <ele>624</ele>
        <time>2022-08-06T08:08:23Z</time>
      </trkpt>
      <trkpt lat="45.72826" lon="3.06159">
        <ele>624.5</ele>
        <time>2022-08-06T08:08:25Z</time>
      </trkpt>
      <trkpt lat="45.72821" lon="3.06163">
        <ele>625.1</ele>
        <time>2022-08-06T08:08:27Z</time>
      </trkpt>
      <trkpt lat="45.72815" lon="3.06167">
        <ele>625.6</ele>
        <time>2022-08-06T08:08:29Z</time>
      </trkpt>
      <trkpt lat="45.72808" lon="3.06169">
        <ele>626.3</ele>
        <time>2022-08-06T08:08:31Z</time>
      </trkpt>
      <trkpt lat="45.72803" lon="3.0617">
        <ele>626.9</ele>
        <time>2022-08-06T08:08:33Z</time>
      </trkpt>
      <trkpt lat="45.72797" lon="3.0617">
        <ele>627.5</ele>
        <time>2022-08-06T08:08:35Z</time>
      </trkpt>
      <trkpt lat="45.72791" lon="3.0617">
        <ele>628.1</ele>
        <time>2022-08-06T08:08:37Z</time>
      </trkpt>
      <trkpt lat="45.72786" lon="3.06171">
        <ele>628.7</ele>
        <time>2022-08-06T08:08:39Z</time>
      </trkpt>
      <trkpt lat="45.7278" lon="3.0617">
        <ele>629.4</ele>
        <time>2022-08-06T08:08:41Z</time>
      </trkpt>
      <trkpt lat="45.72774" lon="3.0617">
        <ele>630</ele>
        <time>2022-08-06T08:08:43Z</time>
      </trkpt>
      <trkpt lat="45.72768" lon="3.0617">
        <ele>630.5</ele>
        <time>2022-08-06T08:08:45Z</time>
      </trkpt>
      <trkpt lat="45.72762" lon="3.06169">
        <ele>631.1</ele>
        <time>2022-08-06T08:08:47Z</time>
      </trkpt>
      <trkpt lat="45.72757" lon="3.06169">
        <ele>631.6</ele>
        <time>2022-08-06T08:08:49Z</time>
      </trkpt>
      <trkpt lat="45.72751" lon="3.06169">
        <ele>632.1</ele>
        <time>2022-08-06T08:08:51Z</time>
      </trkpt>
      <trkpt lat="45.72745" lon="3.06169">
        <ele>632.6</ele>
        <time>2022-08-06T08:08:53Z</time>
      </trkpt>
      <trkpt lat="45.72739" lon="3.0617">
        <ele>633.1</ele>
        <time>2022-08-06T08:08:55Z</time>
      </trkpt>
      <trkpt lat="45.72734" lon="3.06172">
        <ele>633.6</ele>
        <time>2022-08-06T08:08:57Z</time>
      </trkpt>
      <trkpt lat="45.72729" lon="3.06173">
        <ele>634</ele>
        <time>2022-08-06T08:08:59Z</time>
      </trkpt>
      <trkpt lat="45.72723" lon="3.06174">
        <ele>634.5</ele>
        <time>2022-08-06T08:09:01Z</time>
      </trkpt>
      <trkpt lat="45.72718" lon="3.06175">
        <ele>635</ele>
        <time>2022-08-06T08:09:03Z</time>
      </trkpt>
      <trkpt lat="45.72713" lon="3.06177">
        <ele>635.5</ele>
        <time>2022-08-06T08:09:05Z</time>
      </trkpt>
      <trkpt lat="45.72708" lon="3.06178">
        <ele>635.9</ele>
        <time>2022-08-06T08:09:07Z</time>
      </trkpt>
      <trkpt lat="45.72702" lon="3.0618">
        <ele>636.5</ele>
        <time>2022-08-06T08:09:09Z</time>
      </trkpt>
      <trkpt lat="45.72695" lon="3.0618">
        <ele>637.2</ele>
        <time>2022-08-06T08:09:11Z</time>
      </trkpt>
      <trkpt lat="45.72689" lon="3.0618">
        <ele>637.8</ele>
        <time>2022-08-06T08:09:13Z</time>
      </trkpt>
      <trkpt lat="45.72685" lon="3.0618">
        <ele>638.4</ele>
        <time>2022-08-06T08:09:15Z</time>
      </trkpt>
      <trkpt lat="45.72681" lon="3.06178">
        <ele>639</ele>
        <time>2022-08-06T08:09:17Z</time>
      </trkpt>
      <trkpt lat="45.72679" lon="3.06173">
        <ele>639.5</ele>
        <time>2022-08-06T08:09:19Z</time>
      </trkpt>
      <trkpt lat="45.7268" lon="3.06166">
        <ele>640.1</ele>
        <time>2022-08-06T08:09:21Z</time>
      </trkpt>
      <trkpt lat="45.72685" lon="3.06163">
        <ele>640.7</ele>
        <time>2022-08-06T08:09:23Z</time>
      </trkpt>
      <trkpt lat="45.72691" lon="3.06161">
        <ele>641.3</ele>
        <time>2022-08-06T08:09:25Z</time>
      </trkpt>
      <trkpt lat="45.72697" lon="3.0616">
        <ele>641.8</ele>
        <time>2022-08-06T08:09:27Z</time>
      </trkpt>
      <trkpt lat="45.72703" lon="3.06159">
        <ele>642.3</ele>
        <time>2022-08-06T08:09:29Z</time>
      </trkpt>
      <trkpt lat="45.72709" lon="3.06158">
        <ele>642.7</ele>
        <time>2022-08-06T08:09:31Z</time>
      </trkpt>
      <trkpt lat="45.72715" lon="3.06157">
        <ele>643.1</ele>
        <time>2022-08-06T08:09:33Z</time>
      </trkpt>
      <trkpt lat="45.72721" lon="3.06157">
        <ele>643.5</ele>
        <time>2022-08-06T08:09:35Z</time>
      </trkpt>
      <trkpt lat="45.72727" lon="3.06156">
        <ele>643.9</ele>
        <time>2022-08-06T08:09:37Z</time>
      </trkpt>
      <trkpt lat="45.72733" lon="3.06156">
        <ele>644.3</ele>
        <time>2022-08-06T08:09:39Z</time>
      </trkpt>
      <trkpt lat="45.72739" lon="3.06155">
        <ele>644.7</ele>
        <time>2022-08-06T08:09:41Z</time>
      </trkpt>
      <trkpt lat="45.72745" lon="3.06153">
        <ele>645.2</ele>
        <time>2022-08-06T08:09:43Z</time>
      </trkpt>
      <trkpt lat="45.72751" lon="3.06151">
        <ele>645.6</ele>
        <time>2022-08-06T08:09:45Z</time>
      </trkpt>
      <trkpt lat="45.72756" lon="3.06149">
        <ele>646</ele>
        <time>2022-08-06T08:09:47Z</time>
      </trkpt>
      <trkpt lat="45.72761" lon="3.06148">
        <ele>646.5</ele>
        <time>2022-08-06T08:09:49Z</time>
      </trkpt>
      <trkpt lat="45.72767" lon="3.06145">
        <ele>647</ele>
        <time>2022-08-06T08:09:51Z</time>
      </trkpt>
      <trkpt lat="45.72773" lon="3.06142">
        <ele>647.5</ele>
        <time>2022-08-06T08:09:53Z</time>
      </trkpt>
      <trkpt lat="45.72779" lon="3.06139">
        <ele>648</ele>
        <time>2022-08-06T08:09:55Z</time>
      </trkpt>
      <trkpt lat="45.72785" lon="3.06136">
        <ele>648.6</ele>
        <time>2022-08-06T08:09:57Z</time>
      </trkpt>
      <trkpt lat="45.7279" lon="3.06132">
        <ele>649.1</ele>
        <time>2022-08-06T08:09:59Z</time>
      </trkpt>
      <trkpt lat="45.72795" lon="3.06128">
        <ele>649.7</ele>
        <time>2022-08-06T08:10:01Z</time>
      </trkpt>
      <trkpt lat="45.728" lon="3.06123">
        <ele>650.2</ele>
        <time>2022-08-06T08:10:03Z</time>
      </trkpt>
      <trkpt lat="45.72804" lon="3.06119">
        <ele>650.7</ele>
        <time>2022-08-06T08:10:05Z</time>
      </trkpt>
      <trkpt lat="45.72809" lon="3.06113">
        <ele>651.2</ele>
        <time>2022-08-06T08:10:07Z</time>
      </trkpt>
      <trkpt lat="45.72813" lon="3.06107">
        <ele>651.8</ele>
        <time>2022-08-06T08:10:09Z</time>
      </trkpt>
      <trkpt lat="45.72817" lon="3.06102">
        <ele>652.3</ele>
        <time>2022-08-06T08:10:11Z</time>
      </trkpt>
      <trkpt lat="45.7282" lon="3.06095">
        <ele>652.8</ele>
        <time>2022-08-06T08:10:13Z</time>
      </trkpt>
      <trkpt lat="45.72824" lon="3.06089">
        <ele>653.4</ele>
        <time>2022-08-06T08:10:15Z</time>
      </trkpt>
      <trkpt lat="45.72828" lon="3.06083">
        <ele>653.9</ele>
        <time>2022-08-06T08:10:17Z</time>
      </trkpt>
      <trkpt lat="45.72832" lon="3.06077">
        <ele>654.5</ele>
        <time>2022-08-06T08:10:19Z</time>
      </trkpt>
      <trkpt lat="45.72836" lon="3.06072">
        <ele>655.1</ele>
        <time>2022-08-06T08:10:21Z</time>
      </trkpt>
      <trkpt lat="45.7284" lon="3.06066">
        <ele>655.6</ele>
        <time>2022-08-06T08:10:23Z</time>
      </trkpt>
      <trkpt lat="45.72843" lon="3.06062">
        <ele>656.2</ele>
        <time>2022-08-06T08:10:25Z</time>
      </trkpt>
      <trkpt lat="45.72847" lon="3.06057">
        <ele>656.7</ele>
        <time>2022-08-06T08:10:27Z</time>
      </trkpt>
      <trkpt lat="45.72852" lon="3.06054">
        <ele>657.2</ele>
        <time>2022-08-06T08:10:29Z</time>
      </trkpt>
      <trkpt lat="45.72857" lon="3.0605">
        <ele>657.8</ele>
        <time>2022-08-06T08:10:31Z</time>
      </trkpt>
      <trkpt lat="45.72862" lon="3.06047">
        <ele>658.5</ele>
        <time>2022-08-06T08:10:33Z</time>
      </trkpt>
      <trkpt lat="45.72868" lon="3.06043">
        <ele>659.1</ele>
        <time>2022-08-06T08:10:35Z</time>
      </trkpt>
      <trkpt lat="45.72873" lon="3.0604">
        <ele>659.7</ele>
        <time>2022-08-06T08:10:37Z</time>
      </trkpt>
      <trkpt lat="45.72879" lon="3.06038">
        <ele>660.3</ele>
        <time>2022-08-06T08:10:39Z</time>
      </trkpt>
      <trkpt lat="45.72884" lon="3.06035">
        <ele>660.8</ele>
        <time>2022-08-06T08:10:41Z</time>
      </trkpt>
      <trkpt lat="45.72889" lon="3.06033">
        <ele>661.3</ele>
        <time>2022-08-06T08:10:43Z</time>
      </trkpt>
      <trkpt lat="45.72895" lon="3.06031">
        <ele>661.8</ele>
        <time>2022-08-06T08:10:45Z</time>
      </trkpt>
      <trkpt lat="45.72899" lon="3.06027">
        <ele>662.3</ele>
        <time>2022-08-06T08:10:47Z</time>
      </trkpt>
      <trkpt lat="45.72904" lon="3.06024">
        <ele>662.8</ele>
        <time>2022-08-06T08:10:49Z</time>
      </trkpt>
      <trkpt lat="45.72909" lon="3.06021">
        <ele>663.3</ele>
        <time>2022-08-06T08:10:51Z</time>
      </trkpt>
      <trkpt lat="45.72914" lon="3.06017">
        <ele>663.8</ele>
        <time>2022-08-06T08:10:53Z</time>
      </trkpt>
      <trkpt lat="45.72919" lon="3.06013">
        <ele>664.3</ele>
        <time>2022-08-06T08:10:55Z</time>
      </trkpt>
      <trkpt lat="45.72924" lon="3.0601">
        <ele>664.8</ele>
        <time>2022-08-06T08:10:57Z</time>
      </trkpt>
      <trkpt lat="45.72928" lon="3.06005">
        <ele>665.3</ele>
        <time>2022-08-06T08:10:59Z</time>
      </trkpt>
      <trkpt lat="45.72932" lon="3.06">
        <ele>665.8</ele>
        <time>2022-08-06T08:11:01Z</time>
      </trkpt>
      <trkpt lat="45.72936" lon="3.05995">
        <ele>666.3</ele>
        <time>2022-08-06T08:11:03Z</time>
      </trkpt>
      <trkpt lat="45.7294" lon="3.0599">
        <ele>666.8</ele>
        <time>2022-08-06T08:11:05Z</time>
      </trkpt>
      <trkpt lat="45.72944" lon="3.05985">
        <ele>667.3</ele>
        <time>2022-08-06T08:11:07Z</time>
      </trkpt>
      <trkpt lat="45.72948" lon="3.0598">
        <ele>667.8</ele>
        <time>2022-08-06T08:11:09Z</time>
      </trkpt>
      <trkpt lat="45.72952" lon="3.05975">
        <ele>668.3</ele>
        <time>2022-08-06T08:11:11Z</time>
      </trkpt>
      <trkpt lat="45.72955" lon="3.0597">
        <ele>668.8</ele>
        <time>2022-08-06T08:11:13Z</time>
      </trkpt>
      <trkpt lat="45.72959" lon="3.05964">
        <ele>669.3</ele>
        <time>2022-08-06T08:11:15Z</time>
      </trkpt>
      <trkpt lat="45.72962" lon="3.05959">
        <ele>669.7</ele>
        <time>2022-08-06T08:11:17Z</time>
      </trkpt>
      <trkpt lat="45.72965" lon="3.05955">
        <ele>670.1</ele>
        <time>2022-08-06T08:11:19Z</time>
      </trkpt>
      <trkpt lat="45.72969" lon="3.0595">
        <ele>670.6</ele>
        <time>2022-08-06T08:11:21Z</time>
      </trkpt>
      <trkpt lat="45.72973" lon="3.05946">
        <ele>671.1</ele>
        <time>2022-08-06T08:11:23Z</time>
      </trkpt>
      <trkpt lat="45.72978" lon="3.05941">
        <ele>671.7</ele>
        <time>2022-08-06T08:11:25Z</time>
      </trkpt>
      <trkpt lat="45.72983" lon="3.05936">
        <ele>672.2</ele>
        <time>2022-08-06T08:11:27Z</time>
      </trkpt>
      <trkpt lat="45.72987" lon="3.05932">
        <ele>672.7</ele>
        <time>2022-08-06T08:11:29Z</time>
      </trkpt>
      <trkpt lat="45.72992" lon="3.05927">
        <ele>673.2</ele>
        <time>2022-08-06T08:11:31Z</time>
      </trkpt>
      <trkpt lat="45.72996" lon="3.05922">
        <ele>673.8</ele>
        <time>2022-08-06T08:11:33Z</time>
      </trkpt>
      <trkpt lat="45.73" lon="3.05917">
        <ele>674.3</ele>
        <time>2022-08-06T08:11:35Z</time>
      </trkpt>
      <trkpt lat="45.73003" lon="3.05912">
        <ele>674.7</ele>
        <time>2022-08-06T08:11:37Z</time>
      </trkpt>
      <trkpt lat="45.73007" lon="3.05906">
        <ele>675.2</ele>
        <time>2022-08-06T08:11:39Z</time>
      </trkpt>
      <trkpt lat="45.7301" lon="3.05899">
        <ele>675.8</ele>
        <time>2022-08-06T08:11:41Z</time>
      </trkpt>
      <trkpt lat="45.73012" lon="3.05892">
        <ele>676.3</ele>
        <time>2022-08-06T08:11:43Z</time>
      </trkpt>
      <trkpt lat="45.73013" lon="3.05884">
        <ele>676.9</ele>
        <time>2022-08-06T08:11:45Z</time>
      </trkpt>
      <trkpt lat="45.73014" lon="3.05876">
        <ele>677.4</ele>
        <time>2022-08-06T08:11:47Z</time>
      </trkpt>
      <trkpt lat="45.73014" lon="3.05868">
        <ele>678</ele>
        <time>2022-08-06T08:11:49Z</time>
      </trkpt>
      <trkpt lat="45.73014" lon="3.0586">
        <ele>678.5</ele>
        <time>2022-08-06T08:11:51Z</time>
      </trkpt>
      <trkpt lat="45.73014" lon="3.05852">
        <ele>679.1</ele>
        <time>2022-08-06T08:11:53Z</time>
      </trkpt>
      <trkpt lat="45.73013" lon="3.05844">
        <ele>679.7</ele>
        <time>2022-08-06T08:11:55Z</time>
      </trkpt>
      <trkpt lat="45.73012" lon="3.05837">
        <ele>680.2</ele>
        <time>2022-08-06T08:11:57Z</time>
      </trkpt>
      <trkpt lat="45.73011" lon="3.05829">
        <ele>680.8</ele>
        <time>2022-08-06T08:11:59Z</time>
      </trkpt>
      <trkpt lat="45.7301" lon="3.05822">
        <ele>681.3</ele>
        <time>2022-08-06T08:12:01Z</time>
      </trkpt>
      <trkpt lat="45.73009" lon="3.05815">
        <ele>681.9</ele>
        <time>2022-08-06T08:12:03Z</time>
      </trkpt>
      <trkpt lat="45.73008" lon="3.05807">
        <ele>682.5</ele>
        <time>2022-08-06T08:12:05Z</time>
      </trkpt>
      <trkpt lat="45.73007" lon="3.05799">
        <ele>683</ele>
        <time>2022-08-06T08:12:07Z</time>
      </trkpt>
      <trkpt lat="45.73007" lon="3.05792">
        <ele>683.5</ele>
        <time>2022-08-06T08:12:09Z</time>
      </trkpt>
      <trkpt lat="45.73007" lon="3.05784">
        <ele>684.1</ele>
        <time>2022-08-06T08:12:11Z</time>
      </trkpt>
      <trkpt lat="45.73006" lon="3.05776">
        <ele>684.5</ele>
        <time>2022-08-06T08:12:13Z</time>
      </trkpt>
      <trkpt lat="45.73007" lon="3.05769">
        <ele>685</ele>
        <time>2022-08-06T08:12:15Z</time>
      </trkpt>
      <trkpt lat="45.73009" lon="3.05762">
        <ele>685.5</ele>
        <time>2022-08-06T08:12:17Z</time>
      </trkpt>
      <trkpt lat="45.73011" lon="3.05756">
        <ele>686</ele>
        <time>2022-08-06T08:12:19Z</time>
      </trkpt>
      <trkpt lat="45.73014" lon="3.0575">
        <ele>686.5</ele>
        <time>2022-08-06T08:12:21Z</time>
      </trkpt>
      <trkpt lat="45.73018" lon="3.05746">
        <ele>687</ele>
        <time>2022-08-06T08:12:23Z</time>
      </trkpt>
      <trkpt lat="45.73023" lon="3.05742">
        <ele>687.5</ele>
        <time>2022-08-06T08:12:25Z</time>
      </trkpt>
      <trkpt lat="45.73028" lon="3.0574">
        <ele>688</ele>
        <time>2022-08-06T08:12:27Z</time>
      </trkpt>
      <trkpt lat="45.73033" lon="3.05739">
        <ele>688.5</ele>
        <time>2022-08-06T08:12:29Z</time>
      </trkpt>
      <trkpt lat="45.73039" lon="3.05737">
        <ele>689.1</ele>
        <time>2022-08-06T08:12:31Z</time>
      </trkpt>
      <trkpt lat="45.73044" lon="3.05737">
        <ele>689.6</ele>
        <time>2022-08-06T08:12:33Z</time>
      </trkpt>
      <trkpt lat="45.73049" lon="3.05737">
        <ele>690</ele>
        <time>2022-08-06T08:12:35Z</time>
      </trkpt>
      <trkpt lat="45.73054" lon="3.05736">
        <ele>690.5</ele>
        <time>2022-08-06T08:12:37Z</time>
      </trkpt>
      <trkpt lat="45.73059" lon="3.05735">
        <ele>690.9</ele>
        <time>2022-08-06T08:12:39Z</time>
      </trkpt>
      <trkpt lat="45.73064" lon="3.05735">
        <ele>691.4</ele>
        <time>2022-08-06T08:12:41Z</time>
      </trkpt>
      <trkpt lat="45.73069" lon="3.05735">
        <ele>691.9</ele>
        <time>2022-08-06T08:12:43Z</time>
      </trkpt>
      <trkpt lat="45.73075" lon="3.05735">
        <ele>692.4</ele>
        <time>2022-08-06T08:12:45Z</time>
      </trkpt>
      <trkpt lat="45.7308" lon="3.05734">
        <ele>692.9</ele>
        <time>2022-08-06T08:12:47Z</time>
      </trkpt>
      <trkpt lat="45.73085" lon="3.05733">
        <ele>693.3</ele>
        <time>2022-08-06T08:12:49Z</time>
      </trkpt>
      <trkpt lat="45.7309" lon="3.05731">
        <ele>693.8</ele>
        <time>2022-08-06T08:12:51Z</time>
      </trkpt>
      <trkpt lat="45.73095" lon="3.05729">
        <ele>694.3</ele>
        <time>2022-08-06T08:12:53Z</time>
      </trkpt>
      <trkpt lat="45.731" lon="3.05726">
        <ele>694.8</ele>
        <time>2022-08-06T08:12:55Z</time>
      </trkpt>
      <trkpt lat="45.73104" lon="3.05723">
        <ele>695.3</ele>
        <time>2022-08-06T08:12:57Z</time>
      </trkpt>
      <trkpt lat="45.73109" lon="3.0572">
        <ele>695.8</ele>
        <time>2022-08-06T08:12:59Z</time>
      </trkpt>
      <trkpt lat="45.73113" lon="3.05716">
        <ele>696.3</ele>
        <time>2022-08-06T08:13:01Z</time>
      </trkpt>
      <trkpt lat="45.73117" lon="3.0571">
        <ele>696.8</ele>
        <time>2022-08-06T08:13:03Z</time>
      </trkpt>
      <trkpt lat="45.73121" lon="3.05704">
        <ele>697.3</ele>
        <time>2022-08-06T08:13:05Z</time>
      </trkpt>
      <trkpt lat="45.73125" lon="3.05699">
        <ele>697.8</ele>
        <time>2022-08-06T08:13:07Z</time>
      </trkpt>
      <trkpt lat="45.73128" lon="3.05694">
        <ele>698.2</ele>
        <time>2022-08-06T08:13:09Z</time>
      </trkpt>
      <trkpt lat="45.73132" lon="3.05689">
        <ele>698.7</ele>
        <time>2022-08-06T08:13:11Z</time>
      </trkpt>
      <trkpt lat="45.73136" lon="3.05685">
        <ele>699.1</ele>
        <time>2022-08-06T08:13:13Z</time>
      </trkpt>
      <trkpt lat="45.7314" lon="3.05683">
        <ele>699.5</ele>
        <time>2022-08-06T08:13:15Z</time>
      </trkpt>
      <trkpt lat="45.73144" lon="3.0568">
        <ele>700</ele>
        <time>2022-08-06T08:13:17Z</time>
      </trkpt>
      <trkpt lat="45.73147" lon="3.05679">
        <ele>700.4</ele>
        <time>2022-08-06T08:13:19Z</time>
      </trkpt>
      <trkpt lat="45.73151" lon="3.0568">
        <ele>700.8</ele>
        <time>2022-08-06T08:13:21Z</time>
      </trkpt>
      <trkpt lat="45.73157" lon="3.05681">
        <ele>701.5</ele>
        <time>2022-08-06T08:13:23Z</time>
      </trkpt>
      <trkpt lat="45.73162" lon="3.05682">
        <ele>702</ele>
        <time>2022-08-06T08:13:25Z</time>
      </trkpt>
      <trkpt lat="45.73167" lon="3.05684">
        <ele>702.7</ele>
        <time>2022-08-06T08:13:27Z</time>
      </trkpt>
      <trkpt lat="45.73172" lon="3.05688">
        <ele>703.3</ele>
        <time>2022-08-06T08:13:29Z</time>
      </trkpt>
      <trkpt lat="45.73177" lon="3.05691">
        <ele>703.9</ele>
        <time>2022-08-06T08:13:31Z</time>
      </trkpt>
      <trkpt lat="45.73183" lon="3.05694">
        <ele>704.4</ele>
        <time>2022-08-06T08:13:33Z</time>
      </trkpt>
      <trkpt lat="45.73187" lon="3.05697">
        <ele>704.9</ele>
        <time>2022-08-06T08:13:35Z</time>
      </trkpt>
      <trkpt lat="45.73192" lon="3.05701">
        <ele>705.4</ele>
        <time>2022-08-06T08:13:37Z</time>
      </trkpt>
      <trkpt lat="45.73198" lon="3.05702">
        <ele>706</ele>
        <time>2022-08-06T08:13:39Z</time>
      </trkpt>
      <trkpt lat="45.73204" lon="3.05702">
        <ele>706.6</ele>
        <time>2022-08-06T08:13:41Z</time>
      </trkpt>
      <trkpt lat="45.7321" lon="3.05703">
        <ele>707.1</ele>
        <time>2022-08-06T08:13:43Z</time>
      </trkpt>
      <trkpt lat="45.73215" lon="3.05704">
        <ele>707.7</ele>
        <time>2022-08-06T08:13:45Z</time>
      </trkpt>
      <trkpt lat="45.73221" lon="3.05704">
        <ele>708.2</ele>
        <time>2022-08-06T08:13:47Z</time>
      </trkpt>
      <trkpt lat="45.73227" lon="3.05703">
        <ele>708.8</ele>
        <time>2022-08-06T08:13:49Z</time>
      </trkpt>
      <trkpt lat="45.73233" lon="3.05703">
        <ele>709.4</ele>
        <time>2022-08-06T08:13:51Z</time>
      </trkpt>
      <trkpt lat="45.73239" lon="3.05703">
        <ele>710</ele>
        <time>2022-08-06T08:13:53Z</time>
      </trkpt>
      <trkpt lat="45.73244" lon="3.05703">
        <ele>710.5</ele>
        <time>2022-08-06T08:13:55Z</time>
      </trkpt>
      <trkpt lat="45.7325" lon="3.05703">
        <ele>711.1</ele>
        <time>2022-08-06T08:13:57Z</time>
      </trkpt>
      <trkpt lat="45.73256" lon="3.05702">
        <ele>711.7</ele>
        <time>2022-08-06T08:13:59Z</time>
      </trkpt>
      <trkpt lat="45.73261" lon="3.05701">
        <ele>712.2</ele>
        <time>2022-08-06T08:14:01Z</time>
      </trkpt>
      <trkpt lat="45.73267" lon="3.057">
        <ele>712.7</ele>
        <time>2022-08-06T08:14:03Z</time>
      </trkpt>
      <trkpt lat="45.73271" lon="3.05698">
        <ele>713.2</ele>
        <time>2022-08-06T08:14:05Z</time>
      </trkpt>
      <trkpt lat="45.73276" lon="3.05695">
        <ele>713.7</ele>
        <time>2022-08-06T08:14:07Z</time>
      </trkpt>
      <trkpt lat="45.7328" lon="3.05692">
        <ele>714.2</ele>
        <time>2022-08-06T08:14:09Z</time>
      </trkpt>
      <trkpt lat="45.73285" lon="3.05689">
        <ele>714.8</ele>
        <time>2022-08-06T08:14:11Z</time>
      </trkpt>
      <trkpt lat="45.7329" lon="3.05685">
        <ele>715.3</ele>
        <time>2022-08-06T08:14:13Z</time>
      </trkpt>
      <trkpt lat="45.73294" lon="3.05682">
        <ele>715.8</ele>
        <time>2022-08-06T08:14:15Z</time>
      </trkpt>
      <trkpt lat="45.73299" lon="3.05678">
        <ele>716.3</ele>
        <time>2022-08-06T08:14:17Z</time>
      </trkpt>
      <trkpt lat="45.73303" lon="3.05675">
        <ele>716.9</ele>
        <time>2022-08-06T08:14:19Z</time>
      </trkpt>
      <trkpt lat="45.73308" lon="3.05672">
        <ele>717.5</ele>
        <time>2022-08-06T08:14:21Z</time>
      </trkpt>
      <trkpt lat="45.73313" lon="3.05669">
        <ele>718</ele>
        <time>2022-08-06T08:14:23Z</time>
      </trkpt>
      <trkpt lat="45.73318" lon="3.05666">
        <ele>718.6</ele>
        <time>2022-08-06T08:14:25Z</time>
      </trkpt>
      <trkpt lat="45.73324" lon="3.05664">
        <ele>719.2</ele>
        <time>2022-08-06T08:14:27Z</time>
      </trkpt>
      <trkpt lat="45.73329" lon="3.05661">
        <ele>719.9</ele>
        <time>2022-08-06T08:14:29Z</time>
      </trkpt>
      <trkpt lat="45.73334" lon="3.0566">
        <ele>720.4</ele>
        <time>2022-08-06T08:14:31Z</time>
      </trkpt>
      <trkpt lat="45.73339" lon="3.05658">
        <ele>720.8</ele>
        <time>2022-08-06T08:14:33Z</time>
      </trkpt>
      <trkpt lat="45.73344" lon="3.05657">
        <ele>721.4</ele>
        <time>2022-08-06T08:14:35Z</time>
      </trkpt>
      <trkpt lat="45.7335" lon="3.05657">
        <ele>722</ele>
        <time>2022-08-06T08:14:37Z</time>
      </trkpt>
      <trkpt lat="45.73356" lon="3.05656">
        <ele>722.6</ele>
        <time>2022-08-06T08:14:39Z</time>
      </trkpt>
      <trkpt lat="45.73361" lon="3.05656">
        <ele>723.1</ele>
        <time>2022-08-06T08:14:41Z</time>
      </trkpt>
      <trkpt lat="45.73367" lon="3.05656">
        <ele>723.7</ele>
        <time>2022-08-06T08:14:43Z</time>
      </trkpt>
      <trkpt lat="45.73372" lon="3.05655">
        <ele>724.2</ele>
        <time>2022-08-06T08:14:45Z</time>
      </trkpt>
      <trkpt lat="45.73377" lon="3.05655">
        <ele>724.7</ele>
        <time>2022-08-06T08:14:47Z</time>
      </trkpt>
      <trkpt lat="45.73383" lon="3.05654">
        <ele>725.1</ele>
        <time>2022-08-06T08:14:49Z</time>
      </trkpt>
      <trkpt lat="45.73388" lon="3.05653">
        <ele>725.6</ele>
        <time>2022-08-06T08:14:51Z</time>
      </trkpt>
      <trkpt lat="45.73393" lon="3.05653">
        <ele>726.1</ele>
        <time>2022-08-06T08:14:53Z</time>
      </trkpt>
      <trkpt lat="45.73397" lon="3.05654">
        <ele>726.5</ele>
        <time>2022-08-06T08:14:55Z</time>
      </trkpt>
      <trkpt lat="45.73403" lon="3.05652">
        <ele>727</ele>
        <time>2022-08-06T08:14:57Z</time>
      </trkpt>
      <trkpt lat="45.73408" lon="3.05652">
        <ele>727.4</ele>
        <time>2022-08-06T08:14:59Z</time>
      </trkpt>
      <trkpt lat="45.73413" lon="3.05651">
        <ele>727.9</ele>
        <time>2022-08-06T08:15:01Z</time>
      </trkpt>
      <trkpt lat="45.73418" lon="3.0565">
        <ele>728.4</ele>
        <time>2022-08-06T08:15:03Z</time>
      </trkpt>
      <trkpt lat="45.73423" lon="3.05648">
        <ele>728.8</ele>
        <time>2022-08-06T08:15:05Z</time>
      </trkpt>
      <trkpt lat="45.73428" lon="3.05647">
        <ele>729.3</ele>
        <time>2022-08-06T08:15:07Z</time>
      </trkpt>
      <trkpt lat="45.73433" lon="3.05646">
        <ele>729.8</ele>
        <time>2022-08-06T08:15:09Z</time>
      </trkpt>
      <trkpt lat="45.73438" lon="3.05644">
        <ele>730.3</ele>
        <time>2022-08-06T08:15:11Z</time>
      </trkpt>
      <trkpt lat="45.73443" lon="3.0564">
        <ele>730.8</ele>
        <time>2022-08-06T08:15:13Z</time>
      </trkpt>
      <trkpt lat="45.73448" lon="3.05637">
        <ele>731.2</ele>
        <time>2022-08-06T08:15:15Z</time>
      </trkpt>
      <trkpt lat="45.73452" lon="3.05633">
        <ele>731.7</ele>
        <time>2022-08-06T08:15:17Z</time>
      </trkpt>
      <trkpt lat="45.73455" lon="3.05628">
        <ele>732.2</ele>
        <time>2022-08-06T08:15:19Z</time>
      </trkpt>
      <trkpt lat="45.73459" lon="3.05623">
        <ele>732.7</ele>
        <time>2022-08-06T08:15:21Z</time>
      </trkpt>
      <trkpt lat="45.73462" lon="3.05618">
        <ele>733.1</ele>
        <time>2022-08-06T08:15:23Z</time>
      </trkpt>
      <trkpt lat="45.73464" lon="3.05613">
        <ele>733.6</ele>
        <time>2022-08-06T08:15:25Z</time>
      </trkpt>
      <trkpt lat="45.73465" lon="3.05605">
        <ele>734.2</ele>
        <time>2022-08-06T08:15:27Z</time>
      </trkpt>
      <trkpt lat="45.73466" lon="3.05597">
        <ele>734.7</ele>
        <time>2022-08-06T08:15:29Z</time>
      </trkpt>
      <trkpt lat="45.73468" lon="3.05589">
        <ele>735.3</ele>
        <time>2022-08-06T08:15:31Z</time>
      </trkpt>
      <trkpt lat="45.73469" lon="3.05583">
        <ele>735.8</ele>
        <time>2022-08-06T08:15:33Z</time>
      </trkpt>
      <trkpt lat="45.7347" lon="3.05575">
        <ele>736.3</ele>
        <time>2022-08-06T08:15:35Z</time>
      </trkpt>
      <trkpt lat="45.73471" lon="3.05568">
        <ele>736.7</ele>
        <time>2022-08-06T08:15:37Z</time>
      </trkpt>
      <trkpt lat="45.73472" lon="3.05561">
        <ele>737.2</ele>
        <time>2022-08-06T08:15:39Z</time>
      </trkpt>
      <trkpt lat="45.73474" lon="3.05555">
        <ele>737.7</ele>
        <time>2022-08-06T08:15:41Z</time>
      </trkpt>
      <trkpt lat="45.73476" lon="3.05547">
        <ele>738.2</ele>
        <time>2022-08-06T08:15:43Z</time>
      </trkpt>
      <trkpt lat="45.73477" lon="3.05539">
        <ele>738.7</ele>
        <time>2022-08-06T08:15:45Z</time>
      </trkpt>
      <trkpt lat="45.73479" lon="3.05532">
        <ele>739.2</ele>
        <time>2022-08-06T08:15:47Z</time>
      </trkpt>
      <trkpt lat="45.73481" lon="3.05525">
        <ele>739.6</ele>
        <time>2022-08-06T08:15:49Z</time>
      </trkpt>
      <trkpt lat="45.73482" lon="3.05518">
        <ele>740.1</ele>
        <time>2022-08-06T08:15:51Z</time>
      </trkpt>
      <trkpt lat="45.73483" lon="3.0551">
        <ele>740.6</ele>
        <time>2022-08-06T08:15:53Z</time>
      </trkpt>
      <trkpt lat="45.73484" lon="3.05501">
        <ele>741.2</ele>
        <time>2022-08-06T08:15:55Z</time>
      </trkpt>
      <trkpt lat="45.73484" lon="3.05493">
        <ele>741.7</ele>
        <time>2022-08-06T08:15:57Z</time>
      </trkpt>
      <trkpt lat="45.73484" lon="3.05486">
        <ele>742.2</ele>
        <time>2022-08-06T08:15:59Z</time>
      </trkpt>
      <trkpt lat="45.73484" lon="3.05478">
        <ele>742.7</ele>
        <time>2022-08-06T08:16:01Z</time>
      </trkpt>
      <trkpt lat="45.73482" lon="3.0547">
        <ele>743.2</ele>
        <time>2022-08-06T08:16:03Z</time>
      </trkpt>
      <trkpt lat="45.73481" lon="3.05463">
        <ele>743.8</ele>
        <time>2022-08-06T08:16:05Z</time>
      </trkpt>
      <trkpt lat="45.7348" lon="3.05454">
        <ele>744.4</ele>
        <time>2022-08-06T08:16:07Z</time>
      </trkpt>
      <trkpt lat="45.73478" lon="3.05447">
        <ele>744.9</ele>
        <time>2022-08-06T08:16:09Z</time>
      </trkpt>
      <trkpt lat="45.73476" lon="3.05439">
        <ele>745.5</ele>
        <time>2022-08-06T08:16:11Z</time>
      </trkpt>
      <trkpt lat="45.73473" lon="3.05431">
        <ele>746.2</ele>
        <time>2022-08-06T08:16:13Z</time>
      </trkpt>
      <trkpt lat="45.73471" lon="3.05424">
        <ele>746.7</ele>
        <time>2022-08-06T08:16:15Z</time>
      </trkpt>
      <trkpt lat="45.73469" lon="3.05416">
        <ele>747.3</ele>
        <time>2022-08-06T08:16:17Z</time>
      </trkpt>
      <trkpt lat="45.73467" lon="3.05408">
        <ele>747.9</ele>
        <time>2022-08-06T08:16:19Z</time>
      </trkpt>
      <trkpt lat="45.73464" lon="3.05402">
        <ele>748.4</ele>
        <time>2022-08-06T08:16:21Z</time>
      </trkpt>
      <trkpt lat="45.73461" lon="3.05397">
        <ele>748.9</ele>
        <time>2022-08-06T08:16:23Z</time>
      </trkpt>
      <trkpt lat="45.73458" lon="3.0539">
        <ele>749.4</ele>
        <time>2022-08-06T08:16:25Z</time>
      </trkpt>
      <trkpt lat="45.73455" lon="3.05384">
        <ele>750</ele>
        <time>2022-08-06T08:16:27Z</time>
      </trkpt>
      <trkpt lat="45.73452" lon="3.05378">
        <ele>750.5</ele>
        <time>2022-08-06T08:16:29Z</time>
      </trkpt>
      <trkpt lat="45.73449" lon="3.05373">
        <ele>751</ele>
        <time>2022-08-06T08:16:31Z</time>
      </trkpt>
      <trkpt lat="45.73445" lon="3.05367">
        <ele>751.5</ele>
        <time>2022-08-06T08:16:33Z</time>
      </trkpt>
      <trkpt lat="45.73441" lon="3.05362">
        <ele>752.1</ele>
        <time>2022-08-06T08:16:35Z</time>
      </trkpt>
      <trkpt lat="45.73436" lon="3.05357">
        <ele>752.6</ele>
        <time>2022-08-06T08:16:37Z</time>
      </trkpt>
      <trkpt lat="45.73432" lon="3.05353">
        <ele>753.1</ele>
        <time>2022-08-06T08:16:39Z</time>
      </trkpt>
      <trkpt lat="45.73428" lon="3.05348">
        <ele>753.6</ele>
        <time>2022-08-06T08:16:41Z</time>
      </trkpt>
      <trkpt lat="45.73425" lon="3.05343">
        <ele>754.1</ele>
        <time>2022-08-06T08:16:43Z</time>
      </trkpt>
      <trkpt lat="45.73421" lon="3.05337">
        <ele>754.6</ele>
        <time>2022-08-06T08:16:45Z</time>
      </trkpt>
      <trkpt lat="45.73417" lon="3.05332">
        <ele>755.2</ele>
        <time>2022-08-06T08:16:47Z</time>
      </trkpt>
      <trkpt lat="45.73413" lon="3.05327">
        <ele>755.5</ele>
        <time>2022-08-06T08:16:49Z</time>
      </trkpt>
      <trkpt lat="45.73409" lon="3.05323">
        <ele>755.6</ele>
        <time>2022-08-06T08:16:51Z</time>
      </trkpt>
      <trkpt lat="45.73406" lon="3.05319">
        <ele>755.7</ele>
        <time>2022-08-06T08:16:53Z</time>
      </trkpt>
      <trkpt lat="45.73401" lon="3.05315">
        <ele>756.2</ele>
        <time>2022-08-06T08:16:55Z</time>
      </trkpt>
      <trkpt lat="45.73396" lon="3.05311">
        <ele>756.7</ele>
        <time>2022-08-06T08:16:57Z</time>
      </trkpt>
      <trkpt lat="45.73392" lon="3.05306">
        <ele>757.3</ele>
        <time>2022-08-06T08:16:59Z</time>
      </trkpt>
      <trkpt lat="45.73387" lon="3.05303">
        <ele>757.8</ele>
        <time>2022-08-06T08:17:01Z</time>
      </trkpt>
      <trkpt lat="45.73382" lon="3.053">
        <ele>758.3</ele>
        <time>2022-08-06T08:17:03Z</time>
      </trkpt>
      <trkpt lat="45.73377" lon="3.05298">
        <ele>758.8</ele>
        <time>2022-08-06T08:17:05Z</time>
      </trkpt>
      <trkpt lat="45.73373" lon="3.05296">
        <ele>759.3</ele>
        <time>2022-08-06T08:17:07Z</time>
      </trkpt>
      <trkpt lat="45.73368" lon="3.05294">
        <ele>759.8</ele>
        <time>2022-08-06T08:17:09Z</time>
      </trkpt>
      <trkpt lat="45.73363" lon="3.05291">
        <ele>760.3</ele>
        <time>2022-08-06T08:17:11Z</time>
      </trkpt>
      <trkpt lat="45.73358" lon="3.0529">
        <ele>760.8</ele>
        <time>2022-08-06T08:17:13Z</time>
      </trkpt>
      <trkpt lat="45.73353" lon="3.05288">
        <ele>761.3</ele>
        <time>2022-08-06T08:17:15Z</time>
      </trkpt>
      <trkpt lat="45.73348" lon="3.05286">
        <ele>761.8</ele>
        <time>2022-08-06T08:17:17Z</time>
      </trkpt>
      <trkpt lat="45.73344" lon="3.05284">
        <ele>762.3</ele>
        <time>2022-08-06T08:17:19Z</time>
      </trkpt>
      <trkpt lat="45.73339" lon="3.05281">
        <ele>762.8</ele>
        <time>2022-08-06T08:17:21Z</time>
      </trkpt>
      <trkpt lat="45.73334" lon="3.05278">
        <ele>763.3</ele>
        <time>2022-08-06T08:17:23Z</time>
      </trkpt>
      <trkpt lat="45.7333" lon="3.05275">
        <ele>763.8</ele>
        <time>2022-08-06T08:17:25Z</time>
      </trkpt>
      <trkpt lat="45.73325" lon="3.05272">
        <ele>764.3</ele>
        <time>2022-08-06T08:17:27Z</time>
      </trkpt>
      <trkpt lat="45.7332" lon="3.05269">
        <ele>764.9</ele>
        <time>2022-08-06T08:17:29Z</time>
      </trkpt>
      <trkpt lat="45.73316" lon="3.05265">
        <ele>765.4</ele>
        <time>2022-08-06T08:17:31Z</time>
      </trkpt>
      <trkpt lat="45.73311" lon="3.05263">
        <ele>765.9</ele>
        <time>2022-08-06T08:17:33Z</time>
      </trkpt>
      <trkpt lat="45.73306" lon="3.0526">
        <ele>766.4</ele>
        <time>2022-08-06T08:17:35Z</time>
      </trkpt>
      <trkpt lat="45.73302" lon="3.05258">
        <ele>766.9</ele>
        <time>2022-08-06T08:17:37Z</time>
      </trkpt>
      <trkpt lat="45.73298" lon="3.05256">
        <ele>767.4</ele>
        <time>2022-08-06T08:17:39Z</time>
      </trkpt>
      <trkpt lat="45.73293" lon="3.05253">
        <ele>767.9</ele>
        <time>2022-08-06T08:17:41Z</time>
      </trkpt>
      <trkpt lat="45.73289" lon="3.0525">
        <ele>768.4</ele>
        <time>2022-08-06T08:17:43Z</time>
      </trkpt>
      <trkpt lat="45.73284" lon="3.05247">
        <ele>768.9</ele>
        <time>2022-08-06T08:17:45Z</time>
      </trkpt>
      <trkpt lat="45.73279" lon="3.05245">
        <ele>769.4</ele>
        <time>2022-08-06T08:17:47Z</time>
      </trkpt>
      <trkpt lat="45.73274" lon="3.05244">
        <ele>770</ele>
        <time>2022-08-06T08:17:49Z</time>
      </trkpt>
      <trkpt lat="45.73269" lon="3.05241">
        <ele>770.5</ele>
        <time>2022-08-06T08:17:51Z</time>
      </trkpt>
      <trkpt lat="45.73264" lon="3.05239">
        <ele>771</ele>
        <time>2022-08-06T08:17:53Z</time>
      </trkpt>
      <trkpt lat="45.73259" lon="3.05235">
        <ele>771.5</ele>
        <time>2022-08-06T08:17:55Z</time>
      </trkpt>
      <trkpt lat="45.73254" lon="3.05232">
        <ele>772</ele>
        <time>2022-08-06T08:17:57Z</time>
      </trkpt>
      <trkpt lat="45.7325" lon="3.05229">
        <ele>772.5</ele>
        <time>2022-08-06T08:17:59Z</time>
      </trkpt>
      <trkpt lat="45.73245" lon="3.05226">
        <ele>773.1</ele>
        <time>2022-08-06T08:18:01Z</time>
      </trkpt>
      <trkpt lat="45.7324" lon="3.05223">
        <ele>773.6</ele>
        <time>2022-08-06T08:18:03Z</time>
      </trkpt>
      <trkpt lat="45.73234" lon="3.0522">
        <ele>774.2</ele>
        <time>2022-08-06T08:18:05Z</time>
      </trkpt>
      <trkpt lat="45.73229" lon="3.05217">
        <ele>774.8</ele>
        <time>2022-08-06T08:18:07Z</time>
      </trkpt>
      <trkpt lat="45.73224" lon="3.05214">
        <ele>775.3</ele>
        <time>2022-08-06T08:18:09Z</time>
      </trkpt>
      <trkpt lat="45.7322" lon="3.05211">
        <ele>775.9</ele>
        <time>2022-08-06T08:18:11Z</time>
      </trkpt>
      <trkpt lat="45.73215" lon="3.05207">
        <ele>776.5</ele>
        <time>2022-08-06T08:18:13Z</time>
      </trkpt>
      <trkpt lat="45.7321" lon="3.05203">
        <ele>777</ele>
        <time>2022-08-06T08:18:15Z</time>
      </trkpt>
      <trkpt lat="45.73206" lon="3.052">
        <ele>777.5</ele>
        <time>2022-08-06T08:18:17Z</time>
      </trkpt>
      <trkpt lat="45.73202" lon="3.05196">
        <ele>778</ele>
        <time>2022-08-06T08:18:19Z</time>
      </trkpt>
      <trkpt lat="45.73199" lon="3.05193">
        <ele>778.5</ele>
        <time>2022-08-06T08:18:21Z</time>
      </trkpt>
      <trkpt lat="45.73195" lon="3.05189">
        <ele>778.9</ele>
        <time>2022-08-06T08:18:23Z</time>
      </trkpt>
      <trkpt lat="45.73189" lon="3.05186">
        <ele>779.6</ele>
        <time>2022-08-06T08:18:25Z</time>
      </trkpt>
      <trkpt lat="45.73184" lon="3.05183">
        <ele>780.2</ele>
        <time>2022-08-06T08:18:27Z</time>
      </trkpt>
      <trkpt lat="45.73179" lon="3.05179">
        <ele>780.8</ele>
        <time>2022-08-06T08:18:29Z</time>
      </trkpt>
      <trkpt lat="45.73175" lon="3.05174">
        <ele>781.3</ele>
        <time>2022-08-06T08:18:31Z</time>
      </trkpt>
      <trkpt lat="45.7317" lon="3.05171">
        <ele>781.9</ele>
        <time>2022-08-06T08:18:33Z</time>
      </trkpt>
      <trkpt lat="45.73166" lon="3.05167">
        <ele>782.4</ele>
        <time>2022-08-06T08:18:35Z</time>
      </trkpt>
      <trkpt lat="45.73161" lon="3.05164">
        <ele>782.9</ele>
        <time>2022-08-06T08:18:37Z</time>
      </trkpt>
      <trkpt lat="45.73156" lon="3.05161">
        <ele>783.5</ele>
        <time>2022-08-06T08:18:39Z</time>
      </trkpt>
      <trkpt lat="45.73151" lon="3.05159">
        <ele>784</ele>
        <time>2022-08-06T08:18:41Z</time>
      </trkpt>
      <trkpt lat="45.73146" lon="3.05156">
        <ele>784.5</ele>
        <time>2022-08-06T08:18:43Z</time>
      </trkpt>
      <trkpt lat="45.73141" lon="3.05154">
        <ele>785.1</ele>
        <time>2022-08-06T08:18:45Z</time>
      </trkpt>
      <trkpt lat="45.73136" lon="3.05152">
        <ele>785.6</ele>
        <time>2022-08-06T08:18:47Z</time>
      </trkpt>
      <trkpt lat="45.73131" lon="3.0515">
        <ele>786.1</ele>
        <time>2022-08-06T08:18:49Z</time>
      </trkpt>
      <trkpt lat="45.73126" lon="3.05147">
        <ele>786.7</ele>
        <time>2022-08-06T08:18:51Z</time>
      </trkpt>
      <trkpt lat="45.73121" lon="3.05145">
        <ele>787.2</ele>
        <time>2022-08-06T08:18:53Z</time>
      </trkpt>
      <trkpt lat="45.73115" lon="3.05142">
        <ele>787.7</ele>
        <time>2022-08-06T08:18:55Z</time>
      </trkpt>
      <trkpt lat="45.7311" lon="3.05139">
        <ele>788.3</ele>
        <time>2022-08-06T08:18:57Z</time>
      </trkpt>
      <trkpt lat="45.73106" lon="3.05135">
        <ele>788.8</ele>
        <time>2022-08-06T08:18:59Z</time>
      </trkpt>
      <trkpt lat="45.73101" lon="3.05131">
        <ele>789.3</ele>
        <time>2022-08-06T08:19:01Z</time>
      </trkpt>
      <trkpt lat="45.73097" lon="3.05126">
        <ele>789.8</ele>
        <time>2022-08-06T08:19:03Z</time>
      </trkpt>
      <trkpt lat="45.73093" lon="3.05122">
        <ele>790.3</ele>
        <time>2022-08-06T08:19:05Z</time>
      </trkpt>
      <trkpt lat="45.73089" lon="3.05117">
        <ele>790.8</ele>
        <time>2022-08-06T08:19:07Z</time>
      </trkpt>
      <trkpt lat="45.73085" lon="3.05113">
        <ele>791.3</ele>
        <time>2022-08-06T08:19:09Z</time>
      </trkpt>
      <trkpt lat="45.73081" lon="3.05108">
        <ele>791.8</ele>
        <time>2022-08-06T08:19:11Z</time>
      </trkpt>
      <trkpt lat="45.73077" lon="3.05103">
        <ele>792.3</ele>
        <time>2022-08-06T08:19:13Z</time>
      </trkpt>
      <trkpt lat="45.73073" lon="3.05098">
        <ele>792.8</ele>
        <time>2022-08-06T08:19:15Z</time>
      </trkpt>
      <trkpt lat="45.7307" lon="3.05094">
        <ele>793.3</ele>
        <time>2022-08-06T08:19:17Z</time>
      </trkpt>
      <trkpt lat="45.73066" lon="3.0509">
        <ele>793.7</ele>
        <time>2022-08-06T08:19:19Z</time>
      </trkpt>
      <trkpt lat="45.73062" lon="3.05085">
        <ele>794.3</ele>
        <time>2022-08-06T08:19:21Z</time>
      </trkpt>
      <trkpt lat="45.73058" lon="3.0508">
        <ele>794.8</ele>
        <time>2022-08-06T08:19:23Z</time>
      </trkpt>
      <trkpt lat="45.73055" lon="3.05075">
        <ele>795.3</ele>
        <time>2022-08-06T08:19:25Z</time>
      </trkpt>
      <trkpt lat="45.73051" lon="3.0507">
        <ele>795.8</ele>
        <time>2022-08-06T08:19:27Z</time>
      </trkpt>
      <trkpt lat="45.73046" lon="3.05067">
        <ele>796.3</ele>
        <time>2022-08-06T08:19:29Z</time>
      </trkpt>
      <trkpt lat="45.73043" lon="3.05063">
        <ele>796.8</ele>
        <time>2022-08-06T08:19:31Z</time>
      </trkpt>
      <trkpt lat="45.73038" lon="3.05059">
        <ele>797.3</ele>
        <time>2022-08-06T08:19:33Z</time>
      </trkpt>
      <trkpt lat="45.73034" lon="3.05055">
        <ele>797.8</ele>
        <time>2022-08-06T08:19:35Z</time>
      </trkpt>
      <trkpt lat="45.7303" lon="3.05051">
        <ele>798.3</ele>
        <time>2022-08-06T08:19:37Z</time>
      </trkpt>
      <trkpt lat="45.73025" lon="3.05046">
        <ele>798.8</ele>
        <time>2022-08-06T08:19:39Z</time>
      </trkpt>
      <trkpt lat="45.73021" lon="3.05042">
        <ele>799.2</ele>
        <time>2022-08-06T08:19:41Z</time>
      </trkpt>
      <trkpt lat="45.73017" lon="3.05038">
        <ele>799.9</ele>
        <time>2022-08-06T08:19:43Z</time>
      </trkpt>
      <trkpt lat="45.73013" lon="3.05033">
        <ele>800.4</ele>
        <time>2022-08-06T08:19:45Z</time>
      </trkpt>
      <trkpt lat="45.73009" lon="3.05028">
        <ele>800.9</ele>
        <time>2022-08-06T08:19:47Z</time>
      </trkpt>
      <trkpt lat="45.73007" lon="3.05023">
        <ele>801.4</ele>
        <time>2022-08-06T08:19:49Z</time>
      </trkpt>
      <trkpt lat="45.73004" lon="3.05018">
        <ele>801.8</ele>
        <time>2022-08-06T08:19:51Z</time>
      </trkpt>
      <trkpt lat="45.73001" lon="3.05013">
        <ele>802.4</ele>
        <time>2022-08-06T08:19:53Z</time>
      </trkpt>
      <trkpt lat="45.72998" lon="3.05007">
        <ele>802.8</ele>
        <time>2022-08-06T08:19:55Z</time>
      </trkpt>
      <trkpt lat="45.72995" lon="3.05002">
        <ele>803.3</ele>
        <time>2022-08-06T08:19:57Z</time>
      </trkpt>
      <trkpt lat="45.72991" lon="3.04996">
        <ele>803.9</ele>
        <time>2022-08-06T08:19:59Z</time>
      </trkpt>
      <trkpt lat="45.72988" lon="3.0499">
        <ele>804.4</ele>
        <time>2022-08-06T08:20:01Z</time>
      </trkpt>
      <trkpt lat="45.72984" lon="3.04985">
        <ele>804.9</ele>
        <time>2022-08-06T08:20:03Z</time>
      </trkpt>
      <trkpt lat="45.72981" lon="3.0498">
        <ele>805.4</ele>
        <time>2022-08-06T08:20:05Z</time>
      </trkpt>
      <trkpt lat="45.72977" lon="3.04974">
        <ele>805.9</ele>
        <time>2022-08-06T08:20:07Z</time>
      </trkpt>
      <trkpt lat="45.72974" lon="3.0497">
        <ele>806.4</ele>
        <time>2022-08-06T08:20:09Z</time>
      </trkpt>
      <trkpt lat="45.7297" lon="3.04966">
        <ele>806.8</ele>
        <time>2022-08-06T08:20:11Z</time>
      </trkpt>
      <trkpt lat="45.72966" lon="3.04962">
        <ele>807.3</ele>
        <time>2022-08-06T08:20:13Z</time>
      </trkpt>
      <trkpt lat="45.72961" lon="3.04959">
        <ele>807.7</ele>
        <time>2022-08-06T08:20:15Z</time>
      </trkpt>
      <trkpt lat="45.72957" lon="3.04955">
        <ele>808.2</ele>
        <time>2022-08-06T08:20:17Z</time>
      </trkpt>
      <trkpt lat="45.72953" lon="3.04951">
        <ele>808.6</ele>
        <time>2022-08-06T08:20:19Z</time>
      </trkpt>
      <trkpt lat="45.72948" lon="3.04947">
        <ele>809</ele>
        <time>2022-08-06T08:20:21Z</time>
      </trkpt>
      <trkpt lat="45.72944" lon="3.04944">
        <ele>809.4</ele>
        <time>2022-08-06T08:20:23Z</time>
      </trkpt>
      <trkpt lat="45.72939" lon="3.04941">
        <ele>809.7</ele>
        <time>2022-08-06T08:20:25Z</time>
      </trkpt>
      <trkpt lat="45.72935" lon="3.04938">
        <ele>810.1</ele>
        <time>2022-08-06T08:20:27Z</time>
      </trkpt>
      <trkpt lat="45.7293" lon="3.04935">
        <ele>810.4</ele>
        <time>2022-08-06T08:20:29Z</time>
      </trkpt>
      <trkpt lat="45.72925" lon="3.04932">
        <ele>810.7</ele>
        <time>2022-08-06T08:20:31Z</time>
      </trkpt>
      <trkpt lat="45.72919" lon="3.0493">
        <ele>811</ele>
        <time>2022-08-06T08:20:33Z</time>
      </trkpt>
      <trkpt lat="45.72914" lon="3.04929">
        <ele>811.2</ele>
        <time>2022-08-06T08:20:35Z</time>
      </trkpt>
      <trkpt lat="45.72908" lon="3.04928">
        <ele>811.3</ele>
        <time>2022-08-06T08:20:37Z</time>
      </trkpt>
      <trkpt lat="45.72901" lon="3.04927">
        <ele>811.5</ele>
        <time>2022-08-06T08:20:39Z</time>
      </trkpt>
      <trkpt lat="45.72894" lon="3.04927">
        <ele>811.6</ele>
        <time>2022-08-06T08:20:41Z</time>
      </trkpt>
      <trkpt lat="45.72887" lon="3.04926">
        <ele>811.7</ele>
        <time>2022-08-06T08:20:43Z</time>
      </trkpt>
      <trkpt lat="45.72879" lon="3.04926">
        <ele>811.8</ele>
        <time>2022-08-06T08:20:45Z</time>
      </trkpt>
      <trkpt lat="45.72871" lon="3.04926">
        <ele>811.9</ele>
        <time>2022-08-06T08:20:47Z</time>
      </trkpt>
      <trkpt lat="45.72864" lon="3.04927">
        <ele>812</ele>
        <time>2022-08-06T08:20:49Z</time>
      </trkpt>
      <trkpt lat="45.72855" lon="3.04927">
        <ele>812.1</ele>
        <time>2022-08-06T08:20:51Z</time>
      </trkpt>
      <trkpt lat="45.72847" lon="3.04925">
        <ele>812.2</ele>
        <time>2022-08-06T08:20:53Z</time>
      </trkpt>
      <trkpt lat="45.72838" lon="3.04923">
        <ele>812.2</ele>
        <time>2022-08-06T08:20:55Z</time>
      </trkpt>
      <trkpt lat="45.7283" lon="3.04922">
        <ele>812.3</ele>
        <time>2022-08-06T08:20:57Z</time>
      </trkpt>
      <trkpt lat="45.72821" lon="3.0492">
        <ele>812.3</ele>
        <time>2022-08-06T08:20:59Z</time>
      </trkpt>
      <trkpt lat="45.72811" lon="3.04919">
        <ele>812.3</ele>
        <time>2022-08-06T08:21:01Z</time>
      </trkpt>
      <trkpt lat="45.72801" lon="3.04917">
        <ele>812.4</ele>
        <time>2022-08-06T08:21:03Z</time>
      </trkpt>
      <trkpt lat="45.7279" lon="3.04917">
        <ele>812.4</ele>
        <time>2022-08-06T08:21:05Z</time>
      </trkpt>
      <trkpt lat="45.7278" lon="3.04917">
        <ele>812.5</ele>
        <time>2022-08-06T08:21:07Z</time>
      </trkpt>
      <trkpt lat="45.72769" lon="3.04919">
        <ele>812.5</ele>
        <time>2022-08-06T08:21:09Z</time>
      </trkpt>
      <trkpt lat="45.72758" lon="3.04922">
        <ele>812.6</ele>
        <time>2022-08-06T08:21:11Z</time>
      </trkpt>
      <trkpt lat="45.72746" lon="3.04926">
        <ele>812.6</ele>
        <time>2022-08-06T08:21:13Z</time>
      </trkpt>
      <trkpt lat="45.72734" lon="3.04927">
        <ele>812.7</ele>
        <time>2022-08-06T08:21:15Z</time>
      </trkpt>
      <trkpt lat="45.72722" lon="3.04925">
        <ele>812.8</ele>
        <time>2022-08-06T08:21:17Z</time>
      </trkpt>
      <trkpt lat="45.72711" lon="3.04922">
        <ele>812.9</ele>
        <time>2022-08-06T08:21:19Z</time>
      </trkpt>
      <trkpt lat="45.727" lon="3.04917">
        <ele>813</ele>
        <time>2022-08-06T08:21:21Z</time>
      </trkpt>
      <trkpt lat="45.72689" lon="3.04912">
        <ele>813.1</ele>
        <time>2022-08-06T08:21:23Z</time>
      </trkpt>
      <trkpt lat="45.72678" lon="3.04906">
        <ele>813.2</ele>
        <time>2022-08-06T08:21:25Z</time>
      </trkpt>
      <trkpt lat="45.72668" lon="3.049">
        <ele>813.4</ele>
        <time>2022-08-06T08:21:27Z</time>
      </trkpt>
      <trkpt lat="45.72657" lon="3.04895">
        <ele>813.7</ele>
        <time>2022-08-06T08:21:29Z</time>
      </trkpt>
      <trkpt lat="45.72646" lon="3.04889">
        <ele>813.9</ele>
        <time>2022-08-06T08:21:31Z</time>
      </trkpt>
      <trkpt lat="45.72635" lon="3.04884">
        <ele>814</ele>
        <time>2022-08-06T08:21:33Z</time>
      </trkpt>
      <trkpt lat="45.72623" lon="3.04881">
        <ele>814.2</ele>
        <time>2022-08-06T08:21:35Z</time>
      </trkpt>
      <trkpt lat="45.72612" lon="3.04879">
        <ele>814.4</ele>
        <time>2022-08-06T08:21:37Z</time>
      </trkpt>
      <trkpt lat="45.72601" lon="3.04878">
        <ele>814.7</ele>
        <time>2022-08-06T08:21:39Z</time>
      </trkpt>
      <trkpt lat="45.72589" lon="3.04878">
        <ele>814.9</ele>
        <time>2022-08-06T08:21:41Z</time>
      </trkpt>
      <trkpt lat="45.72579" lon="3.04877">
        <ele>815.2</ele>
        <time>2022-08-06T08:21:43Z</time>
      </trkpt>
      <trkpt lat="45.72569" lon="3.04876">
        <ele>815.8</ele>
        <time>2022-08-06T08:21:45Z</time>
      </trkpt>
      <trkpt lat="45.7256" lon="3.04871">
        <ele>816.5</ele>
        <time>2022-08-06T08:21:47Z</time>
      </trkpt>
      <trkpt lat="45.72551" lon="3.04865">
        <ele>817.2</ele>
        <time>2022-08-06T08:21:49Z</time>
      </trkpt>
      <trkpt lat="45.72544" lon="3.0486">
        <ele>817.9</ele>
        <time>2022-08-06T08:21:51Z</time>
      </trkpt>
      <trkpt lat="45.72536" lon="3.04854">
        <ele>818.6</ele>
        <time>2022-08-06T08:21:53Z</time>
      </trkpt>
      <trkpt lat="45.72529" lon="3.04848">
        <ele>819.3</ele>
        <time>2022-08-06T08:21:55Z</time>
      </trkpt>
      <trkpt lat="45.72523" lon="3.04842">
        <ele>819.9</ele>
        <time>2022-08-06T08:21:57Z</time>
      </trkpt>
      <trkpt lat="45.72517" lon="3.04834">
        <ele>820.5</ele>
        <time>2022-08-06T08:21:59Z</time>
      </trkpt>
      <trkpt lat="45.72512" lon="3.04825">
        <ele>821.1</ele>
        <time>2022-08-06T08:22:01Z</time>
      </trkpt>
      <trkpt lat="45.72507" lon="3.04817">
        <ele>821.8</ele>
        <time>2022-08-06T08:22:03Z</time>
      </trkpt>
      <trkpt lat="45.72503" lon="3.0481">
        <ele>822.4</ele>
        <time>2022-08-06T08:22:05Z</time>
      </trkpt>
      <trkpt lat="45.725" lon="3.04803">
        <ele>822.9</ele>
        <time>2022-08-06T08:22:07Z</time>
      </trkpt>
      <trkpt lat="45.72496" lon="3.04797">
        <ele>823.3</ele>
        <time>2022-08-06T08:22:09Z</time>
      </trkpt>
      <trkpt lat="45.72493" lon="3.0479">
        <ele>823.9</ele>
        <time>2022-08-06T08:22:11Z</time>
      </trkpt>
      <trkpt lat="45.72489" lon="3.04782">
        <ele>824.4</ele>
        <time>2022-08-06T08:22:13Z</time>
      </trkpt>
      <trkpt lat="45.72485" lon="3.04774">
        <ele>824.8</ele>
        <time>2022-08-06T08:22:15Z</time>
      </trkpt>
      <trkpt lat="45.72483" lon="3.04766">
        <ele>825.1</ele>
        <time>2022-08-06T08:22:17Z</time>
      </trkpt>
      <trkpt lat="45.72481" lon="3.04757">
        <ele>825.5</ele>
        <time>2022-08-06T08:22:19Z</time>
      </trkpt>
      <trkpt lat="45.72479" lon="3.04748">
        <ele>825.8</ele>
        <time>2022-08-06T08:22:21Z</time>
      </trkpt>
      <trkpt lat="45.72478" lon="3.0474">
        <ele>826.3</ele>
        <time>2022-08-06T08:22:23Z</time>
      </trkpt>
      <trkpt lat="45.72476" lon="3.04731">
        <ele>826.8</ele>
        <time>2022-08-06T08:22:25Z</time>
      </trkpt>
      <trkpt lat="45.72475" lon="3.04723">
        <ele>827.3</ele>
        <time>2022-08-06T08:22:27Z</time>
      </trkpt>
      <trkpt lat="45.72473" lon="3.04715">
        <ele>827.7</ele>
        <time>2022-08-06T08:22:29Z</time>
      </trkpt>
      <trkpt lat="45.72472" lon="3.04707">
        <ele>828.2</ele>
        <time>2022-08-06T08:22:31Z</time>
      </trkpt>
      <trkpt lat="45.7247" lon="3.04698">
        <ele>828.6</ele>
        <time>2022-08-06T08:22:33Z</time>
      </trkpt>
      <trkpt lat="45.72468" lon="3.0469">
        <ele>828.9</ele>
        <time>2022-08-06T08:22:35Z</time>
      </trkpt>
      <trkpt lat="45.72466" lon="3.04681">
        <ele>829.3</ele>
        <time>2022-08-06T08:22:37Z</time>
      </trkpt>
      <trkpt lat="45.72462" lon="3.04673">
        <ele>829.5</ele>
        <time>2022-08-06T08:22:39Z</time>
      </trkpt>
      <trkpt lat="45.72458" lon="3.04663">
        <ele>829.8</ele>
        <time>2022-08-06T08:22:41Z</time>
      </trkpt>
      <trkpt lat="45.72454" lon="3.04655">
        <ele>829.9</ele>
        <time>2022-08-06T08:22:43Z</time>
      </trkpt>
      <trkpt lat="45.72449" lon="3.04644">
        <ele>830.2</ele>
        <time>2022-08-06T08:22:45Z</time>
      </trkpt>
      <trkpt lat="45.72443" lon="3.04635">
        <ele>830.3</ele>
        <time>2022-08-06T08:22:47Z</time>
      </trkpt>
      <trkpt lat="45.72437" lon="3.04627">
        <ele>830.5</ele>
        <time>2022-08-06T08:22:49Z</time>
      </trkpt>
      <trkpt lat="45.72429" lon="3.04622">
        <ele>830.6</ele>
        <time>2022-08-06T08:22:51Z</time>
      </trkpt>
      <trkpt lat="45.72421" lon="3.04618">
        <ele>830.6</ele>
        <time>2022-08-06T08:22:53Z</time>
      </trkpt>
      <trkpt lat="45.72413" lon="3.04612">
        <ele>830.7</ele>
        <time>2022-08-06T08:22:55Z</time>
      </trkpt>
      <trkpt lat="45.72405" lon="3.04605">
        <ele>830.9</ele>
        <time>2022-08-06T08:22:57Z</time>
      </trkpt>
      <trkpt lat="45.72398" lon="3.04597">
        <ele>831.3</ele>
        <time>2022-08-06T08:22:59Z</time>
      </trkpt>
      <trkpt lat="45.72391" lon="3.0459">
        <ele>831.6</ele>
        <time>2022-08-06T08:23:01Z</time>
      </trkpt>
      <trkpt lat="45.72384" lon="3.04584">
        <ele>832</ele>
        <time>2022-08-06T08:23:03Z</time>
      </trkpt>
      <trkpt lat="45.72378" lon="3.04578">
        <ele>832.4</ele>
        <time>2022-08-06T08:23:05Z</time>
      </trkpt>
      <trkpt lat="45.72372" lon="3.04571">
        <ele>832.9</ele>
        <time>2022-08-06T08:23:07Z</time>
      </trkpt>
      <trkpt lat="45.72367" lon="3.04565">
        <ele>833.3</ele>
        <time>2022-08-06T08:23:09Z</time>
      </trkpt>
      <trkpt lat="45.72361" lon="3.04558">
        <ele>833.8</ele>
        <time>2022-08-06T08:23:11Z</time>
      </trkpt>
      <trkpt lat="45.72358" lon="3.04549">
        <ele>834.3</ele>
        <time>2022-08-06T08:23:13Z</time>
      </trkpt>
      <trkpt lat="45.72357" lon="3.0454">
        <ele>834.7</ele>
        <time>2022-08-06T08:23:15Z</time>
      </trkpt>
      <trkpt lat="45.72359" lon="3.0453">
        <ele>835</ele>
        <time>2022-08-06T08:23:17Z</time>
      </trkpt>
      <trkpt lat="45.72363" lon="3.04523">
        <ele>835.1</ele>
        <time>2022-08-06T08:23:19Z</time>
      </trkpt>
      <trkpt lat="45.72368" lon="3.04517">
        <ele>835.3</ele>
        <time>2022-08-06T08:23:21Z</time>
      </trkpt>
      <trkpt lat="45.72374" lon="3.04513">
        <ele>835.6</ele>
        <time>2022-08-06T08:23:23Z</time>
      </trkpt>
      <trkpt lat="45.72381" lon="3.04512">
        <ele>835.9</ele>
        <time>2022-08-06T08:23:25Z</time>
      </trkpt>
      <trkpt lat="45.72388" lon="3.04514">
        <ele>836.3</ele>
        <time>2022-08-06T08:23:27Z</time>
      </trkpt>
      <trkpt lat="45.72394" lon="3.04517">
        <ele>836.6</ele>
        <time>2022-08-06T08:23:29Z</time>
      </trkpt>
      <trkpt lat="45.72399" lon="3.04521">
        <ele>836.9</ele>
        <time>2022-08-06T08:23:31Z</time>
      </trkpt>
      <trkpt lat="45.72405" lon="3.04525">
        <ele>837.3</ele>
        <time>2022-08-06T08:23:33Z</time>
      </trkpt>
      <trkpt lat="45.72411" lon="3.0453">
        <ele>837.8</ele>
        <time>2022-08-06T08:23:35Z</time>
      </trkpt>
      <trkpt lat="45.72416" lon="3.04535">
        <ele>838.3</ele>
        <time>2022-08-06T08:23:37Z</time>
      </trkpt>
      <trkpt lat="45.72422" lon="3.04538">
        <ele>838.8</ele>
        <time>2022-08-06T08:23:39Z</time>
      </trkpt>
      <trkpt lat="45.72428" lon="3.04542">
        <ele>839.3</ele>
        <time>2022-08-06T08:23:41Z</time>
      </trkpt>
      <trkpt lat="45.72434" lon="3.04546">
        <ele>839.7</ele>
        <time>2022-08-06T08:23:43Z</time>
      </trkpt>
      <trkpt lat="45.7244" lon="3.04549">
        <ele>840.1</ele>
        <time>2022-08-06T08:23:45Z</time>
      </trkpt>
      <trkpt lat="45.72446" lon="3.04552">
        <ele>840.6</ele>
        <time>2022-08-06T08:23:47Z</time>
      </trkpt>
      <trkpt lat="45.72452" lon="3.04552">
        <ele>841</ele>
        <time>2022-08-06T08:23:49Z</time>
      </trkpt>
      <trkpt lat="45.72459" lon="3.04552">
        <ele>841.5</ele>
        <time>2022-08-06T08:23:51Z</time>
      </trkpt>
      <trkpt lat="45.72465" lon="3.04548">
        <ele>841.9</ele>
        <time>2022-08-06T08:23:53Z</time>
      </trkpt>
      <trkpt lat="45.7247" lon="3.04543">
        <ele>842.4</ele>
        <time>2022-08-06T08:23:55Z</time>
      </trkpt>
      <trkpt lat="45.72474" lon="3.04535">
        <ele>842.6</ele>
        <time>2022-08-06T08:23:57Z</time>
      </trkpt>
      <trkpt lat="45.72476" lon="3.04526">
        <ele>842.9</ele>
        <time>2022-08-06T08:23:59Z</time>
      </trkpt>
      <trkpt lat="45.72476" lon="3.04517">
        <ele>843.2</ele>
        <time>2022-08-06T08:24:01Z</time>
      </trkpt>
      <trkpt lat="45.72474" lon="3.04507">
        <ele>843.6</ele>
        <time>2022-08-06T08:24:03Z</time>
      </trkpt>
      <trkpt lat="45.72471" lon="3.04499">
        <ele>843.9</ele>
        <time>2022-08-06T08:24:05Z</time>
      </trkpt>
      <trkpt lat="45.72467" lon="3.04491">
        <ele>844.2</ele>
        <time>2022-08-06T08:24:07Z</time>
      </trkpt>
      <trkpt lat="45.72461" lon="3.04483">
        <ele>844.5</ele>
        <time>2022-08-06T08:24:09Z</time>
      </trkpt>
      <trkpt lat="45.72456" lon="3.04476">
        <ele>844.8</ele>
        <time>2022-08-06T08:24:11Z</time>
      </trkpt>
      <trkpt lat="45.7245" lon="3.04467">
        <ele>845</ele>
        <time>2022-08-06T08:24:13Z</time>
      </trkpt>
      <trkpt lat="45.72445" lon="3.04457">
        <ele>845.2</ele>
        <time>2022-08-06T08:24:15Z</time>
      </trkpt>
      <trkpt lat="45.72442" lon="3.04446">
        <ele>845.4</ele>
        <time>2022-08-06T08:24:17Z</time>
      </trkpt>
      <trkpt lat="45.7244" lon="3.04433">
        <ele>845.5</ele>
        <time>2022-08-06T08:24:19Z</time>
      </trkpt>
      <trkpt lat="45.72439" lon="3.0442">
        <ele>845.6</ele>
        <time>2022-08-06T08:24:21Z</time>
      </trkpt>
      <trkpt lat="45.72436" lon="3.04406">
        <ele>845.8</ele>
        <time>2022-08-06T08:24:23Z</time>
      </trkpt>
      <trkpt lat="45.72435" lon="3.04392">
        <ele>845.9</ele>
        <time>2022-08-06T08:24:25Z</time>
      </trkpt>
      <trkpt lat="45.72433" lon="3.04376">
        <ele>846</ele>
        <time>2022-08-06T08:24:27Z</time>
      </trkpt>
      <trkpt lat="45.72431" lon="3.04361">
        <ele>846.1</ele>
        <time>2022-08-06T08:24:29Z</time>
      </trkpt>
      <trkpt lat="45.7243" lon="3.04345">
        <ele>846.3</ele>
        <time>2022-08-06T08:24:31Z</time>
      </trkpt>
      <trkpt lat="45.72428" lon="3.0433">
        <ele>846.4</ele>
        <time>2022-08-06T08:24:33Z</time>
      </trkpt>
      <trkpt lat="45.72426" lon="3.04315">
        <ele>846.5</ele>
        <time>2022-08-06T08:24:35Z</time>
      </trkpt>
      <trkpt lat="45.72423" lon="3.043">
        <ele>846.6</ele>
        <time>2022-08-06T08:24:37Z</time>
      </trkpt>
      <trkpt lat="45.72419" lon="3.04285">
        <ele>846.7</ele>
        <time>2022-08-06T08:24:39Z</time>
      </trkpt>
      <trkpt lat="45.72414" lon="3.0427">
        <ele>846.8</ele>
        <time>2022-08-06T08:24:41Z</time>
      </trkpt>
      <trkpt lat="45.72409" lon="3.04255">
        <ele>846.9</ele>
        <time>2022-08-06T08:24:43Z</time>
      </trkpt>
      <trkpt lat="45.72403" lon="3.0424">
        <ele>847</ele>
        <time>2022-08-06T08:24:45Z</time>
      </trkpt>
      <trkpt lat="45.72398" lon="3.04226">
        <ele>847.2</ele>
        <time>2022-08-06T08:24:47Z</time>
      </trkpt>
      <trkpt lat="45.72393" lon="3.04212">
        <ele>847.3</ele>
        <time>2022-08-06T08:24:49Z</time>
      </trkpt>
      <trkpt lat="45.72387" lon="3.04196">
        <ele>847.4</ele>
        <time>2022-08-06T08:24:51Z</time>
      </trkpt>
      <trkpt lat="45.72382" lon="3.04181">
        <ele>847.5</ele>
        <time>2022-08-06T08:24:53Z</time>
      </trkpt>
      <trkpt lat="45.72376" lon="3.04166">
        <ele>847.6</ele>
        <time>2022-08-06T08:24:55Z</time>
      </trkpt>
      <trkpt lat="45.72371" lon="3.0415">
        <ele>847.7</ele>
        <time>2022-08-06T08:24:57Z</time>
      </trkpt>
      <trkpt lat="45.72367" lon="3.04135">
        <ele>847.8</ele>
        <time>2022-08-06T08:24:59Z</time>
      </trkpt>
      <trkpt lat="45.72363" lon="3.04118">
        <ele>848</ele>
        <time>2022-08-06T08:25:01Z</time>
      </trkpt>
      <trkpt lat="45.72359" lon="3.041">
        <ele>848.2</ele>
        <time>2022-08-06T08:25:03Z</time>
      </trkpt>
      <trkpt lat="45.72357" lon="3.04082">
        <ele>848.3</ele>
        <time>2022-08-06T08:25:05Z</time>
      </trkpt>
      <trkpt lat="45.72354" lon="3.04064">
        <ele>848.5</ele>
        <time>2022-08-06T08:25:07Z</time>
      </trkpt>
      <trkpt lat="45.72352" lon="3.04046">
        <ele>848.7</ele>
        <time>2022-08-06T08:25:09Z</time>
      </trkpt>
      <trkpt lat="45.7235" lon="3.0403">
        <ele>848.9</ele>
        <time>2022-08-06T08:25:11Z</time>
      </trkpt>
      <trkpt lat="45.7235" lon="3.04014">
        <ele>849.2</ele>
        <time>2022-08-06T08:25:13Z</time>
      </trkpt>
      <trkpt lat="45.72351" lon="3.03998">
        <ele>849.5</ele>
        <time>2022-08-06T08:25:15Z</time>
      </trkpt>
      <trkpt lat="45.72352" lon="3.03981">
        <ele>849.8</ele>
        <time>2022-08-06T08:25:17Z</time>
      </trkpt>
      <trkpt lat="45.72354" lon="3.03966">
        <ele>850</ele>
        <time>2022-08-06T08:25:19Z</time>
      </trkpt>
      <trkpt lat="45.72353" lon="3.0395">
        <ele>850.3</ele>
        <time>2022-08-06T08:25:21Z</time>
      </trkpt>
      <trkpt lat="45.72352" lon="3.03934">
        <ele>850.5</ele>
        <time>2022-08-06T08:25:23Z</time>
      </trkpt>
      <trkpt lat="45.7235" lon="3.03919">
        <ele>850.9</ele>
        <time>2022-08-06T08:25:25Z</time>
      </trkpt>
      <trkpt lat="45.72348" lon="3.03903">
        <ele>851.2</ele>
        <time>2022-08-06T08:25:27Z</time>
      </trkpt>
      <trkpt lat="45.72345" lon="3.03887">
        <ele>851.4</ele>
        <time>2022-08-06T08:25:29Z</time>
      </trkpt>
      <trkpt lat="45.72343" lon="3.03871">
        <ele>851.6</ele>
        <time>2022-08-06T08:25:31Z</time>
      </trkpt>
      <trkpt lat="45.72339" lon="3.03856">
        <ele>851.9</ele>
        <time>2022-08-06T08:25:33Z</time>
      </trkpt>
      <trkpt lat="45.72335" lon="3.03843">
        <ele>852.3</ele>
        <time>2022-08-06T08:25:35Z</time>
      </trkpt>
      <trkpt lat="45.72333" lon="3.03831">
        <ele>852.6</ele>
        <time>2022-08-06T08:25:37Z</time>
      </trkpt>
      <trkpt lat="45.72329" lon="3.0382">
        <ele>853</ele>
        <time>2022-08-06T08:25:39Z</time>
      </trkpt>
      <trkpt lat="45.72325" lon="3.03812">
        <ele>853.3</ele>
        <time>2022-08-06T08:25:41Z</time>
      </trkpt>
      <trkpt lat="45.72322" lon="3.03802">
        <ele>853.9</ele>
        <time>2022-08-06T08:25:43Z</time>
      </trkpt>
      <trkpt lat="45.72318" lon="3.03792">
        <ele>854.5</ele>
        <time>2022-08-06T08:25:45Z</time>
      </trkpt>
      <trkpt lat="45.72315" lon="3.03783">
        <ele>855.1</ele>
        <time>2022-08-06T08:25:47Z</time>
      </trkpt>
      <trkpt lat="45.72311" lon="3.03775">
        <ele>855.7</ele>
        <time>2022-08-06T08:25:49Z</time>
      </trkpt>
      <trkpt lat="45.72309" lon="3.03765">
        <ele>856.3</ele>
        <time>2022-08-06T08:25:51Z</time>
      </trkpt>
      <trkpt lat="45.72306" lon="3.03757">
        <ele>856.8</ele>
        <time>2022-08-06T08:25:53Z</time>
      </trkpt>
      <trkpt lat="45.72303" lon="3.03748">
        <ele>857.3</ele>
        <time>2022-08-06T08:25:55Z</time>
      </trkpt>
      <trkpt lat="45.723" lon="3.03739">
        <ele>857.7</ele>
        <time>2022-08-06T08:25:57Z</time>
      </trkpt>
      <trkpt lat="45.72297" lon="3.0373">
        <ele>857.9</ele>
        <time>2022-08-06T08:25:59Z</time>
      </trkpt>
      <trkpt lat="45.72293" lon="3.03722">
        <ele>858.2</ele>
        <time>2022-08-06T08:26:01Z</time>
      </trkpt>
      <trkpt lat="45.72289" lon="3.03714">
        <ele>858.6</ele>
        <time>2022-08-06T08:26:03Z</time>
      </trkpt>
      <trkpt lat="45.72285" lon="3.03706">
        <ele>859.1</ele>
        <time>2022-08-06T08:26:05Z</time>
      </trkpt>
      <trkpt lat="45.72279" lon="3.037">
        <ele>859.7</ele>
        <time>2022-08-06T08:26:07Z</time>
      </trkpt>
      <trkpt lat="45.72274" lon="3.03692">
        <ele>860.1</ele>
        <time>2022-08-06T08:26:09Z</time>
      </trkpt>
      <trkpt lat="45.72269" lon="3.03686">
        <ele>860.5</ele>
        <time>2022-08-06T08:26:11Z</time>
      </trkpt>
      <trkpt lat="45.72264" lon="3.0368">
        <ele>860.8</ele>
        <time>2022-08-06T08:26:13Z</time>
      </trkpt>
      <trkpt lat="45.72256" lon="3.03675">
        <ele>861.2</ele>
        <time>2022-08-06T08:26:15Z</time>
      </trkpt>
      <trkpt lat="45.7225" lon="3.03669">
        <ele>861.5</ele>
        <time>2022-08-06T08:26:17Z</time>
      </trkpt>
      <trkpt lat="45.72242" lon="3.03662">
        <ele>861.8</ele>
        <time>2022-08-06T08:26:19Z</time>
      </trkpt>
      <trkpt lat="45.72236" lon="3.03653">
        <ele>862.1</ele>
        <time>2022-08-06T08:26:21Z</time>
      </trkpt>
      <trkpt lat="45.72229" lon="3.03645">
        <ele>862.3</ele>
        <time>2022-08-06T08:26:23Z</time>
      </trkpt>
      <trkpt lat="45.72222" lon="3.03635">
        <ele>862.4</ele>
        <time>2022-08-06T08:26:25Z</time>
      </trkpt>
      <trkpt lat="45.72216" lon="3.03623">
        <ele>862.5</ele>
        <time>2022-08-06T08:26:27Z</time>
      </trkpt>
      <trkpt lat="45.7221" lon="3.0361">
        <ele>862.7</ele>
        <time>2022-08-06T08:26:29Z</time>
      </trkpt>
      <trkpt lat="45.72205" lon="3.03596">
        <ele>862.8</ele>
        <time>2022-08-06T08:26:31Z</time>
      </trkpt>
      <trkpt lat="45.722" lon="3.0358">
        <ele>863</ele>
        <time>2022-08-06T08:26:33Z</time>
      </trkpt>
      <trkpt lat="45.72196" lon="3.03564">
        <ele>863.2</ele>
        <time>2022-08-06T08:26:35Z</time>
      </trkpt>
      <trkpt lat="45.72191" lon="3.03549">
        <ele>863.5</ele>
        <time>2022-08-06T08:26:37Z</time>
      </trkpt>
      <trkpt lat="45.72187" lon="3.03532">
        <ele>863.8</ele>
        <time>2022-08-06T08:26:39Z</time>
      </trkpt>
      <trkpt lat="45.72183" lon="3.03517">
        <ele>864.1</ele>
        <time>2022-08-06T08:26:41Z</time>
      </trkpt>
      <trkpt lat="45.72179" lon="3.03501">
        <ele>864.4</ele>
        <time>2022-08-06T08:26:43Z</time>
      </trkpt>
      <trkpt lat="45.72175" lon="3.03486">
        <ele>864.7</ele>
        <time>2022-08-06T08:26:45Z</time>
      </trkpt>
      <trkpt lat="45.7217" lon="3.03469">
        <ele>865</ele>
        <time>2022-08-06T08:26:47Z</time>
      </trkpt>
      <trkpt lat="45.72166" lon="3.03452">
        <ele>865.3</ele>
        <time>2022-08-06T08:26:49Z</time>
      </trkpt>
      <trkpt lat="45.7216" lon="3.03436">
        <ele>865.6</ele>
        <time>2022-08-06T08:26:51Z</time>
      </trkpt>
      <trkpt lat="45.72157" lon="3.0342">
        <ele>865.9</ele>
        <time>2022-08-06T08:26:53Z</time>
      </trkpt>
      <trkpt lat="45.72154" lon="3.03402">
        <ele>866.2</ele>
        <time>2022-08-06T08:26:55Z</time>
      </trkpt>
      <trkpt lat="45.72154" lon="3.03383">
        <ele>866.6</ele>
        <time>2022-08-06T08:26:57Z</time>
      </trkpt>
      <trkpt lat="45.72154" lon="3.03365">
        <ele>866.8</ele>
        <time>2022-08-06T08:26:59Z</time>
      </trkpt>
      <trkpt lat="45.72154" lon="3.03347">
        <ele>867.1</ele>
        <time>2022-08-06T08:27:01Z</time>
      </trkpt>
      <trkpt lat="45.72154" lon="3.03329">
        <ele>867.4</ele>
        <time>2022-08-06T08:27:03Z</time>
      </trkpt>
      <trkpt lat="45.72154" lon="3.03311">
        <ele>867.6</ele>
        <time>2022-08-06T08:27:05Z</time>
      </trkpt>
      <trkpt lat="45.72155" lon="3.03293">
        <ele>867.9</ele>
        <time>2022-08-06T08:27:07Z</time>
      </trkpt>
      <trkpt lat="45.72157" lon="3.03275">
        <ele>868.1</ele>
        <time>2022-08-06T08:27:09Z</time>
      </trkpt>
      <trkpt lat="45.7216" lon="3.03256">
        <ele>868.4</ele>
        <time>2022-08-06T08:27:11Z</time>
      </trkpt>
      <trkpt lat="45.72162" lon="3.03238">
        <ele>868.7</ele>
        <time>2022-08-06T08:27:13Z</time>
      </trkpt>
      <trkpt lat="45.72165" lon="3.03221">
        <ele>868.9</ele>
        <time>2022-08-06T08:27:15Z</time>
      </trkpt>
      <trkpt lat="45.72167" lon="3.03204">
        <ele>869.1</ele>
        <time>2022-08-06T08:27:17Z</time>
      </trkpt>
      <trkpt lat="45.72168" lon="3.03186">
        <ele>869.3</ele>
        <time>2022-08-06T08:27:19Z</time>
      </trkpt>
      <trkpt lat="45.72167" lon="3.03168">
        <ele>869.5</ele>
        <time>2022-08-06T08:27:21Z</time>
      </trkpt>
      <trkpt lat="45.72167" lon="3.0315">
        <ele>869.7</ele>
        <time>2022-08-06T08:27:23Z</time>
      </trkpt>
      <trkpt lat="45.72166" lon="3.03132">
        <ele>870</ele>
        <time>2022-08-06T08:27:25Z</time>
      </trkpt>
      <trkpt lat="45.72165" lon="3.03114">
        <ele>870.2</ele>
        <time>2022-08-06T08:27:27Z</time>
      </trkpt>
      <trkpt lat="45.72162" lon="3.03096">
        <ele>870.4</ele>
        <time>2022-08-06T08:27:29Z</time>
      </trkpt>
      <trkpt lat="45.72159" lon="3.03078">
        <ele>870.6</ele>
        <time>2022-08-06T08:27:31Z</time>
      </trkpt>
      <trkpt lat="45.72156" lon="3.03061">
        <ele>870.8</ele>
        <time>2022-08-06T08:27:33Z</time>
      </trkpt>
      <trkpt lat="45.72151" lon="3.03043">
        <ele>871</ele>
        <time>2022-08-06T08:27:35Z</time>
      </trkpt>
      <trkpt lat="45.72148" lon="3.03027">
        <ele>871.3</ele>
        <time>2022-08-06T08:27:37Z</time>
      </trkpt>
      <trkpt lat="45.72144" lon="3.03009">
        <ele>871.5</ele>
        <time>2022-08-06T08:27:39Z</time>
      </trkpt>
      <trkpt lat="45.72139" lon="3.02992">
        <ele>871.7</ele>
        <time>2022-08-06T08:27:41Z</time>
      </trkpt>
      <trkpt lat="45.72135" lon="3.02974">
        <ele>872</ele>
        <time>2022-08-06T08:27:43Z</time>
      </trkpt>
      <trkpt lat="45.7213" lon="3.02958">
        <ele>872.2</ele>
        <time>2022-08-06T08:27:45Z</time>
      </trkpt>
      <trkpt lat="45.72124" lon="3.02942">
        <ele>872.4</ele>
        <time>2022-08-06T08:27:47Z</time>
      </trkpt>
      <trkpt lat="45.72118" lon="3.02926">
        <ele>872.7</ele>
        <time>2022-08-06T08:27:49Z</time>
      </trkpt>
      <trkpt lat="45.72114" lon="3.0291">
        <ele>873</ele>
        <time>2022-08-06T08:27:51Z</time>
      </trkpt>
      <trkpt lat="45.72109" lon="3.02893">
        <ele>873.3</ele>
        <time>2022-08-06T08:27:53Z</time>
      </trkpt>
      <trkpt lat="45.72107" lon="3.02875">
        <ele>873.6</ele>
        <time>2022-08-06T08:27:55Z</time>
      </trkpt>
      <trkpt lat="45.72109" lon="3.02858">
        <ele>873.8</ele>
        <time>2022-08-06T08:27:57Z</time>
      </trkpt>
      <trkpt lat="45.72111" lon="3.02841">
        <ele>873.9</ele>
        <time>2022-08-06T08:27:59Z</time>
      </trkpt>
      <trkpt lat="45.72113" lon="3.02823">
        <ele>874.2</ele>
        <time>2022-08-06T08:28:01Z</time>
      </trkpt>
      <trkpt lat="45.72116" lon="3.02806">
        <ele>874.4</ele>
        <time>2022-08-06T08:28:03Z</time>
      </trkpt>
      <trkpt lat="45.72119" lon="3.02788">
        <ele>874.6</ele>
        <time>2022-08-06T08:28:05Z</time>
      </trkpt>
      <trkpt lat="45.72122" lon="3.0277">
        <ele>874.8</ele>
        <time>2022-08-06T08:28:07Z</time>
      </trkpt>
      <trkpt lat="45.72125" lon="3.02753">
        <ele>875.1</ele>
        <time>2022-08-06T08:28:09Z</time>
      </trkpt>
      <trkpt lat="45.7213" lon="3.02735">
        <ele>875.3</ele>
        <time>2022-08-06T08:28:11Z</time>
      </trkpt>
      <trkpt lat="45.72135" lon="3.02718">
        <ele>875.6</ele>
        <time>2022-08-06T08:28:13Z</time>
      </trkpt>
      <trkpt lat="45.7214" lon="3.027">
        <ele>875.8</ele>
        <time>2022-08-06T08:28:15Z</time>
      </trkpt>
      <trkpt lat="45.72146" lon="3.02683">
        <ele>876</ele>
        <time>2022-08-06T08:28:17Z</time>
      </trkpt>
      <trkpt lat="45.72151" lon="3.02665">
        <ele>876.2</ele>
        <time>2022-08-06T08:28:19Z</time>
      </trkpt>
      <trkpt lat="45.72156" lon="3.02648">
        <ele>876.5</ele>
        <time>2022-08-06T08:28:21Z</time>
      </trkpt>
      <trkpt lat="45.7216" lon="3.02631">
        <ele>876.7</ele>
        <time>2022-08-06T08:28:23Z</time>
      </trkpt>
      <trkpt lat="45.72165" lon="3.02613">
        <ele>876.9</ele>
        <time>2022-08-06T08:28:25Z</time>
      </trkpt>
      <trkpt lat="45.72168" lon="3.02596">
        <ele>877.1</ele>
        <time>2022-08-06T08:28:27Z</time>
      </trkpt>
      <trkpt lat="45.72173" lon="3.02578">
        <ele>877.2</ele>
        <time>2022-08-06T08:28:29Z</time>
      </trkpt>
      <trkpt lat="45.72177" lon="3.02562">
        <ele>877.3</ele>
        <time>2022-08-06T08:28:31Z</time>
      </trkpt>
      <trkpt lat="45.72178" lon="3.02544">
        <ele>877.3</ele>
        <time>2022-08-06T08:28:33Z</time>
      </trkpt>
      <trkpt lat="45.72177" lon="3.02525">
        <ele>877.3</ele>
        <time>2022-08-06T08:28:35Z</time>
      </trkpt>
      <trkpt lat="45.72175" lon="3.02506">
        <ele>877.3</ele>
        <time>2022-08-06T08:28:37Z</time>
      </trkpt>
      <trkpt lat="45.72172" lon="3.02488">
        <ele>877.3</ele>
        <time>2022-08-06T08:28:39Z</time>
      </trkpt>
      <trkpt lat="45.72167" lon="3.02468">
        <ele>877.3</ele>
        <time>2022-08-06T08:28:41Z</time>
      </trkpt>
      <trkpt lat="45.72163" lon="3.02448">
        <ele>877.3</ele>
        <time>2022-08-06T08:28:43Z</time>
      </trkpt>
      <trkpt lat="45.72159" lon="3.02429">
        <ele>877.3</ele>
        <time>2022-08-06T08:28:45Z</time>
      </trkpt>
      <trkpt lat="45.72154" lon="3.02409">
        <ele>877.4</ele>
        <time>2022-08-06T08:28:47Z</time>
      </trkpt>
      <trkpt lat="45.7215" lon="3.02391">
        <ele>877.5</ele>
        <time>2022-08-06T08:28:49Z</time>
      </trkpt>
      <trkpt lat="45.72146" lon="3.02373">
        <ele>877.6</ele>
        <time>2022-08-06T08:28:51Z</time>
      </trkpt>
      <trkpt lat="45.72142" lon="3.02354">
        <ele>877.6</ele>
        <time>2022-08-06T08:28:53Z</time>
      </trkpt>
      <trkpt lat="45.72137" lon="3.02336">
        <ele>877.7</ele>
        <time>2022-08-06T08:28:55Z</time>
      </trkpt>
      <trkpt lat="45.72134" lon="3.02317">
        <ele>877.7</ele>
        <time>2022-08-06T08:28:57Z</time>
      </trkpt>
      <trkpt lat="45.7213" lon="3.02298">
        <ele>877.7</ele>
        <time>2022-08-06T08:28:59Z</time>
      </trkpt>
      <trkpt lat="45.7213" lon="3.02279">
        <ele>877.7</ele>
        <time>2022-08-06T08:29:01Z</time>
      </trkpt>
      <trkpt lat="45.72133" lon="3.0226">
        <ele>877.7</ele>
        <time>2022-08-06T08:29:03Z</time>
      </trkpt>
      <trkpt lat="45.72139" lon="3.02242">
        <ele>877.6</ele>
        <time>2022-08-06T08:29:05Z</time>
      </trkpt>
      <trkpt lat="45.72145" lon="3.02223">
        <ele>877.4</ele>
        <time>2022-08-06T08:29:07Z</time>
      </trkpt>
      <trkpt lat="45.72149" lon="3.02201">
        <ele>877.1</ele>
        <time>2022-08-06T08:29:09Z</time>
      </trkpt>
      <trkpt lat="45.72149" lon="3.02179">
        <ele>876.7</ele>
        <time>2022-08-06T08:29:11Z</time>
      </trkpt>
      <trkpt lat="45.72149" lon="3.02155">
        <ele>876.3</ele>
        <time>2022-08-06T08:29:13Z</time>
      </trkpt>
      <trkpt lat="45.7215" lon="3.02131">
        <ele>875.7</ele>
        <time>2022-08-06T08:29:15Z</time>
      </trkpt>
      <trkpt lat="45.72155" lon="3.02106">
        <ele>875.1</ele>
        <time>2022-08-06T08:29:17Z</time>
      </trkpt>
      <trkpt lat="45.72163" lon="3.02083">
        <ele>874.4</ele>
        <time>2022-08-06T08:29:19Z</time>
      </trkpt>
      <trkpt lat="45.72171" lon="3.02059">
        <ele>873.8</ele>
        <time>2022-08-06T08:29:21Z</time>
      </trkpt>
      <trkpt lat="45.72172" lon="3.02033">
        <ele>873.2</ele>
        <time>2022-08-06T08:29:23Z</time>
      </trkpt>
      <trkpt lat="45.72167" lon="3.02006">
        <ele>872.6</ele>
        <time>2022-08-06T08:29:25Z</time>
      </trkpt>
      <trkpt lat="45.72162" lon="3.01979">
        <ele>872</ele>
        <time>2022-08-06T08:29:27Z</time>
      </trkpt>
      <trkpt lat="45.7216" lon="3.01952">
        <ele>871.4</ele>
        <time>2022-08-06T08:29:29Z</time>
      </trkpt>
      <trkpt lat="45.72162" lon="3.01925">
        <ele>870.8</ele>
        <time>2022-08-06T08:29:31Z</time>
      </trkpt>
      <trkpt lat="45.72166" lon="3.01898">
        <ele>870.3</ele>
        <time>2022-08-06T08:29:33Z</time>
      </trkpt>
      <trkpt lat="45.72169" lon="3.01874">
        <ele>869.8</ele>
        <time>2022-08-06T08:29:35Z</time>
      </trkpt>
      <trkpt lat="45.72173" lon="3.01854">
        <ele>869.6</ele>
        <time>2022-08-06T08:29:37Z</time>
      </trkpt>
      <trkpt lat="45.72175" lon="3.01843">
        <ele>869.4</ele>
        <time>2022-08-06T08:29:39Z</time>
      </trkpt>
      <trkpt lat="45.72175" lon="3.01837">
        <ele>869.3</ele>
        <time>2022-08-06T08:29:41Z</time>
      </trkpt>
      <trkpt lat="45.72172" lon="3.0183">
        <ele>869.2</ele>
        <time>2022-08-06T08:29:43Z</time>
      </trkpt>
      <trkpt lat="45.72164" lon="3.01825">
        <ele>869.1</ele>
        <time>2022-08-06T08:29:45Z</time>
      </trkpt>
      <trkpt lat="45.72152" lon="3.01823">
        <ele>869</ele>
        <time>2022-08-06T08:29:47Z</time>
      </trkpt>
      <trkpt lat="45.72139" lon="3.0182">
        <ele>869</ele>
        <time>2022-08-06T08:29:49Z</time>
      </trkpt>
      <trkpt lat="45.72125" lon="3.01818">
        <ele>869</ele>
        <time>2022-08-06T08:29:51Z</time>
      </trkpt>
      <trkpt lat="45.72112" lon="3.01817">
        <ele>869.2</ele>
        <time>2022-08-06T08:29:53Z</time>
      </trkpt>
      <trkpt lat="45.72102" lon="3.01821">
        <ele>869.6</ele>
        <time>2022-08-06T08:29:55Z</time>
      </trkpt>
      <trkpt lat="45.72094" lon="3.0183">
        <ele>870.1</ele>
        <time>2022-08-06T08:29:57Z</time>
      </trkpt>
      <trkpt lat="45.72089" lon="3.01839">
        <ele>870.5</ele>
        <time>2022-08-06T08:29:59Z</time>
      </trkpt>
      <trkpt lat="45.72085" lon="3.0185">
        <ele>871</ele>
        <time>2022-08-06T08:30:01Z</time>
      </trkpt>
      <trkpt lat="45.72081" lon="3.01861">
        <ele>871.4</ele>
        <time>2022-08-06T08:30:03Z</time>
      </trkpt>
      <trkpt lat="45.72078" lon="3.01873">
        <ele>872</ele>
        <time>2022-08-06T08:30:05Z</time>
      </trkpt>
      <trkpt lat="45.72076" lon="3.01885">
        <ele>872.5</ele>
        <time>2022-08-06T08:30:07Z</time>
      </trkpt>
      <trkpt lat="45.72074" lon="3.01897">
        <ele>873.1</ele>
        <time>2022-08-06T08:30:09Z</time>
      </trkpt>
      <trkpt lat="45.72072" lon="3.01908">
        <ele>873.7</ele>
        <time>2022-08-06T08:30:11Z</time>
      </trkpt>
      <trkpt lat="45.72069" lon="3.01919">
        <ele>874.3</ele>
        <time>2022-08-06T08:30:13Z</time>
      </trkpt>
      <trkpt lat="45.72068" lon="3.01929">
        <ele>874.8</ele>
        <time>2022-08-06T08:30:15Z</time>
      </trkpt>
      <trkpt lat="45.72065" lon="3.01937">
        <ele>875.3</ele>
        <time>2022-08-06T08:30:17Z</time>
      </trkpt>
      <trkpt lat="45.72062" lon="3.01945">
        <ele>875.6</ele>
        <time>2022-08-06T08:30:19Z</time>
      </trkpt>
      <trkpt lat="45.72056" lon="3.01952">
        <ele>875.9</ele>
        <time>2022-08-06T08:30:21Z</time>
      </trkpt>
      <trkpt lat="45.72051" lon="3.01958">
        <ele>876.3</ele>
        <time>2022-08-06T08:30:23Z</time>
      </trkpt>
      <trkpt lat="45.72046" lon="3.01962">
        <ele>876.5</ele>
        <time>2022-08-06T08:30:25Z</time>
      </trkpt>
      <trkpt lat="45.7204" lon="3.01966">
        <ele>876.7</ele>
        <time>2022-08-06T08:30:27Z</time>
      </trkpt>
      <trkpt lat="45.72033" lon="3.01968">
        <ele>876.7</ele>
        <time>2022-08-06T08:30:29Z</time>
      </trkpt>
      <trkpt lat="45.72026" lon="3.0197">
        <ele>876.6</ele>
        <time>2022-08-06T08:30:31Z</time>
      </trkpt>
      <trkpt lat="45.72015" lon="3.0197">
        <ele>876.3</ele>
        <time>2022-08-06T08:30:33Z</time>
      </trkpt>
      <trkpt lat="45.72004" lon="3.01969">
        <ele>876</ele>
        <time>2022-08-06T08:30:35Z</time>
      </trkpt>
      <trkpt lat="45.71991" lon="3.01967">
        <ele>875.8</ele>
        <time>2022-08-06T08:30:37Z</time>
      </trkpt>
      <trkpt lat="45.71979" lon="3.01963">
        <ele>875.6</ele>
        <time>2022-08-06T08:30:39Z</time>
      </trkpt>
      <trkpt lat="45.71967" lon="3.01958">
        <ele>875.4</ele>
        <time>2022-08-06T08:30:41Z</time>
      </trkpt>
      <trkpt lat="45.71956" lon="3.01951">
        <ele>875.2</ele>
        <time>2022-08-06T08:30:43Z</time>
      </trkpt>
      <trkpt lat="45.71946" lon="3.01943">
        <ele>875.1</ele>
        <time>2022-08-06T08:30:45Z</time>
      </trkpt>
      <trkpt lat="45.71935" lon="3.01936">
        <ele>875</ele>
        <time>2022-08-06T08:30:47Z</time>
      </trkpt>
      <trkpt lat="45.71925" lon="3.01929">
        <ele>875</ele>
        <time>2022-08-06T08:30:49Z</time>
      </trkpt>
      <trkpt lat="45.71916" lon="3.01923">
        <ele>875.1</ele>
        <time>2022-08-06T08:30:51Z</time>
      </trkpt>
      <trkpt lat="45.71906" lon="3.01917">
        <ele>875.2</ele>
        <time>2022-08-06T08:30:53Z</time>
      </trkpt>
      <trkpt lat="45.71897" lon="3.01911">
        <ele>875.4</ele>
        <time>2022-08-06T08:30:55Z</time>
      </trkpt>
      <trkpt lat="45.71889" lon="3.019">
        <ele>875.6</ele>
        <time>2022-08-06T08:30:57Z</time>
      </trkpt>
      <trkpt lat="45.71889" lon="3.01886">
        <ele>876.5</ele>
        <time>2022-08-06T08:30:59Z</time>
      </trkpt>
      <trkpt lat="45.71894" lon="3.01877">
        <ele>877</ele>
        <time>2022-08-06T08:31:01Z</time>
      </trkpt>
      <trkpt lat="45.71899" lon="3.0187">
        <ele>877.6</ele>
        <time>2022-08-06T08:31:03Z</time>
      </trkpt>
      <trkpt lat="45.71905" lon="3.01861">
        <ele>878.3</ele>
        <time>2022-08-06T08:31:05Z</time>
      </trkpt>
      <trkpt lat="45.7191" lon="3.01853">
        <ele>879</ele>
        <time>2022-08-06T08:31:07Z</time>
      </trkpt>
      <trkpt lat="45.71916" lon="3.01844">
        <ele>879.7</ele>
        <time>2022-08-06T08:31:09Z</time>
      </trkpt>
      <trkpt lat="45.71921" lon="3.01837">
        <ele>880.3</ele>
        <time>2022-08-06T08:31:11Z</time>
      </trkpt>
      <trkpt lat="45.71926" lon="3.01829">
        <ele>881</ele>
        <time>2022-08-06T08:31:13Z</time>
      </trkpt>
      <trkpt lat="45.71931" lon="3.0182">
        <ele>881.8</ele>
        <time>2022-08-06T08:31:15Z</time>
      </trkpt>
      <trkpt lat="45.71936" lon="3.01813">
        <ele>882.6</ele>
        <time>2022-08-06T08:31:17Z</time>
      </trkpt>
      <trkpt lat="45.71941" lon="3.01805">
        <ele>883.2</ele>
        <time>2022-08-06T08:31:19Z</time>
      </trkpt>
      <trkpt lat="45.71944" lon="3.01797">
        <ele>883.8</ele>
        <time>2022-08-06T08:31:21Z</time>
      </trkpt>
      <trkpt lat="45.71946" lon="3.01787">
        <ele>884.3</ele>
        <time>2022-08-06T08:31:23Z</time>
      </trkpt>
      <trkpt lat="45.71948" lon="3.01778">
        <ele>884.8</ele>
        <time>2022-08-06T08:31:25Z</time>
      </trkpt>
      <trkpt lat="45.71948" lon="3.01767">
        <ele>885.2</ele>
        <time>2022-08-06T08:31:27Z</time>
      </trkpt>
      <trkpt lat="45.71946" lon="3.01756">
        <ele>885.6</ele>
        <time>2022-08-06T08:31:29Z</time>
      </trkpt>
      <trkpt lat="45.71946" lon="3.01745">
        <ele>885.8</ele>
        <time>2022-08-06T08:31:31Z</time>
      </trkpt>
      <trkpt lat="45.71944" lon="3.01734">
        <ele>886</ele>
        <time>2022-08-06T08:31:33Z</time>
      </trkpt>
      <trkpt lat="45.71942" lon="3.01721">
        <ele>886.1</ele>
        <time>2022-08-06T08:31:35Z</time>
      </trkpt>
      <trkpt lat="45.71939" lon="3.01707">
        <ele>886.2</ele>
        <time>2022-08-06T08:31:37Z</time>
      </trkpt>
      <trkpt lat="45.71936" lon="3.01693">
        <ele>886.2</ele>
        <time>2022-08-06T08:31:39Z</time>
      </trkpt>
      <trkpt lat="45.71935" lon="3.0168">
        <ele>886.2</ele>
        <time>2022-08-06T08:31:41Z</time>
      </trkpt>
      <trkpt lat="45.71933" lon="3.01666">
        <ele>886.2</ele>
        <time>2022-08-06T08:31:43Z</time>
      </trkpt>
      <trkpt lat="45.71931" lon="3.01651">
        <ele>886.1</ele>
        <time>2022-08-06T08:31:45Z</time>
      </trkpt>
      <trkpt lat="45.71929" lon="3.01636">
        <ele>886.1</ele>
        <time>2022-08-06T08:31:47Z</time>
      </trkpt>
      <trkpt lat="45.71928" lon="3.01619">
        <ele>886.1</ele>
        <time>2022-08-06T08:31:49Z</time>
      </trkpt>
      <trkpt lat="45.71928" lon="3.01603">
        <ele>886.1</ele>
        <time>2022-08-06T08:31:51Z</time>
      </trkpt>
      <trkpt lat="45.71929" lon="3.01586">
        <ele>886.1</ele>
        <time>2022-08-06T08:31:53Z</time>
      </trkpt>
      <trkpt lat="45.71931" lon="3.0157">
        <ele>886.2</ele>
        <time>2022-08-06T08:31:55Z</time>
      </trkpt>
      <trkpt lat="45.71933" lon="3.01554">
        <ele>886.3</ele>
        <time>2022-08-06T08:31:57Z</time>
      </trkpt>
      <trkpt lat="45.71934" lon="3.01536">
        <ele>886.4</ele>
        <time>2022-08-06T08:31:59Z</time>
      </trkpt>
      <trkpt lat="45.71935" lon="3.01518">
        <ele>886.5</ele>
        <time>2022-08-06T08:32:01Z</time>
      </trkpt>
      <trkpt lat="45.71934" lon="3.01499">
        <ele>886.7</ele>
        <time>2022-08-06T08:32:03Z</time>
      </trkpt>
      <trkpt lat="45.71933" lon="3.01481">
        <ele>887</ele>
        <time>2022-08-06T08:32:05Z</time>
      </trkpt>
      <trkpt lat="45.71932" lon="3.01463">
        <ele>887.3</ele>
        <time>2022-08-06T08:32:07Z</time>
      </trkpt>
      <trkpt lat="45.71931" lon="3.01445">
        <ele>887.6</ele>
        <time>2022-08-06T08:32:09Z</time>
      </trkpt>
      <trkpt lat="45.71929" lon="3.01429">
        <ele>888</ele>
        <time>2022-08-06T08:32:11Z</time>
      </trkpt>
      <trkpt lat="45.71928" lon="3.01412">
        <ele>888.2</ele>
        <time>2022-08-06T08:32:13Z</time>
      </trkpt>
      <trkpt lat="45.71927" lon="3.01395">
        <ele>888.7</ele>
        <time>2022-08-06T08:32:15Z</time>
      </trkpt>
      <trkpt lat="45.71925" lon="3.01377">
        <ele>889.2</ele>
        <time>2022-08-06T08:32:17Z</time>
      </trkpt>
      <trkpt lat="45.71924" lon="3.01361">
        <ele>889.8</ele>
        <time>2022-08-06T08:32:19Z</time>
      </trkpt>
      <trkpt lat="45.71924" lon="3.01345">
        <ele>890.3</ele>
        <time>2022-08-06T08:32:21Z</time>
      </trkpt>
      <trkpt lat="45.71924" lon="3.01329">
        <ele>890.9</ele>
        <time>2022-08-06T08:32:23Z</time>
      </trkpt>
      <trkpt lat="45.71926" lon="3.01314">
        <ele>891.4</ele>
        <time>2022-08-06T08:32:25Z</time>
      </trkpt>
      <trkpt lat="45.71929" lon="3.01299">
        <ele>891.8</ele>
        <time>2022-08-06T08:32:27Z</time>
      </trkpt>
      <trkpt lat="45.71931" lon="3.01284">
        <ele>892.4</ele>
        <time>2022-08-06T08:32:29Z</time>
      </trkpt>
      <trkpt lat="45.71933" lon="3.0127">
        <ele>892.9</ele>
        <time>2022-08-06T08:32:31Z</time>
      </trkpt>
      <trkpt lat="45.71936" lon="3.01256">
        <ele>893.4</ele>
        <time>2022-08-06T08:32:33Z</time>
      </trkpt>
      <trkpt lat="45.71938" lon="3.01241">
        <ele>893.9</ele>
        <time>2022-08-06T08:32:35Z</time>
      </trkpt>
      <trkpt lat="45.71938" lon="3.01226">
        <ele>894.3</ele>
        <time>2022-08-06T08:32:37Z</time>
      </trkpt>
      <trkpt lat="45.71937" lon="3.01211">
        <ele>894.8</ele>
        <time>2022-08-06T08:32:39Z</time>
      </trkpt>
      <trkpt lat="45.71935" lon="3.01197">
        <ele>895.2</ele>
        <time>2022-08-06T08:32:41Z</time>
      </trkpt>
      <trkpt lat="45.71933" lon="3.01183">
        <ele>895.7</ele>
        <time>2022-08-06T08:32:43Z</time>
      </trkpt>
      <trkpt lat="45.71929" lon="3.01168">
        <ele>896.1</ele>
        <time>2022-08-06T08:32:45Z</time>
      </trkpt>
      <trkpt lat="45.71925" lon="3.01154">
        <ele>896.6</ele>
        <time>2022-08-06T08:32:47Z</time>
      </trkpt>
      <trkpt lat="45.71921" lon="3.0114">
        <ele>897</ele>
        <time>2022-08-06T08:32:49Z</time>
      </trkpt>
      <trkpt lat="45.71917" lon="3.01127">
        <ele>897.3</ele>
        <time>2022-08-06T08:32:51Z</time>
      </trkpt>
      <trkpt lat="45.71913" lon="3.01113">
        <ele>897.6</ele>
        <time>2022-08-06T08:32:53Z</time>
      </trkpt>
      <trkpt lat="45.71909" lon="3.01099">
        <ele>897.9</ele>
        <time>2022-08-06T08:32:55Z</time>
      </trkpt>
      <trkpt lat="45.71905" lon="3.01084">
        <ele>898.2</ele>
        <time>2022-08-06T08:32:57Z</time>
      </trkpt>
      <trkpt lat="45.71901" lon="3.01069">
        <ele>898.4</ele>
        <time>2022-08-06T08:32:59Z</time>
      </trkpt>
      <trkpt lat="45.71897" lon="3.01054">
        <ele>898.7</ele>
        <time>2022-08-06T08:33:01Z</time>
      </trkpt>
      <trkpt lat="45.71892" lon="3.0104">
        <ele>898.9</ele>
        <time>2022-08-06T08:33:03Z</time>
      </trkpt>
      <trkpt lat="45.71887" lon="3.01026">
        <ele>899.1</ele>
        <time>2022-08-06T08:33:05Z</time>
      </trkpt>
      <trkpt lat="45.71881" lon="3.01011">
        <ele>899.3</ele>
        <time>2022-08-06T08:33:07Z</time>
      </trkpt>
      <trkpt lat="45.71875" lon="3.00997">
        <ele>899.6</ele>
        <time>2022-08-06T08:33:09Z</time>
      </trkpt>
      <trkpt lat="45.71869" lon="3.00982">
        <ele>899.8</ele>
        <time>2022-08-06T08:33:11Z</time>
      </trkpt>
      <trkpt lat="45.71863" lon="3.00969">
        <ele>900</ele>
        <time>2022-08-06T08:33:13Z</time>
      </trkpt>
      <trkpt lat="45.71857" lon="3.00955">
        <ele>900.1</ele>
        <time>2022-08-06T08:33:15Z</time>
      </trkpt>
      <trkpt lat="45.71851" lon="3.00939">
        <ele>900.3</ele>
        <time>2022-08-06T08:33:17Z</time>
      </trkpt>
      <trkpt lat="45.71845" lon="3.00923">
        <ele>900.4</ele>
        <time>2022-08-06T08:33:19Z</time>
      </trkpt>
      <trkpt lat="45.7184" lon="3.00906">
        <ele>900.5</ele>
        <time>2022-08-06T08:33:21Z</time>
      </trkpt>
      <trkpt lat="45.71835" lon="3.00889">
        <ele>900.5</ele>
        <time>2022-08-06T08:33:23Z</time>
      </trkpt>
      <trkpt lat="45.71831" lon="3.00871">
        <ele>900.5</ele>
        <time>2022-08-06T08:33:25Z</time>
      </trkpt>
      <trkpt lat="45.71827" lon="3.00852">
        <ele>900.6</ele>
        <time>2022-08-06T08:33:27Z</time>
      </trkpt>
      <trkpt lat="45.71823" lon="3.00833">
        <ele>900.7</ele>
        <time>2022-08-06T08:33:29Z</time>
      </trkpt>
      <trkpt lat="45.71821" lon="3.00814">
        <ele>900.7</ele>
        <time>2022-08-06T08:33:31Z</time>
      </trkpt>
      <trkpt lat="45.71818" lon="3.00793">
        <ele>900.7</ele>
        <time>2022-08-06T08:33:33Z</time>
      </trkpt>
      <trkpt lat="45.71816" lon="3.00772">
        <ele>900.7</ele>
        <time>2022-08-06T08:33:35Z</time>
      </trkpt>
      <trkpt lat="45.71814" lon="3.00753">
        <ele>900.8</ele>
        <time>2022-08-06T08:33:37Z</time>
      </trkpt>
      <trkpt lat="45.71813" lon="3.00733">
        <ele>900.8</ele>
        <time>2022-08-06T08:33:39Z</time>
      </trkpt>
      <trkpt lat="45.71813" lon="3.00712">
        <ele>900.8</ele>
        <time>2022-08-06T08:33:41Z</time>
      </trkpt>
      <trkpt lat="45.71814" lon="3.00691">
        <ele>900.8</ele>
        <time>2022-08-06T08:33:43Z</time>
      </trkpt>
      <trkpt lat="45.71815" lon="3.0067">
        <ele>900.9</ele>
        <time>2022-08-06T08:33:45Z</time>
      </trkpt>
      <trkpt lat="45.71817" lon="3.00649">
        <ele>901</ele>
        <time>2022-08-06T08:33:47Z</time>
      </trkpt>
      <trkpt lat="45.71819" lon="3.00627">
        <ele>901.1</ele>
        <time>2022-08-06T08:33:49Z</time>
      </trkpt>
      <trkpt lat="45.71822" lon="3.00607">
        <ele>901.2</ele>
        <time>2022-08-06T08:33:51Z</time>
      </trkpt>
      <trkpt lat="45.71826" lon="3.00588">
        <ele>901.3</ele>
        <time>2022-08-06T08:33:53Z</time>
      </trkpt>
      <trkpt lat="45.71833" lon="3.00571">
        <ele>901.4</ele>
        <time>2022-08-06T08:33:55Z</time>
      </trkpt>
      <trkpt lat="45.71839" lon="3.00556">
        <ele>901.2</ele>
        <time>2022-08-06T08:33:57Z</time>
      </trkpt>
      <trkpt lat="45.71846" lon="3.00541">
        <ele>901.1</ele>
        <time>2022-08-06T08:33:59Z</time>
      </trkpt>
      <trkpt lat="45.71853" lon="3.00527">
        <ele>901</ele>
        <time>2022-08-06T08:34:01Z</time>
      </trkpt>
      <trkpt lat="45.71859" lon="3.00512">
        <ele>900.9</ele>
        <time>2022-08-06T08:34:03Z</time>
      </trkpt>
      <trkpt lat="45.71866" lon="3.00497">
        <ele>900.7</ele>
        <time>2022-08-06T08:34:05Z</time>
      </trkpt>
      <trkpt lat="45.71872" lon="3.00483">
        <ele>900.6</ele>
        <time>2022-08-06T08:34:07Z</time>
      </trkpt>
      <trkpt lat="45.71877" lon="3.00468">
        <ele>900.5</ele>
        <time>2022-08-06T08:34:09Z</time>
      </trkpt>
      <trkpt lat="45.71872" lon="3.00453">
        <ele>900.2</ele>
        <time>2022-08-06T08:34:11Z</time>
      </trkpt>
      <trkpt lat="45.71863" lon="3.00439">
        <ele>899.8</ele>
        <time>2022-08-06T08:34:13Z</time>
      </trkpt>
      <trkpt lat="45.71852" lon="3.00422">
        <ele>899.4</ele>
        <time>2022-08-06T08:34:15Z</time>
      </trkpt>
      <trkpt lat="45.71847" lon="3.00401">
        <ele>899.2</ele>
        <time>2022-08-06T08:34:17Z</time>
      </trkpt>
      <trkpt lat="45.71848" lon="3.0038">
        <ele>899.4</ele>
        <time>2022-08-06T08:34:19Z</time>
      </trkpt>
      <trkpt lat="45.71852" lon="3.00361">
        <ele>899.6</ele>
        <time>2022-08-06T08:34:21Z</time>
      </trkpt>
      <trkpt lat="45.71854" lon="3.00341">
        <ele>899.8</ele>
        <time>2022-08-06T08:34:23Z</time>
      </trkpt>
      <trkpt lat="45.7185" lon="3.00325">
        <ele>900.1</ele>
        <time>2022-08-06T08:34:25Z</time>
      </trkpt>
      <trkpt lat="45.71845" lon="3.00311">
        <ele>900.3</ele>
        <time>2022-08-06T08:34:27Z</time>
      </trkpt>
      <trkpt lat="45.7184" lon="3.00296">
        <ele>900.6</ele>
        <time>2022-08-06T08:34:29Z</time>
      </trkpt>
      <trkpt lat="45.71834" lon="3.0028">
        <ele>900.8</ele>
        <time>2022-08-06T08:34:31Z</time>
      </trkpt>
      <trkpt lat="45.71828" lon="3.00265">
        <ele>900.9</ele>
        <time>2022-08-06T08:34:33Z</time>
      </trkpt>
      <trkpt lat="45.71821" lon="3.00249">
        <ele>901.1</ele>
        <time>2022-08-06T08:34:35Z</time>
      </trkpt>
      <trkpt lat="45.71814" lon="3.00234">
        <ele>901.3</ele>
        <time>2022-08-06T08:34:37Z</time>
      </trkpt>
      <trkpt lat="45.71809" lon="3.00216">
        <ele>901.5</ele>
        <time>2022-08-06T08:34:39Z</time>
      </trkpt>
      <trkpt lat="45.7181" lon="3.00196">
        <ele>901.6</ele>
        <time>2022-08-06T08:34:41Z</time>
      </trkpt>
      <trkpt lat="45.71814" lon="3.00178">
        <ele>901.7</ele>
        <time>2022-08-06T08:34:43Z</time>
      </trkpt>
      <trkpt lat="45.71821" lon="3.00161">
        <ele>901.8</ele>
        <time>2022-08-06T08:34:45Z</time>
      </trkpt>
      <trkpt lat="45.71828" lon="3.00144">
        <ele>901.9</ele>
        <time>2022-08-06T08:34:47Z</time>
      </trkpt>
      <trkpt lat="45.71835" lon="3.00127">
        <ele>902</ele>
        <time>2022-08-06T08:34:49Z</time>
      </trkpt>
      <trkpt lat="45.71841" lon="3.00111">
        <ele>902.2</ele>
        <time>2022-08-06T08:34:51Z</time>
      </trkpt>
      <trkpt lat="45.71847" lon="3.00095">
        <ele>902.5</ele>
        <time>2022-08-06T08:34:53Z</time>
      </trkpt>
      <trkpt lat="45.71852" lon="3.00079">
        <ele>902.7</ele>
        <time>2022-08-06T08:34:55Z</time>
      </trkpt>
      <trkpt lat="45.71858" lon="3.00063">
        <ele>903</ele>
        <time>2022-08-06T08:34:57Z</time>
      </trkpt>
      <trkpt lat="45.71863" lon="3.00048">
        <ele>903.4</ele>
        <time>2022-08-06T08:34:59Z</time>
      </trkpt>
      <trkpt lat="45.71868" lon="3.00032">
        <ele>903.7</ele>
        <time>2022-08-06T08:35:01Z</time>
      </trkpt>
      <trkpt lat="45.71872" lon="3.00016">
        <ele>904</ele>
        <time>2022-08-06T08:35:03Z</time>
      </trkpt>
      <trkpt lat="45.71877" lon="2.99998">
        <ele>904.4</ele>
        <time>2022-08-06T08:35:05Z</time>
      </trkpt>
      <trkpt lat="45.71881" lon="2.99981">
        <ele>904.8</ele>
        <time>2022-08-06T08:35:07Z</time>
      </trkpt>
      <trkpt lat="45.71886" lon="2.99963">
        <ele>905.3</ele>
        <time>2022-08-06T08:35:09Z</time>
      </trkpt>
      <trkpt lat="45.7189" lon="2.99945">
        <ele>905.7</ele>
        <time>2022-08-06T08:35:11Z</time>
      </trkpt>
      <trkpt lat="45.71895" lon="2.99928">
        <ele>906.1</ele>
        <time>2022-08-06T08:35:13Z</time>
      </trkpt>
      <trkpt lat="45.71902" lon="2.99913">
        <ele>906.5</ele>
        <time>2022-08-06T08:35:15Z</time>
      </trkpt>
      <trkpt lat="45.71908" lon="2.99898">
        <ele>907.1</ele>
        <time>2022-08-06T08:35:17Z</time>
      </trkpt>
      <trkpt lat="45.71915" lon="2.99885">
        <ele>907.6</ele>
        <time>2022-08-06T08:35:19Z</time>
      </trkpt>
      <trkpt lat="45.71921" lon="2.99871">
        <ele>908.1</ele>
        <time>2022-08-06T08:35:21Z</time>
      </trkpt>
      <trkpt lat="45.71927" lon="2.99857">
        <ele>908.6</ele>
        <time>2022-08-06T08:35:23Z</time>
      </trkpt>
      <trkpt lat="45.71933" lon="2.99844">
        <ele>909.1</ele>
        <time>2022-08-06T08:35:25Z</time>
      </trkpt>
      <trkpt lat="45.71939" lon="2.99831">
        <ele>909.5</ele>
        <time>2022-08-06T08:35:27Z</time>
      </trkpt>
      <trkpt lat="45.71944" lon="2.99819">
        <ele>909.9</ele>
        <time>2022-08-06T08:35:29Z</time>
      </trkpt>
      <trkpt lat="45.7195" lon="2.99807">
        <ele>910.2</ele>
        <time>2022-08-06T08:35:31Z</time>
      </trkpt>
      <trkpt lat="45.71955" lon="2.99794">
        <ele>910.6</ele>
        <time>2022-08-06T08:35:33Z</time>
      </trkpt>
      <trkpt lat="45.71961" lon="2.99781">
        <ele>911</ele>
        <time>2022-08-06T08:35:35Z</time>
      </trkpt>
      <trkpt lat="45.71965" lon="2.99767">
        <ele>911.3</ele>
        <time>2022-08-06T08:35:37Z</time>
      </trkpt>
      <trkpt lat="45.71969" lon="2.99753">
        <ele>911.7</ele>
        <time>2022-08-06T08:35:39Z</time>
      </trkpt>
      <trkpt lat="45.71974" lon="2.99738">
        <ele>912</ele>
        <time>2022-08-06T08:35:41Z</time>
      </trkpt>
      <trkpt lat="45.71978" lon="2.99723">
        <ele>912.4</ele>
        <time>2022-08-06T08:35:43Z</time>
      </trkpt>
      <trkpt lat="45.71983" lon="2.99709">
        <ele>912.7</ele>
        <time>2022-08-06T08:35:45Z</time>
      </trkpt>
      <trkpt lat="45.71989" lon="2.99697">
        <ele>913</ele>
        <time>2022-08-06T08:35:47Z</time>
      </trkpt>
      <trkpt lat="45.71996" lon="2.99686">
        <ele>913.2</ele>
        <time>2022-08-06T08:35:49Z</time>
      </trkpt>
      <trkpt lat="45.72003" lon="2.99675">
        <ele>913.3</ele>
        <time>2022-08-06T08:35:51Z</time>
      </trkpt>
      <trkpt lat="45.7201" lon="2.99665">
        <ele>913.4</ele>
        <time>2022-08-06T08:35:53Z</time>
      </trkpt>
      <trkpt lat="45.72018" lon="2.99653">
        <ele>913.5</ele>
        <time>2022-08-06T08:35:55Z</time>
      </trkpt>
      <trkpt lat="45.72026" lon="2.99641">
        <ele>913.6</ele>
        <time>2022-08-06T08:35:57Z</time>
      </trkpt>
      <trkpt lat="45.72035" lon="2.99631">
        <ele>913.7</ele>
        <time>2022-08-06T08:35:59Z</time>
      </trkpt>
      <trkpt lat="45.72044" lon="2.99621">
        <ele>913.7</ele>
        <time>2022-08-06T08:36:01Z</time>
      </trkpt>
      <trkpt lat="45.72055" lon="2.9961">
        <ele>913.7</ele>
        <time>2022-08-06T08:36:03Z</time>
      </trkpt>
      <trkpt lat="45.72065" lon="2.996">
        <ele>913.7</ele>
        <time>2022-08-06T08:36:05Z</time>
      </trkpt>
      <trkpt lat="45.72074" lon="2.99588">
        <ele>913.7</ele>
        <time>2022-08-06T08:36:07Z</time>
      </trkpt>
      <trkpt lat="45.72085" lon="2.99577">
        <ele>913.6</ele>
        <time>2022-08-06T08:36:09Z</time>
      </trkpt>
      <trkpt lat="45.72094" lon="2.99565">
        <ele>913.6</ele>
        <time>2022-08-06T08:36:11Z</time>
      </trkpt>
      <trkpt lat="45.72104" lon="2.99554">
        <ele>913.5</ele>
        <time>2022-08-06T08:36:13Z</time>
      </trkpt>
      <trkpt lat="45.72115" lon="2.99542">
        <ele>913.5</ele>
        <time>2022-08-06T08:36:15Z</time>
      </trkpt>
      <trkpt lat="45.72127" lon="2.99531">
        <ele>913.4</ele>
        <time>2022-08-06T08:36:17Z</time>
      </trkpt>
      <trkpt lat="45.72138" lon="2.99522">
        <ele>913.4</ele>
        <time>2022-08-06T08:36:19Z</time>
      </trkpt>
      <trkpt lat="45.7215" lon="2.99512">
        <ele>913.3</ele>
        <time>2022-08-06T08:36:21Z</time>
      </trkpt>
      <trkpt lat="45.72162" lon="2.99501">
        <ele>913.3</ele>
        <time>2022-08-06T08:36:23Z</time>
      </trkpt>
      <trkpt lat="45.72174" lon="2.99491">
        <ele>913.2</ele>
        <time>2022-08-06T08:36:25Z</time>
      </trkpt>
      <trkpt lat="45.72187" lon="2.99482">
        <ele>913.1</ele>
        <time>2022-08-06T08:36:27Z</time>
      </trkpt>
      <trkpt lat="45.72199" lon="2.99477">
        <ele>913</ele>
        <time>2022-08-06T08:36:29Z</time>
      </trkpt>
      <trkpt lat="45.72212" lon="2.99471">
        <ele>912.8</ele>
        <time>2022-08-06T08:36:31Z</time>
      </trkpt>
      <trkpt lat="45.72226" lon="2.99466">
        <ele>912.6</ele>
        <time>2022-08-06T08:36:33Z</time>
      </trkpt>
      <trkpt lat="45.72242" lon="2.99465">
        <ele>912.4</ele>
        <time>2022-08-06T08:36:35Z</time>
      </trkpt>
      <trkpt lat="45.72256" lon="2.99468">
        <ele>912.2</ele>
        <time>2022-08-06T08:36:37Z</time>
      </trkpt>
      <trkpt lat="45.72271" lon="2.99472">
        <ele>911.8</ele>
        <time>2022-08-06T08:36:39Z</time>
      </trkpt>
      <trkpt lat="45.72287" lon="2.99475">
        <ele>911.5</ele>
        <time>2022-08-06T08:36:41Z</time>
      </trkpt>
      <trkpt lat="45.72302" lon="2.99479">
        <ele>911.1</ele>
        <time>2022-08-06T08:36:43Z</time>
      </trkpt>
      <trkpt lat="45.72319" lon="2.99482">
        <ele>910.8</ele>
        <time>2022-08-06T08:36:45Z</time>
      </trkpt>
      <trkpt lat="45.72336" lon="2.9948">
        <ele>910.5</ele>
        <time>2022-08-06T08:36:47Z</time>
      </trkpt>
      <trkpt lat="45.72352" lon="2.99478">
        <ele>910</ele>
        <time>2022-08-06T08:36:49Z</time>
      </trkpt>
      <trkpt lat="45.72369" lon="2.99474">
        <ele>909.5</ele>
        <time>2022-08-06T08:36:51Z</time>
      </trkpt>
      <trkpt lat="45.72386" lon="2.9947">
        <ele>908.9</ele>
        <time>2022-08-06T08:36:53Z</time>
      </trkpt>
      <trkpt lat="45.72404" lon="2.99466">
        <ele>908.1</ele>
        <time>2022-08-06T08:36:55Z</time>
      </trkpt>
      <trkpt lat="45.72421" lon="2.9946">
        <ele>907.2</ele>
        <time>2022-08-06T08:36:57Z</time>
      </trkpt>
      <trkpt lat="45.72438" lon="2.99451">
        <ele>906.1</ele>
        <time>2022-08-06T08:36:59Z</time>
      </trkpt>
      <trkpt lat="45.72456" lon="2.99438">
        <ele>904.9</ele>
        <time>2022-08-06T08:37:01Z</time>
      </trkpt>
      <trkpt lat="45.7247" lon="2.99417">
        <ele>903.8</ele>
        <time>2022-08-06T08:37:03Z</time>
      </trkpt>
      <trkpt lat="45.72474" lon="2.99388">
        <ele>902.8</ele>
        <time>2022-08-06T08:37:05Z</time>
      </trkpt>
      <trkpt lat="45.72474" lon="2.99358">
        <ele>902</ele>
        <time>2022-08-06T08:37:07Z</time>
      </trkpt>
      <trkpt lat="45.72474" lon="2.99328">
        <ele>901.3</ele>
        <time>2022-08-06T08:37:09Z</time>
      </trkpt>
      <trkpt lat="45.72477" lon="2.99299">
        <ele>901.1</ele>
        <time>2022-08-06T08:37:11Z</time>
      </trkpt>
      <trkpt lat="45.72483" lon="2.99273">
        <ele>900.7</ele>
        <time>2022-08-06T08:37:13Z</time>
      </trkpt>
      <trkpt lat="45.72491" lon="2.99248">
        <ele>900.2</ele>
        <time>2022-08-06T08:37:15Z</time>
      </trkpt>
      <trkpt lat="45.72503" lon="2.99229">
        <ele>899.7</ele>
        <time>2022-08-06T08:37:17Z</time>
      </trkpt>
      <trkpt lat="45.72518" lon="2.99214">
        <ele>899.1</ele>
        <time>2022-08-06T08:37:19Z</time>
      </trkpt>
      <trkpt lat="45.72534" lon="2.99199">
        <ele>898.6</ele>
        <time>2022-08-06T08:37:21Z</time>
      </trkpt>
      <trkpt lat="45.72551" lon="2.99185">
        <ele>898.2</ele>
        <time>2022-08-06T08:37:23Z</time>
      </trkpt>
      <trkpt lat="45.72566" lon="2.99169">
        <ele>897.9</ele>
        <time>2022-08-06T08:37:25Z</time>
      </trkpt>
      <trkpt lat="45.72578" lon="2.99151">
        <ele>897.6</ele>
        <time>2022-08-06T08:37:27Z</time>
      </trkpt>
      <trkpt lat="45.7259" lon="2.99133">
        <ele>897.4</ele>
        <time>2022-08-06T08:37:29Z</time>
      </trkpt>
      <trkpt lat="45.72601" lon="2.99118">
        <ele>897.3</ele>
        <time>2022-08-06T08:37:31Z</time>
      </trkpt>
      <trkpt lat="45.7261" lon="2.99106">
        <ele>897.3</ele>
        <time>2022-08-06T08:37:33Z</time>
      </trkpt>
      <trkpt lat="45.72617" lon="2.99094">
        <ele>897.3</ele>
        <time>2022-08-06T08:37:35Z</time>
      </trkpt>
      <trkpt lat="45.72622" lon="2.9908">
        <ele>897.3</ele>
        <time>2022-08-06T08:37:37Z</time>
      </trkpt>
      <trkpt lat="45.72624" lon="2.99064">
        <ele>897.3</ele>
        <time>2022-08-06T08:37:39Z</time>
      </trkpt>
      <trkpt lat="45.72625" lon="2.99049">
        <ele>897.3</ele>
        <time>2022-08-06T08:37:41Z</time>
      </trkpt>
      <trkpt lat="45.72626" lon="2.99035">
        <ele>897.4</ele>
        <time>2022-08-06T08:37:43Z</time>
      </trkpt>
      <trkpt lat="45.72627" lon="2.9902">
        <ele>897.4</ele>
        <time>2022-08-06T08:37:45Z</time>
      </trkpt>
      <trkpt lat="45.72629" lon="2.99003">
        <ele>897.4</ele>
        <time>2022-08-06T08:37:47Z</time>
      </trkpt>
      <trkpt lat="45.72631" lon="2.98986">
        <ele>897.8</ele>
        <time>2022-08-06T08:37:49Z</time>
      </trkpt>
      <trkpt lat="45.72634" lon="2.98969">
        <ele>898</ele>
        <time>2022-08-06T08:37:51Z</time>
      </trkpt>
      <trkpt lat="45.72636" lon="2.98952">
        <ele>898.2</ele>
        <time>2022-08-06T08:37:53Z</time>
      </trkpt>
      <trkpt lat="45.7264" lon="2.98936">
        <ele>898.4</ele>
        <time>2022-08-06T08:37:55Z</time>
      </trkpt>
      <trkpt lat="45.72646" lon="2.9892">
        <ele>898.7</ele>
        <time>2022-08-06T08:37:57Z</time>
      </trkpt>
      <trkpt lat="45.72657" lon="2.98913">
        <ele>898.8</ele>
        <time>2022-08-06T08:37:59Z</time>
      </trkpt>
      <trkpt lat="45.72669" lon="2.98913">
        <ele>898.9</ele>
        <time>2022-08-06T08:38:01Z</time>
      </trkpt>
      <trkpt lat="45.7268" lon="2.98917">
        <ele>899.1</ele>
        <time>2022-08-06T08:38:03Z</time>
      </trkpt>
      <trkpt lat="45.72693" lon="2.9892">
        <ele>899.3</ele>
        <time>2022-08-06T08:38:05Z</time>
      </trkpt>
      <trkpt lat="45.72705" lon="2.98925">
        <ele>899.5</ele>
        <time>2022-08-06T08:38:07Z</time>
      </trkpt>
      <trkpt lat="45.72717" lon="2.98931">
        <ele>899.8</ele>
        <time>2022-08-06T08:38:09Z</time>
      </trkpt>
      <trkpt lat="45.72729" lon="2.98936">
        <ele>900.1</ele>
        <time>2022-08-06T08:38:11Z</time>
      </trkpt>
      <trkpt lat="45.7274" lon="2.9894">
        <ele>900.3</ele>
        <time>2022-08-06T08:38:13Z</time>
      </trkpt>
      <trkpt lat="45.7275" lon="2.9894">
        <ele>900.5</ele>
        <time>2022-08-06T08:38:15Z</time>
      </trkpt>
      <trkpt lat="45.7276" lon="2.98933">
        <ele>900.6</ele>
        <time>2022-08-06T08:38:17Z</time>
      </trkpt>
      <trkpt lat="45.72768" lon="2.98922">
        <ele>900.8</ele>
        <time>2022-08-06T08:38:19Z</time>
      </trkpt>
      <trkpt lat="45.72773" lon="2.98906">
        <ele>901.1</ele>
        <time>2022-08-06T08:38:21Z</time>
      </trkpt>
      <trkpt lat="45.72777" lon="2.98892">
        <ele>901.5</ele>
        <time>2022-08-06T08:38:23Z</time>
      </trkpt>
      <trkpt lat="45.72782" lon="2.98877">
        <ele>901.9</ele>
        <time>2022-08-06T08:38:25Z</time>
      </trkpt>
      <trkpt lat="45.72787" lon="2.98862">
        <ele>902.4</ele>
        <time>2022-08-06T08:38:27Z</time>
      </trkpt>
      <trkpt lat="45.72791" lon="2.98847">
        <ele>902.8</ele>
        <time>2022-08-06T08:38:29Z</time>
      </trkpt>
      <trkpt lat="45.72796" lon="2.9883">
        <ele>903.3</ele>
        <time>2022-08-06T08:38:31Z</time>
      </trkpt>
      <trkpt lat="45.728" lon="2.98815">
        <ele>903.7</ele>
        <time>2022-08-06T08:38:33Z</time>
      </trkpt>
      <trkpt lat="45.72804" lon="2.98799">
        <ele>904</ele>
        <time>2022-08-06T08:38:35Z</time>
      </trkpt>
      <trkpt lat="45.72809" lon="2.98785">
        <ele>904.4</ele>
        <time>2022-08-06T08:38:37Z</time>
      </trkpt>
      <trkpt lat="45.72815" lon="2.9877">
        <ele>904.7</ele>
        <time>2022-08-06T08:38:39Z</time>
      </trkpt>
      <trkpt lat="45.7282" lon="2.98755">
        <ele>905</ele>
        <time>2022-08-06T08:38:41Z</time>
      </trkpt>
      <trkpt lat="45.72825" lon="2.98739">
        <ele>905.4</ele>
        <time>2022-08-06T08:38:43Z</time>
      </trkpt>
      <trkpt lat="45.7283" lon="2.98725">
        <ele>905.7</ele>
        <time>2022-08-06T08:38:45Z</time>
      </trkpt>
      <trkpt lat="45.72834" lon="2.98711">
        <ele>906.1</ele>
        <time>2022-08-06T08:38:47Z</time>
      </trkpt>
      <trkpt lat="45.72838" lon="2.98697">
        <ele>906.4</ele>
        <time>2022-08-06T08:38:49Z</time>
      </trkpt>
      <trkpt lat="45.72842" lon="2.98684">
        <ele>906.7</ele>
        <time>2022-08-06T08:38:51Z</time>
      </trkpt>
      <trkpt lat="45.72846" lon="2.9867">
        <ele>907.1</ele>
        <time>2022-08-06T08:38:53Z</time>
      </trkpt>
      <trkpt lat="45.7285" lon="2.98658">
        <ele>907.4</ele>
        <time>2022-08-06T08:38:55Z</time>
      </trkpt>
      <trkpt lat="45.72855" lon="2.98646">
        <ele>907.7</ele>
        <time>2022-08-06T08:38:57Z</time>
      </trkpt>
      <trkpt lat="45.7286" lon="2.98633">
        <ele>908.1</ele>
        <time>2022-08-06T08:38:59Z</time>
      </trkpt>
      <trkpt lat="45.72864" lon="2.9862">
        <ele>908.5</ele>
        <time>2022-08-06T08:39:01Z</time>
      </trkpt>
      <trkpt lat="45.72867" lon="2.98606">
        <ele>908.9</ele>
        <time>2022-08-06T08:39:03Z</time>
      </trkpt>
      <trkpt lat="45.7287" lon="2.98594">
        <ele>909.2</ele>
        <time>2022-08-06T08:39:05Z</time>
      </trkpt>
      <trkpt lat="45.72872" lon="2.98582">
        <ele>909.5</ele>
        <time>2022-08-06T08:39:07Z</time>
      </trkpt>
      <trkpt lat="45.72873" lon="2.98568">
        <ele>909.9</ele>
        <time>2022-08-06T08:39:09Z</time>
      </trkpt>
      <trkpt lat="45.72873" lon="2.98555">
        <ele>910.2</ele>
        <time>2022-08-06T08:39:11Z</time>
      </trkpt>
      <trkpt lat="45.72874" lon="2.98541">
        <ele>910.6</ele>
        <time>2022-08-06T08:39:13Z</time>
      </trkpt>
      <trkpt lat="45.72876" lon="2.98528">
        <ele>910.9</ele>
        <time>2022-08-06T08:39:15Z</time>
      </trkpt>
      <trkpt lat="45.72878" lon="2.98515">
        <ele>911.3</ele>
        <time>2022-08-06T08:39:17Z</time>
      </trkpt>
      <trkpt lat="45.7288" lon="2.98503">
        <ele>911.7</ele>
        <time>2022-08-06T08:39:19Z</time>
      </trkpt>
      <trkpt lat="45.72883" lon="2.98492">
        <ele>912.1</ele>
        <time>2022-08-06T08:39:21Z</time>
      </trkpt>
      <trkpt lat="45.72886" lon="2.9848">
        <ele>912.6</ele>
        <time>2022-08-06T08:39:23Z</time>
      </trkpt>
      <trkpt lat="45.72888" lon="2.98469">
        <ele>913.1</ele>
        <time>2022-08-06T08:39:25Z</time>
      </trkpt>
      <trkpt lat="45.72891" lon="2.98459">
        <ele>913.6</ele>
        <time>2022-08-06T08:39:27Z</time>
      </trkpt>
      <trkpt lat="45.72894" lon="2.98448">
        <ele>914.2</ele>
        <time>2022-08-06T08:39:29Z</time>
      </trkpt>
      <trkpt lat="45.72897" lon="2.98437">
        <ele>914.7</ele>
        <time>2022-08-06T08:39:31Z</time>
      </trkpt>
      <trkpt lat="45.729" lon="2.98426">
        <ele>915.3</ele>
        <time>2022-08-06T08:39:33Z</time>
      </trkpt>
      <trkpt lat="45.72902" lon="2.98416">
        <ele>915.8</ele>
        <time>2022-08-06T08:39:35Z</time>
      </trkpt>
      <trkpt lat="45.72905" lon="2.98407">
        <ele>916.3</ele>
        <time>2022-08-06T08:39:37Z</time>
      </trkpt>
      <trkpt lat="45.72907" lon="2.98396">
        <ele>916.8</ele>
        <time>2022-08-06T08:39:39Z</time>
      </trkpt>
      <trkpt lat="45.72911" lon="2.98386">
        <ele>917.3</ele>
        <time>2022-08-06T08:39:41Z</time>
      </trkpt>
      <trkpt lat="45.72914" lon="2.98376">
        <ele>917.8</ele>
        <time>2022-08-06T08:39:43Z</time>
      </trkpt>
      <trkpt lat="45.72917" lon="2.98366">
        <ele>918.3</ele>
        <time>2022-08-06T08:39:45Z</time>
      </trkpt>
      <trkpt lat="45.72919" lon="2.98355">
        <ele>918.8</ele>
        <time>2022-08-06T08:39:47Z</time>
      </trkpt>
      <trkpt lat="45.72922" lon="2.98346">
        <ele>919.3</ele>
        <time>2022-08-06T08:39:49Z</time>
      </trkpt>
      <trkpt lat="45.72924" lon="2.98337">
        <ele>919.8</ele>
        <time>2022-08-06T08:39:51Z</time>
      </trkpt>
      <trkpt lat="45.72927" lon="2.98326">
        <ele>920.3</ele>
        <time>2022-08-06T08:39:53Z</time>
      </trkpt>
      <trkpt lat="45.72929" lon="2.98316">
        <ele>920.8</ele>
        <time>2022-08-06T08:39:55Z</time>
      </trkpt>
      <trkpt lat="45.72932" lon="2.98306">
        <ele>921.3</ele>
        <time>2022-08-06T08:39:57Z</time>
      </trkpt>
      <trkpt lat="45.72935" lon="2.98296">
        <ele>921.9</ele>
        <time>2022-08-06T08:39:59Z</time>
      </trkpt>
      <trkpt lat="45.72938" lon="2.98287">
        <ele>922.4</ele>
        <time>2022-08-06T08:40:01Z</time>
      </trkpt>
      <trkpt lat="45.7294" lon="2.98278">
        <ele>922.8</ele>
        <time>2022-08-06T08:40:03Z</time>
      </trkpt>
      <trkpt lat="45.72943" lon="2.98269">
        <ele>923.3</ele>
        <time>2022-08-06T08:40:05Z</time>
      </trkpt>
      <trkpt lat="45.72945" lon="2.9826">
        <ele>923.8</ele>
        <time>2022-08-06T08:40:07Z</time>
      </trkpt>
      <trkpt lat="45.72947" lon="2.98252">
        <ele>924.3</ele>
        <time>2022-08-06T08:40:09Z</time>
      </trkpt>
      <trkpt lat="45.7295" lon="2.98244">
        <ele>924.7</ele>
        <time>2022-08-06T08:40:11Z</time>
      </trkpt>
      <trkpt lat="45.72952" lon="2.98235">
        <ele>925.1</ele>
        <time>2022-08-06T08:40:13Z</time>
      </trkpt>
      <trkpt lat="45.72954" lon="2.98226">
        <ele>925.5</ele>
        <time>2022-08-06T08:40:15Z</time>
      </trkpt>
      <trkpt lat="45.72956" lon="2.98217">
        <ele>925.9</ele>
        <time>2022-08-06T08:40:17Z</time>
      </trkpt>
      <trkpt lat="45.72958" lon="2.98209">
        <ele>926.3</ele>
        <time>2022-08-06T08:40:19Z</time>
      </trkpt>
      <trkpt lat="45.72959" lon="2.98201">
        <ele>926.7</ele>
        <time>2022-08-06T08:40:21Z</time>
      </trkpt>
      <trkpt lat="45.7296" lon="2.98191">
        <ele>927.1</ele>
        <time>2022-08-06T08:40:23Z</time>
      </trkpt>
      <trkpt lat="45.72961" lon="2.98181">
        <ele>927.5</ele>
        <time>2022-08-06T08:40:25Z</time>
      </trkpt>
      <trkpt lat="45.72961" lon="2.98173">
        <ele>927.8</ele>
        <time>2022-08-06T08:40:27Z</time>
      </trkpt>
      <trkpt lat="45.72961" lon="2.98163">
        <ele>928.2</ele>
        <time>2022-08-06T08:40:29Z</time>
      </trkpt>
      <trkpt lat="45.72961" lon="2.98153">
        <ele>928.6</ele>
        <time>2022-08-06T08:40:31Z</time>
      </trkpt>
      <trkpt lat="45.72961" lon="2.98143">
        <ele>928.9</ele>
        <time>2022-08-06T08:40:33Z</time>
      </trkpt>
      <trkpt lat="45.72961" lon="2.98133">
        <ele>929.3</ele>
        <time>2022-08-06T08:40:35Z</time>
      </trkpt>
      <trkpt lat="45.72961" lon="2.98123">
        <ele>929.6</ele>
        <time>2022-08-06T08:40:37Z</time>
      </trkpt>
      <trkpt lat="45.7296" lon="2.98111">
        <ele>930.1</ele>
        <time>2022-08-06T08:40:39Z</time>
      </trkpt>
      <trkpt lat="45.72961" lon="2.981">
        <ele>930.5</ele>
        <time>2022-08-06T08:40:41Z</time>
      </trkpt>
      <trkpt lat="45.72962" lon="2.9809">
        <ele>930.9</ele>
        <time>2022-08-06T08:40:43Z</time>
      </trkpt>
      <trkpt lat="45.72963" lon="2.98079">
        <ele>931.3</ele>
        <time>2022-08-06T08:40:45Z</time>
      </trkpt>
      <trkpt lat="45.72963" lon="2.98069">
        <ele>931.7</ele>
        <time>2022-08-06T08:40:47Z</time>
      </trkpt>
      <trkpt lat="45.72964" lon="2.98058">
        <ele>932.2</ele>
        <time>2022-08-06T08:40:49Z</time>
      </trkpt>
      <trkpt lat="45.72964" lon="2.98047">
        <ele>932.6</ele>
        <time>2022-08-06T08:40:51Z</time>
      </trkpt>
      <trkpt lat="45.72965" lon="2.98037">
        <ele>933.1</ele>
        <time>2022-08-06T08:40:53Z</time>
      </trkpt>
      <trkpt lat="45.72964" lon="2.98028">
        <ele>933.4</ele>
        <time>2022-08-06T08:40:55Z</time>
      </trkpt>
      <trkpt lat="45.72964" lon="2.98017">
        <ele>933.9</ele>
        <time>2022-08-06T08:40:57Z</time>
      </trkpt>
      <trkpt lat="45.72965" lon="2.98007">
        <ele>934.3</ele>
        <time>2022-08-06T08:40:59Z</time>
      </trkpt>
      <trkpt lat="45.72965" lon="2.97997">
        <ele>934.7</ele>
        <time>2022-08-06T08:41:01Z</time>
      </trkpt>
      <trkpt lat="45.72965" lon="2.97987">
        <ele>935.1</ele>
        <time>2022-08-06T08:41:03Z</time>
      </trkpt>
      <trkpt lat="45.72966" lon="2.97977">
        <ele>935.5</ele>
        <time>2022-08-06T08:41:05Z</time>
      </trkpt>
      <trkpt lat="45.72966" lon="2.97966">
        <ele>936</ele>
        <time>2022-08-06T08:41:07Z</time>
      </trkpt>
      <trkpt lat="45.72966" lon="2.97954">
        <ele>936.5</ele>
        <time>2022-08-06T08:41:09Z</time>
      </trkpt>
      <trkpt lat="45.72968" lon="2.97943">
        <ele>936.9</ele>
        <time>2022-08-06T08:41:11Z</time>
      </trkpt>
      <trkpt lat="45.72969" lon="2.97931">
        <ele>937.4</ele>
        <time>2022-08-06T08:41:13Z</time>
      </trkpt>
      <trkpt lat="45.7297" lon="2.9792">
        <ele>937.8</ele>
        <time>2022-08-06T08:41:15Z</time>
      </trkpt>
      <trkpt lat="45.7297" lon="2.97909">
        <ele>938.2</ele>
        <time>2022-08-06T08:41:17Z</time>
      </trkpt>
      <trkpt lat="45.72971" lon="2.97897">
        <ele>938.6</ele>
        <time>2022-08-06T08:41:19Z</time>
      </trkpt>
      <trkpt lat="45.72972" lon="2.97886">
        <ele>939</ele>
        <time>2022-08-06T08:41:21Z</time>
      </trkpt>
      <trkpt lat="45.72973" lon="2.97874">
        <ele>939.4</ele>
        <time>2022-08-06T08:41:23Z</time>
      </trkpt>
      <trkpt lat="45.72973" lon="2.97862">
        <ele>939.9</ele>
        <time>2022-08-06T08:41:25Z</time>
      </trkpt>
      <trkpt lat="45.72973" lon="2.97851">
        <ele>940.3</ele>
        <time>2022-08-06T08:41:27Z</time>
      </trkpt>
      <trkpt lat="45.72972" lon="2.9784">
        <ele>940.6</ele>
        <time>2022-08-06T08:41:29Z</time>
      </trkpt>
      <trkpt lat="45.72972" lon="2.97828">
        <ele>941</ele>
        <time>2022-08-06T08:41:31Z</time>
      </trkpt>
      <trkpt lat="45.72972" lon="2.97817">
        <ele>941.4</ele>
        <time>2022-08-06T08:41:33Z</time>
      </trkpt>
      <trkpt lat="45.72972" lon="2.97805">
        <ele>941.8</ele>
        <time>2022-08-06T08:41:35Z</time>
      </trkpt>
      <trkpt lat="45.72972" lon="2.97794">
        <ele>942.3</ele>
        <time>2022-08-06T08:41:37Z</time>
      </trkpt>
      <trkpt lat="45.72971" lon="2.97781">
        <ele>942.7</ele>
        <time>2022-08-06T08:41:39Z</time>
      </trkpt>
      <trkpt lat="45.72972" lon="2.97768">
        <ele>943.1</ele>
        <time>2022-08-06T08:41:41Z</time>
      </trkpt>
      <trkpt lat="45.72972" lon="2.97757">
        <ele>943.5</ele>
        <time>2022-08-06T08:41:43Z</time>
      </trkpt>
      <trkpt lat="45.72972" lon="2.97745">
        <ele>943.9</ele>
        <time>2022-08-06T08:41:45Z</time>
      </trkpt>
      <trkpt lat="45.72971" lon="2.97733">
        <ele>944.4</ele>
        <time>2022-08-06T08:41:47Z</time>
      </trkpt>
      <trkpt lat="45.72972" lon="2.97721">
        <ele>944.8</ele>
        <time>2022-08-06T08:41:49Z</time>
      </trkpt>
      <trkpt lat="45.72972" lon="2.97709">
        <ele>945.2</ele>
        <time>2022-08-06T08:41:51Z</time>
      </trkpt>
      <trkpt lat="45.72972" lon="2.97697">
        <ele>945.6</ele>
        <time>2022-08-06T08:41:53Z</time>
      </trkpt>
      <trkpt lat="45.72972" lon="2.97684">
        <ele>946.1</ele>
        <time>2022-08-06T08:41:55Z</time>
      </trkpt>
      <trkpt lat="45.72973" lon="2.97673">
        <ele>946.5</ele>
        <time>2022-08-06T08:41:57Z</time>
      </trkpt>
      <trkpt lat="45.72972" lon="2.97662">
        <ele>946.9</ele>
        <time>2022-08-06T08:41:59Z</time>
      </trkpt>
      <trkpt lat="45.72972" lon="2.9765">
        <ele>947.3</ele>
        <time>2022-08-06T08:42:01Z</time>
      </trkpt>
      <trkpt lat="45.72973" lon="2.97638">
        <ele>947.6</ele>
        <time>2022-08-06T08:42:03Z</time>
      </trkpt>
      <trkpt lat="45.72973" lon="2.97627">
        <ele>948</ele>
        <time>2022-08-06T08:42:05Z</time>
      </trkpt>
      <trkpt lat="45.72974" lon="2.97615">
        <ele>948.4</ele>
        <time>2022-08-06T08:42:07Z</time>
      </trkpt>
      <trkpt lat="45.72974" lon="2.97604">
        <ele>948.8</ele>
        <time>2022-08-06T08:42:09Z</time>
      </trkpt>
      <trkpt lat="45.72974" lon="2.97593">
        <ele>949.2</ele>
        <time>2022-08-06T08:42:11Z</time>
      </trkpt>
      <trkpt lat="45.72974" lon="2.97582">
        <ele>949.6</ele>
        <time>2022-08-06T08:42:13Z</time>
      </trkpt>
      <trkpt lat="45.72973" lon="2.9757">
        <ele>950.1</ele>
        <time>2022-08-06T08:42:15Z</time>
      </trkpt>
      <trkpt lat="45.72974" lon="2.9756">
        <ele>950.5</ele>
        <time>2022-08-06T08:42:17Z</time>
      </trkpt>
      <trkpt lat="45.72973" lon="2.97549">
        <ele>950.9</ele>
        <time>2022-08-06T08:42:19Z</time>
      </trkpt>
      <trkpt lat="45.72973" lon="2.97537">
        <ele>951.3</ele>
        <time>2022-08-06T08:42:21Z</time>
      </trkpt>
      <trkpt lat="45.72973" lon="2.97526">
        <ele>951.7</ele>
        <time>2022-08-06T08:42:23Z</time>
      </trkpt>
      <trkpt lat="45.72974" lon="2.97514">
        <ele>952.2</ele>
        <time>2022-08-06T08:42:25Z</time>
      </trkpt>
      <trkpt lat="45.72974" lon="2.97502">
        <ele>952.7</ele>
        <time>2022-08-06T08:42:27Z</time>
      </trkpt>
      <trkpt lat="45.72973" lon="2.97491">
        <ele>953.1</ele>
        <time>2022-08-06T08:42:29Z</time>
      </trkpt>
      <trkpt lat="45.72973" lon="2.9748">
        <ele>953.5</ele>
        <time>2022-08-06T08:42:31Z</time>
      </trkpt>
      <trkpt lat="45.72973" lon="2.97468">
        <ele>954</ele>
        <time>2022-08-06T08:42:33Z</time>
      </trkpt>
      <trkpt lat="45.72973" lon="2.97456">
        <ele>954.4</ele>
        <time>2022-08-06T08:42:35Z</time>
      </trkpt>
      <trkpt lat="45.72973" lon="2.97445">
        <ele>954.9</ele>
        <time>2022-08-06T08:42:37Z</time>
      </trkpt>
      <trkpt lat="45.72974" lon="2.97433">
        <ele>955.4</ele>
        <time>2022-08-06T08:42:39Z</time>
      </trkpt>
      <trkpt lat="45.72974" lon="2.97422">
        <ele>955.9</ele>
        <time>2022-08-06T08:42:41Z</time>
      </trkpt>
      <trkpt lat="45.72976" lon="2.97411">
        <ele>956.3</ele>
        <time>2022-08-06T08:42:43Z</time>
      </trkpt>
      <trkpt lat="45.72978" lon="2.97402">
        <ele>956.7</ele>
        <time>2022-08-06T08:42:45Z</time>
      </trkpt>
      <trkpt lat="45.72979" lon="2.97393">
        <ele>957.2</ele>
        <time>2022-08-06T08:42:47Z</time>
      </trkpt>
      <trkpt lat="45.72982" lon="2.97383">
        <ele>957.6</ele>
        <time>2022-08-06T08:42:49Z</time>
      </trkpt>
      <trkpt lat="45.72984" lon="2.97374">
        <ele>958.1</ele>
        <time>2022-08-06T08:42:51Z</time>
      </trkpt>
      <trkpt lat="45.72988" lon="2.97365">
        <ele>958.5</ele>
        <time>2022-08-06T08:42:53Z</time>
      </trkpt>
      <trkpt lat="45.72991" lon="2.97357">
        <ele>959</ele>
        <time>2022-08-06T08:42:55Z</time>
      </trkpt>
      <trkpt lat="45.72994" lon="2.97348">
        <ele>959.4</ele>
        <time>2022-08-06T08:42:57Z</time>
      </trkpt>
      <trkpt lat="45.72996" lon="2.97339">
        <ele>959.8</ele>
        <time>2022-08-06T08:42:59Z</time>
      </trkpt>
      <trkpt lat="45.73" lon="2.97331">
        <ele>960.3</ele>
        <time>2022-08-06T08:43:01Z</time>
      </trkpt>
      <trkpt lat="45.73003" lon="2.97322">
        <ele>960.8</ele>
        <time>2022-08-06T08:43:03Z</time>
      </trkpt>
      <trkpt lat="45.73007" lon="2.97314">
        <ele>961.2</ele>
        <time>2022-08-06T08:43:05Z</time>
      </trkpt>
      <trkpt lat="45.7301" lon="2.97306">
        <ele>961.6</ele>
        <time>2022-08-06T08:43:07Z</time>
      </trkpt>
      <trkpt lat="45.73013" lon="2.97297">
        <ele>962.1</ele>
        <time>2022-08-06T08:43:09Z</time>
      </trkpt>
      <trkpt lat="45.73016" lon="2.97288">
        <ele>962.5</ele>
        <time>2022-08-06T08:43:11Z</time>
      </trkpt>
      <trkpt lat="45.73019" lon="2.9728">
        <ele>962.9</ele>
        <time>2022-08-06T08:43:13Z</time>
      </trkpt>
      <trkpt lat="45.73021" lon="2.97272">
        <ele>963.3</ele>
        <time>2022-08-06T08:43:15Z</time>
      </trkpt>
      <trkpt lat="45.73025" lon="2.97265">
        <ele>963.7</ele>
        <time>2022-08-06T08:43:17Z</time>
      </trkpt>
      <trkpt lat="45.73031" lon="2.9726">
        <ele>964.1</ele>
        <time>2022-08-06T08:43:19Z</time>
      </trkpt>
      <trkpt lat="45.73036" lon="2.97254">
        <ele>964.5</ele>
        <time>2022-08-06T08:43:21Z</time>
      </trkpt>
      <trkpt lat="45.73042" lon="2.97249">
        <ele>964.9</ele>
        <time>2022-08-06T08:43:23Z</time>
      </trkpt>
      <trkpt lat="45.73048" lon="2.97246">
        <ele>965.3</ele>
        <time>2022-08-06T08:43:25Z</time>
      </trkpt>
      <trkpt lat="45.73055" lon="2.97244">
        <ele>965.7</ele>
        <time>2022-08-06T08:43:27Z</time>
      </trkpt>
      <trkpt lat="45.73061" lon="2.97244">
        <ele>966.1</ele>
        <time>2022-08-06T08:43:29Z</time>
      </trkpt>
      <trkpt lat="45.73068" lon="2.97245">
        <ele>966.6</ele>
        <time>2022-08-06T08:43:31Z</time>
      </trkpt>
      <trkpt lat="45.73075" lon="2.97247">
        <ele>967.1</ele>
        <time>2022-08-06T08:43:33Z</time>
      </trkpt>
      <trkpt lat="45.73081" lon="2.9725">
        <ele>967.5</ele>
        <time>2022-08-06T08:43:35Z</time>
      </trkpt>
      <trkpt lat="45.73088" lon="2.97253">
        <ele>968</ele>
        <time>2022-08-06T08:43:37Z</time>
      </trkpt>
      <trkpt lat="45.73094" lon="2.97255">
        <ele>968.5</ele>
        <time>2022-08-06T08:43:39Z</time>
      </trkpt>
      <trkpt lat="45.731" lon="2.97256">
        <ele>968.9</ele>
        <time>2022-08-06T08:43:41Z</time>
      </trkpt>
      <trkpt lat="45.73106" lon="2.97257">
        <ele>969.3</ele>
        <time>2022-08-06T08:43:43Z</time>
      </trkpt>
      <trkpt lat="45.73111" lon="2.97257">
        <ele>969.7</ele>
        <time>2022-08-06T08:43:45Z</time>
      </trkpt>
      <trkpt lat="45.73117" lon="2.97257">
        <ele>970.1</ele>
        <time>2022-08-06T08:43:47Z</time>
      </trkpt>
      <trkpt lat="45.73123" lon="2.97256">
        <ele>970.5</ele>
        <time>2022-08-06T08:43:49Z</time>
      </trkpt>
      <trkpt lat="45.73129" lon="2.97255">
        <ele>970.9</ele>
        <time>2022-08-06T08:43:51Z</time>
      </trkpt>
      <trkpt lat="45.73135" lon="2.97254">
        <ele>971.2</ele>
        <time>2022-08-06T08:43:53Z</time>
      </trkpt>
      <trkpt lat="45.73141" lon="2.97252">
        <ele>971.6</ele>
        <time>2022-08-06T08:43:55Z</time>
      </trkpt>
      <trkpt lat="45.73148" lon="2.97251">
        <ele>972</ele>
        <time>2022-08-06T08:43:57Z</time>
      </trkpt>
      <trkpt lat="45.73154" lon="2.9725">
        <ele>972.4</ele>
        <time>2022-08-06T08:43:59Z</time>
      </trkpt>
      <trkpt lat="45.73161" lon="2.97247">
        <ele>972.8</ele>
        <time>2022-08-06T08:44:01Z</time>
      </trkpt>
      <trkpt lat="45.73167" lon="2.97246">
        <ele>973.1</ele>
        <time>2022-08-06T08:44:03Z</time>
      </trkpt>
      <trkpt lat="45.73174" lon="2.97245">
        <ele>973.5</ele>
        <time>2022-08-06T08:44:05Z</time>
      </trkpt>
      <trkpt lat="45.7318" lon="2.97242">
        <ele>973.9</ele>
        <time>2022-08-06T08:44:07Z</time>
      </trkpt>
      <trkpt lat="45.73186" lon="2.97239">
        <ele>974.2</ele>
        <time>2022-08-06T08:44:09Z</time>
      </trkpt>
      <trkpt lat="45.73193" lon="2.97235">
        <ele>974.6</ele>
        <time>2022-08-06T08:44:11Z</time>
      </trkpt>
      <trkpt lat="45.73199" lon="2.97231">
        <ele>975</ele>
        <time>2022-08-06T08:44:13Z</time>
      </trkpt>
      <trkpt lat="45.73205" lon="2.97227">
        <ele>975.3</ele>
        <time>2022-08-06T08:44:15Z</time>
      </trkpt>
      <trkpt lat="45.73212" lon="2.97223">
        <ele>975.7</ele>
        <time>2022-08-06T08:44:17Z</time>
      </trkpt>
      <trkpt lat="45.73218" lon="2.9722">
        <ele>976.1</ele>
        <time>2022-08-06T08:44:19Z</time>
      </trkpt>
      <trkpt lat="45.73224" lon="2.97216">
        <ele>976.5</ele>
        <time>2022-08-06T08:44:21Z</time>
      </trkpt>
      <trkpt lat="45.7323" lon="2.97213">
        <ele>976.9</ele>
        <time>2022-08-06T08:44:23Z</time>
      </trkpt>
      <trkpt lat="45.73237" lon="2.97208">
        <ele>977.3</ele>
        <time>2022-08-06T08:44:25Z</time>
      </trkpt>
      <trkpt lat="45.73243" lon="2.97204">
        <ele>977.7</ele>
        <time>2022-08-06T08:44:27Z</time>
      </trkpt>
      <trkpt lat="45.7325" lon="2.97201">
        <ele>978.1</ele>
        <time>2022-08-06T08:44:29Z</time>
      </trkpt>
      <trkpt lat="45.73256" lon="2.97198">
        <ele>978.5</ele>
        <time>2022-08-06T08:44:31Z</time>
      </trkpt>
      <trkpt lat="45.73263" lon="2.97196">
        <ele>978.9</ele>
        <time>2022-08-06T08:44:33Z</time>
      </trkpt>
      <trkpt lat="45.7327" lon="2.97193">
        <ele>979.1</ele>
        <time>2022-08-06T08:44:35Z</time>
      </trkpt>
      <trkpt lat="45.73277" lon="2.97191">
        <ele>979.3</ele>
        <time>2022-08-06T08:44:37Z</time>
      </trkpt>
      <trkpt lat="45.73286" lon="2.9719">
        <ele>979.5</ele>
        <time>2022-08-06T08:44:39Z</time>
      </trkpt>
      <trkpt lat="45.73293" lon="2.97191">
        <ele>979.7</ele>
        <time>2022-08-06T08:44:41Z</time>
      </trkpt>
      <trkpt lat="45.73301" lon="2.97191">
        <ele>979.8</ele>
        <time>2022-08-06T08:44:43Z</time>
      </trkpt>
      <trkpt lat="45.7331" lon="2.97192">
        <ele>980</ele>
        <time>2022-08-06T08:44:45Z</time>
      </trkpt>
      <trkpt lat="45.73319" lon="2.97193">
        <ele>980.1</ele>
        <time>2022-08-06T08:44:47Z</time>
      </trkpt>
      <trkpt lat="45.73329" lon="2.97194">
        <ele>980.2</ele>
        <time>2022-08-06T08:44:49Z</time>
      </trkpt>
      <trkpt lat="45.73338" lon="2.97194">
        <ele>980.2</ele>
        <time>2022-08-06T08:44:51Z</time>
      </trkpt>
      <trkpt lat="45.73348" lon="2.97194">
        <ele>980.2</ele>
        <time>2022-08-06T08:44:53Z</time>
      </trkpt>
      <trkpt lat="45.73357" lon="2.97192">
        <ele>980.2</ele>
        <time>2022-08-06T08:44:55Z</time>
      </trkpt>
      <trkpt lat="45.73368" lon="2.97189">
        <ele>980.2</ele>
        <time>2022-08-06T08:44:57Z</time>
      </trkpt>
      <trkpt lat="45.73378" lon="2.97187">
        <ele>980.2</ele>
        <time>2022-08-06T08:44:59Z</time>
      </trkpt>
      <trkpt lat="45.73387" lon="2.97185">
        <ele>980.2</ele>
        <time>2022-08-06T08:45:01Z</time>
      </trkpt>
      <trkpt lat="45.73398" lon="2.97181">
        <ele>980.1</ele>
        <time>2022-08-06T08:45:03Z</time>
      </trkpt>
      <trkpt lat="45.73408" lon="2.97177">
        <ele>980</ele>
        <time>2022-08-06T08:45:05Z</time>
      </trkpt>
      <trkpt lat="45.73419" lon="2.97173">
        <ele>979.9</ele>
        <time>2022-08-06T08:45:07Z</time>
      </trkpt>
      <trkpt lat="45.7343" lon="2.97169">
        <ele>979.8</ele>
        <time>2022-08-06T08:45:09Z</time>
      </trkpt>
      <trkpt lat="45.73442" lon="2.97164">
        <ele>979.7</ele>
        <time>2022-08-06T08:45:11Z</time>
      </trkpt>
      <trkpt lat="45.73454" lon="2.97158">
        <ele>979.6</ele>
        <time>2022-08-06T08:45:13Z</time>
      </trkpt>
      <trkpt lat="45.73467" lon="2.97152">
        <ele>979.4</ele>
        <time>2022-08-06T08:45:15Z</time>
      </trkpt>
      <trkpt lat="45.7348" lon="2.97147">
        <ele>979.3</ele>
        <time>2022-08-06T08:45:17Z</time>
      </trkpt>
      <trkpt lat="45.73493" lon="2.97141">
        <ele>979.1</ele>
        <time>2022-08-06T08:45:19Z</time>
      </trkpt>
      <trkpt lat="45.73507" lon="2.97135">
        <ele>979</ele>
        <time>2022-08-06T08:45:21Z</time>
      </trkpt>
      <trkpt lat="45.7352" lon="2.9713">
        <ele>978.9</ele>
        <time>2022-08-06T08:45:23Z</time>
      </trkpt>
      <trkpt lat="45.73534" lon="2.97124">
        <ele>978.8</ele>
        <time>2022-08-06T08:45:25Z</time>
      </trkpt>
      <trkpt lat="45.73547" lon="2.9712">
        <ele>978.8</ele>
        <time>2022-08-06T08:45:27Z</time>
      </trkpt>
      <trkpt lat="45.7356" lon="2.97114">
        <ele>978.8</ele>
        <time>2022-08-06T08:45:29Z</time>
      </trkpt>
      <trkpt lat="45.73572" lon="2.97109">
        <ele>978.8</ele>
        <time>2022-08-06T08:45:31Z</time>
      </trkpt>
      <trkpt lat="45.73585" lon="2.97103">
        <ele>978.8</ele>
        <time>2022-08-06T08:45:33Z</time>
      </trkpt>
      <trkpt lat="45.73598" lon="2.971">
        <ele>978.8</ele>
        <time>2022-08-06T08:45:35Z</time>
      </trkpt>
      <trkpt lat="45.73611" lon="2.97097">
        <ele>978.9</ele>
        <time>2022-08-06T08:45:37Z</time>
      </trkpt>
      <trkpt lat="45.73623" lon="2.97093">
        <ele>979</ele>
        <time>2022-08-06T08:45:39Z</time>
      </trkpt>
      <trkpt lat="45.73635" lon="2.97089">
        <ele>979.1</ele>
        <time>2022-08-06T08:45:41Z</time>
      </trkpt>
      <trkpt lat="45.73648" lon="2.97085">
        <ele>979.2</ele>
        <time>2022-08-06T08:45:43Z</time>
      </trkpt>
      <trkpt lat="45.73661" lon="2.97081">
        <ele>979.3</ele>
        <time>2022-08-06T08:45:45Z</time>
      </trkpt>
      <trkpt lat="45.73674" lon="2.97077">
        <ele>979.5</ele>
        <time>2022-08-06T08:45:47Z</time>
      </trkpt>
      <trkpt lat="45.73687" lon="2.97072">
        <ele>979.7</ele>
        <time>2022-08-06T08:45:49Z</time>
      </trkpt>
      <trkpt lat="45.737" lon="2.97068">
        <ele>979.9</ele>
        <time>2022-08-06T08:45:51Z</time>
      </trkpt>
      <trkpt lat="45.73712" lon="2.97062">
        <ele>980</ele>
        <time>2022-08-06T08:45:53Z</time>
      </trkpt>
      <trkpt lat="45.73725" lon="2.97056">
        <ele>980.2</ele>
        <time>2022-08-06T08:45:55Z</time>
      </trkpt>
      <trkpt lat="45.73738" lon="2.9705">
        <ele>980.4</ele>
        <time>2022-08-06T08:45:57Z</time>
      </trkpt>
      <trkpt lat="45.7375" lon="2.97045">
        <ele>980.7</ele>
        <time>2022-08-06T08:45:59Z</time>
      </trkpt>
      <trkpt lat="45.73763" lon="2.97039">
        <ele>980.9</ele>
        <time>2022-08-06T08:46:01Z</time>
      </trkpt>
      <trkpt lat="45.73776" lon="2.97034">
        <ele>981.1</ele>
        <time>2022-08-06T08:46:03Z</time>
      </trkpt>
      <trkpt lat="45.73788" lon="2.97029">
        <ele>981.3</ele>
        <time>2022-08-06T08:46:05Z</time>
      </trkpt>
      <trkpt lat="45.738" lon="2.97023">
        <ele>981.5</ele>
        <time>2022-08-06T08:46:07Z</time>
      </trkpt>
      <trkpt lat="45.73813" lon="2.97017">
        <ele>981.7</ele>
        <time>2022-08-06T08:46:09Z</time>
      </trkpt>
      <trkpt lat="45.73824" lon="2.97011">
        <ele>981.8</ele>
        <time>2022-08-06T08:46:11Z</time>
      </trkpt>
      <trkpt lat="45.73837" lon="2.97005">
        <ele>982</ele>
        <time>2022-08-06T08:46:13Z</time>
      </trkpt>
      <trkpt lat="45.73849" lon="2.96997">
        <ele>982.1</ele>
        <time>2022-08-06T08:46:15Z</time>
      </trkpt>
      <trkpt lat="45.73861" lon="2.9699">
        <ele>982.2</ele>
        <time>2022-08-06T08:46:17Z</time>
      </trkpt>
      <trkpt lat="45.73873" lon="2.96983">
        <ele>982.2</ele>
        <time>2022-08-06T08:46:19Z</time>
      </trkpt>
      <trkpt lat="45.73884" lon="2.96976">
        <ele>982.2</ele>
        <time>2022-08-06T08:46:21Z</time>
      </trkpt>
      <trkpt lat="45.73896" lon="2.96966">
        <ele>982.2</ele>
        <time>2022-08-06T08:46:23Z</time>
      </trkpt>
      <trkpt lat="45.73907" lon="2.96955">
        <ele>982.1</ele>
        <time>2022-08-06T08:46:25Z</time>
      </trkpt>
      <trkpt lat="45.73917" lon="2.96942">
        <ele>982</ele>
        <time>2022-08-06T08:46:27Z</time>
      </trkpt>
      <trkpt lat="45.73928" lon="2.96927">
        <ele>981.9</ele>
        <time>2022-08-06T08:46:29Z</time>
      </trkpt>
      <trkpt lat="45.7394" lon="2.96912">
        <ele>981.7</ele>
        <time>2022-08-06T08:46:31Z</time>
      </trkpt>
      <trkpt lat="45.73951" lon="2.96897">
        <ele>981.6</ele>
        <time>2022-08-06T08:46:33Z</time>
      </trkpt>
      <trkpt lat="45.73961" lon="2.96882">
        <ele>981.4</ele>
        <time>2022-08-06T08:46:35Z</time>
      </trkpt>
      <trkpt lat="45.7397" lon="2.96865">
        <ele>981.2</ele>
        <time>2022-08-06T08:46:37Z</time>
      </trkpt>
      <trkpt lat="45.73977" lon="2.96847">
        <ele>981</ele>
        <time>2022-08-06T08:46:39Z</time>
      </trkpt>
      <trkpt lat="45.73982" lon="2.96827">
        <ele>980.7</ele>
        <time>2022-08-06T08:46:41Z</time>
      </trkpt>
      <trkpt lat="45.73986" lon="2.96807">
        <ele>980.5</ele>
        <time>2022-08-06T08:46:43Z</time>
      </trkpt>
      <trkpt lat="45.73989" lon="2.96787">
        <ele>980.2</ele>
        <time>2022-08-06T08:46:45Z</time>
      </trkpt>
      <trkpt lat="45.73992" lon="2.96766">
        <ele>979.9</ele>
        <time>2022-08-06T08:46:47Z</time>
      </trkpt>
      <trkpt lat="45.73994" lon="2.96744">
        <ele>979.6</ele>
        <time>2022-08-06T08:46:49Z</time>
      </trkpt>
      <trkpt lat="45.73997" lon="2.96722">
        <ele>979.3</ele>
        <time>2022-08-06T08:46:51Z</time>
      </trkpt>
      <trkpt lat="45.74001" lon="2.967">
        <ele>979</ele>
        <time>2022-08-06T08:46:53Z</time>
      </trkpt>
      <trkpt lat="45.74007" lon="2.96679">
        <ele>978.8</ele>
        <time>2022-08-06T08:46:55Z</time>
      </trkpt>
      <trkpt lat="45.74013" lon="2.96658">
        <ele>978.7</ele>
        <time>2022-08-06T08:46:57Z</time>
      </trkpt>
      <trkpt lat="45.74021" lon="2.96637">
        <ele>978.8</ele>
        <time>2022-08-06T08:46:59Z</time>
      </trkpt>
      <trkpt lat="45.7403" lon="2.96616">
        <ele>978.8</ele>
        <time>2022-08-06T08:47:01Z</time>
      </trkpt>
      <trkpt lat="45.74039" lon="2.96597">
        <ele>978.5</ele>
        <time>2022-08-06T08:47:03Z</time>
      </trkpt>
      <trkpt lat="45.74047" lon="2.96577">
        <ele>978.5</ele>
        <time>2022-08-06T08:47:05Z</time>
      </trkpt>
      <trkpt lat="45.74053" lon="2.9656">
        <ele>978.5</ele>
        <time>2022-08-06T08:47:07Z</time>
      </trkpt>
      <trkpt lat="45.74059" lon="2.96543">
        <ele>978.7</ele>
        <time>2022-08-06T08:47:09Z</time>
      </trkpt>
      <trkpt lat="45.74067" lon="2.96529">
        <ele>978.8</ele>
        <time>2022-08-06T08:47:11Z</time>
      </trkpt>
      <trkpt lat="45.74077" lon="2.96517">
        <ele>979</ele>
        <time>2022-08-06T08:47:13Z</time>
      </trkpt>
      <trkpt lat="45.74087" lon="2.96505">
        <ele>979.3</ele>
        <time>2022-08-06T08:47:15Z</time>
      </trkpt>
      <trkpt lat="45.74096" lon="2.96492">
        <ele>979.6</ele>
        <time>2022-08-06T08:47:17Z</time>
      </trkpt>
      <trkpt lat="45.74103" lon="2.96479">
        <ele>980</ele>
        <time>2022-08-06T08:47:19Z</time>
      </trkpt>
      <trkpt lat="45.74111" lon="2.96466">
        <ele>980.4</ele>
        <time>2022-08-06T08:47:21Z</time>
      </trkpt>
      <trkpt lat="45.74117" lon="2.96454">
        <ele>980.9</ele>
        <time>2022-08-06T08:47:23Z</time>
      </trkpt>
      <trkpt lat="45.74123" lon="2.96444">
        <ele>981.3</ele>
        <time>2022-08-06T08:47:25Z</time>
      </trkpt>
      <trkpt lat="45.74129" lon="2.96433">
        <ele>981.7</ele>
        <time>2022-08-06T08:47:27Z</time>
      </trkpt>
      <trkpt lat="45.74134" lon="2.96424">
        <ele>982.1</ele>
        <time>2022-08-06T08:47:29Z</time>
      </trkpt>
      <trkpt lat="45.74138" lon="2.96415">
        <ele>982.4</ele>
        <time>2022-08-06T08:47:31Z</time>
      </trkpt>
      <trkpt lat="45.74142" lon="2.96407">
        <ele>982.8</ele>
        <time>2022-08-06T08:47:33Z</time>
      </trkpt>
      <trkpt lat="45.74146" lon="2.96398">
        <ele>983.2</ele>
        <time>2022-08-06T08:47:35Z</time>
      </trkpt>
      <trkpt lat="45.74149" lon="2.9639">
        <ele>983.5</ele>
        <time>2022-08-06T08:47:37Z</time>
      </trkpt>
      <trkpt lat="45.74152" lon="2.96381">
        <ele>983.9</ele>
        <time>2022-08-06T08:47:39Z</time>
      </trkpt>
      <trkpt lat="45.74157" lon="2.96373">
        <ele>984.3</ele>
        <time>2022-08-06T08:47:41Z</time>
      </trkpt>
      <trkpt lat="45.7416" lon="2.96366">
        <ele>984.8</ele>
        <time>2022-08-06T08:47:43Z</time>
      </trkpt>
      <trkpt lat="45.74163" lon="2.96357">
        <ele>985.2</ele>
        <time>2022-08-06T08:47:45Z</time>
      </trkpt>
      <trkpt lat="45.74166" lon="2.96349">
        <ele>985.7</ele>
        <time>2022-08-06T08:47:47Z</time>
      </trkpt>
      <trkpt lat="45.74168" lon="2.96339">
        <ele>986.2</ele>
        <time>2022-08-06T08:47:49Z</time>
      </trkpt>
      <trkpt lat="45.74171" lon="2.9633">
        <ele>986.7</ele>
        <time>2022-08-06T08:47:51Z</time>
      </trkpt>
      <trkpt lat="45.74173" lon="2.9632">
        <ele>987.2</ele>
        <time>2022-08-06T08:47:53Z</time>
      </trkpt>
      <trkpt lat="45.74174" lon="2.96311">
        <ele>987.7</ele>
        <time>2022-08-06T08:47:55Z</time>
      </trkpt>
      <trkpt lat="45.74175" lon="2.96301">
        <ele>988.2</ele>
        <time>2022-08-06T08:47:57Z</time>
      </trkpt>
      <trkpt lat="45.74174" lon="2.96292">
        <ele>988.6</ele>
        <time>2022-08-06T08:47:59Z</time>
      </trkpt>
      <trkpt lat="45.74174" lon="2.96283">
        <ele>989.1</ele>
        <time>2022-08-06T08:48:01Z</time>
      </trkpt>
      <trkpt lat="45.74173" lon="2.96274">
        <ele>989.5</ele>
        <time>2022-08-06T08:48:03Z</time>
      </trkpt>
      <trkpt lat="45.74171" lon="2.96264">
        <ele>989.9</ele>
        <time>2022-08-06T08:48:05Z</time>
      </trkpt>
      <trkpt lat="45.7417" lon="2.96254">
        <ele>990.4</ele>
        <time>2022-08-06T08:48:07Z</time>
      </trkpt>
      <trkpt lat="45.74169" lon="2.96244">
        <ele>990.8</ele>
        <time>2022-08-06T08:48:09Z</time>
      </trkpt>
      <trkpt lat="45.74168" lon="2.96235">
        <ele>991.2</ele>
        <time>2022-08-06T08:48:11Z</time>
      </trkpt>
      <trkpt lat="45.74167" lon="2.96225">
        <ele>991.7</ele>
        <time>2022-08-06T08:48:13Z</time>
      </trkpt>
      <trkpt lat="45.74168" lon="2.96215">
        <ele>992.1</ele>
        <time>2022-08-06T08:48:15Z</time>
      </trkpt>
      <trkpt lat="45.74169" lon="2.96206">
        <ele>992.5</ele>
        <time>2022-08-06T08:48:17Z</time>
      </trkpt>
      <trkpt lat="45.7417" lon="2.96196">
        <ele>993</ele>
        <time>2022-08-06T08:48:19Z</time>
      </trkpt>
      <trkpt lat="45.74171" lon="2.96186">
        <ele>993.4</ele>
        <time>2022-08-06T08:48:21Z</time>
      </trkpt>
      <trkpt lat="45.74172" lon="2.96176">
        <ele>993.8</ele>
        <time>2022-08-06T08:48:23Z</time>
      </trkpt>
      <trkpt lat="45.74174" lon="2.96168">
        <ele>994.1</ele>
        <time>2022-08-06T08:48:25Z</time>
      </trkpt>
      <trkpt lat="45.74175" lon="2.96161">
        <ele>994.4</ele>
        <time>2022-08-06T08:48:27Z</time>
      </trkpt>
      <trkpt lat="45.74178" lon="2.96153">
        <ele>994.7</ele>
        <time>2022-08-06T08:48:29Z</time>
      </trkpt>
      <trkpt lat="45.74181" lon="2.96144">
        <ele>995.1</ele>
        <time>2022-08-06T08:48:31Z</time>
      </trkpt>
      <trkpt lat="45.74183" lon="2.96135">
        <ele>995.4</ele>
        <time>2022-08-06T08:48:33Z</time>
      </trkpt>
      <trkpt lat="45.74186" lon="2.96126">
        <ele>995.8</ele>
        <time>2022-08-06T08:48:35Z</time>
      </trkpt>
      <trkpt lat="45.74189" lon="2.96117">
        <ele>996.1</ele>
        <time>2022-08-06T08:48:37Z</time>
      </trkpt>
      <trkpt lat="45.74192" lon="2.96109">
        <ele>996.4</ele>
        <time>2022-08-06T08:48:39Z</time>
      </trkpt>
      <trkpt lat="45.74195" lon="2.961">
        <ele>996.7</ele>
        <time>2022-08-06T08:48:41Z</time>
      </trkpt>
      <trkpt lat="45.74199" lon="2.96092">
        <ele>997</ele>
        <time>2022-08-06T08:48:43Z</time>
      </trkpt>
      <trkpt lat="45.74203" lon="2.96084">
        <ele>997.3</ele>
        <time>2022-08-06T08:48:45Z</time>
      </trkpt>
      <trkpt lat="45.74208" lon="2.96076">
        <ele>997.7</ele>
        <time>2022-08-06T08:48:47Z</time>
      </trkpt>
      <trkpt lat="45.74212" lon="2.96067">
        <ele>998</ele>
        <time>2022-08-06T08:48:49Z</time>
      </trkpt>
      <trkpt lat="45.74216" lon="2.96058">
        <ele>998.4</ele>
        <time>2022-08-06T08:48:51Z</time>
      </trkpt>
      <trkpt lat="45.7422" lon="2.96049">
        <ele>998.7</ele>
        <time>2022-08-06T08:48:53Z</time>
      </trkpt>
      <trkpt lat="45.74224" lon="2.9604">
        <ele>999.1</ele>
        <time>2022-08-06T08:48:55Z</time>
      </trkpt>
      <trkpt lat="45.74229" lon="2.96031">
        <ele>999.4</ele>
        <time>2022-08-06T08:48:57Z</time>
      </trkpt>
      <trkpt lat="45.74232" lon="2.96021">
        <ele>999.8</ele>
        <time>2022-08-06T08:48:59Z</time>
      </trkpt>
      <trkpt lat="45.74234" lon="2.9601">
        <ele>1000.1</ele>
        <time>2022-08-06T08:49:01Z</time>
      </trkpt>
      <trkpt lat="45.74235" lon="2.96">
        <ele>1000.4</ele>
        <time>2022-08-06T08:49:03Z</time>
      </trkpt>
      <trkpt lat="45.74237" lon="2.95988">
        <ele>1000.8</ele>
        <time>2022-08-06T08:49:05Z</time>
      </trkpt>
      <trkpt lat="45.74239" lon="2.95976">
        <ele>1001.2</ele>
        <time>2022-08-06T08:49:07Z</time>
      </trkpt>
      <trkpt lat="45.74239" lon="2.95964">
        <ele>1001.6</ele>
        <time>2022-08-06T08:49:09Z</time>
      </trkpt>
      <trkpt lat="45.7424" lon="2.95952">
        <ele>1002</ele>
        <time>2022-08-06T08:49:11Z</time>
      </trkpt>
      <trkpt lat="45.74239" lon="2.9594">
        <ele>1002.4</ele>
        <time>2022-08-06T08:49:13Z</time>
      </trkpt>
      <trkpt lat="45.7424" lon="2.95927">
        <ele>1002.8</ele>
        <time>2022-08-06T08:49:15Z</time>
      </trkpt>
      <trkpt lat="45.7424" lon="2.95915">
        <ele>1003.2</ele>
        <time>2022-08-06T08:49:17Z</time>
      </trkpt>
      <trkpt lat="45.74241" lon="2.95904">
        <ele>1003.5</ele>
        <time>2022-08-06T08:49:19Z</time>
      </trkpt>
      <trkpt lat="45.74241" lon="2.95892">
        <ele>1003.9</ele>
        <time>2022-08-06T08:49:21Z</time>
      </trkpt>
      <trkpt lat="45.74242" lon="2.9588">
        <ele>1004.2</ele>
        <time>2022-08-06T08:49:23Z</time>
      </trkpt>
      <trkpt lat="45.74243" lon="2.95867">
        <ele>1004.6</ele>
        <time>2022-08-06T08:49:25Z</time>
      </trkpt>
      <trkpt lat="45.74244" lon="2.95854">
        <ele>1005</ele>
        <time>2022-08-06T08:49:27Z</time>
      </trkpt>
      <trkpt lat="45.74245" lon="2.95842">
        <ele>1005.4</ele>
        <time>2022-08-06T08:49:29Z</time>
      </trkpt>
      <trkpt lat="45.74245" lon="2.9583">
        <ele>1005.8</ele>
        <time>2022-08-06T08:49:31Z</time>
      </trkpt>
      <trkpt lat="45.74245" lon="2.95818">
        <ele>1006.2</ele>
        <time>2022-08-06T08:49:33Z</time>
      </trkpt>
      <trkpt lat="45.74246" lon="2.95806">
        <ele>1006.6</ele>
        <time>2022-08-06T08:49:35Z</time>
      </trkpt>
      <trkpt lat="45.74246" lon="2.95794">
        <ele>1007</ele>
        <time>2022-08-06T08:49:37Z</time>
      </trkpt>
      <trkpt lat="45.74246" lon="2.95781">
        <ele>1007.5</ele>
        <time>2022-08-06T08:49:39Z</time>
      </trkpt>
      <trkpt lat="45.74246" lon="2.95768">
        <ele>1008</ele>
        <time>2022-08-06T08:49:41Z</time>
      </trkpt>
      <trkpt lat="45.74246" lon="2.95757">
        <ele>1008.4</ele>
        <time>2022-08-06T08:49:43Z</time>
      </trkpt>
      <trkpt lat="45.74246" lon="2.95746">
        <ele>1008.8</ele>
        <time>2022-08-06T08:49:45Z</time>
      </trkpt>
      <trkpt lat="45.74247" lon="2.95735">
        <ele>1009.2</ele>
        <time>2022-08-06T08:49:47Z</time>
      </trkpt>
      <trkpt lat="45.74248" lon="2.95723">
        <ele>1009.6</ele>
        <time>2022-08-06T08:49:49Z</time>
      </trkpt>
      <trkpt lat="45.74249" lon="2.95711">
        <ele>1010.1</ele>
        <time>2022-08-06T08:49:51Z</time>
      </trkpt>
      <trkpt lat="45.7425" lon="2.957">
        <ele>1010.5</ele>
        <time>2022-08-06T08:49:53Z</time>
      </trkpt>
      <trkpt lat="45.7425" lon="2.95688">
        <ele>1011</ele>
        <time>2022-08-06T08:49:55Z</time>
      </trkpt>
      <trkpt lat="45.74251" lon="2.95676">
        <ele>1011.4</ele>
        <time>2022-08-06T08:49:57Z</time>
      </trkpt>
      <trkpt lat="45.74251" lon="2.95666">
        <ele>1011.8</ele>
        <time>2022-08-06T08:49:59Z</time>
      </trkpt>
      <trkpt lat="45.74252" lon="2.95655">
        <ele>1012.2</ele>
        <time>2022-08-06T08:50:01Z</time>
      </trkpt>
      <trkpt lat="45.74252" lon="2.95645">
        <ele>1012.7</ele>
        <time>2022-08-06T08:50:03Z</time>
      </trkpt>
      <trkpt lat="45.74253" lon="2.95634">
        <ele>1013.2</ele>
        <time>2022-08-06T08:50:05Z</time>
      </trkpt>
      <trkpt lat="45.74256" lon="2.95625">
        <ele>1013.6</ele>
        <time>2022-08-06T08:50:07Z</time>
      </trkpt>
      <trkpt lat="45.74258" lon="2.95617">
        <ele>1014.1</ele>
        <time>2022-08-06T08:50:09Z</time>
      </trkpt>
      <trkpt lat="45.74261" lon="2.95609">
        <ele>1014.6</ele>
        <time>2022-08-06T08:50:11Z</time>
      </trkpt>
      <trkpt lat="45.74264" lon="2.956">
        <ele>1015.1</ele>
        <time>2022-08-06T08:50:13Z</time>
      </trkpt>
      <trkpt lat="45.74267" lon="2.95593">
        <ele>1015.5</ele>
        <time>2022-08-06T08:50:15Z</time>
      </trkpt>
      <trkpt lat="45.7427" lon="2.95586">
        <ele>1016</ele>
        <time>2022-08-06T08:50:17Z</time>
      </trkpt>
      <trkpt lat="45.74274" lon="2.95579">
        <ele>1016.4</ele>
        <time>2022-08-06T08:50:19Z</time>
      </trkpt>
      <trkpt lat="45.74277" lon="2.95572">
        <ele>1016.9</ele>
        <time>2022-08-06T08:50:21Z</time>
      </trkpt>
      <trkpt lat="45.7428" lon="2.95565">
        <ele>1017.3</ele>
        <time>2022-08-06T08:50:23Z</time>
      </trkpt>
      <trkpt lat="45.74284" lon="2.95559">
        <ele>1017.8</ele>
        <time>2022-08-06T08:50:25Z</time>
      </trkpt>
      <trkpt lat="45.74288" lon="2.95552">
        <ele>1018.3</ele>
        <time>2022-08-06T08:50:27Z</time>
      </trkpt>
      <trkpt lat="45.74292" lon="2.95544">
        <ele>1018.8</ele>
        <time>2022-08-06T08:50:29Z</time>
      </trkpt>
      <trkpt lat="45.74296" lon="2.95536">
        <ele>1019.4</ele>
        <time>2022-08-06T08:50:31Z</time>
      </trkpt>
      <trkpt lat="45.74299" lon="2.95529">
        <ele>1019.8</ele>
        <time>2022-08-06T08:50:33Z</time>
      </trkpt>
      <trkpt lat="45.74302" lon="2.95522">
        <ele>1020.2</ele>
        <time>2022-08-06T08:50:35Z</time>
      </trkpt>
      <trkpt lat="45.74305" lon="2.95515">
        <ele>1020.5</ele>
        <time>2022-08-06T08:50:37Z</time>
      </trkpt>
      <trkpt lat="45.74309" lon="2.95509">
        <ele>1020.9</ele>
        <time>2022-08-06T08:50:39Z</time>
      </trkpt>
      <trkpt lat="45.74312" lon="2.95501">
        <ele>1021.3</ele>
        <time>2022-08-06T08:50:41Z</time>
      </trkpt>
      <trkpt lat="45.74314" lon="2.95493">
        <ele>1021.7</ele>
        <time>2022-08-06T08:50:43Z</time>
      </trkpt>
      <trkpt lat="45.74311" lon="2.95485">
        <ele>1022.1</ele>
        <time>2022-08-06T08:50:45Z</time>
      </trkpt>
      <trkpt lat="45.74307" lon="2.95477">
        <ele>1022.5</ele>
        <time>2022-08-06T08:50:47Z</time>
      </trkpt>
      <trkpt lat="45.74303" lon="2.9547">
        <ele>1023</ele>
        <time>2022-08-06T08:50:49Z</time>
      </trkpt>
      <trkpt lat="45.743" lon="2.95463">
        <ele>1023.5</ele>
        <time>2022-08-06T08:50:51Z</time>
      </trkpt>
      <trkpt lat="45.74297" lon="2.95456">
        <ele>1024</ele>
        <time>2022-08-06T08:50:53Z</time>
      </trkpt>
      <trkpt lat="45.74293" lon="2.95447">
        <ele>1024.6</ele>
        <time>2022-08-06T08:50:55Z</time>
      </trkpt>
      <trkpt lat="45.7429" lon="2.9544">
        <ele>1025.2</ele>
        <time>2022-08-06T08:50:57Z</time>
      </trkpt>
      <trkpt lat="45.74287" lon="2.95433">
        <ele>1025.7</ele>
        <time>2022-08-06T08:50:59Z</time>
      </trkpt>
      <trkpt lat="45.74283" lon="2.95426">
        <ele>1026.2</ele>
        <time>2022-08-06T08:51:01Z</time>
      </trkpt>
      <trkpt lat="45.7428" lon="2.95418">
        <ele>1026.8</ele>
        <time>2022-08-06T08:51:03Z</time>
      </trkpt>
      <trkpt lat="45.74277" lon="2.9541">
        <ele>1027.3</ele>
        <time>2022-08-06T08:51:05Z</time>
      </trkpt>
      <trkpt lat="45.74274" lon="2.95404">
        <ele>1027.9</ele>
        <time>2022-08-06T08:51:07Z</time>
      </trkpt>
      <trkpt lat="45.74271" lon="2.95397">
        <ele>1028.4</ele>
        <time>2022-08-06T08:51:09Z</time>
      </trkpt>
      <trkpt lat="45.74267" lon="2.9539">
        <ele>1029</ele>
        <time>2022-08-06T08:51:11Z</time>
      </trkpt>
      <trkpt lat="45.74264" lon="2.95382">
        <ele>1029.6</ele>
        <time>2022-08-06T08:51:13Z</time>
      </trkpt>
      <trkpt lat="45.74261" lon="2.95375">
        <ele>1030.2</ele>
        <time>2022-08-06T08:51:15Z</time>
      </trkpt>
      <trkpt lat="45.74258" lon="2.95367">
        <ele>1030.8</ele>
        <time>2022-08-06T08:51:17Z</time>
      </trkpt>
      <trkpt lat="45.74254" lon="2.95359">
        <ele>1031.4</ele>
        <time>2022-08-06T08:51:19Z</time>
      </trkpt>
      <trkpt lat="45.74252" lon="2.95352">
        <ele>1031.9</ele>
        <time>2022-08-06T08:51:21Z</time>
      </trkpt>
      <trkpt lat="45.74249" lon="2.95345">
        <ele>1032.4</ele>
        <time>2022-08-06T08:51:23Z</time>
      </trkpt>
      <trkpt lat="45.74245" lon="2.95337">
        <ele>1033</ele>
        <time>2022-08-06T08:51:25Z</time>
      </trkpt>
      <trkpt lat="45.74243" lon="2.95329">
        <ele>1033.5</ele>
        <time>2022-08-06T08:51:27Z</time>
      </trkpt>
      <trkpt lat="45.7424" lon="2.95321">
        <ele>1034.2</ele>
        <time>2022-08-06T08:51:29Z</time>
      </trkpt>
      <trkpt lat="45.74237" lon="2.95313">
        <ele>1034.7</ele>
        <time>2022-08-06T08:51:31Z</time>
      </trkpt>
      <trkpt lat="45.74235" lon="2.95305">
        <ele>1035.3</ele>
        <time>2022-08-06T08:51:33Z</time>
      </trkpt>
      <trkpt lat="45.74232" lon="2.95297">
        <ele>1035.9</ele>
        <time>2022-08-06T08:51:35Z</time>
      </trkpt>
      <trkpt lat="45.74229" lon="2.9529">
        <ele>1036.5</ele>
        <time>2022-08-06T08:51:37Z</time>
      </trkpt>
      <trkpt lat="45.74227" lon="2.95282">
        <ele>1037.1</ele>
        <time>2022-08-06T08:51:39Z</time>
      </trkpt>
      <trkpt lat="45.74224" lon="2.95275">
        <ele>1037.7</ele>
        <time>2022-08-06T08:51:41Z</time>
      </trkpt>
      <trkpt lat="45.74221" lon="2.95268">
        <ele>1038.3</ele>
        <time>2022-08-06T08:51:43Z</time>
      </trkpt>
      <trkpt lat="45.74218" lon="2.9526">
        <ele>1038.9</ele>
        <time>2022-08-06T08:51:45Z</time>
      </trkpt>
      <trkpt lat="45.74216" lon="2.95251">
        <ele>1039.5</ele>
        <time>2022-08-06T08:51:47Z</time>
      </trkpt>
      <trkpt lat="45.74214" lon="2.95244">
        <ele>1040.1</ele>
        <time>2022-08-06T08:51:49Z</time>
      </trkpt>
      <trkpt lat="45.74211" lon="2.95236">
        <ele>1040.8</ele>
        <time>2022-08-06T08:51:51Z</time>
      </trkpt>
      <trkpt lat="45.74209" lon="2.95228">
        <ele>1041.4</ele>
        <time>2022-08-06T08:51:53Z</time>
      </trkpt>
      <trkpt lat="45.74207" lon="2.9522">
        <ele>1042</ele>
        <time>2022-08-06T08:51:55Z</time>
      </trkpt>
      <trkpt lat="45.74204" lon="2.95213">
        <ele>1042.6</ele>
        <time>2022-08-06T08:51:57Z</time>
      </trkpt>
      <trkpt lat="45.74203" lon="2.95205">
        <ele>1043.1</ele>
        <time>2022-08-06T08:51:59Z</time>
      </trkpt>
      <trkpt lat="45.742" lon="2.95197">
        <ele>1043.8</ele>
        <time>2022-08-06T08:52:01Z</time>
      </trkpt>
      <trkpt lat="45.74198" lon="2.95189">
        <ele>1044.4</ele>
        <time>2022-08-06T08:52:03Z</time>
      </trkpt>
      <trkpt lat="45.74196" lon="2.95182">
        <ele>1045</ele>
        <time>2022-08-06T08:52:05Z</time>
      </trkpt>
      <trkpt lat="45.74194" lon="2.95174">
        <ele>1045.6</ele>
        <time>2022-08-06T08:52:07Z</time>
      </trkpt>
      <trkpt lat="45.74192" lon="2.95166">
        <ele>1046.3</ele>
        <time>2022-08-06T08:52:09Z</time>
      </trkpt>
      <trkpt lat="45.7419" lon="2.95158">
        <ele>1046.9</ele>
        <time>2022-08-06T08:52:11Z</time>
      </trkpt>
      <trkpt lat="45.74189" lon="2.9515">
        <ele>1047.5</ele>
        <time>2022-08-06T08:52:13Z</time>
      </trkpt>
      <trkpt lat="45.74187" lon="2.95142">
        <ele>1048.1</ele>
        <time>2022-08-06T08:52:15Z</time>
      </trkpt>
      <trkpt lat="45.74185" lon="2.95134">
        <ele>1048.8</ele>
        <time>2022-08-06T08:52:17Z</time>
      </trkpt>
      <trkpt lat="45.74183" lon="2.95126">
        <ele>1049.3</ele>
        <time>2022-08-06T08:52:19Z</time>
      </trkpt>
      <trkpt lat="45.74181" lon="2.95118">
        <ele>1050</ele>
        <time>2022-08-06T08:52:21Z</time>
      </trkpt>
      <trkpt lat="45.74179" lon="2.9511">
        <ele>1050.6</ele>
        <time>2022-08-06T08:52:23Z</time>
      </trkpt>
      <trkpt lat="45.74178" lon="2.95101">
        <ele>1051.3</ele>
        <time>2022-08-06T08:52:25Z</time>
      </trkpt>
      <trkpt lat="45.74177" lon="2.95094">
        <ele>1051.8</ele>
        <time>2022-08-06T08:52:27Z</time>
      </trkpt>
      <trkpt lat="45.74176" lon="2.95085">
        <ele>1052.4</ele>
        <time>2022-08-06T08:52:29Z</time>
      </trkpt>
      <trkpt lat="45.74175" lon="2.95077">
        <ele>1053.1</ele>
        <time>2022-08-06T08:52:31Z</time>
      </trkpt>
      <trkpt lat="45.74173" lon="2.95069">
        <ele>1053.6</ele>
        <time>2022-08-06T08:52:33Z</time>
      </trkpt>
      <trkpt lat="45.74172" lon="2.95061">
        <ele>1054.3</ele>
        <time>2022-08-06T08:52:35Z</time>
      </trkpt>
      <trkpt lat="45.74171" lon="2.95052">
        <ele>1054.9</ele>
        <time>2022-08-06T08:52:37Z</time>
      </trkpt>
      <trkpt lat="45.7417" lon="2.95044">
        <ele>1055.6</ele>
        <time>2022-08-06T08:52:39Z</time>
      </trkpt>
      <trkpt lat="45.74169" lon="2.95035">
        <ele>1056.2</ele>
        <time>2022-08-06T08:52:41Z</time>
      </trkpt>
      <trkpt lat="45.74168" lon="2.95026">
        <ele>1056.8</ele>
        <time>2022-08-06T08:52:43Z</time>
      </trkpt>
      <trkpt lat="45.74167" lon="2.95017">
        <ele>1057.4</ele>
        <time>2022-08-06T08:52:45Z</time>
      </trkpt>
      <trkpt lat="45.74167" lon="2.95008">
        <ele>1057.9</ele>
        <time>2022-08-06T08:52:47Z</time>
      </trkpt>
      <trkpt lat="45.74165" lon="2.95">
        <ele>1058.4</ele>
        <time>2022-08-06T08:52:49Z</time>
      </trkpt>
      <trkpt lat="45.74165" lon="2.94991">
        <ele>1058.9</ele>
        <time>2022-08-06T08:52:51Z</time>
      </trkpt>
      <trkpt lat="45.74165" lon="2.94983">
        <ele>1059.3</ele>
        <time>2022-08-06T08:52:53Z</time>
      </trkpt>
      <trkpt lat="45.74164" lon="2.94975">
        <ele>1059.7</ele>
        <time>2022-08-06T08:52:55Z</time>
      </trkpt>
      <trkpt lat="45.74163" lon="2.94966">
        <ele>1060.2</ele>
        <time>2022-08-06T08:52:57Z</time>
      </trkpt>
      <trkpt lat="45.74163" lon="2.94957">
        <ele>1060.6</ele>
        <time>2022-08-06T08:52:59Z</time>
      </trkpt>
      <trkpt lat="45.74162" lon="2.94948">
        <ele>1060.9</ele>
        <time>2022-08-06T08:53:01Z</time>
      </trkpt>
      <trkpt lat="45.74162" lon="2.94939">
        <ele>1061.3</ele>
        <time>2022-08-06T08:53:03Z</time>
      </trkpt>
      <trkpt lat="45.74162" lon="2.94931">
        <ele>1061.6</ele>
        <time>2022-08-06T08:53:05Z</time>
      </trkpt>
      <trkpt lat="45.74161" lon="2.94921">
        <ele>1061.8</ele>
        <time>2022-08-06T08:53:07Z</time>
      </trkpt>
      <trkpt lat="45.7416" lon="2.94911">
        <ele>1062.1</ele>
        <time>2022-08-06T08:53:09Z</time>
      </trkpt>
      <trkpt lat="45.7416" lon="2.94899">
        <ele>1062.3</ele>
        <time>2022-08-06T08:53:11Z</time>
      </trkpt>
      <trkpt lat="45.74159" lon="2.94886">
        <ele>1062.5</ele>
        <time>2022-08-06T08:53:13Z</time>
      </trkpt>
      <trkpt lat="45.74158" lon="2.94875">
        <ele>1062.5</ele>
        <time>2022-08-06T08:53:15Z</time>
      </trkpt>
      <trkpt lat="45.74159" lon="2.94869">
        <ele>1062.6</ele>
        <time>2022-08-06T08:53:17Z</time>
      </trkpt>
      <trkpt lat="45.74159" lon="2.94869">
        <ele>1062.6</ele>
        <time>2022-08-06T08:53:19Z</time>
      </trkpt>
      <trkpt lat="45.74159" lon="2.94869">
        <ele>1062.6</ele>
        <time>2022-08-06T08:53:21Z</time>
      </trkpt>
      <trkpt lat="45.74159" lon="2.94869">
        <ele>1062.6</ele>
        <time>2022-08-06T08:53:23Z</time>
      </trkpt>
      <trkpt lat="45.74159" lon="2.94869">
        <ele>1062.6</ele>
        <time>2022-08-06T08:53:25Z</time>
      </trkpt>
      <trkpt lat="45.74159" lon="2.94869">
        <ele>1062.6</ele>
        <time>2022-08-06T08:53:27Z</time>
      </trkpt>
      <trkpt lat="45.74159" lon="2.94869">
        <ele>1062.6</ele>
        <time>2022-08-06T08:53:29Z</time>
      </trkpt>
      <trkpt lat="45.74157" lon="2.94865">
        <ele>1062.6</ele>
        <time>2022-08-06T08:53:43Z</time>
      </trkpt>
      <trkpt lat="45.74156" lon="2.94859">
        <ele>1062.6</ele>
        <time>2022-08-06T08:53:45Z</time>
      </trkpt>
      <trkpt lat="45.74154" lon="2.94848">
        <ele>1062.6</ele>
        <time>2022-08-06T08:53:47Z</time>
      </trkpt>
      <trkpt lat="45.74152" lon="2.94836">
        <ele>1062.6</ele>
        <time>2022-08-06T08:53:49Z</time>
      </trkpt>
      <trkpt lat="45.74149" lon="2.94823">
        <ele>1062.6</ele>
        <time>2022-08-06T08:53:51Z</time>
      </trkpt>
      <trkpt lat="45.74146" lon="2.94808">
        <ele>1062.5</ele>
        <time>2022-08-06T08:53:53Z</time>
      </trkpt>
      <trkpt lat="45.74144" lon="2.94793">
        <ele>1062.3</ele>
        <time>2022-08-06T08:53:55Z</time>
      </trkpt>
      <trkpt lat="45.74141" lon="2.94775">
        <ele>1062.1</ele>
        <time>2022-08-06T08:53:57Z</time>
      </trkpt>
      <trkpt lat="45.74138" lon="2.94756">
        <ele>1061.8</ele>
        <time>2022-08-06T08:53:59Z</time>
      </trkpt>
      <trkpt lat="45.74135" lon="2.94737">
        <ele>1061.4</ele>
        <time>2022-08-06T08:54:01Z</time>
      </trkpt>
      <trkpt lat="45.74131" lon="2.94715">
        <ele>1061</ele>
        <time>2022-08-06T08:54:03Z</time>
      </trkpt>
      <trkpt lat="45.74128" lon="2.94692">
        <ele>1060.5</ele>
        <time>2022-08-06T08:54:05Z</time>
      </trkpt>
      <trkpt lat="45.74125" lon="2.94669">
        <ele>1059.9</ele>
        <time>2022-08-06T08:54:07Z</time>
      </trkpt>
      <trkpt lat="45.74122" lon="2.94645">
        <ele>1059.4</ele>
        <time>2022-08-06T08:54:09Z</time>
      </trkpt>
      <trkpt lat="45.74119" lon="2.94619">
        <ele>1058.9</ele>
        <time>2022-08-06T08:54:11Z</time>
      </trkpt>
      <trkpt lat="45.74116" lon="2.94595">
        <ele>1058.4</ele>
        <time>2022-08-06T08:54:13Z</time>
      </trkpt>
      <trkpt lat="45.74112" lon="2.9457">
        <ele>1057.9</ele>
        <time>2022-08-06T08:54:15Z</time>
      </trkpt>
      <trkpt lat="45.74109" lon="2.94544">
        <ele>1057.5</ele>
        <time>2022-08-06T08:54:17Z</time>
      </trkpt>
      <trkpt lat="45.74106" lon="2.94518">
        <ele>1057.1</ele>
        <time>2022-08-06T08:54:19Z</time>
      </trkpt>
      <trkpt lat="45.74102" lon="2.94491">
        <ele>1056.6</ele>
        <time>2022-08-06T08:54:21Z</time>
      </trkpt>
      <trkpt lat="45.74098" lon="2.94464">
        <ele>1056.1</ele>
        <time>2022-08-06T08:54:23Z</time>
      </trkpt>
      <trkpt lat="45.74093" lon="2.94435">
        <ele>1055.5</ele>
        <time>2022-08-06T08:54:25Z</time>
      </trkpt>
      <trkpt lat="45.74089" lon="2.94405">
        <ele>1054.9</ele>
        <time>2022-08-06T08:54:27Z</time>
      </trkpt>
      <trkpt lat="45.74084" lon="2.94372">
        <ele>1054.1</ele>
        <time>2022-08-06T08:54:29Z</time>
      </trkpt>
      <trkpt lat="45.74079" lon="2.94339">
        <ele>1053.3</ele>
        <time>2022-08-06T08:54:31Z</time>
      </trkpt>
      <trkpt lat="45.74073" lon="2.94306">
        <ele>1052.5</ele>
        <time>2022-08-06T08:54:33Z</time>
      </trkpt>
      <trkpt lat="45.74068" lon="2.94274">
        <ele>1051.6</ele>
        <time>2022-08-06T08:54:35Z</time>
      </trkpt>
      <trkpt lat="45.7406" lon="2.94241">
        <ele>1050.7</ele>
        <time>2022-08-06T08:54:37Z</time>
      </trkpt>
      <trkpt lat="45.74049" lon="2.94209">
        <ele>1049.7</ele>
        <time>2022-08-06T08:54:39Z</time>
      </trkpt>
      <trkpt lat="45.74038" lon="2.94175">
        <ele>1048.6</ele>
        <time>2022-08-06T08:54:41Z</time>
      </trkpt>
      <trkpt lat="45.74027" lon="2.94143">
        <ele>1047.6</ele>
        <time>2022-08-06T08:54:43Z</time>
      </trkpt>
      <trkpt lat="45.74014" lon="2.94111">
        <ele>1046.4</ele>
        <time>2022-08-06T08:54:45Z</time>
      </trkpt>
      <trkpt lat="45.74001" lon="2.9408">
        <ele>1045.3</ele>
        <time>2022-08-06T08:54:47Z</time>
      </trkpt>
      <trkpt lat="45.73988" lon="2.94049">
        <ele>1044.2</ele>
        <time>2022-08-06T08:54:49Z</time>
      </trkpt>
      <trkpt lat="45.73975" lon="2.94019">
        <ele>1043.3</ele>
        <time>2022-08-06T08:54:51Z</time>
      </trkpt>
      <trkpt lat="45.73962" lon="2.93988">
        <ele>1042.6</ele>
        <time>2022-08-06T08:54:53Z</time>
      </trkpt>
      <trkpt lat="45.73949" lon="2.93957">
        <ele>1041.8</ele>
        <time>2022-08-06T08:54:55Z</time>
      </trkpt>
      <trkpt lat="45.73936" lon="2.93926">
        <ele>1041.1</ele>
        <time>2022-08-06T08:54:57Z</time>
      </trkpt>
      <trkpt lat="45.73922" lon="2.93896">
        <ele>1040.3</ele>
        <time>2022-08-06T08:54:59Z</time>
      </trkpt>
      <trkpt lat="45.73909" lon="2.93865">
        <ele>1039.1</ele>
        <time>2022-08-06T08:55:01Z</time>
      </trkpt>
      <trkpt lat="45.73895" lon="2.93834">
        <ele>1037.5</ele>
        <time>2022-08-06T08:55:03Z</time>
      </trkpt>
      <trkpt lat="45.7388" lon="2.93801">
        <ele>1035.8</ele>
        <time>2022-08-06T08:55:05Z</time>
      </trkpt>
      <trkpt lat="45.73865" lon="2.93768">
        <ele>1033.9</ele>
        <time>2022-08-06T08:55:07Z</time>
      </trkpt>
      <trkpt lat="45.7385" lon="2.93735">
        <ele>1032</ele>
        <time>2022-08-06T08:55:09Z</time>
      </trkpt>
      <trkpt lat="45.73835" lon="2.93701">
        <ele>1030.1</ele>
        <time>2022-08-06T08:55:11Z</time>
      </trkpt>
      <trkpt lat="45.73819" lon="2.93667">
        <ele>1028.1</ele>
        <time>2022-08-06T08:55:13Z</time>
      </trkpt>
      <trkpt lat="45.73805" lon="2.93633">
        <ele>1026.3</ele>
        <time>2022-08-06T08:55:15Z</time>
      </trkpt>
      <trkpt lat="45.7379" lon="2.936">
        <ele>1024.5</ele>
        <time>2022-08-06T08:55:17Z</time>
      </trkpt>
      <trkpt lat="45.73774" lon="2.93565">
        <ele>1022.7</ele>
        <time>2022-08-06T08:55:19Z</time>
      </trkpt>
      <trkpt lat="45.73758" lon="2.93531">
        <ele>1021.2</ele>
        <time>2022-08-06T08:55:21Z</time>
      </trkpt>
      <trkpt lat="45.73744" lon="2.93496">
        <ele>1019.7</ele>
        <time>2022-08-06T08:55:23Z</time>
      </trkpt>
      <trkpt lat="45.73727" lon="2.93462">
        <ele>1018.1</ele>
        <time>2022-08-06T08:55:25Z</time>
      </trkpt>
      <trkpt lat="45.73712" lon="2.93427">
        <ele>1016.5</ele>
        <time>2022-08-06T08:55:27Z</time>
      </trkpt>
      <trkpt lat="45.73695" lon="2.93391">
        <ele>1014.9</ele>
        <time>2022-08-06T08:55:29Z</time>
      </trkpt>
      <trkpt lat="45.73678" lon="2.93357">
        <ele>1013.2</ele>
        <time>2022-08-06T08:55:31Z</time>
      </trkpt>
      <trkpt lat="45.73662" lon="2.93321">
        <ele>1011.5</ele>
        <time>2022-08-06T08:55:33Z</time>
      </trkpt>
      <trkpt lat="45.73645" lon="2.93285">
        <ele>1009.8</ele>
        <time>2022-08-06T08:55:35Z</time>
      </trkpt>
      <trkpt lat="45.73628" lon="2.93251">
        <ele>1008.2</ele>
        <time>2022-08-06T08:55:37Z</time>
      </trkpt>
      <trkpt lat="45.73611" lon="2.93216">
        <ele>1006.6</ele>
        <time>2022-08-06T08:55:39Z</time>
      </trkpt>
      <trkpt lat="45.73593" lon="2.93184">
        <ele>1005.1</ele>
        <time>2022-08-06T08:55:41Z</time>
      </trkpt>
      <trkpt lat="45.73573" lon="2.93155">
        <ele>1003.6</ele>
        <time>2022-08-06T08:55:43Z</time>
      </trkpt>
      <trkpt lat="45.73551" lon="2.93128">
        <ele>1002.2</ele>
        <time>2022-08-06T08:55:45Z</time>
      </trkpt>
      <trkpt lat="45.7353" lon="2.93102">
        <ele>1000.9</ele>
        <time>2022-08-06T08:55:47Z</time>
      </trkpt>
      <trkpt lat="45.73507" lon="2.93077">
        <ele>999.5</ele>
        <time>2022-08-06T08:55:49Z</time>
      </trkpt>
      <trkpt lat="45.73485" lon="2.93051">
        <ele>997.7</ele>
        <time>2022-08-06T08:55:51Z</time>
      </trkpt>
      <trkpt lat="45.73464" lon="2.93022">
        <ele>995.6</ele>
        <time>2022-08-06T08:55:53Z</time>
      </trkpt>
      <trkpt lat="45.73447" lon="2.92988">
        <ele>993.4</ele>
        <time>2022-08-06T08:55:55Z</time>
      </trkpt>
      <trkpt lat="45.73432" lon="2.92951">
        <ele>991</ele>
        <time>2022-08-06T08:55:57Z</time>
      </trkpt>
      <trkpt lat="45.73418" lon="2.92911">
        <ele>988.7</ele>
        <time>2022-08-06T08:55:59Z</time>
      </trkpt>
      <trkpt lat="45.73407" lon="2.92869">
        <ele>986.5</ele>
        <time>2022-08-06T08:56:01Z</time>
      </trkpt>
      <trkpt lat="45.73398" lon="2.92826">
        <ele>984.3</ele>
        <time>2022-08-06T08:56:03Z</time>
      </trkpt>
      <trkpt lat="45.73392" lon="2.92781">
        <ele>981.9</ele>
        <time>2022-08-06T08:56:05Z</time>
      </trkpt>
      <trkpt lat="45.73387" lon="2.92734">
        <ele>979.3</ele>
        <time>2022-08-06T08:56:07Z</time>
      </trkpt>
      <trkpt lat="45.73384" lon="2.92687">
        <ele>976.9</ele>
        <time>2022-08-06T08:56:09Z</time>
      </trkpt>
      <trkpt lat="45.73382" lon="2.92641">
        <ele>974.9</ele>
        <time>2022-08-06T08:56:11Z</time>
      </trkpt>
      <trkpt lat="45.73379" lon="2.92595">
        <ele>973.2</ele>
        <time>2022-08-06T08:56:13Z</time>
      </trkpt>
      <trkpt lat="45.73377" lon="2.92549">
        <ele>971.8</ele>
        <time>2022-08-06T08:56:15Z</time>
      </trkpt>
      <trkpt lat="45.73376" lon="2.92505">
        <ele>970.7</ele>
        <time>2022-08-06T08:56:17Z</time>
      </trkpt>
      <trkpt lat="45.73374" lon="2.92462">
        <ele>969.8</ele>
        <time>2022-08-06T08:56:19Z</time>
      </trkpt>
      <trkpt lat="45.73373" lon="2.9242">
        <ele>968.7</ele>
        <time>2022-08-06T08:56:21Z</time>
      </trkpt>
      <trkpt lat="45.73371" lon="2.92379">
        <ele>967.8</ele>
        <time>2022-08-06T08:56:23Z</time>
      </trkpt>
      <trkpt lat="45.7337" lon="2.92338">
        <ele>967.1</ele>
        <time>2022-08-06T08:56:25Z</time>
      </trkpt>
      <trkpt lat="45.73368" lon="2.92298">
        <ele>966.4</ele>
        <time>2022-08-06T08:56:27Z</time>
      </trkpt>
      <trkpt lat="45.73367" lon="2.92259">
        <ele>965.7</ele>
        <time>2022-08-06T08:56:29Z</time>
      </trkpt>
      <trkpt lat="45.73366" lon="2.92219">
        <ele>965.1</ele>
        <time>2022-08-06T08:56:31Z</time>
      </trkpt>
      <trkpt lat="45.73365" lon="2.92181">
        <ele>964.5</ele>
        <time>2022-08-06T08:56:33Z</time>
      </trkpt>
      <trkpt lat="45.73364" lon="2.92142">
        <ele>963.9</ele>
        <time>2022-08-06T08:56:35Z</time>
      </trkpt>
      <trkpt lat="45.73362" lon="2.92105">
        <ele>963.2</ele>
        <time>2022-08-06T08:56:37Z</time>
      </trkpt>
      <trkpt lat="45.73361" lon="2.92069">
        <ele>962.6</ele>
        <time>2022-08-06T08:56:39Z</time>
      </trkpt>
      <trkpt lat="45.73359" lon="2.92033">
        <ele>962</ele>
        <time>2022-08-06T08:56:41Z</time>
      </trkpt>
      <trkpt lat="45.73358" lon="2.91997">
        <ele>961.3</ele>
        <time>2022-08-06T08:56:43Z</time>
      </trkpt>
      <trkpt lat="45.73356" lon="2.91961">
        <ele>960.7</ele>
        <time>2022-08-06T08:56:45Z</time>
      </trkpt>
      <trkpt lat="45.73355" lon="2.91926">
        <ele>960.1</ele>
        <time>2022-08-06T08:56:47Z</time>
      </trkpt>
      <trkpt lat="45.73354" lon="2.91891">
        <ele>959.5</ele>
        <time>2022-08-06T08:56:49Z</time>
      </trkpt>
      <trkpt lat="45.73353" lon="2.91856">
        <ele>958.8</ele>
        <time>2022-08-06T08:56:51Z</time>
      </trkpt>
      <trkpt lat="45.73352" lon="2.91821">
        <ele>958</ele>
        <time>2022-08-06T08:56:53Z</time>
      </trkpt>
      <trkpt lat="45.73351" lon="2.91787">
        <ele>957.2</ele>
        <time>2022-08-06T08:56:55Z</time>
      </trkpt>
      <trkpt lat="45.7335" lon="2.91752">
        <ele>956.1</ele>
        <time>2022-08-06T08:56:57Z</time>
      </trkpt>
      <trkpt lat="45.73348" lon="2.91716">
        <ele>954.6</ele>
        <time>2022-08-06T08:56:59Z</time>
      </trkpt>
      <trkpt lat="45.73347" lon="2.9168">
        <ele>952.9</ele>
        <time>2022-08-06T08:57:01Z</time>
      </trkpt>
      <trkpt lat="45.73341" lon="2.91643">
        <ele>951</ele>
        <time>2022-08-06T08:57:03Z</time>
      </trkpt>
      <trkpt lat="45.73329" lon="2.91612">
        <ele>948.9</ele>
        <time>2022-08-06T08:57:05Z</time>
      </trkpt>
      <trkpt lat="45.73308" lon="2.91589">
        <ele>946.8</ele>
        <time>2022-08-06T08:57:07Z</time>
      </trkpt>
      <trkpt lat="45.73283" lon="2.91578">
        <ele>944.6</ele>
        <time>2022-08-06T08:57:09Z</time>
      </trkpt>
      <trkpt lat="45.73256" lon="2.9157">
        <ele>942.4</ele>
        <time>2022-08-06T08:57:11Z</time>
      </trkpt>
      <trkpt lat="45.73232" lon="2.91561">
        <ele>940.5</ele>
        <time>2022-08-06T08:57:13Z</time>
      </trkpt>
      <trkpt lat="45.73212" lon="2.91541">
        <ele>938.3</ele>
        <time>2022-08-06T08:57:15Z</time>
      </trkpt>
      <trkpt lat="45.73199" lon="2.91512">
        <ele>936.1</ele>
        <time>2022-08-06T08:57:17Z</time>
      </trkpt>
      <trkpt lat="45.7319" lon="2.91476">
        <ele>933.7</ele>
        <time>2022-08-06T08:57:19Z</time>
      </trkpt>
      <trkpt lat="45.73182" lon="2.91439">
        <ele>931.4</ele>
        <time>2022-08-06T08:57:21Z</time>
      </trkpt>
      <trkpt lat="45.73172" lon="2.914">
        <ele>928.8</ele>
        <time>2022-08-06T08:57:23Z</time>
      </trkpt>
      <trkpt lat="45.7316" lon="2.91362">
        <ele>926</ele>
        <time>2022-08-06T08:57:25Z</time>
      </trkpt>
      <trkpt lat="45.73144" lon="2.91325">
        <ele>923.2</ele>
        <time>2022-08-06T08:57:27Z</time>
      </trkpt>
      <trkpt lat="45.73127" lon="2.91289">
        <ele>920.4</ele>
        <time>2022-08-06T08:57:29Z</time>
      </trkpt>
      <trkpt lat="45.73115" lon="2.9125">
        <ele>917.6</ele>
        <time>2022-08-06T08:57:31Z</time>
      </trkpt>
      <trkpt lat="45.73112" lon="2.91206">
        <ele>914.9</ele>
        <time>2022-08-06T08:57:33Z</time>
      </trkpt>
      <trkpt lat="45.73112" lon="2.9116">
        <ele>912</ele>
        <time>2022-08-06T08:57:35Z</time>
      </trkpt>
      <trkpt lat="45.73112" lon="2.91115">
        <ele>909</ele>
        <time>2022-08-06T08:57:37Z</time>
      </trkpt>
      <trkpt lat="45.73108" lon="2.9107">
        <ele>905.9</ele>
        <time>2022-08-06T08:57:39Z</time>
      </trkpt>
      <trkpt lat="45.73099" lon="2.91026">
        <ele>903.4</ele>
        <time>2022-08-06T08:57:41Z</time>
      </trkpt>
      <trkpt lat="45.73088" lon="2.90983">
        <ele>901.7</ele>
        <time>2022-08-06T08:57:43Z</time>
      </trkpt>
      <trkpt lat="45.73078" lon="2.90941">
        <ele>900.5</ele>
        <time>2022-08-06T08:57:45Z</time>
      </trkpt>
      <trkpt lat="45.73067" lon="2.909">
        <ele>899.6</ele>
        <time>2022-08-06T08:57:47Z</time>
      </trkpt>
      <trkpt lat="45.73056" lon="2.9086">
        <ele>898.9</ele>
        <time>2022-08-06T08:57:49Z</time>
      </trkpt>
      <trkpt lat="45.73046" lon="2.90822">
        <ele>898.4</ele>
        <time>2022-08-06T08:57:51Z</time>
      </trkpt>
      <trkpt lat="45.73036" lon="2.90784">
        <ele>897.9</ele>
        <time>2022-08-06T08:57:53Z</time>
      </trkpt>
      <trkpt lat="45.73027" lon="2.90747">
        <ele>897.4</ele>
        <time>2022-08-06T08:57:55Z</time>
      </trkpt>
      <trkpt lat="45.73018" lon="2.9071">
        <ele>897</ele>
        <time>2022-08-06T08:57:57Z</time>
      </trkpt>
      <trkpt lat="45.73008" lon="2.90674">
        <ele>896.7</ele>
        <time>2022-08-06T08:57:59Z</time>
      </trkpt>
      <trkpt lat="45.72999" lon="2.90639">
        <ele>896.3</ele>
        <time>2022-08-06T08:58:01Z</time>
      </trkpt>
      <trkpt lat="45.7299" lon="2.90603">
        <ele>895.6</ele>
        <time>2022-08-06T08:58:03Z</time>
      </trkpt>
      <trkpt lat="45.72981" lon="2.90568">
        <ele>894.6</ele>
        <time>2022-08-06T08:58:05Z</time>
      </trkpt>
      <trkpt lat="45.72972" lon="2.90533">
        <ele>893.4</ele>
        <time>2022-08-06T08:58:07Z</time>
      </trkpt>
      <trkpt lat="45.72964" lon="2.90496">
        <ele>892.2</ele>
        <time>2022-08-06T08:58:09Z</time>
      </trkpt>
      <trkpt lat="45.72959" lon="2.90458">
        <ele>890.9</ele>
        <time>2022-08-06T08:58:11Z</time>
      </trkpt>
      <trkpt lat="45.72954" lon="2.90418">
        <ele>888.7</ele>
        <time>2022-08-06T08:58:13Z</time>
      </trkpt>
      <trkpt lat="45.72948" lon="2.90377">
        <ele>886.5</ele>
        <time>2022-08-06T08:58:15Z</time>
      </trkpt>
      <trkpt lat="45.72943" lon="2.90336">
        <ele>884.3</ele>
        <time>2022-08-06T08:58:17Z</time>
      </trkpt>
      <trkpt lat="45.72937" lon="2.90295">
        <ele>882.3</ele>
        <time>2022-08-06T08:58:19Z</time>
      </trkpt>
      <trkpt lat="45.72933" lon="2.90256">
        <ele>880.7</ele>
        <time>2022-08-06T08:58:21Z</time>
      </trkpt>
      <trkpt lat="45.72928" lon="2.90218">
        <ele>879.3</ele>
        <time>2022-08-06T08:58:23Z</time>
      </trkpt>
      <trkpt lat="45.72922" lon="2.90181">
        <ele>877.9</ele>
        <time>2022-08-06T08:58:25Z</time>
      </trkpt>
      <trkpt lat="45.72915" lon="2.90145">
        <ele>877.3</ele>
        <time>2022-08-06T08:58:27Z</time>
      </trkpt>
      <trkpt lat="45.72903" lon="2.90111">
        <ele>875</ele>
        <time>2022-08-06T08:58:29Z</time>
      </trkpt>
      <trkpt lat="45.72888" lon="2.9008">
        <ele>872.7</ele>
        <time>2022-08-06T08:58:31Z</time>
      </trkpt>
      <trkpt lat="45.7287" lon="2.90054">
        <ele>870.6</ele>
        <time>2022-08-06T08:58:33Z</time>
      </trkpt>
      <trkpt lat="45.72851" lon="2.90027">
        <ele>868.6</ele>
        <time>2022-08-06T08:58:35Z</time>
      </trkpt>
      <trkpt lat="45.72832" lon="2.9">
        <ele>866.9</ele>
        <time>2022-08-06T08:58:37Z</time>
      </trkpt>
      <trkpt lat="45.72814" lon="2.89978">
        <ele>865.6</ele>
        <time>2022-08-06T08:58:39Z</time>
      </trkpt>
      <trkpt lat="45.72798" lon="2.89954">
        <ele>864.1</ele>
        <time>2022-08-06T08:58:41Z</time>
      </trkpt>
      <trkpt lat="45.72786" lon="2.89927">
        <ele>862.3</ele>
        <time>2022-08-06T08:58:43Z</time>
      </trkpt>
      <trkpt lat="45.72776" lon="2.89896">
        <ele>860.3</ele>
        <time>2022-08-06T08:58:45Z</time>
      </trkpt>
      <trkpt lat="45.7277" lon="2.8986">
        <ele>858.1</ele>
        <time>2022-08-06T08:58:47Z</time>
      </trkpt>
      <trkpt lat="45.72769" lon="2.89821">
        <ele>855.7</ele>
        <time>2022-08-06T08:58:49Z</time>
      </trkpt>
      <trkpt lat="45.72774" lon="2.89782">
        <ele>853.1</ele>
        <time>2022-08-06T08:58:51Z</time>
      </trkpt>
      <trkpt lat="45.72783" lon="2.89742">
        <ele>850.4</ele>
        <time>2022-08-06T08:58:53Z</time>
      </trkpt>
      <trkpt lat="45.72792" lon="2.89701">
        <ele>847.7</ele>
        <time>2022-08-06T08:58:55Z</time>
      </trkpt>
      <trkpt lat="45.72802" lon="2.89657">
        <ele>844.8</ele>
        <time>2022-08-06T08:58:57Z</time>
      </trkpt>
      <trkpt lat="45.72813" lon="2.89613">
        <ele>841.8</ele>
        <time>2022-08-06T08:58:59Z</time>
      </trkpt>
      <trkpt lat="45.72824" lon="2.89568">
        <ele>838.9</ele>
        <time>2022-08-06T08:59:01Z</time>
      </trkpt>
      <trkpt lat="45.72834" lon="2.89523">
        <ele>836</ele>
        <time>2022-08-06T08:59:03Z</time>
      </trkpt>
      <trkpt lat="45.72844" lon="2.89477">
        <ele>833.1</ele>
        <time>2022-08-06T08:59:05Z</time>
      </trkpt>
      <trkpt lat="45.72855" lon="2.89431">
        <ele>830</ele>
        <time>2022-08-06T08:59:07Z</time>
      </trkpt>
      <trkpt lat="45.72865" lon="2.89385">
        <ele>827.1</ele>
        <time>2022-08-06T08:59:09Z</time>
      </trkpt>
      <trkpt lat="45.72875" lon="2.89341">
        <ele>824.4</ele>
        <time>2022-08-06T08:59:11Z</time>
      </trkpt>
      <trkpt lat="45.72886" lon="2.89297">
        <ele>824.2</ele>
        <time>2022-08-06T08:59:13Z</time>
      </trkpt>
      <trkpt lat="45.72896" lon="2.89253">
        <ele>821.3</ele>
        <time>2022-08-06T08:59:15Z</time>
      </trkpt>
      <trkpt lat="45.72898" lon="2.89205">
        <ele>818.3</ele>
        <time>2022-08-06T08:59:17Z</time>
      </trkpt>
      <trkpt lat="45.72894" lon="2.89159">
        <ele>815.9</ele>
        <time>2022-08-06T08:59:19Z</time>
      </trkpt>
      <trkpt lat="45.72883" lon="2.89117">
        <ele>813.9</ele>
        <time>2022-08-06T08:59:21Z</time>
      </trkpt>
      <trkpt lat="45.72867" lon="2.89082">
        <ele>812.7</ele>
        <time>2022-08-06T08:59:23Z</time>
      </trkpt>
      <trkpt lat="45.7285" lon="2.89058">
        <ele>812.3</ele>
        <time>2022-08-06T08:59:25Z</time>
      </trkpt>
      <trkpt lat="45.72837" lon="2.89043">
        <ele>812.4</ele>
        <time>2022-08-06T08:59:27Z</time>
      </trkpt>
      <trkpt lat="45.72831" lon="2.89036">
        <ele>812.5</ele>
        <time>2022-08-06T08:59:29Z</time>
      </trkpt>
      <trkpt lat="45.7283" lon="2.89036">
        <ele>812.6</ele>
        <time>2022-08-06T08:59:31Z</time>
      </trkpt>
      <trkpt lat="45.7283" lon="2.89036">
        <ele>812.6</ele>
        <time>2022-08-06T08:59:33Z</time>
      </trkpt>
      <trkpt lat="45.7283" lon="2.89036">
        <ele>812.6</ele>
        <time>2022-08-06T08:59:35Z</time>
      </trkpt>
      <trkpt lat="45.7283" lon="2.89036">
        <ele>812.6</ele>
        <time>2022-08-06T08:59:37Z</time>
      </trkpt>
      <trkpt lat="45.7283" lon="2.89036">
        <ele>812.6</ele>
        <time>2022-08-06T08:59:39Z</time>
      </trkpt>
      <trkpt lat="45.7283" lon="2.89036">
        <ele>812.6</ele>
        <time>2022-08-06T08:59:41Z</time>
      </trkpt>
      <trkpt lat="45.7283" lon="2.89036">
        <ele>812.6</ele>
        <time>2022-08-06T08:59:43Z</time>
      </trkpt>
      <trkpt lat="45.72825" lon="2.89035">
        <ele>812.7</ele>
        <time>2022-08-06T09:00:07Z</time>
      </trkpt>
      <trkpt lat="45.72821" lon="2.89034">
        <ele>812.8</ele>
        <time>2022-08-06T09:00:09Z</time>
      </trkpt>
      <trkpt lat="45.72817" lon="2.89031">
        <ele>813</ele>
        <time>2022-08-06T09:00:11Z</time>
      </trkpt>
      <trkpt lat="45.72813" lon="2.89026">
        <ele>813.1</ele>
        <time>2022-08-06T09:00:13Z</time>
      </trkpt>
      <trkpt lat="45.72809" lon="2.89019">
        <ele>813.3</ele>
        <time>2022-08-06T09:00:15Z</time>
      </trkpt>
      <trkpt lat="45.72804" lon="2.8901">
        <ele>813.6</ele>
        <time>2022-08-06T09:00:17Z</time>
      </trkpt>
      <trkpt lat="45.72801" lon="2.88996">
        <ele>814</ele>
        <time>2022-08-06T09:00:19Z</time>
      </trkpt>
      <trkpt lat="45.72798" lon="2.88979">
        <ele>813.7</ele>
        <time>2022-08-06T09:00:21Z</time>
      </trkpt>
      <trkpt lat="45.7279" lon="2.88964">
        <ele>813.4</ele>
        <time>2022-08-06T09:00:23Z</time>
      </trkpt>
      <trkpt lat="45.72777" lon="2.88958">
        <ele>813.1</ele>
        <time>2022-08-06T09:00:25Z</time>
      </trkpt>
      <trkpt lat="45.72762" lon="2.88961">
        <ele>812.8</ele>
        <time>2022-08-06T09:00:27Z</time>
      </trkpt>
      <trkpt lat="45.7275" lon="2.88973">
        <ele>813</ele>
        <time>2022-08-06T09:00:29Z</time>
      </trkpt>
      <trkpt lat="45.7274" lon="2.88982">
        <ele>813.2</ele>
        <time>2022-08-06T09:00:31Z</time>
      </trkpt>
      <trkpt lat="45.72728" lon="2.88982">
        <ele>813.4</ele>
        <time>2022-08-06T09:00:33Z</time>
      </trkpt>
      <trkpt lat="45.72715" lon="2.88982">
        <ele>813.4</ele>
        <time>2022-08-06T09:00:35Z</time>
      </trkpt>
      <trkpt lat="45.727" lon="2.88981">
        <ele>813.5</ele>
        <time>2022-08-06T09:00:37Z</time>
      </trkpt>
      <trkpt lat="45.72687" lon="2.88978">
        <ele>813.6</ele>
        <time>2022-08-06T09:00:39Z</time>
      </trkpt>
      <trkpt lat="45.72673" lon="2.88971">
        <ele>813.6</ele>
        <time>2022-08-06T09:00:41Z</time>
      </trkpt>
      <trkpt lat="45.72661" lon="2.8896">
        <ele>813.5</ele>
        <time>2022-08-06T09:00:43Z</time>
      </trkpt>
      <trkpt lat="45.72649" lon="2.88946">
        <ele>813.4</ele>
        <time>2022-08-06T09:00:45Z</time>
      </trkpt>
      <trkpt lat="45.72637" lon="2.88929">
        <ele>813.2</ele>
        <time>2022-08-06T09:00:47Z</time>
      </trkpt>
      <trkpt lat="45.72626" lon="2.8891">
        <ele>813</ele>
        <time>2022-08-06T09:00:49Z</time>
      </trkpt>
      <trkpt lat="45.7262" lon="2.88887">
        <ele>812.7</ele>
        <time>2022-08-06T09:00:51Z</time>
      </trkpt>
      <trkpt lat="45.72614" lon="2.88863">
        <ele>812.4</ele>
        <time>2022-08-06T09:00:53Z</time>
      </trkpt>
      <trkpt lat="45.72609" lon="2.88838">
        <ele>812</ele>
        <time>2022-08-06T09:00:55Z</time>
      </trkpt>
      <trkpt lat="45.72604" lon="2.88812">
        <ele>811.4</ele>
        <time>2022-08-06T09:00:57Z</time>
      </trkpt>
      <trkpt lat="45.72599" lon="2.88785">
        <ele>810.7</ele>
        <time>2022-08-06T09:00:59Z</time>
      </trkpt>
      <trkpt lat="45.72594" lon="2.88759">
        <ele>810</ele>
        <time>2022-08-06T09:01:01Z</time>
      </trkpt>
      <trkpt lat="45.72586" lon="2.88732">
        <ele>809.1</ele>
        <time>2022-08-06T09:01:03Z</time>
      </trkpt>
      <trkpt lat="45.72577" lon="2.88706">
        <ele>808.4</ele>
        <time>2022-08-06T09:01:05Z</time>
      </trkpt>
      <trkpt lat="45.72567" lon="2.88679">
        <ele>807.6</ele>
        <time>2022-08-06T09:01:07Z</time>
      </trkpt>
      <trkpt lat="45.72557" lon="2.88652">
        <ele>806.8</ele>
        <time>2022-08-06T09:01:09Z</time>
      </trkpt>
      <trkpt lat="45.72547" lon="2.88624">
        <ele>806</ele>
        <time>2022-08-06T09:01:11Z</time>
      </trkpt>
      <trkpt lat="45.72539" lon="2.88597">
        <ele>805</ele>
        <time>2022-08-06T09:01:13Z</time>
      </trkpt>
      <trkpt lat="45.72529" lon="2.88568">
        <ele>804.1</ele>
        <time>2022-08-06T09:01:15Z</time>
      </trkpt>
      <trkpt lat="45.72519" lon="2.88539">
        <ele>803.3</ele>
        <time>2022-08-06T09:01:17Z</time>
      </trkpt>
      <trkpt lat="45.7251" lon="2.88509">
        <ele>802.6</ele>
        <time>2022-08-06T09:01:19Z</time>
      </trkpt>
      <trkpt lat="45.72499" lon="2.88481">
        <ele>802</ele>
        <time>2022-08-06T09:01:21Z</time>
      </trkpt>
      <trkpt lat="45.72489" lon="2.88453">
        <ele>801.3</ele>
        <time>2022-08-06T09:01:23Z</time>
      </trkpt>
      <trkpt lat="45.72479" lon="2.88425">
        <ele>800.7</ele>
        <time>2022-08-06T09:01:25Z</time>
      </trkpt>
      <trkpt lat="45.72469" lon="2.88396">
        <ele>800.2</ele>
        <time>2022-08-06T09:01:27Z</time>
      </trkpt>
      <trkpt lat="45.7246" lon="2.88367">
        <ele>799.7</ele>
        <time>2022-08-06T09:01:29Z</time>
      </trkpt>
      <trkpt lat="45.7245" lon="2.88339">
        <ele>799.4</ele>
        <time>2022-08-06T09:01:31Z</time>
      </trkpt>
      <trkpt lat="45.7244" lon="2.88311">
        <ele>799</ele>
        <time>2022-08-06T09:01:33Z</time>
      </trkpt>
      <trkpt lat="45.72431" lon="2.88284">
        <ele>798.7</ele>
        <time>2022-08-06T09:01:35Z</time>
      </trkpt>
      <trkpt lat="45.72421" lon="2.88259">
        <ele>798.4</ele>
        <time>2022-08-06T09:01:37Z</time>
      </trkpt>
      <trkpt lat="45.72408" lon="2.88238">
        <ele>798.1</ele>
        <time>2022-08-06T09:01:39Z</time>
      </trkpt>
      <trkpt lat="45.7239" lon="2.88224">
        <ele>797.6</ele>
        <time>2022-08-06T09:01:41Z</time>
      </trkpt>
      <trkpt lat="45.72371" lon="2.88214">
        <ele>797.1</ele>
        <time>2022-08-06T09:01:43Z</time>
      </trkpt>
      <trkpt lat="45.72351" lon="2.88205">
        <ele>796.5</ele>
        <time>2022-08-06T09:01:45Z</time>
      </trkpt>
      <trkpt lat="45.72331" lon="2.88196">
        <ele>795.8</ele>
        <time>2022-08-06T09:01:47Z</time>
      </trkpt>
      <trkpt lat="45.7231" lon="2.88189">
        <ele>795.2</ele>
        <time>2022-08-06T09:01:49Z</time>
      </trkpt>
      <trkpt lat="45.72289" lon="2.88184">
        <ele>794.4</ele>
        <time>2022-08-06T09:01:51Z</time>
      </trkpt>
      <trkpt lat="45.72266" lon="2.88184">
        <ele>793.6</ele>
        <time>2022-08-06T09:01:53Z</time>
      </trkpt>
      <trkpt lat="45.72243" lon="2.88184">
        <ele>792.7</ele>
        <time>2022-08-06T09:01:55Z</time>
      </trkpt>
      <trkpt lat="45.7222" lon="2.88185">
        <ele>791.8</ele>
        <time>2022-08-06T09:01:57Z</time>
      </trkpt>
      <trkpt lat="45.72197" lon="2.88186">
        <ele>790.8</ele>
        <time>2022-08-06T09:01:59Z</time>
      </trkpt>
      <trkpt lat="45.72175" lon="2.88185">
        <ele>789.7</ele>
        <time>2022-08-06T09:02:01Z</time>
      </trkpt>
      <trkpt lat="45.72156" lon="2.88172">
        <ele>788.5</ele>
        <time>2022-08-06T09:02:03Z</time>
      </trkpt>
      <trkpt lat="45.72139" lon="2.8815">
        <ele>787</ele>
        <time>2022-08-06T09:02:05Z</time>
      </trkpt>
      <trkpt lat="45.72123" lon="2.88126">
        <ele>785.3</ele>
        <time>2022-08-06T09:02:07Z</time>
      </trkpt>
      <trkpt lat="45.72107" lon="2.881">
        <ele>783.5</ele>
        <time>2022-08-06T09:02:09Z</time>
      </trkpt>
      <trkpt lat="45.72093" lon="2.88069">
        <ele>781.7</ele>
        <time>2022-08-06T09:02:11Z</time>
      </trkpt>
      <trkpt lat="45.72081" lon="2.88038">
        <ele>780.1</ele>
        <time>2022-08-06T09:02:13Z</time>
      </trkpt>
      <trkpt lat="45.72069" lon="2.88004">
        <ele>778.6</ele>
        <time>2022-08-06T09:02:15Z</time>
      </trkpt>
      <trkpt lat="45.72061" lon="2.8797">
        <ele>778</ele>
        <time>2022-08-06T09:02:17Z</time>
      </trkpt>
      <trkpt lat="45.72061" lon="2.87936">
        <ele>777.5</ele>
        <time>2022-08-06T09:02:19Z</time>
      </trkpt>
      <trkpt lat="45.72063" lon="2.87904">
        <ele>777.7</ele>
        <time>2022-08-06T09:02:21Z</time>
      </trkpt>
      <trkpt lat="45.72059" lon="2.87874">
        <ele>778.1</ele>
        <time>2022-08-06T09:02:23Z</time>
      </trkpt>
      <trkpt lat="45.7205" lon="2.87852">
        <ele>778.6</ele>
        <time>2022-08-06T09:02:25Z</time>
      </trkpt>
      <trkpt lat="45.72036" lon="2.87839">
        <ele>779.2</ele>
        <time>2022-08-06T09:02:27Z</time>
      </trkpt>
      <trkpt lat="45.72023" lon="2.87832">
        <ele>779.7</ele>
        <time>2022-08-06T09:02:29Z</time>
      </trkpt>
      <trkpt lat="45.7201" lon="2.87827">
        <ele>780.4</ele>
        <time>2022-08-06T09:02:31Z</time>
      </trkpt>
      <trkpt lat="45.71998" lon="2.87822">
        <ele>781.4</ele>
        <time>2022-08-06T09:02:33Z</time>
      </trkpt>
      <trkpt lat="45.71988" lon="2.87817">
        <ele>782.3</ele>
        <time>2022-08-06T09:02:35Z</time>
      </trkpt>
      <trkpt lat="45.71979" lon="2.87811">
        <ele>783.2</ele>
        <time>2022-08-06T09:02:37Z</time>
      </trkpt>
      <trkpt lat="45.71973" lon="2.87804">
        <ele>783.8</ele>
        <time>2022-08-06T09:02:39Z</time>
      </trkpt>
      <trkpt lat="45.71969" lon="2.87798">
        <ele>784.4</ele>
        <time>2022-08-06T09:02:41Z</time>
      </trkpt>
      <trkpt lat="45.71965" lon="2.87791">
        <ele>784.9</ele>
        <time>2022-08-06T09:02:43Z</time>
      </trkpt>
      <trkpt lat="45.71961" lon="2.87781">
        <ele>785.4</ele>
        <time>2022-08-06T09:02:45Z</time>
      </trkpt>
      <trkpt lat="45.71959" lon="2.87772">
        <ele>786</ele>
        <time>2022-08-06T09:02:47Z</time>
      </trkpt>
      <trkpt lat="45.71957" lon="2.87762">
        <ele>786.5</ele>
        <time>2022-08-06T09:02:49Z</time>
      </trkpt>
      <trkpt lat="45.71954" lon="2.87751">
        <ele>787.1</ele>
        <time>2022-08-06T09:02:51Z</time>
      </trkpt>
      <trkpt lat="45.71952" lon="2.87739">
        <ele>787.6</ele>
        <time>2022-08-06T09:02:53Z</time>
      </trkpt>
      <trkpt lat="45.7195" lon="2.87727">
        <ele>788.2</ele>
        <time>2022-08-06T09:02:55Z</time>
      </trkpt>
      <trkpt lat="45.71948" lon="2.87715">
        <ele>788.7</ele>
        <time>2022-08-06T09:02:57Z</time>
      </trkpt>
      <trkpt lat="45.71946" lon="2.87703">
        <ele>789.1</ele>
        <time>2022-08-06T09:02:59Z</time>
      </trkpt>
      <trkpt lat="45.71944" lon="2.8769">
        <ele>789.6</ele>
        <time>2022-08-06T09:03:01Z</time>
      </trkpt>
      <trkpt lat="45.71943" lon="2.87677">
        <ele>790.1</ele>
        <time>2022-08-06T09:03:03Z</time>
      </trkpt>
      <trkpt lat="45.71941" lon="2.87665">
        <ele>790.4</ele>
        <time>2022-08-06T09:03:05Z</time>
      </trkpt>
      <trkpt lat="45.71939" lon="2.87652">
        <ele>790.8</ele>
        <time>2022-08-06T09:03:07Z</time>
      </trkpt>
      <trkpt lat="45.71938" lon="2.87638">
        <ele>791.2</ele>
        <time>2022-08-06T09:03:09Z</time>
      </trkpt>
      <trkpt lat="45.71936" lon="2.87624">
        <ele>791.5</ele>
        <time>2022-08-06T09:03:11Z</time>
      </trkpt>
      <trkpt lat="45.71934" lon="2.8761">
        <ele>791.9</ele>
        <time>2022-08-06T09:03:13Z</time>
      </trkpt>
      <trkpt lat="45.71932" lon="2.87596">
        <ele>792.3</ele>
        <time>2022-08-06T09:03:15Z</time>
      </trkpt>
      <trkpt lat="45.71931" lon="2.87582">
        <ele>792.7</ele>
        <time>2022-08-06T09:03:17Z</time>
      </trkpt>
      <trkpt lat="45.71929" lon="2.87566">
        <ele>793.1</ele>
        <time>2022-08-06T09:03:19Z</time>
      </trkpt>
      <trkpt lat="45.71927" lon="2.8755">
        <ele>793.5</ele>
        <time>2022-08-06T09:03:21Z</time>
      </trkpt>
      <trkpt lat="45.71926" lon="2.87534">
        <ele>793.9</ele>
        <time>2022-08-06T09:03:23Z</time>
      </trkpt>
      <trkpt lat="45.71925" lon="2.87518">
        <ele>794.3</ele>
        <time>2022-08-06T09:03:25Z</time>
      </trkpt>
      <trkpt lat="45.71924" lon="2.87502">
        <ele>794.6</ele>
        <time>2022-08-06T09:03:27Z</time>
      </trkpt>
      <trkpt lat="45.71924" lon="2.87484">
        <ele>795</ele>
        <time>2022-08-06T09:03:29Z</time>
      </trkpt>
      <trkpt lat="45.71922" lon="2.87467">
        <ele>795.3</ele>
        <time>2022-08-06T09:03:31Z</time>
      </trkpt>
      <trkpt lat="45.71922" lon="2.87451">
        <ele>795.7</ele>
        <time>2022-08-06T09:03:33Z</time>
      </trkpt>
      <trkpt lat="45.71921" lon="2.87435">
        <ele>796</ele>
        <time>2022-08-06T09:03:35Z</time>
      </trkpt>
      <trkpt lat="45.71921" lon="2.87417">
        <ele>796.3</ele>
        <time>2022-08-06T09:03:37Z</time>
      </trkpt>
      <trkpt lat="45.7192" lon="2.87399">
        <ele>796.7</ele>
        <time>2022-08-06T09:03:39Z</time>
      </trkpt>
      <trkpt lat="45.71918" lon="2.87382">
        <ele>797.1</ele>
        <time>2022-08-06T09:03:41Z</time>
      </trkpt>
      <trkpt lat="45.71915" lon="2.87365">
        <ele>797.5</ele>
        <time>2022-08-06T09:03:43Z</time>
      </trkpt>
      <trkpt lat="45.7191" lon="2.87347">
        <ele>797.9</ele>
        <time>2022-08-06T09:03:45Z</time>
      </trkpt>
      <trkpt lat="45.71905" lon="2.87331">
        <ele>798.3</ele>
        <time>2022-08-06T09:03:47Z</time>
      </trkpt>
      <trkpt lat="45.71899" lon="2.87314">
        <ele>798.7</ele>
        <time>2022-08-06T09:03:49Z</time>
      </trkpt>
      <trkpt lat="45.71892" lon="2.87298">
        <ele>799.1</ele>
        <time>2022-08-06T09:03:51Z</time>
      </trkpt>
      <trkpt lat="45.71885" lon="2.87283">
        <ele>799.5</ele>
        <time>2022-08-06T09:03:53Z</time>
      </trkpt>
      <trkpt lat="45.71877" lon="2.8727">
        <ele>800</ele>
        <time>2022-08-06T09:03:55Z</time>
      </trkpt>
      <trkpt lat="45.7187" lon="2.87256">
        <ele>800.4</ele>
        <time>2022-08-06T09:03:57Z</time>
      </trkpt>
      <trkpt lat="45.71862" lon="2.87243">
        <ele>800.9</ele>
        <time>2022-08-06T09:03:59Z</time>
      </trkpt>
      <trkpt lat="45.71853" lon="2.87232">
        <ele>801.3</ele>
        <time>2022-08-06T09:04:01Z</time>
      </trkpt>
      <trkpt lat="45.71844" lon="2.8722">
        <ele>801.7</ele>
        <time>2022-08-06T09:04:03Z</time>
      </trkpt>
      <trkpt lat="45.71836" lon="2.87208">
        <ele>802.1</ele>
        <time>2022-08-06T09:04:05Z</time>
      </trkpt>
      <trkpt lat="45.71827" lon="2.87196">
        <ele>802.4</ele>
        <time>2022-08-06T09:04:07Z</time>
      </trkpt>
      <trkpt lat="45.71819" lon="2.87185">
        <ele>802.6</ele>
        <time>2022-08-06T09:04:09Z</time>
      </trkpt>
      <trkpt lat="45.71811" lon="2.87173">
        <ele>802.7</ele>
        <time>2022-08-06T09:04:11Z</time>
      </trkpt>
      <trkpt lat="45.71803" lon="2.87159">
        <ele>802.6</ele>
        <time>2022-08-06T09:04:13Z</time>
      </trkpt>
      <trkpt lat="45.71795" lon="2.87143">
        <ele>802.3</ele>
        <time>2022-08-06T09:04:15Z</time>
      </trkpt>
      <trkpt lat="45.71789" lon="2.87125">
        <ele>801.8</ele>
        <time>2022-08-06T09:04:17Z</time>
      </trkpt>
      <trkpt lat="45.71783" lon="2.87105">
        <ele>801.3</ele>
        <time>2022-08-06T09:04:19Z</time>
      </trkpt>
      <trkpt lat="45.71779" lon="2.87083">
        <ele>800.6</ele>
        <time>2022-08-06T09:04:21Z</time>
      </trkpt>
      <trkpt lat="45.71773" lon="2.87059">
        <ele>799.9</ele>
        <time>2022-08-06T09:04:23Z</time>
      </trkpt>
      <trkpt lat="45.71768" lon="2.87035">
        <ele>799.2</ele>
        <time>2022-08-06T09:04:25Z</time>
      </trkpt>
      <trkpt lat="45.71763" lon="2.87011">
        <ele>798.7</ele>
        <time>2022-08-06T09:04:27Z</time>
      </trkpt>
      <trkpt lat="45.71757" lon="2.86985">
        <ele>798.2</ele>
        <time>2022-08-06T09:04:29Z</time>
      </trkpt>
      <trkpt lat="45.71751" lon="2.8696">
        <ele>797.8</ele>
        <time>2022-08-06T09:04:31Z</time>
      </trkpt>
      <trkpt lat="45.71746" lon="2.86935">
        <ele>797.6</ele>
        <time>2022-08-06T09:04:33Z</time>
      </trkpt>
      <trkpt lat="45.7174" lon="2.86911">
        <ele>797.6</ele>
        <time>2022-08-06T09:04:35Z</time>
      </trkpt>
      <trkpt lat="45.71735" lon="2.86888">
        <ele>797.5</ele>
        <time>2022-08-06T09:04:37Z</time>
      </trkpt>
      <trkpt lat="45.7173" lon="2.86865">
        <ele>797.3</ele>
        <time>2022-08-06T09:04:39Z</time>
      </trkpt>
      <trkpt lat="45.71724" lon="2.86842">
        <ele>797.3</ele>
        <time>2022-08-06T09:04:41Z</time>
      </trkpt>
      <trkpt lat="45.71719" lon="2.86821">
        <ele>797.3</ele>
        <time>2022-08-06T09:04:43Z</time>
      </trkpt>
      <trkpt lat="45.71714" lon="2.86799">
        <ele>797.4</ele>
        <time>2022-08-06T09:04:45Z</time>
      </trkpt>
      <trkpt lat="45.71709" lon="2.86777">
        <ele>797.5</ele>
        <time>2022-08-06T09:04:47Z</time>
      </trkpt>
      <trkpt lat="45.71704" lon="2.86755">
        <ele>797.6</ele>
        <time>2022-08-06T09:04:49Z</time>
      </trkpt>
      <trkpt lat="45.71699" lon="2.86735">
        <ele>797.9</ele>
        <time>2022-08-06T09:04:51Z</time>
      </trkpt>
      <trkpt lat="45.71695" lon="2.86716">
        <ele>798.1</ele>
        <time>2022-08-06T09:04:53Z</time>
      </trkpt>
      <trkpt lat="45.71691" lon="2.86698">
        <ele>798.5</ele>
        <time>2022-08-06T09:04:55Z</time>
      </trkpt>
      <trkpt lat="45.71688" lon="2.8668">
        <ele>798.9</ele>
        <time>2022-08-06T09:04:57Z</time>
      </trkpt>
      <trkpt lat="45.71684" lon="2.86665">
        <ele>799.4</ele>
        <time>2022-08-06T09:04:59Z</time>
      </trkpt>
      <trkpt lat="45.71681" lon="2.8665">
        <ele>799.9</ele>
        <time>2022-08-06T09:05:01Z</time>
      </trkpt>
      <trkpt lat="45.71678" lon="2.86636">
        <ele>800.4</ele>
        <time>2022-08-06T09:05:03Z</time>
      </trkpt>
      <trkpt lat="45.71675" lon="2.86623">
        <ele>801</ele>
        <time>2022-08-06T09:05:05Z</time>
      </trkpt>
      <trkpt lat="45.71673" lon="2.8661">
        <ele>801.5</ele>
        <time>2022-08-06T09:05:07Z</time>
      </trkpt>
      <trkpt lat="45.7167" lon="2.86598">
        <ele>802</ele>
        <time>2022-08-06T09:05:09Z</time>
      </trkpt>
      <trkpt lat="45.71667" lon="2.86587">
        <ele>802.4</ele>
        <time>2022-08-06T09:05:11Z</time>
      </trkpt>
      <trkpt lat="45.71664" lon="2.86575">
        <ele>802.9</ele>
        <time>2022-08-06T09:05:13Z</time>
      </trkpt>
      <trkpt lat="45.71661" lon="2.86563">
        <ele>803.5</ele>
        <time>2022-08-06T09:05:15Z</time>
      </trkpt>
      <trkpt lat="45.71658" lon="2.86551">
        <ele>804.2</ele>
        <time>2022-08-06T09:05:17Z</time>
      </trkpt>
      <trkpt lat="45.71656" lon="2.86539">
        <ele>804.8</ele>
        <time>2022-08-06T09:05:19Z</time>
      </trkpt>
      <trkpt lat="45.71654" lon="2.86527">
        <ele>805.4</ele>
        <time>2022-08-06T09:05:21Z</time>
      </trkpt>
      <trkpt lat="45.71651" lon="2.86516">
        <ele>806</ele>
        <time>2022-08-06T09:05:23Z</time>
      </trkpt>
      <trkpt lat="45.71648" lon="2.86505">
        <ele>806.6</ele>
        <time>2022-08-06T09:05:25Z</time>
      </trkpt>
      <trkpt lat="45.71645" lon="2.86494">
        <ele>807.3</ele>
        <time>2022-08-06T09:05:27Z</time>
      </trkpt>
      <trkpt lat="45.71643" lon="2.86482">
        <ele>807.9</ele>
        <time>2022-08-06T09:05:29Z</time>
      </trkpt>
      <trkpt lat="45.7164" lon="2.86472">
        <ele>808.4</ele>
        <time>2022-08-06T09:05:31Z</time>
      </trkpt>
      <trkpt lat="45.71638" lon="2.86461">
        <ele>809</ele>
        <time>2022-08-06T09:05:33Z</time>
      </trkpt>
      <trkpt lat="45.71635" lon="2.8645">
        <ele>809.6</ele>
        <time>2022-08-06T09:05:35Z</time>
      </trkpt>
      <trkpt lat="45.71632" lon="2.86439">
        <ele>810.2</ele>
        <time>2022-08-06T09:05:37Z</time>
      </trkpt>
      <trkpt lat="45.7163" lon="2.86427">
        <ele>810.8</ele>
        <time>2022-08-06T09:05:39Z</time>
      </trkpt>
      <trkpt lat="45.71628" lon="2.86417">
        <ele>811.3</ele>
        <time>2022-08-06T09:05:41Z</time>
      </trkpt>
      <trkpt lat="45.71626" lon="2.86408">
        <ele>811.7</ele>
        <time>2022-08-06T09:05:43Z</time>
      </trkpt>
      <trkpt lat="45.71624" lon="2.86399">
        <ele>812.2</ele>
        <time>2022-08-06T09:05:45Z</time>
      </trkpt>
      <trkpt lat="45.71622" lon="2.86389">
        <ele>812.6</ele>
        <time>2022-08-06T09:05:47Z</time>
      </trkpt>
      <trkpt lat="45.7162" lon="2.86379">
        <ele>813.1</ele>
        <time>2022-08-06T09:05:49Z</time>
      </trkpt>
      <trkpt lat="45.71618" lon="2.8637">
        <ele>813.6</ele>
        <time>2022-08-06T09:05:51Z</time>
      </trkpt>
      <trkpt lat="45.71616" lon="2.86361">
        <ele>814.1</ele>
        <time>2022-08-06T09:05:53Z</time>
      </trkpt>
      <trkpt lat="45.71613" lon="2.86352">
        <ele>814.6</ele>
        <time>2022-08-06T09:05:55Z</time>
      </trkpt>
      <trkpt lat="45.7161" lon="2.86343">
        <ele>815</ele>
        <time>2022-08-06T09:05:57Z</time>
      </trkpt>
      <trkpt lat="45.71607" lon="2.86335">
        <ele>815.5</ele>
        <time>2022-08-06T09:05:59Z</time>
      </trkpt>
      <trkpt lat="45.71604" lon="2.86327">
        <ele>816</ele>
        <time>2022-08-06T09:06:01Z</time>
      </trkpt>
      <trkpt lat="45.71599" lon="2.86321">
        <ele>816.4</ele>
        <time>2022-08-06T09:06:03Z</time>
      </trkpt>
      <trkpt lat="45.71593" lon="2.86315">
        <ele>816.9</ele>
        <time>2022-08-06T09:06:05Z</time>
      </trkpt>
      <trkpt lat="45.71588" lon="2.8631">
        <ele>817.4</ele>
        <time>2022-08-06T09:06:07Z</time>
      </trkpt>
      <trkpt lat="45.71582" lon="2.86306">
        <ele>817.9</ele>
        <time>2022-08-06T09:06:09Z</time>
      </trkpt>
      <trkpt lat="45.71576" lon="2.863">
        <ele>818.3</ele>
        <time>2022-08-06T09:06:11Z</time>
      </trkpt>
      <trkpt lat="45.7157" lon="2.86296">
        <ele>818.8</ele>
        <time>2022-08-06T09:06:13Z</time>
      </trkpt>
      <trkpt lat="45.71563" lon="2.86293">
        <ele>819.3</ele>
        <time>2022-08-06T09:06:15Z</time>
      </trkpt>
      <trkpt lat="45.71557" lon="2.86289">
        <ele>819.8</ele>
        <time>2022-08-06T09:06:17Z</time>
      </trkpt>
      <trkpt lat="45.7155" lon="2.86285">
        <ele>820.2</ele>
        <time>2022-08-06T09:06:19Z</time>
      </trkpt>
      <trkpt lat="45.71543" lon="2.86282">
        <ele>820.6</ele>
        <time>2022-08-06T09:06:21Z</time>
      </trkpt>
      <trkpt lat="45.71537" lon="2.86279">
        <ele>821</ele>
        <time>2022-08-06T09:06:23Z</time>
      </trkpt>
      <trkpt lat="45.7153" lon="2.86276">
        <ele>821.4</ele>
        <time>2022-08-06T09:06:25Z</time>
      </trkpt>
      <trkpt lat="45.71523" lon="2.86273">
        <ele>821.8</ele>
        <time>2022-08-06T09:06:27Z</time>
      </trkpt>
      <trkpt lat="45.71516" lon="2.8627">
        <ele>822.1</ele>
        <time>2022-08-06T09:06:29Z</time>
      </trkpt>
      <trkpt lat="45.71509" lon="2.86266">
        <ele>822.5</ele>
        <time>2022-08-06T09:06:31Z</time>
      </trkpt>
      <trkpt lat="45.71502" lon="2.86264">
        <ele>822.9</ele>
        <time>2022-08-06T09:06:33Z</time>
      </trkpt>
      <trkpt lat="45.71496" lon="2.86262">
        <ele>823.3</ele>
        <time>2022-08-06T09:06:35Z</time>
      </trkpt>
      <trkpt lat="45.71489" lon="2.86258">
        <ele>823.6</ele>
        <time>2022-08-06T09:06:37Z</time>
      </trkpt>
      <trkpt lat="45.71481" lon="2.86255">
        <ele>824.1</ele>
        <time>2022-08-06T09:06:39Z</time>
      </trkpt>
      <trkpt lat="45.71473" lon="2.86252">
        <ele>824.5</ele>
        <time>2022-08-06T09:06:41Z</time>
      </trkpt>
      <trkpt lat="45.71466" lon="2.86249">
        <ele>824.9</ele>
        <time>2022-08-06T09:06:43Z</time>
      </trkpt>
      <trkpt lat="45.71458" lon="2.86248">
        <ele>825.3</ele>
        <time>2022-08-06T09:06:45Z</time>
      </trkpt>
      <trkpt lat="45.71452" lon="2.86246">
        <ele>825.6</ele>
        <time>2022-08-06T09:06:47Z</time>
      </trkpt>
      <trkpt lat="45.71444" lon="2.86243">
        <ele>825.9</ele>
        <time>2022-08-06T09:06:49Z</time>
      </trkpt>
      <trkpt lat="45.71437" lon="2.86241">
        <ele>826.3</ele>
        <time>2022-08-06T09:06:51Z</time>
      </trkpt>
      <trkpt lat="45.71429" lon="2.86239">
        <ele>826.6</ele>
        <time>2022-08-06T09:06:53Z</time>
      </trkpt>
      <trkpt lat="45.71422" lon="2.86235">
        <ele>827</ele>
        <time>2022-08-06T09:06:55Z</time>
      </trkpt>
      <trkpt lat="45.71414" lon="2.86233">
        <ele>827.3</ele>
        <time>2022-08-06T09:06:57Z</time>
      </trkpt>
      <trkpt lat="45.71407" lon="2.8623">
        <ele>827.6</ele>
        <time>2022-08-06T09:06:59Z</time>
      </trkpt>
      <trkpt lat="45.71399" lon="2.86227">
        <ele>827.9</ele>
        <time>2022-08-06T09:07:01Z</time>
      </trkpt>
      <trkpt lat="45.71392" lon="2.86225">
        <ele>828.2</ele>
        <time>2022-08-06T09:07:03Z</time>
      </trkpt>
      <trkpt lat="45.71384" lon="2.86221">
        <ele>828.4</ele>
        <time>2022-08-06T09:07:05Z</time>
      </trkpt>
      <trkpt lat="45.71376" lon="2.86218">
        <ele>828.7</ele>
        <time>2022-08-06T09:07:07Z</time>
      </trkpt>
      <trkpt lat="45.71367" lon="2.86215">
        <ele>828.9</ele>
        <time>2022-08-06T09:07:09Z</time>
      </trkpt>
      <trkpt lat="45.71358" lon="2.86211">
        <ele>829.1</ele>
        <time>2022-08-06T09:07:11Z</time>
      </trkpt>
      <trkpt lat="45.71349" lon="2.86206">
        <ele>829.3</ele>
        <time>2022-08-06T09:07:13Z</time>
      </trkpt>
      <trkpt lat="45.7134" lon="2.862">
        <ele>829.5</ele>
        <time>2022-08-06T09:07:15Z</time>
      </trkpt>
      <trkpt lat="45.71332" lon="2.86193">
        <ele>829.7</ele>
        <time>2022-08-06T09:07:17Z</time>
      </trkpt>
      <trkpt lat="45.71324" lon="2.86185">
        <ele>829.9</ele>
        <time>2022-08-06T09:07:19Z</time>
      </trkpt>
      <trkpt lat="45.71316" lon="2.86175">
        <ele>830.1</ele>
        <time>2022-08-06T09:07:21Z</time>
      </trkpt>
      <trkpt lat="45.71308" lon="2.86163">
        <ele>830.3</ele>
        <time>2022-08-06T09:07:23Z</time>
      </trkpt>
      <trkpt lat="45.71301" lon="2.86151">
        <ele>830.5</ele>
        <time>2022-08-06T09:07:25Z</time>
      </trkpt>
      <trkpt lat="45.71294" lon="2.86138">
        <ele>830.8</ele>
        <time>2022-08-06T09:07:27Z</time>
      </trkpt>
      <trkpt lat="45.71287" lon="2.86125">
        <ele>831.1</ele>
        <time>2022-08-06T09:07:29Z</time>
      </trkpt>
      <trkpt lat="45.7128" lon="2.86112">
        <ele>831.4</ele>
        <time>2022-08-06T09:07:31Z</time>
      </trkpt>
      <trkpt lat="45.71273" lon="2.86098">
        <ele>831.7</ele>
        <time>2022-08-06T09:07:33Z</time>
      </trkpt>
      <trkpt lat="45.71266" lon="2.86085">
        <ele>832</ele>
        <time>2022-08-06T09:07:35Z</time>
      </trkpt>
      <trkpt lat="45.71259" lon="2.86071">
        <ele>832.3</ele>
        <time>2022-08-06T09:07:37Z</time>
      </trkpt>
      <trkpt lat="45.71252" lon="2.86057">
        <ele>832.7</ele>
        <time>2022-08-06T09:07:39Z</time>
      </trkpt>
      <trkpt lat="45.71245" lon="2.86044">
        <ele>833</ele>
        <time>2022-08-06T09:07:41Z</time>
      </trkpt>
      <trkpt lat="45.71239" lon="2.8603">
        <ele>833.3</ele>
        <time>2022-08-06T09:07:43Z</time>
      </trkpt>
      <trkpt lat="45.71234" lon="2.86016">
        <ele>833.7</ele>
        <time>2022-08-06T09:07:45Z</time>
      </trkpt>
      <trkpt lat="45.71227" lon="2.86001">
        <ele>834.1</ele>
        <time>2022-08-06T09:07:47Z</time>
      </trkpt>
      <trkpt lat="45.71221" lon="2.85987">
        <ele>834.5</ele>
        <time>2022-08-06T09:07:49Z</time>
      </trkpt>
      <trkpt lat="45.71216" lon="2.85973">
        <ele>834.9</ele>
        <time>2022-08-06T09:07:51Z</time>
      </trkpt>
      <trkpt lat="45.71211" lon="2.85959">
        <ele>835.2</ele>
        <time>2022-08-06T09:07:53Z</time>
      </trkpt>
      <trkpt lat="45.71207" lon="2.85946">
        <ele>835.6</ele>
        <time>2022-08-06T09:07:55Z</time>
      </trkpt>
      <trkpt lat="45.71204" lon="2.85932">
        <ele>835.9</ele>
        <time>2022-08-06T09:07:57Z</time>
      </trkpt>
      <trkpt lat="45.712" lon="2.85919">
        <ele>836.3</ele>
        <time>2022-08-06T09:07:59Z</time>
      </trkpt>
      <trkpt lat="45.71194" lon="2.85906">
        <ele>836.6</ele>
        <time>2022-08-06T09:08:01Z</time>
      </trkpt>
      <trkpt lat="45.71191" lon="2.85891">
        <ele>837</ele>
        <time>2022-08-06T09:08:03Z</time>
      </trkpt>
      <trkpt lat="45.71188" lon="2.85878">
        <ele>837.4</ele>
        <time>2022-08-06T09:08:05Z</time>
      </trkpt>
      <trkpt lat="45.71184" lon="2.85866">
        <ele>837.8</ele>
        <time>2022-08-06T09:08:07Z</time>
      </trkpt>
      <trkpt lat="45.7118" lon="2.85853">
        <ele>838.2</ele>
        <time>2022-08-06T09:08:09Z</time>
      </trkpt>
      <trkpt lat="45.71175" lon="2.85841">
        <ele>838.6</ele>
        <time>2022-08-06T09:08:11Z</time>
      </trkpt>
      <trkpt lat="45.71172" lon="2.85829">
        <ele>838.9</ele>
        <time>2022-08-06T09:08:13Z</time>
      </trkpt>
      <trkpt lat="45.71172" lon="2.85816">
        <ele>839.1</ele>
        <time>2022-08-06T09:08:15Z</time>
      </trkpt>
      <trkpt lat="45.71168" lon="2.85807">
        <ele>839.3</ele>
        <time>2022-08-06T09:08:17Z</time>
      </trkpt>
      <trkpt lat="45.71162" lon="2.85799">
        <ele>839.5</ele>
        <time>2022-08-06T09:08:19Z</time>
      </trkpt>
      <trkpt lat="45.71157" lon="2.85791">
        <ele>839.7</ele>
        <time>2022-08-06T09:08:21Z</time>
      </trkpt>
      <trkpt lat="45.71151" lon="2.85783">
        <ele>839.9</ele>
        <time>2022-08-06T09:08:23Z</time>
      </trkpt>
      <trkpt lat="45.71147" lon="2.85779">
        <ele>840</ele>
        <time>2022-08-06T09:08:25Z</time>
      </trkpt>
      <trkpt lat="45.71147" lon="2.85779">
        <ele>840</ele>
        <time>2022-08-06T09:08:27Z</time>
      </trkpt>
      <trkpt lat="45.71146" lon="2.85778">
        <ele>840</ele>
        <time>2022-08-06T09:08:29Z</time>
      </trkpt>
      <trkpt lat="45.71146" lon="2.85777">
        <ele>840.1</ele>
        <time>2022-08-06T09:08:31Z</time>
      </trkpt>
      <trkpt lat="45.71146" lon="2.85779">
        <ele>840.1</ele>
        <time>2022-08-06T09:11:35Z</time>
      </trkpt>
      <trkpt lat="45.71146" lon="2.85777">
        <ele>840.1</ele>
        <time>2022-08-06T09:11:37Z</time>
      </trkpt>
      <trkpt lat="45.71148" lon="2.85779">
        <ele>840.2</ele>
        <time>2022-08-06T09:11:39Z</time>
      </trkpt>
      <trkpt lat="45.71153" lon="2.85784">
        <ele>840.4</ele>
        <time>2022-08-06T09:11:41Z</time>
      </trkpt>
      <trkpt lat="45.71161" lon="2.85794">
        <ele>840.7</ele>
        <time>2022-08-06T09:11:43Z</time>
      </trkpt>
      <trkpt lat="45.71169" lon="2.85803">
        <ele>841</ele>
        <time>2022-08-06T09:11:45Z</time>
      </trkpt>
      <trkpt lat="45.71173" lon="2.85817">
        <ele>841.3</ele>
        <time>2022-08-06T09:11:47Z</time>
      </trkpt>
      <trkpt lat="45.71171" lon="2.85827">
        <ele>841.5</ele>
        <time>2022-08-06T09:11:49Z</time>
      </trkpt>
      <trkpt lat="45.71165" lon="2.85827">
        <ele>841.7</ele>
        <time>2022-08-06T09:11:51Z</time>
      </trkpt>
      <trkpt lat="45.71161" lon="2.8582">
        <ele>841.9</ele>
        <time>2022-08-06T09:11:53Z</time>
      </trkpt>
      <trkpt lat="45.71156" lon="2.8581">
        <ele>842.1</ele>
        <time>2022-08-06T09:11:55Z</time>
      </trkpt>
      <trkpt lat="45.7115" lon="2.85803">
        <ele>842.3</ele>
        <time>2022-08-06T09:11:57Z</time>
      </trkpt>
      <trkpt lat="45.71143" lon="2.85796">
        <ele>842.5</ele>
        <time>2022-08-06T09:11:59Z</time>
      </trkpt>
      <trkpt lat="45.71136" lon="2.85789">
        <ele>842.8</ele>
        <time>2022-08-06T09:12:01Z</time>
      </trkpt>
      <trkpt lat="45.71128" lon="2.85784">
        <ele>843</ele>
        <time>2022-08-06T09:12:03Z</time>
      </trkpt>
      <trkpt lat="45.7112" lon="2.85779">
        <ele>843.2</ele>
        <time>2022-08-06T09:12:05Z</time>
      </trkpt>
      <trkpt lat="45.71112" lon="2.85775">
        <ele>843.4</ele>
        <time>2022-08-06T09:12:07Z</time>
      </trkpt>
      <trkpt lat="45.71103" lon="2.85772">
        <ele>843.6</ele>
        <time>2022-08-06T09:12:09Z</time>
      </trkpt>
      <trkpt lat="45.71095" lon="2.85769">
        <ele>843.8</ele>
        <time>2022-08-06T09:12:11Z</time>
      </trkpt>
      <trkpt lat="45.71087" lon="2.85768">
        <ele>844</ele>
        <time>2022-08-06T09:12:13Z</time>
      </trkpt>
      <trkpt lat="45.71078" lon="2.85767">
        <ele>844.2</ele>
        <time>2022-08-06T09:12:15Z</time>
      </trkpt>
      <trkpt lat="45.7107" lon="2.85766">
        <ele>844.4</ele>
        <time>2022-08-06T09:12:17Z</time>
      </trkpt>
      <trkpt lat="45.71062" lon="2.85765">
        <ele>844.6</ele>
        <time>2022-08-06T09:12:19Z</time>
      </trkpt>
      <trkpt lat="45.71054" lon="2.85763">
        <ele>844.8</ele>
        <time>2022-08-06T09:12:21Z</time>
      </trkpt>
      <trkpt lat="45.71046" lon="2.85761">
        <ele>845</ele>
        <time>2022-08-06T09:12:23Z</time>
      </trkpt>
      <trkpt lat="45.71038" lon="2.8576">
        <ele>845.2</ele>
        <time>2022-08-06T09:12:25Z</time>
      </trkpt>
      <trkpt lat="45.7103" lon="2.85758">
        <ele>845.5</ele>
        <time>2022-08-06T09:12:27Z</time>
      </trkpt>
      <trkpt lat="45.71022" lon="2.85756">
        <ele>845.7</ele>
        <time>2022-08-06T09:12:29Z</time>
      </trkpt>
      <trkpt lat="45.71016" lon="2.85755">
        <ele>845.9</ele>
        <time>2022-08-06T09:12:31Z</time>
      </trkpt>
      <trkpt lat="45.71013" lon="2.85754">
        <ele>846</ele>
        <time>2022-08-06T09:12:33Z</time>
      </trkpt>
      <trkpt lat="45.71012" lon="2.85754">
        <ele>846</ele>
        <time>2022-08-06T09:12:35Z</time>
      </trkpt>
      <trkpt lat="45.71012" lon="2.85755">
        <ele>846</ele>
        <time>2022-08-06T09:12:37Z</time>
      </trkpt>
      <trkpt lat="45.71012" lon="2.85755">
        <ele>846</ele>
        <time>2022-08-06T09:12:39Z</time>
      </trkpt>
      <trkpt lat="45.71012" lon="2.85755">
        <ele>846</ele>
        <time>2022-08-06T09:12:41Z</time>
      </trkpt>
      <trkpt lat="45.71012" lon="2.85755">
        <ele>846</ele>
        <time>2022-08-06T09:12:43Z</time>
      </trkpt>
      <trkpt lat="45.71008" lon="2.85759">
        <ele>846.2</ele>
        <time>2022-08-06T09:13:03Z</time>
      </trkpt>
      <trkpt lat="45.71006" lon="2.85763">
        <ele>846</ele>
        <time>2022-08-06T09:13:05Z</time>
      </trkpt>
      <trkpt lat="45.71002" lon="2.85769">
        <ele>845.8</ele>
        <time>2022-08-06T09:13:07Z</time>
      </trkpt>
      <trkpt lat="45.70994" lon="2.85773">
        <ele>845.5</ele>
        <time>2022-08-06T09:13:09Z</time>
      </trkpt>
      <trkpt lat="45.70984" lon="2.85774">
        <ele>845.2</ele>
        <time>2022-08-06T09:13:11Z</time>
      </trkpt>
      <trkpt lat="45.70972" lon="2.85778">
        <ele>844.7</ele>
        <time>2022-08-06T09:13:13Z</time>
      </trkpt>
      <trkpt lat="45.7096" lon="2.85784">
        <ele>844.3</ele>
        <time>2022-08-06T09:13:15Z</time>
      </trkpt>
      <trkpt lat="45.70945" lon="2.85788">
        <ele>843.9</ele>
        <time>2022-08-06T09:13:17Z</time>
      </trkpt>
      <trkpt lat="45.7093" lon="2.85788">
        <ele>843.6</ele>
        <time>2022-08-06T09:13:19Z</time>
      </trkpt>
      <trkpt lat="45.70913" lon="2.85787">
        <ele>843</ele>
        <time>2022-08-06T09:13:21Z</time>
      </trkpt>
      <trkpt lat="45.70897" lon="2.85787">
        <ele>842.4</ele>
        <time>2022-08-06T09:13:23Z</time>
      </trkpt>
      <trkpt lat="45.7088" lon="2.85784">
        <ele>841.8</ele>
        <time>2022-08-06T09:13:25Z</time>
      </trkpt>
      <trkpt lat="45.70862" lon="2.85781">
        <ele>841.2</ele>
        <time>2022-08-06T09:13:27Z</time>
      </trkpt>
      <trkpt lat="45.70845" lon="2.85776">
        <ele>840.7</ele>
        <time>2022-08-06T09:13:29Z</time>
      </trkpt>
      <trkpt lat="45.70827" lon="2.85771">
        <ele>840.1</ele>
        <time>2022-08-06T09:13:31Z</time>
      </trkpt>
      <trkpt lat="45.7081" lon="2.85764">
        <ele>839.5</ele>
        <time>2022-08-06T09:13:33Z</time>
      </trkpt>
      <trkpt lat="45.70792" lon="2.8576">
        <ele>838.8</ele>
        <time>2022-08-06T09:13:35Z</time>
      </trkpt>
      <trkpt lat="45.70774" lon="2.85768">
        <ele>837.7</ele>
        <time>2022-08-06T09:13:37Z</time>
      </trkpt>
      <trkpt lat="45.70758" lon="2.85784">
        <ele>835.9</ele>
        <time>2022-08-06T09:13:39Z</time>
      </trkpt>
      <trkpt lat="45.70744" lon="2.85805">
        <ele>834.2</ele>
        <time>2022-08-06T09:13:41Z</time>
      </trkpt>
      <trkpt lat="45.70728" lon="2.85824">
        <ele>832.6</ele>
        <time>2022-08-06T09:13:43Z</time>
      </trkpt>
      <trkpt lat="45.70711" lon="2.85842">
        <ele>831.2</ele>
        <time>2022-08-06T09:13:45Z</time>
      </trkpt>
      <trkpt lat="45.70696" lon="2.85858">
        <ele>829.8</ele>
        <time>2022-08-06T09:13:47Z</time>
      </trkpt>
      <trkpt lat="45.70683" lon="2.85871">
        <ele>828.4</ele>
        <time>2022-08-06T09:13:49Z</time>
      </trkpt>
      <trkpt lat="45.70674" lon="2.85885">
        <ele>827.4</ele>
        <time>2022-08-06T09:13:51Z</time>
      </trkpt>
      <trkpt lat="45.70668" lon="2.85897">
        <ele>827</ele>
        <time>2022-08-06T09:13:53Z</time>
      </trkpt>
      <trkpt lat="45.70664" lon="2.85912">
        <ele>826.1</ele>
        <time>2022-08-06T09:13:55Z</time>
      </trkpt>
      <trkpt lat="45.70664" lon="2.85924">
        <ele>824.9</ele>
        <time>2022-08-06T09:13:57Z</time>
      </trkpt>
      <trkpt lat="45.70665" lon="2.85927">
        <ele>824.5</ele>
        <time>2022-08-06T09:13:59Z</time>
      </trkpt>
      <trkpt lat="45.70665" lon="2.85927">
        <ele>824.4</ele>
        <time>2022-08-06T09:14:01Z</time>
      </trkpt>
      <trkpt lat="45.70665" lon="2.85927">
        <ele>824.4</ele>
        <time>2022-08-06T09:14:03Z</time>
      </trkpt>
      <trkpt lat="45.70665" lon="2.85927">
        <ele>824.4</ele>
        <time>2022-08-06T09:14:05Z</time>
      </trkpt>
      <trkpt lat="45.70665" lon="2.85927">
        <ele>824.4</ele>
        <time>2022-08-06T09:14:07Z</time>
      </trkpt>
      <trkpt lat="45.70665" lon="2.85927">
        <ele>824.4</ele>
        <time>2022-08-06T09:14:09Z</time>
      </trkpt>
      <trkpt lat="45.70665" lon="2.85927">
        <ele>824.4</ele>
        <time>2022-08-06T09:14:11Z</time>
      </trkpt>
      <trkpt lat="45.70662" lon="2.85929">
        <ele>823.4</ele>
        <time>2022-08-06T09:14:27Z</time>
      </trkpt>
      <trkpt lat="45.70655" lon="2.85929">
        <ele>822.9</ele>
        <time>2022-08-06T09:14:29Z</time>
      </trkpt>
      <trkpt lat="45.70647" lon="2.8593">
        <ele>822.2</ele>
        <time>2022-08-06T09:14:31Z</time>
      </trkpt>
      <trkpt lat="45.70637" lon="2.85931">
        <ele>821.5</ele>
        <time>2022-08-06T09:14:33Z</time>
      </trkpt>
      <trkpt lat="45.70627" lon="2.85934">
        <ele>820.5</ele>
        <time>2022-08-06T09:14:35Z</time>
      </trkpt>
      <trkpt lat="45.70615" lon="2.8594">
        <ele>819.5</ele>
        <time>2022-08-06T09:14:37Z</time>
      </trkpt>
      <trkpt lat="45.70603" lon="2.85947">
        <ele>818.4</ele>
        <time>2022-08-06T09:14:39Z</time>
      </trkpt>
      <trkpt lat="45.70594" lon="2.85951">
        <ele>817.4</ele>
        <time>2022-08-06T09:14:41Z</time>
      </trkpt>
      <trkpt lat="45.70589" lon="2.85959">
        <ele>816.8</ele>
        <time>2022-08-06T09:14:43Z</time>
      </trkpt>
      <trkpt lat="45.70592" lon="2.85976">
        <ele>815.6</ele>
        <time>2022-08-06T09:14:45Z</time>
      </trkpt>
      <trkpt lat="45.70599" lon="2.85995">
        <ele>813.6</ele>
        <time>2022-08-06T09:14:47Z</time>
      </trkpt>
      <trkpt lat="45.70607" lon="2.86017">
        <ele>811.4</ele>
        <time>2022-08-06T09:14:49Z</time>
      </trkpt>
      <trkpt lat="45.70612" lon="2.86039">
        <ele>809.3</ele>
        <time>2022-08-06T09:14:51Z</time>
      </trkpt>
      <trkpt lat="45.70619" lon="2.86061">
        <ele>807.4</ele>
        <time>2022-08-06T09:14:53Z</time>
      </trkpt>
      <trkpt lat="45.70621" lon="2.86083">
        <ele>805.7</ele>
        <time>2022-08-06T09:14:55Z</time>
      </trkpt>
      <trkpt lat="45.70623" lon="2.8611">
        <ele>804.9</ele>
        <time>2022-08-06T09:14:57Z</time>
      </trkpt>
      <trkpt lat="45.70626" lon="2.86136">
        <ele>804.6</ele>
        <time>2022-08-06T09:14:59Z</time>
      </trkpt>
      <trkpt lat="45.70631" lon="2.8616">
        <ele>804.3</ele>
        <time>2022-08-06T09:15:01Z</time>
      </trkpt>
      <trkpt lat="45.70638" lon="2.86183">
        <ele>804.3</ele>
        <time>2022-08-06T09:15:03Z</time>
      </trkpt>
      <trkpt lat="45.70643" lon="2.86205">
        <ele>804.5</ele>
        <time>2022-08-06T09:15:05Z</time>
      </trkpt>
      <trkpt lat="45.7065" lon="2.86226">
        <ele>805.1</ele>
        <time>2022-08-06T09:15:07Z</time>
      </trkpt>
      <trkpt lat="45.70654" lon="2.86244">
        <ele>805.9</ele>
        <time>2022-08-06T09:15:09Z</time>
      </trkpt>
      <trkpt lat="45.70655" lon="2.86261">
        <ele>806.9</ele>
        <time>2022-08-06T09:15:11Z</time>
      </trkpt>
      <trkpt lat="45.70654" lon="2.86274">
        <ele>807.7</ele>
        <time>2022-08-06T09:15:13Z</time>
      </trkpt>
      <trkpt lat="45.70653" lon="2.86284">
        <ele>808.4</ele>
        <time>2022-08-06T09:15:15Z</time>
      </trkpt>
      <trkpt lat="45.70654" lon="2.86293">
        <ele>808.9</ele>
        <time>2022-08-06T09:15:17Z</time>
      </trkpt>
      <trkpt lat="45.70653" lon="2.86302">
        <ele>809.5</ele>
        <time>2022-08-06T09:15:19Z</time>
      </trkpt>
      <trkpt lat="45.70652" lon="2.86311">
        <ele>810.1</ele>
        <time>2022-08-06T09:15:21Z</time>
      </trkpt>
      <trkpt lat="45.70651" lon="2.86321">
        <ele>810.8</ele>
        <time>2022-08-06T09:15:23Z</time>
      </trkpt>
      <trkpt lat="45.7065" lon="2.86331">
        <ele>811.6</ele>
        <time>2022-08-06T09:15:25Z</time>
      </trkpt>
      <trkpt lat="45.70649" lon="2.8634">
        <ele>812.3</ele>
        <time>2022-08-06T09:15:27Z</time>
      </trkpt>
      <trkpt lat="45.70649" lon="2.86346">
        <ele>812.8</ele>
        <time>2022-08-06T09:15:29Z</time>
      </trkpt>
      <trkpt lat="45.7065" lon="2.86353">
        <ele>813.3</ele>
        <time>2022-08-06T09:15:31Z</time>
      </trkpt>
      <trkpt lat="45.70652" lon="2.8636">
        <ele>813.9</ele>
        <time>2022-08-06T09:15:33Z</time>
      </trkpt>
      <trkpt lat="45.70653" lon="2.86368">
        <ele>814.5</ele>
        <time>2022-08-06T09:15:35Z</time>
      </trkpt>
      <trkpt lat="45.70654" lon="2.86375">
        <ele>815</ele>
        <time>2022-08-06T09:15:37Z</time>
      </trkpt>
      <trkpt lat="45.70654" lon="2.86382">
        <ele>815.5</ele>
        <time>2022-08-06T09:15:39Z</time>
      </trkpt>
      <trkpt lat="45.70656" lon="2.8639">
        <ele>816</ele>
        <time>2022-08-06T09:15:41Z</time>
      </trkpt>
      <trkpt lat="45.70657" lon="2.86397">
        <ele>816.5</ele>
        <time>2022-08-06T09:15:43Z</time>
      </trkpt>
      <trkpt lat="45.70658" lon="2.86404">
        <ele>816.9</ele>
        <time>2022-08-06T09:15:45Z</time>
      </trkpt>
      <trkpt lat="45.70659" lon="2.86412">
        <ele>817.4</ele>
        <time>2022-08-06T09:15:47Z</time>
      </trkpt>
      <trkpt lat="45.70662" lon="2.86419">
        <ele>817.9</ele>
        <time>2022-08-06T09:15:49Z</time>
      </trkpt>
      <trkpt lat="45.70662" lon="2.86426">
        <ele>818.3</ele>
        <time>2022-08-06T09:15:51Z</time>
      </trkpt>
      <trkpt lat="45.70664" lon="2.86433">
        <ele>818.8</ele>
        <time>2022-08-06T09:15:53Z</time>
      </trkpt>
      <trkpt lat="45.70666" lon="2.8644">
        <ele>819.3</ele>
        <time>2022-08-06T09:15:55Z</time>
      </trkpt>
      <trkpt lat="45.70668" lon="2.86446">
        <ele>819.8</ele>
        <time>2022-08-06T09:15:57Z</time>
      </trkpt>
      <trkpt lat="45.7067" lon="2.86454">
        <ele>820.4</ele>
        <time>2022-08-06T09:15:59Z</time>
      </trkpt>
      <trkpt lat="45.70671" lon="2.86461">
        <ele>820.9</ele>
        <time>2022-08-06T09:16:01Z</time>
      </trkpt>
      <trkpt lat="45.70671" lon="2.86468">
        <ele>821.6</ele>
        <time>2022-08-06T09:16:03Z</time>
      </trkpt>
      <trkpt lat="45.7067" lon="2.86476">
        <ele>822.2</ele>
        <time>2022-08-06T09:16:05Z</time>
      </trkpt>
      <trkpt lat="45.7067" lon="2.86483">
        <ele>822.6</ele>
        <time>2022-08-06T09:16:07Z</time>
      </trkpt>
      <trkpt lat="45.70669" lon="2.86491">
        <ele>823</ele>
        <time>2022-08-06T09:16:09Z</time>
      </trkpt>
      <trkpt lat="45.70668" lon="2.86499">
        <ele>823.4</ele>
        <time>2022-08-06T09:16:11Z</time>
      </trkpt>
      <trkpt lat="45.70667" lon="2.86506">
        <ele>823.9</ele>
        <time>2022-08-06T09:16:13Z</time>
      </trkpt>
      <trkpt lat="45.70664" lon="2.86514">
        <ele>824.3</ele>
        <time>2022-08-06T09:16:15Z</time>
      </trkpt>
      <trkpt lat="45.70663" lon="2.86521">
        <ele>824.7</ele>
        <time>2022-08-06T09:16:17Z</time>
      </trkpt>
      <trkpt lat="45.70661" lon="2.86528">
        <ele>825.1</ele>
        <time>2022-08-06T09:16:19Z</time>
      </trkpt>
      <trkpt lat="45.70659" lon="2.86535">
        <ele>825.5</ele>
        <time>2022-08-06T09:16:21Z</time>
      </trkpt>
      <trkpt lat="45.70657" lon="2.86542">
        <ele>825.9</ele>
        <time>2022-08-06T09:16:23Z</time>
      </trkpt>
      <trkpt lat="45.70656" lon="2.86549">
        <ele>826.3</ele>
        <time>2022-08-06T09:16:25Z</time>
      </trkpt>
      <trkpt lat="45.70652" lon="2.86557">
        <ele>826.8</ele>
        <time>2022-08-06T09:16:27Z</time>
      </trkpt>
      <trkpt lat="45.70649" lon="2.86564">
        <ele>827.2</ele>
        <time>2022-08-06T09:16:29Z</time>
      </trkpt>
      <trkpt lat="45.70645" lon="2.8657">
        <ele>827.7</ele>
        <time>2022-08-06T09:16:31Z</time>
      </trkpt>
      <trkpt lat="45.70643" lon="2.86577">
        <ele>828.1</ele>
        <time>2022-08-06T09:16:33Z</time>
      </trkpt>
      <trkpt lat="45.7064" lon="2.86584">
        <ele>828.5</ele>
        <time>2022-08-06T09:16:35Z</time>
      </trkpt>
      <trkpt lat="45.70637" lon="2.86588">
        <ele>829.1</ele>
        <time>2022-08-06T09:16:37Z</time>
      </trkpt>
      <trkpt lat="45.70632" lon="2.86591">
        <ele>829.6</ele>
        <time>2022-08-06T09:16:39Z</time>
      </trkpt>
      <trkpt lat="45.70628" lon="2.86592">
        <ele>830</ele>
        <time>2022-08-06T09:16:41Z</time>
      </trkpt>
      <trkpt lat="45.70623" lon="2.86595">
        <ele>830.5</ele>
        <time>2022-08-06T09:16:43Z</time>
      </trkpt>
      <trkpt lat="45.70618" lon="2.86597">
        <ele>831</ele>
        <time>2022-08-06T09:16:45Z</time>
      </trkpt>
      <trkpt lat="45.70612" lon="2.866">
        <ele>831.6</ele>
        <time>2022-08-06T09:16:47Z</time>
      </trkpt>
      <trkpt lat="45.70608" lon="2.86604">
        <ele>832</ele>
        <time>2022-08-06T09:16:49Z</time>
      </trkpt>
      <trkpt lat="45.70604" lon="2.8661">
        <ele>832.6</ele>
        <time>2022-08-06T09:16:51Z</time>
      </trkpt>
      <trkpt lat="45.706" lon="2.86614">
        <ele>833</ele>
        <time>2022-08-06T09:16:53Z</time>
      </trkpt>
      <trkpt lat="45.70596" lon="2.86618">
        <ele>833.4</ele>
        <time>2022-08-06T09:16:55Z</time>
      </trkpt>
      <trkpt lat="45.70594" lon="2.86623">
        <ele>833.7</ele>
        <time>2022-08-06T09:16:57Z</time>
      </trkpt>
      <trkpt lat="45.7059" lon="2.86627">
        <ele>834</ele>
        <time>2022-08-06T09:16:59Z</time>
      </trkpt>
      <trkpt lat="45.70586" lon="2.86633">
        <ele>834.4</ele>
        <time>2022-08-06T09:17:01Z</time>
      </trkpt>
      <trkpt lat="45.70582" lon="2.86638">
        <ele>834.8</ele>
        <time>2022-08-06T09:17:03Z</time>
      </trkpt>
      <trkpt lat="45.70579" lon="2.86645">
        <ele>835.2</ele>
        <time>2022-08-06T09:17:05Z</time>
      </trkpt>
      <trkpt lat="45.70576" lon="2.86652">
        <ele>835.6</ele>
        <time>2022-08-06T09:17:07Z</time>
      </trkpt>
      <trkpt lat="45.70572" lon="2.86658">
        <ele>836</ele>
        <time>2022-08-06T09:17:09Z</time>
      </trkpt>
      <trkpt lat="45.70569" lon="2.86665">
        <ele>836.3</ele>
        <time>2022-08-06T09:17:11Z</time>
      </trkpt>
      <trkpt lat="45.70567" lon="2.86671">
        <ele>836.7</ele>
        <time>2022-08-06T09:17:13Z</time>
      </trkpt>
      <trkpt lat="45.70564" lon="2.86678">
        <ele>837.1</ele>
        <time>2022-08-06T09:17:15Z</time>
      </trkpt>
      <trkpt lat="45.70561" lon="2.86686">
        <ele>837.5</ele>
        <time>2022-08-06T09:17:17Z</time>
      </trkpt>
      <trkpt lat="45.70558" lon="2.86693">
        <ele>837.9</ele>
        <time>2022-08-06T09:17:19Z</time>
      </trkpt>
      <trkpt lat="45.70556" lon="2.867">
        <ele>838.2</ele>
        <time>2022-08-06T09:17:21Z</time>
      </trkpt>
      <trkpt lat="45.70553" lon="2.86707">
        <ele>838.6</ele>
        <time>2022-08-06T09:17:23Z</time>
      </trkpt>
      <trkpt lat="45.7055" lon="2.86714">
        <ele>839</ele>
        <time>2022-08-06T09:17:25Z</time>
      </trkpt>
      <trkpt lat="45.70548" lon="2.86721">
        <ele>839.4</ele>
        <time>2022-08-06T09:17:27Z</time>
      </trkpt>
      <trkpt lat="45.70545" lon="2.86728">
        <ele>839.8</ele>
        <time>2022-08-06T09:17:29Z</time>
      </trkpt>
      <trkpt lat="45.70541" lon="2.86733">
        <ele>840.1</ele>
        <time>2022-08-06T09:17:31Z</time>
      </trkpt>
      <trkpt lat="45.70537" lon="2.86738">
        <ele>840.6</ele>
        <time>2022-08-06T09:17:33Z</time>
      </trkpt>
      <trkpt lat="45.70532" lon="2.86744">
        <ele>841</ele>
        <time>2022-08-06T09:17:35Z</time>
      </trkpt>
      <trkpt lat="45.70528" lon="2.86749">
        <ele>841.4</ele>
        <time>2022-08-06T09:17:37Z</time>
      </trkpt>
      <trkpt lat="45.70524" lon="2.86755">
        <ele>841.9</ele>
        <time>2022-08-06T09:17:39Z</time>
      </trkpt>
      <trkpt lat="45.7052" lon="2.8676">
        <ele>842.3</ele>
        <time>2022-08-06T09:17:41Z</time>
      </trkpt>
      <trkpt lat="45.70516" lon="2.86765">
        <ele>842.7</ele>
        <time>2022-08-06T09:17:43Z</time>
      </trkpt>
      <trkpt lat="45.70512" lon="2.86769">
        <ele>843.1</ele>
        <time>2022-08-06T09:17:45Z</time>
      </trkpt>
      <trkpt lat="45.70507" lon="2.86775">
        <ele>843.5</ele>
        <time>2022-08-06T09:17:47Z</time>
      </trkpt>
      <trkpt lat="45.70503" lon="2.8678">
        <ele>843.9</ele>
        <time>2022-08-06T09:17:49Z</time>
      </trkpt>
      <trkpt lat="45.70499" lon="2.86785">
        <ele>844.3</ele>
        <time>2022-08-06T09:17:51Z</time>
      </trkpt>
      <trkpt lat="45.70495" lon="2.86791">
        <ele>844.7</ele>
        <time>2022-08-06T09:17:53Z</time>
      </trkpt>
      <trkpt lat="45.7049" lon="2.86797">
        <ele>845.2</ele>
        <time>2022-08-06T09:17:55Z</time>
      </trkpt>
      <trkpt lat="45.70486" lon="2.86803">
        <ele>845.6</ele>
        <time>2022-08-06T09:17:57Z</time>
      </trkpt>
      <trkpt lat="45.70483" lon="2.86809">
        <ele>846.1</ele>
        <time>2022-08-06T09:17:59Z</time>
      </trkpt>
      <trkpt lat="45.70479" lon="2.86815">
        <ele>846.6</ele>
        <time>2022-08-06T09:18:01Z</time>
      </trkpt>
      <trkpt lat="45.70475" lon="2.86823">
        <ele>847</ele>
        <time>2022-08-06T09:18:03Z</time>
      </trkpt>
      <trkpt lat="45.70471" lon="2.8683">
        <ele>847.5</ele>
        <time>2022-08-06T09:18:05Z</time>
      </trkpt>
      <trkpt lat="45.70468" lon="2.86837">
        <ele>848.1</ele>
        <time>2022-08-06T09:18:07Z</time>
      </trkpt>
      <trkpt lat="45.70466" lon="2.86844">
        <ele>848.5</ele>
        <time>2022-08-06T09:18:09Z</time>
      </trkpt>
      <trkpt lat="45.70463" lon="2.86852">
        <ele>849</ele>
        <time>2022-08-06T09:18:11Z</time>
      </trkpt>
      <trkpt lat="45.7046" lon="2.8686">
        <ele>849.5</ele>
        <time>2022-08-06T09:18:13Z</time>
      </trkpt>
      <trkpt lat="45.70457" lon="2.86867">
        <ele>850</ele>
        <time>2022-08-06T09:18:15Z</time>
      </trkpt>
      <trkpt lat="45.70453" lon="2.86874">
        <ele>850.5</ele>
        <time>2022-08-06T09:18:17Z</time>
      </trkpt>
      <trkpt lat="45.70451" lon="2.86881">
        <ele>850.9</ele>
        <time>2022-08-06T09:18:19Z</time>
      </trkpt>
      <trkpt lat="45.70449" lon="2.86889">
        <ele>851.3</ele>
        <time>2022-08-06T09:18:21Z</time>
      </trkpt>
      <trkpt lat="45.70447" lon="2.86897">
        <ele>851.8</ele>
        <time>2022-08-06T09:18:23Z</time>
      </trkpt>
      <trkpt lat="45.70445" lon="2.86904">
        <ele>852.3</ele>
        <time>2022-08-06T09:18:25Z</time>
      </trkpt>
      <trkpt lat="45.70442" lon="2.86911">
        <ele>852.8</ele>
        <time>2022-08-06T09:18:27Z</time>
      </trkpt>
      <trkpt lat="45.7044" lon="2.86919">
        <ele>853.2</ele>
        <time>2022-08-06T09:18:29Z</time>
      </trkpt>
      <trkpt lat="45.70437" lon="2.86926">
        <ele>853.7</ele>
        <time>2022-08-06T09:18:31Z</time>
      </trkpt>
      <trkpt lat="45.70436" lon="2.86933">
        <ele>854.1</ele>
        <time>2022-08-06T09:18:33Z</time>
      </trkpt>
      <trkpt lat="45.70434" lon="2.8694">
        <ele>854.6</ele>
        <time>2022-08-06T09:18:35Z</time>
      </trkpt>
      <trkpt lat="45.70432" lon="2.86948">
        <ele>855.1</ele>
        <time>2022-08-06T09:18:37Z</time>
      </trkpt>
      <trkpt lat="45.7043" lon="2.86955">
        <ele>855.6</ele>
        <time>2022-08-06T09:18:39Z</time>
      </trkpt>
      <trkpt lat="45.70428" lon="2.86963">
        <ele>856.1</ele>
        <time>2022-08-06T09:18:41Z</time>
      </trkpt>
      <trkpt lat="45.70426" lon="2.86971">
        <ele>856.7</ele>
        <time>2022-08-06T09:18:43Z</time>
      </trkpt>
      <trkpt lat="45.70426" lon="2.86979">
        <ele>857.2</ele>
        <time>2022-08-06T09:18:45Z</time>
      </trkpt>
      <trkpt lat="45.70425" lon="2.86986">
        <ele>857.7</ele>
        <time>2022-08-06T09:18:47Z</time>
      </trkpt>
      <trkpt lat="45.70424" lon="2.86994">
        <ele>858.3</ele>
        <time>2022-08-06T09:18:49Z</time>
      </trkpt>
      <trkpt lat="45.70424" lon="2.87001">
        <ele>858.8</ele>
        <time>2022-08-06T09:18:51Z</time>
      </trkpt>
      <trkpt lat="45.70422" lon="2.87008">
        <ele>859.4</ele>
        <time>2022-08-06T09:18:53Z</time>
      </trkpt>
      <trkpt lat="45.7042" lon="2.87016">
        <ele>860</ele>
        <time>2022-08-06T09:18:55Z</time>
      </trkpt>
      <trkpt lat="45.70419" lon="2.87024">
        <ele>860.7</ele>
        <time>2022-08-06T09:18:57Z</time>
      </trkpt>
      <trkpt lat="45.70418" lon="2.87032">
        <ele>861.4</ele>
        <time>2022-08-06T09:18:59Z</time>
      </trkpt>
      <trkpt lat="45.70417" lon="2.87039">
        <ele>862</ele>
        <time>2022-08-06T09:19:01Z</time>
      </trkpt>
      <trkpt lat="45.70416" lon="2.87045">
        <ele>862.5</ele>
        <time>2022-08-06T09:19:03Z</time>
      </trkpt>
      <trkpt lat="45.70415" lon="2.8705">
        <ele>863</ele>
        <time>2022-08-06T09:19:05Z</time>
      </trkpt>
      <trkpt lat="45.70414" lon="2.87056">
        <ele>863.5</ele>
        <time>2022-08-06T09:19:07Z</time>
      </trkpt>
      <trkpt lat="45.70413" lon="2.87062">
        <ele>864</ele>
        <time>2022-08-06T09:19:09Z</time>
      </trkpt>
      <trkpt lat="45.70411" lon="2.87069">
        <ele>864.6</ele>
        <time>2022-08-06T09:19:11Z</time>
      </trkpt>
      <trkpt lat="45.70409" lon="2.87076">
        <ele>865.2</ele>
        <time>2022-08-06T09:19:13Z</time>
      </trkpt>
      <trkpt lat="45.70407" lon="2.87084">
        <ele>865.9</ele>
        <time>2022-08-06T09:19:15Z</time>
      </trkpt>
      <trkpt lat="45.70406" lon="2.8709">
        <ele>866.5</ele>
        <time>2022-08-06T09:19:17Z</time>
      </trkpt>
      <trkpt lat="45.70405" lon="2.87097">
        <ele>867</ele>
        <time>2022-08-06T09:19:19Z</time>
      </trkpt>
      <trkpt lat="45.70404" lon="2.87104">
        <ele>867.5</ele>
        <time>2022-08-06T09:19:21Z</time>
      </trkpt>
      <trkpt lat="45.70403" lon="2.87111">
        <ele>868</ele>
        <time>2022-08-06T09:19:23Z</time>
      </trkpt>
      <trkpt lat="45.70401" lon="2.87118">
        <ele>868.5</ele>
        <time>2022-08-06T09:19:25Z</time>
      </trkpt>
      <trkpt lat="45.70399" lon="2.87124">
        <ele>868.9</ele>
        <time>2022-08-06T09:19:27Z</time>
      </trkpt>
      <trkpt lat="45.70397" lon="2.87131">
        <ele>869.4</ele>
        <time>2022-08-06T09:19:29Z</time>
      </trkpt>
      <trkpt lat="45.70395" lon="2.87139">
        <ele>869.8</ele>
        <time>2022-08-06T09:19:31Z</time>
      </trkpt>
      <trkpt lat="45.70391" lon="2.87146">
        <ele>870.3</ele>
        <time>2022-08-06T09:19:33Z</time>
      </trkpt>
      <trkpt lat="45.70388" lon="2.87153">
        <ele>870.7</ele>
        <time>2022-08-06T09:19:35Z</time>
      </trkpt>
      <trkpt lat="45.70384" lon="2.8716">
        <ele>871.1</ele>
        <time>2022-08-06T09:19:37Z</time>
      </trkpt>
      <trkpt lat="45.7038" lon="2.87166">
        <ele>871.4</ele>
        <time>2022-08-06T09:19:39Z</time>
      </trkpt>
      <trkpt lat="45.70376" lon="2.87173">
        <ele>871.7</ele>
        <time>2022-08-06T09:19:41Z</time>
      </trkpt>
      <trkpt lat="45.70371" lon="2.87178">
        <ele>872</ele>
        <time>2022-08-06T09:19:43Z</time>
      </trkpt>
      <trkpt lat="45.70366" lon="2.87184">
        <ele>872.3</ele>
        <time>2022-08-06T09:19:45Z</time>
      </trkpt>
      <trkpt lat="45.70361" lon="2.8719">
        <ele>872.7</ele>
        <time>2022-08-06T09:19:47Z</time>
      </trkpt>
      <trkpt lat="45.70357" lon="2.87196">
        <ele>873</ele>
        <time>2022-08-06T09:19:49Z</time>
      </trkpt>
      <trkpt lat="45.70352" lon="2.87202">
        <ele>873.3</ele>
        <time>2022-08-06T09:19:51Z</time>
      </trkpt>
      <trkpt lat="45.70348" lon="2.87208">
        <ele>873.7</ele>
        <time>2022-08-06T09:19:53Z</time>
      </trkpt>
      <trkpt lat="45.70343" lon="2.87214">
        <ele>874.1</ele>
        <time>2022-08-06T09:19:55Z</time>
      </trkpt>
      <trkpt lat="45.70338" lon="2.8722">
        <ele>874.5</ele>
        <time>2022-08-06T09:19:57Z</time>
      </trkpt>
      <trkpt lat="45.70334" lon="2.87227">
        <ele>874.9</ele>
        <time>2022-08-06T09:19:59Z</time>
      </trkpt>
      <trkpt lat="45.7033" lon="2.87233">
        <ele>875.3</ele>
        <time>2022-08-06T09:20:01Z</time>
      </trkpt>
      <trkpt lat="45.70326" lon="2.87239">
        <ele>875.7</ele>
        <time>2022-08-06T09:20:03Z</time>
      </trkpt>
      <trkpt lat="45.70321" lon="2.87246">
        <ele>876.2</ele>
        <time>2022-08-06T09:20:05Z</time>
      </trkpt>
      <trkpt lat="45.70318" lon="2.87254">
        <ele>876.6</ele>
        <time>2022-08-06T09:20:07Z</time>
      </trkpt>
      <trkpt lat="45.70314" lon="2.87261">
        <ele>877.1</ele>
        <time>2022-08-06T09:20:09Z</time>
      </trkpt>
      <trkpt lat="45.7031" lon="2.87267">
        <ele>877.5</ele>
        <time>2022-08-06T09:20:11Z</time>
      </trkpt>
      <trkpt lat="45.70306" lon="2.87274">
        <ele>878</ele>
        <time>2022-08-06T09:20:13Z</time>
      </trkpt>
      <trkpt lat="45.70303" lon="2.87281">
        <ele>878.5</ele>
        <time>2022-08-06T09:20:15Z</time>
      </trkpt>
      <trkpt lat="45.703" lon="2.87288">
        <ele>879</ele>
        <time>2022-08-06T09:20:17Z</time>
      </trkpt>
      <trkpt lat="45.70296" lon="2.87296">
        <ele>879.6</ele>
        <time>2022-08-06T09:20:19Z</time>
      </trkpt>
      <trkpt lat="45.70293" lon="2.87303">
        <ele>880.1</ele>
        <time>2022-08-06T09:20:21Z</time>
      </trkpt>
      <trkpt lat="45.70289" lon="2.87311">
        <ele>880.7</ele>
        <time>2022-08-06T09:20:23Z</time>
      </trkpt>
      <trkpt lat="45.70286" lon="2.87319">
        <ele>881.3</ele>
        <time>2022-08-06T09:20:25Z</time>
      </trkpt>
      <trkpt lat="45.70283" lon="2.87326">
        <ele>881.8</ele>
        <time>2022-08-06T09:20:27Z</time>
      </trkpt>
      <trkpt lat="45.70281" lon="2.87333">
        <ele>882.3</ele>
        <time>2022-08-06T09:20:29Z</time>
      </trkpt>
      <trkpt lat="45.70278" lon="2.8734">
        <ele>882.8</ele>
        <time>2022-08-06T09:20:31Z</time>
      </trkpt>
      <trkpt lat="45.70275" lon="2.87347">
        <ele>883.3</ele>
        <time>2022-08-06T09:20:33Z</time>
      </trkpt>
      <trkpt lat="45.70271" lon="2.87353">
        <ele>883.8</ele>
        <time>2022-08-06T09:20:35Z</time>
      </trkpt>
      <trkpt lat="45.70267" lon="2.8736">
        <ele>884.2</ele>
        <time>2022-08-06T09:20:37Z</time>
      </trkpt>
      <trkpt lat="45.70262" lon="2.87366">
        <ele>884.6</ele>
        <time>2022-08-06T09:20:39Z</time>
      </trkpt>
      <trkpt lat="45.70258" lon="2.87371">
        <ele>884.9</ele>
        <time>2022-08-06T09:20:41Z</time>
      </trkpt>
      <trkpt lat="45.70253" lon="2.87378">
        <ele>885.3</ele>
        <time>2022-08-06T09:20:43Z</time>
      </trkpt>
      <trkpt lat="45.70249" lon="2.87385">
        <ele>885.7</ele>
        <time>2022-08-06T09:20:45Z</time>
      </trkpt>
      <trkpt lat="45.70245" lon="2.87391">
        <ele>886.1</ele>
        <time>2022-08-06T09:20:47Z</time>
      </trkpt>
      <trkpt lat="45.7024" lon="2.87397">
        <ele>886.5</ele>
        <time>2022-08-06T09:20:49Z</time>
      </trkpt>
      <trkpt lat="45.70235" lon="2.87404">
        <ele>886.8</ele>
        <time>2022-08-06T09:20:51Z</time>
      </trkpt>
      <trkpt lat="45.70231" lon="2.8741">
        <ele>887.2</ele>
        <time>2022-08-06T09:20:53Z</time>
      </trkpt>
      <trkpt lat="45.70225" lon="2.87417">
        <ele>887.6</ele>
        <time>2022-08-06T09:20:55Z</time>
      </trkpt>
      <trkpt lat="45.7022" lon="2.87424">
        <ele>888.1</ele>
        <time>2022-08-06T09:20:57Z</time>
      </trkpt>
      <trkpt lat="45.70214" lon="2.8743">
        <ele>888.5</ele>
        <time>2022-08-06T09:20:59Z</time>
      </trkpt>
      <trkpt lat="45.70209" lon="2.87438">
        <ele>889</ele>
        <time>2022-08-06T09:21:01Z</time>
      </trkpt>
      <trkpt lat="45.70203" lon="2.87445">
        <ele>889.4</ele>
        <time>2022-08-06T09:21:03Z</time>
      </trkpt>
      <trkpt lat="45.70198" lon="2.87452">
        <ele>889.9</ele>
        <time>2022-08-06T09:21:05Z</time>
      </trkpt>
      <trkpt lat="45.70193" lon="2.87458">
        <ele>890.3</ele>
        <time>2022-08-06T09:21:07Z</time>
      </trkpt>
      <trkpt lat="45.70188" lon="2.87465">
        <ele>890.8</ele>
        <time>2022-08-06T09:21:09Z</time>
      </trkpt>
      <trkpt lat="45.70183" lon="2.87471">
        <ele>891.2</ele>
        <time>2022-08-06T09:21:11Z</time>
      </trkpt>
      <trkpt lat="45.70178" lon="2.87479">
        <ele>891.7</ele>
        <time>2022-08-06T09:21:13Z</time>
      </trkpt>
      <trkpt lat="45.70174" lon="2.87487">
        <ele>892.1</ele>
        <time>2022-08-06T09:21:15Z</time>
      </trkpt>
      <trkpt lat="45.70169" lon="2.87494">
        <ele>892.6</ele>
        <time>2022-08-06T09:21:17Z</time>
      </trkpt>
      <trkpt lat="45.70165" lon="2.875">
        <ele>893</ele>
        <time>2022-08-06T09:21:19Z</time>
      </trkpt>
      <trkpt lat="45.70161" lon="2.87506">
        <ele>893.4</ele>
        <time>2022-08-06T09:21:21Z</time>
      </trkpt>
      <trkpt lat="45.70157" lon="2.87513">
        <ele>893.7</ele>
        <time>2022-08-06T09:21:23Z</time>
      </trkpt>
      <trkpt lat="45.70153" lon="2.8752">
        <ele>894.2</ele>
        <time>2022-08-06T09:21:25Z</time>
      </trkpt>
      <trkpt lat="45.7015" lon="2.87527">
        <ele>894.6</ele>
        <time>2022-08-06T09:21:27Z</time>
      </trkpt>
      <trkpt lat="45.70145" lon="2.87532">
        <ele>895.1</ele>
        <time>2022-08-06T09:21:29Z</time>
      </trkpt>
      <trkpt lat="45.70142" lon="2.87538">
        <ele>895.5</ele>
        <time>2022-08-06T09:21:31Z</time>
      </trkpt>
      <trkpt lat="45.70139" lon="2.87544">
        <ele>895.9</ele>
        <time>2022-08-06T09:21:33Z</time>
      </trkpt>
      <trkpt lat="45.70136" lon="2.87549">
        <ele>896.3</ele>
        <time>2022-08-06T09:21:35Z</time>
      </trkpt>
      <trkpt lat="45.70134" lon="2.87553">
        <ele>896.6</ele>
        <time>2022-08-06T09:21:37Z</time>
      </trkpt>
      <trkpt lat="45.70133" lon="2.87554">
        <ele>896.7</ele>
        <time>2022-08-06T09:21:39Z</time>
      </trkpt>
      <trkpt lat="45.70133" lon="2.87555">
        <ele>896.7</ele>
        <time>2022-08-06T09:21:41Z</time>
      </trkpt>
      <trkpt lat="45.70133" lon="2.87555">
        <ele>896.8</ele>
        <time>2022-08-06T09:21:43Z</time>
      </trkpt>
      <trkpt lat="45.70133" lon="2.87555">
        <ele>896.8</ele>
        <time>2022-08-06T09:21:45Z</time>
      </trkpt>
      <trkpt lat="45.70133" lon="2.87555">
        <ele>896.8</ele>
        <time>2022-08-06T09:21:47Z</time>
      </trkpt>
      <trkpt lat="45.70133" lon="2.87555">
        <ele>896.8</ele>
        <time>2022-08-06T09:21:49Z</time>
      </trkpt>
      <trkpt lat="45.70133" lon="2.87555">
        <ele>896.8</ele>
        <time>2022-08-06T09:21:51Z</time>
      </trkpt>
      <trkpt lat="45.70133" lon="2.87554">
        <ele>896.8</ele>
        <time>2022-08-06T09:22:25Z</time>
      </trkpt>
      <trkpt lat="45.70133" lon="2.87554">
        <ele>896.8</ele>
        <time>2022-08-06T09:22:27Z</time>
      </trkpt>
      <trkpt lat="45.70133" lon="2.87554">
        <ele>896.8</ele>
        <time>2022-08-06T09:22:29Z</time>
      </trkpt>
      <trkpt lat="45.70133" lon="2.87554">
        <ele>896.8</ele>
        <time>2022-08-06T09:22:31Z</time>
      </trkpt>
      <trkpt lat="45.70133" lon="2.87554">
        <ele>896.9</ele>
        <time>2022-08-06T09:22:33Z</time>
      </trkpt>
      <trkpt lat="45.70133" lon="2.87555">
        <ele>896.9</ele>
        <time>2022-08-06T09:22:35Z</time>
      </trkpt>
      <trkpt lat="45.70133" lon="2.87555">
        <ele>896.9</ele>
        <time>2022-08-06T09:22:37Z</time>
      </trkpt>
      <trkpt lat="45.70133" lon="2.87555">
        <ele>896.9</ele>
        <time>2022-08-06T09:22:39Z</time>
      </trkpt>
      <trkpt lat="45.7013" lon="2.87563">
        <ele>897.4</ele>
        <time>2022-08-06T09:22:59Z</time>
      </trkpt>
      <trkpt lat="45.70127" lon="2.87569">
        <ele>898</ele>
        <time>2022-08-06T09:23:01Z</time>
      </trkpt>
      <trkpt lat="45.70122" lon="2.87576">
        <ele>898.5</ele>
        <time>2022-08-06T09:23:03Z</time>
      </trkpt>
      <trkpt lat="45.70118" lon="2.87582">
        <ele>899.1</ele>
        <time>2022-08-06T09:23:05Z</time>
      </trkpt>
      <trkpt lat="45.70113" lon="2.87589">
        <ele>899.5</ele>
        <time>2022-08-06T09:23:07Z</time>
      </trkpt>
      <trkpt lat="45.70109" lon="2.87595">
        <ele>900</ele>
        <time>2022-08-06T09:23:09Z</time>
      </trkpt>
      <trkpt lat="45.70104" lon="2.87601">
        <ele>900.4</ele>
        <time>2022-08-06T09:23:11Z</time>
      </trkpt>
      <trkpt lat="45.70099" lon="2.87607">
        <ele>900.9</ele>
        <time>2022-08-06T09:23:13Z</time>
      </trkpt>
      <trkpt lat="45.70093" lon="2.87613">
        <ele>901.4</ele>
        <time>2022-08-06T09:23:15Z</time>
      </trkpt>
      <trkpt lat="45.70088" lon="2.87619">
        <ele>901.9</ele>
        <time>2022-08-06T09:23:17Z</time>
      </trkpt>
      <trkpt lat="45.70082" lon="2.87626">
        <ele>902.4</ele>
        <time>2022-08-06T09:23:19Z</time>
      </trkpt>
      <trkpt lat="45.70077" lon="2.87632">
        <ele>903</ele>
        <time>2022-08-06T09:23:21Z</time>
      </trkpt>
      <trkpt lat="45.70071" lon="2.87638">
        <ele>903.5</ele>
        <time>2022-08-06T09:23:23Z</time>
      </trkpt>
      <trkpt lat="45.70065" lon="2.87643">
        <ele>904.1</ele>
        <time>2022-08-06T09:23:25Z</time>
      </trkpt>
      <trkpt lat="45.7006" lon="2.87649">
        <ele>904.6</ele>
        <time>2022-08-06T09:23:27Z</time>
      </trkpt>
      <trkpt lat="45.70055" lon="2.87654">
        <ele>905</ele>
        <time>2022-08-06T09:23:29Z</time>
      </trkpt>
      <trkpt lat="45.7005" lon="2.87659">
        <ele>905.4</ele>
        <time>2022-08-06T09:23:31Z</time>
      </trkpt>
      <trkpt lat="45.70045" lon="2.87663">
        <ele>905.8</ele>
        <time>2022-08-06T09:23:33Z</time>
      </trkpt>
      <trkpt lat="45.70039" lon="2.87667">
        <ele>906.2</ele>
        <time>2022-08-06T09:23:35Z</time>
      </trkpt>
      <trkpt lat="45.70033" lon="2.87673">
        <ele>906.6</ele>
        <time>2022-08-06T09:23:37Z</time>
      </trkpt>
      <trkpt lat="45.70027" lon="2.87678">
        <ele>907</ele>
        <time>2022-08-06T09:23:39Z</time>
      </trkpt>
      <trkpt lat="45.70022" lon="2.87683">
        <ele>907.3</ele>
        <time>2022-08-06T09:23:41Z</time>
      </trkpt>
      <trkpt lat="45.70016" lon="2.87687">
        <ele>907.6</ele>
        <time>2022-08-06T09:23:43Z</time>
      </trkpt>
      <trkpt lat="45.70011" lon="2.87692">
        <ele>907.9</ele>
        <time>2022-08-06T09:23:45Z</time>
      </trkpt>
      <trkpt lat="45.70005" lon="2.87697">
        <ele>908.2</ele>
        <time>2022-08-06T09:23:47Z</time>
      </trkpt>
      <trkpt lat="45.69999" lon="2.87701">
        <ele>908.5</ele>
        <time>2022-08-06T09:23:49Z</time>
      </trkpt>
      <trkpt lat="45.69994" lon="2.87706">
        <ele>908.8</ele>
        <time>2022-08-06T09:23:51Z</time>
      </trkpt>
      <trkpt lat="45.69988" lon="2.8771">
        <ele>909.2</ele>
        <time>2022-08-06T09:23:53Z</time>
      </trkpt>
      <trkpt lat="45.69982" lon="2.87714">
        <ele>909.5</ele>
        <time>2022-08-06T09:23:55Z</time>
      </trkpt>
      <trkpt lat="45.69975" lon="2.87718">
        <ele>909.9</ele>
        <time>2022-08-06T09:23:57Z</time>
      </trkpt>
      <trkpt lat="45.69969" lon="2.87721">
        <ele>910.1</ele>
        <time>2022-08-06T09:23:59Z</time>
      </trkpt>
      <trkpt lat="45.69962" lon="2.87725">
        <ele>910.3</ele>
        <time>2022-08-06T09:24:01Z</time>
      </trkpt>
      <trkpt lat="45.69954" lon="2.8773">
        <ele>910.5</ele>
        <time>2022-08-06T09:24:03Z</time>
      </trkpt>
      <trkpt lat="45.69946" lon="2.87734">
        <ele>910.8</ele>
        <time>2022-08-06T09:24:05Z</time>
      </trkpt>
      <trkpt lat="45.69937" lon="2.87739">
        <ele>911.1</ele>
        <time>2022-08-06T09:24:07Z</time>
      </trkpt>
      <trkpt lat="45.69929" lon="2.87744">
        <ele>911.3</ele>
        <time>2022-08-06T09:24:09Z</time>
      </trkpt>
      <trkpt lat="45.69921" lon="2.87747">
        <ele>911.5</ele>
        <time>2022-08-06T09:24:11Z</time>
      </trkpt>
      <trkpt lat="45.69912" lon="2.8775">
        <ele>911.8</ele>
        <time>2022-08-06T09:24:13Z</time>
      </trkpt>
      <trkpt lat="45.69903" lon="2.87754">
        <ele>912.1</ele>
        <time>2022-08-06T09:24:15Z</time>
      </trkpt>
      <trkpt lat="45.69895" lon="2.87759">
        <ele>912.4</ele>
        <time>2022-08-06T09:24:17Z</time>
      </trkpt>
      <trkpt lat="45.69887" lon="2.87766">
        <ele>912.6</ele>
        <time>2022-08-06T09:24:19Z</time>
      </trkpt>
      <trkpt lat="45.6988" lon="2.87773">
        <ele>912.9</ele>
        <time>2022-08-06T09:24:21Z</time>
      </trkpt>
      <trkpt lat="45.69872" lon="2.8778">
        <ele>913.1</ele>
        <time>2022-08-06T09:24:23Z</time>
      </trkpt>
      <trkpt lat="45.69865" lon="2.87788">
        <ele>913.4</ele>
        <time>2022-08-06T09:24:25Z</time>
      </trkpt>
      <trkpt lat="45.69857" lon="2.87795">
        <ele>913.8</ele>
        <time>2022-08-06T09:24:27Z</time>
      </trkpt>
      <trkpt lat="45.69851" lon="2.87801">
        <ele>914.1</ele>
        <time>2022-08-06T09:24:29Z</time>
      </trkpt>
      <trkpt lat="45.69844" lon="2.87807">
        <ele>914.4</ele>
        <time>2022-08-06T09:24:31Z</time>
      </trkpt>
      <trkpt lat="45.69838" lon="2.87814">
        <ele>914.8</ele>
        <time>2022-08-06T09:24:33Z</time>
      </trkpt>
      <trkpt lat="45.69831" lon="2.87821">
        <ele>915.1</ele>
        <time>2022-08-06T09:24:35Z</time>
      </trkpt>
      <trkpt lat="45.69823" lon="2.87827">
        <ele>915.5</ele>
        <time>2022-08-06T09:24:37Z</time>
      </trkpt>
      <trkpt lat="45.69817" lon="2.87833">
        <ele>915.9</ele>
        <time>2022-08-06T09:24:39Z</time>
      </trkpt>
      <trkpt lat="45.6981" lon="2.8784">
        <ele>916.4</ele>
        <time>2022-08-06T09:24:41Z</time>
      </trkpt>
      <trkpt lat="45.69805" lon="2.87847">
        <ele>916.8</ele>
        <time>2022-08-06T09:24:43Z</time>
      </trkpt>
      <trkpt lat="45.69799" lon="2.87853">
        <ele>917.3</ele>
        <time>2022-08-06T09:24:45Z</time>
      </trkpt>
      <trkpt lat="45.69795" lon="2.8786">
        <ele>917.8</ele>
        <time>2022-08-06T09:24:47Z</time>
      </trkpt>
      <trkpt lat="45.69789" lon="2.87865">
        <ele>918.4</ele>
        <time>2022-08-06T09:24:49Z</time>
      </trkpt>
      <trkpt lat="45.69784" lon="2.87871">
        <ele>918.9</ele>
        <time>2022-08-06T09:24:51Z</time>
      </trkpt>
      <trkpt lat="45.6978" lon="2.87878">
        <ele>919.3</ele>
        <time>2022-08-06T09:24:53Z</time>
      </trkpt>
      <trkpt lat="45.69774" lon="2.87884">
        <ele>919.8</ele>
        <time>2022-08-06T09:24:55Z</time>
      </trkpt>
      <trkpt lat="45.6977" lon="2.87891">
        <ele>920.2</ele>
        <time>2022-08-06T09:24:57Z</time>
      </trkpt>
      <trkpt lat="45.69765" lon="2.87898">
        <ele>920.6</ele>
        <time>2022-08-06T09:24:59Z</time>
      </trkpt>
      <trkpt lat="45.69759" lon="2.87904">
        <ele>921</ele>
        <time>2022-08-06T09:25:01Z</time>
      </trkpt>
      <trkpt lat="45.69755" lon="2.87909">
        <ele>921.3</ele>
        <time>2022-08-06T09:25:03Z</time>
      </trkpt>
      <trkpt lat="45.6975" lon="2.87916">
        <ele>921.7</ele>
        <time>2022-08-06T09:25:05Z</time>
      </trkpt>
      <trkpt lat="45.69745" lon="2.87922">
        <ele>922.1</ele>
        <time>2022-08-06T09:25:07Z</time>
      </trkpt>
      <trkpt lat="45.69741" lon="2.87929">
        <ele>922.6</ele>
        <time>2022-08-06T09:25:09Z</time>
      </trkpt>
      <trkpt lat="45.69736" lon="2.87935">
        <ele>923</ele>
        <time>2022-08-06T09:25:11Z</time>
      </trkpt>
      <trkpt lat="45.69732" lon="2.87942">
        <ele>923.4</ele>
        <time>2022-08-06T09:25:13Z</time>
      </trkpt>
      <trkpt lat="45.69727" lon="2.87948">
        <ele>923.8</ele>
        <time>2022-08-06T09:25:15Z</time>
      </trkpt>
      <trkpt lat="45.69722" lon="2.87955">
        <ele>924.1</ele>
        <time>2022-08-06T09:25:17Z</time>
      </trkpt>
      <trkpt lat="45.69717" lon="2.87961">
        <ele>924.5</ele>
        <time>2022-08-06T09:25:19Z</time>
      </trkpt>
      <trkpt lat="45.69712" lon="2.87967">
        <ele>924.8</ele>
        <time>2022-08-06T09:25:21Z</time>
      </trkpt>
      <trkpt lat="45.69707" lon="2.87974">
        <ele>925.1</ele>
        <time>2022-08-06T09:25:23Z</time>
      </trkpt>
      <trkpt lat="45.69701" lon="2.87981">
        <ele>925.4</ele>
        <time>2022-08-06T09:25:25Z</time>
      </trkpt>
      <trkpt lat="45.69696" lon="2.87988">
        <ele>925.6</ele>
        <time>2022-08-06T09:25:27Z</time>
      </trkpt>
      <trkpt lat="45.69691" lon="2.87995">
        <ele>925.9</ele>
        <time>2022-08-06T09:25:29Z</time>
      </trkpt>
      <trkpt lat="45.69685" lon="2.88002">
        <ele>926.1</ele>
        <time>2022-08-06T09:25:31Z</time>
      </trkpt>
      <trkpt lat="45.6968" lon="2.8801">
        <ele>926.3</ele>
        <time>2022-08-06T09:25:33Z</time>
      </trkpt>
      <trkpt lat="45.69674" lon="2.88018">
        <ele>926.6</ele>
        <time>2022-08-06T09:25:35Z</time>
      </trkpt>
      <trkpt lat="45.69669" lon="2.88025">
        <ele>926.8</ele>
        <time>2022-08-06T09:25:37Z</time>
      </trkpt>
      <trkpt lat="45.69663" lon="2.88033">
        <ele>927.1</ele>
        <time>2022-08-06T09:25:39Z</time>
      </trkpt>
      <trkpt lat="45.69658" lon="2.88042">
        <ele>927.3</ele>
        <time>2022-08-06T09:25:41Z</time>
      </trkpt>
      <trkpt lat="45.69652" lon="2.8805">
        <ele>927.5</ele>
        <time>2022-08-06T09:25:43Z</time>
      </trkpt>
      <trkpt lat="45.69646" lon="2.88057">
        <ele>927.8</ele>
        <time>2022-08-06T09:25:45Z</time>
      </trkpt>
      <trkpt lat="45.69641" lon="2.88066">
        <ele>928</ele>
        <time>2022-08-06T09:25:47Z</time>
      </trkpt>
      <trkpt lat="45.69635" lon="2.88074">
        <ele>928.2</ele>
        <time>2022-08-06T09:25:49Z</time>
      </trkpt>
      <trkpt lat="45.69629" lon="2.88082">
        <ele>928.4</ele>
        <time>2022-08-06T09:25:51Z</time>
      </trkpt>
      <trkpt lat="45.69624" lon="2.8809">
        <ele>928.7</ele>
        <time>2022-08-06T09:25:53Z</time>
      </trkpt>
      <trkpt lat="45.69619" lon="2.88097">
        <ele>928.9</ele>
        <time>2022-08-06T09:25:55Z</time>
      </trkpt>
      <trkpt lat="45.69613" lon="2.88104">
        <ele>929.1</ele>
        <time>2022-08-06T09:25:57Z</time>
      </trkpt>
      <trkpt lat="45.69608" lon="2.88111">
        <ele>929.3</ele>
        <time>2022-08-06T09:25:59Z</time>
      </trkpt>
      <trkpt lat="45.69602" lon="2.88119">
        <ele>929.6</ele>
        <time>2022-08-06T09:26:01Z</time>
      </trkpt>
      <trkpt lat="45.69597" lon="2.88126">
        <ele>929.9</ele>
        <time>2022-08-06T09:26:03Z</time>
      </trkpt>
      <trkpt lat="45.69592" lon="2.88133">
        <ele>930.2</ele>
        <time>2022-08-06T09:26:05Z</time>
      </trkpt>
      <trkpt lat="45.69587" lon="2.8814">
        <ele>930.5</ele>
        <time>2022-08-06T09:26:07Z</time>
      </trkpt>
      <trkpt lat="45.69582" lon="2.88147">
        <ele>930.8</ele>
        <time>2022-08-06T09:26:09Z</time>
      </trkpt>
      <trkpt lat="45.69577" lon="2.88154">
        <ele>931.1</ele>
        <time>2022-08-06T09:26:11Z</time>
      </trkpt>
      <trkpt lat="45.69572" lon="2.8816">
        <ele>931.5</ele>
        <time>2022-08-06T09:26:13Z</time>
      </trkpt>
      <trkpt lat="45.69566" lon="2.88166">
        <ele>931.9</ele>
        <time>2022-08-06T09:26:15Z</time>
      </trkpt>
      <trkpt lat="45.69561" lon="2.88172">
        <ele>932.3</ele>
        <time>2022-08-06T09:26:17Z</time>
      </trkpt>
      <trkpt lat="45.69556" lon="2.88179">
        <ele>932.7</ele>
        <time>2022-08-06T09:26:19Z</time>
      </trkpt>
      <trkpt lat="45.69551" lon="2.88185">
        <ele>933.2</ele>
        <time>2022-08-06T09:26:21Z</time>
      </trkpt>
      <trkpt lat="45.69546" lon="2.88192">
        <ele>933.6</ele>
        <time>2022-08-06T09:26:23Z</time>
      </trkpt>
      <trkpt lat="45.69541" lon="2.88198">
        <ele>934</ele>
        <time>2022-08-06T09:26:25Z</time>
      </trkpt>
      <trkpt lat="45.69537" lon="2.88203">
        <ele>934.4</ele>
        <time>2022-08-06T09:26:27Z</time>
      </trkpt>
      <trkpt lat="45.69532" lon="2.88208">
        <ele>934.8</ele>
        <time>2022-08-06T09:26:29Z</time>
      </trkpt>
      <trkpt lat="45.69528" lon="2.88213">
        <ele>935.2</ele>
        <time>2022-08-06T09:26:31Z</time>
      </trkpt>
      <trkpt lat="45.69524" lon="2.88219">
        <ele>935.6</ele>
        <time>2022-08-06T09:26:33Z</time>
      </trkpt>
      <trkpt lat="45.69519" lon="2.88224">
        <ele>936.1</ele>
        <time>2022-08-06T09:26:35Z</time>
      </trkpt>
      <trkpt lat="45.69515" lon="2.8823">
        <ele>936.5</ele>
        <time>2022-08-06T09:26:37Z</time>
      </trkpt>
      <trkpt lat="45.6951" lon="2.88235">
        <ele>937</ele>
        <time>2022-08-06T09:26:39Z</time>
      </trkpt>
      <trkpt lat="45.69505" lon="2.8824">
        <ele>937.5</ele>
        <time>2022-08-06T09:26:41Z</time>
      </trkpt>
      <trkpt lat="45.695" lon="2.88244">
        <ele>937.9</ele>
        <time>2022-08-06T09:26:43Z</time>
      </trkpt>
      <trkpt lat="45.69496" lon="2.88249">
        <ele>938.4</ele>
        <time>2022-08-06T09:26:45Z</time>
      </trkpt>
      <trkpt lat="45.69491" lon="2.88255">
        <ele>939</ele>
        <time>2022-08-06T09:26:47Z</time>
      </trkpt>
      <trkpt lat="45.69486" lon="2.8826">
        <ele>939.5</ele>
        <time>2022-08-06T09:26:49Z</time>
      </trkpt>
      <trkpt lat="45.69481" lon="2.88263">
        <ele>940.1</ele>
        <time>2022-08-06T09:26:51Z</time>
      </trkpt>
      <trkpt lat="45.69475" lon="2.88266">
        <ele>940.6</ele>
        <time>2022-08-06T09:26:53Z</time>
      </trkpt>
      <trkpt lat="45.69471" lon="2.88271">
        <ele>941.1</ele>
        <time>2022-08-06T09:26:55Z</time>
      </trkpt>
      <trkpt lat="45.69465" lon="2.88276">
        <ele>941.7</ele>
        <time>2022-08-06T09:26:57Z</time>
      </trkpt>
      <trkpt lat="45.6946" lon="2.8828">
        <ele>942.2</ele>
        <time>2022-08-06T09:26:59Z</time>
      </trkpt>
      <trkpt lat="45.69456" lon="2.88285">
        <ele>942.7</ele>
        <time>2022-08-06T09:27:01Z</time>
      </trkpt>
      <trkpt lat="45.69452" lon="2.88291">
        <ele>943.2</ele>
        <time>2022-08-06T09:27:03Z</time>
      </trkpt>
      <trkpt lat="45.69447" lon="2.88297">
        <ele>943.7</ele>
        <time>2022-08-06T09:27:05Z</time>
      </trkpt>
      <trkpt lat="45.69443" lon="2.88303">
        <ele>944.2</ele>
        <time>2022-08-06T09:27:07Z</time>
      </trkpt>
      <trkpt lat="45.6944" lon="2.8831">
        <ele>944.7</ele>
        <time>2022-08-06T09:27:09Z</time>
      </trkpt>
      <trkpt lat="45.69437" lon="2.88316">
        <ele>945.3</ele>
        <time>2022-08-06T09:27:11Z</time>
      </trkpt>
      <trkpt lat="45.69434" lon="2.88323">
        <ele>945.9</ele>
        <time>2022-08-06T09:27:13Z</time>
      </trkpt>
      <trkpt lat="45.69431" lon="2.8833">
        <ele>946.5</ele>
        <time>2022-08-06T09:27:15Z</time>
      </trkpt>
      <trkpt lat="45.69427" lon="2.88337">
        <ele>947</ele>
        <time>2022-08-06T09:27:17Z</time>
      </trkpt>
      <trkpt lat="45.69424" lon="2.88343">
        <ele>947.5</ele>
        <time>2022-08-06T09:27:19Z</time>
      </trkpt>
      <trkpt lat="45.6942" lon="2.88348">
        <ele>947.9</ele>
        <time>2022-08-06T09:27:21Z</time>
      </trkpt>
      <trkpt lat="45.69416" lon="2.88353">
        <ele>948.3</ele>
        <time>2022-08-06T09:27:23Z</time>
      </trkpt>
      <trkpt lat="45.6941" lon="2.88356">
        <ele>948.7</ele>
        <time>2022-08-06T09:27:25Z</time>
      </trkpt>
      <trkpt lat="45.69406" lon="2.8836">
        <ele>949.1</ele>
        <time>2022-08-06T09:27:27Z</time>
      </trkpt>
      <trkpt lat="45.69401" lon="2.88365">
        <ele>949.4</ele>
        <time>2022-08-06T09:27:29Z</time>
      </trkpt>
      <trkpt lat="45.69395" lon="2.88369">
        <ele>949.8</ele>
        <time>2022-08-06T09:27:31Z</time>
      </trkpt>
      <trkpt lat="45.6939" lon="2.88372">
        <ele>950.2</ele>
        <time>2022-08-06T09:27:33Z</time>
      </trkpt>
      <trkpt lat="45.69385" lon="2.88376">
        <ele>950.5</ele>
        <time>2022-08-06T09:27:35Z</time>
      </trkpt>
      <trkpt lat="45.6938" lon="2.88379">
        <ele>950.9</ele>
        <time>2022-08-06T09:27:37Z</time>
      </trkpt>
      <trkpt lat="45.69374" lon="2.88383">
        <ele>951.2</ele>
        <time>2022-08-06T09:27:39Z</time>
      </trkpt>
      <trkpt lat="45.69369" lon="2.88387">
        <ele>951.6</ele>
        <time>2022-08-06T09:27:41Z</time>
      </trkpt>
      <trkpt lat="45.69363" lon="2.8839">
        <ele>952</ele>
        <time>2022-08-06T09:27:43Z</time>
      </trkpt>
      <trkpt lat="45.69358" lon="2.88393">
        <ele>952.5</ele>
        <time>2022-08-06T09:27:45Z</time>
      </trkpt>
      <trkpt lat="45.69353" lon="2.88396">
        <ele>952.9</ele>
        <time>2022-08-06T09:27:47Z</time>
      </trkpt>
      <trkpt lat="45.69348" lon="2.88399">
        <ele>953.4</ele>
        <time>2022-08-06T09:27:49Z</time>
      </trkpt>
      <trkpt lat="45.69342" lon="2.88402">
        <ele>953.9</ele>
        <time>2022-08-06T09:27:51Z</time>
      </trkpt>
      <trkpt lat="45.69336" lon="2.88404">
        <ele>954.4</ele>
        <time>2022-08-06T09:27:53Z</time>
      </trkpt>
      <trkpt lat="45.6933" lon="2.88407">
        <ele>954.9</ele>
        <time>2022-08-06T09:27:55Z</time>
      </trkpt>
      <trkpt lat="45.69325" lon="2.88409">
        <ele>955.4</ele>
        <time>2022-08-06T09:27:57Z</time>
      </trkpt>
      <trkpt lat="45.6932" lon="2.88411">
        <ele>955.8</ele>
        <time>2022-08-06T09:27:59Z</time>
      </trkpt>
      <trkpt lat="45.69315" lon="2.88413">
        <ele>956.3</ele>
        <time>2022-08-06T09:28:01Z</time>
      </trkpt>
      <trkpt lat="45.69309" lon="2.88415">
        <ele>956.8</ele>
        <time>2022-08-06T09:28:03Z</time>
      </trkpt>
      <trkpt lat="45.69304" lon="2.88417">
        <ele>957.2</ele>
        <time>2022-08-06T09:28:05Z</time>
      </trkpt>
      <trkpt lat="45.69299" lon="2.88417">
        <ele>957.5</ele>
        <time>2022-08-06T09:28:07Z</time>
      </trkpt>
      <trkpt lat="45.69293" lon="2.88419">
        <ele>957.7</ele>
        <time>2022-08-06T09:28:09Z</time>
      </trkpt>
      <trkpt lat="45.69286" lon="2.88419">
        <ele>957.9</ele>
        <time>2022-08-06T09:28:11Z</time>
      </trkpt>
      <trkpt lat="45.69279" lon="2.8842">
        <ele>957.9</ele>
        <time>2022-08-06T09:28:13Z</time>
      </trkpt>
      <trkpt lat="45.69269" lon="2.8842">
        <ele>957.7</ele>
        <time>2022-08-06T09:28:15Z</time>
      </trkpt>
      <trkpt lat="45.69259" lon="2.88421">
        <ele>957.4</ele>
        <time>2022-08-06T09:28:17Z</time>
      </trkpt>
      <trkpt lat="45.69248" lon="2.88421">
        <ele>957.1</ele>
        <time>2022-08-06T09:28:19Z</time>
      </trkpt>
      <trkpt lat="45.69236" lon="2.88421">
        <ele>956.7</ele>
        <time>2022-08-06T09:28:21Z</time>
      </trkpt>
      <trkpt lat="45.69224" lon="2.88421">
        <ele>956.2</ele>
        <time>2022-08-06T09:28:23Z</time>
      </trkpt>
      <trkpt lat="45.69211" lon="2.8842">
        <ele>955.5</ele>
        <time>2022-08-06T09:28:25Z</time>
      </trkpt>
      <trkpt lat="45.69197" lon="2.88421">
        <ele>954.8</ele>
        <time>2022-08-06T09:28:27Z</time>
      </trkpt>
      <trkpt lat="45.69182" lon="2.88421">
        <ele>954</ele>
        <time>2022-08-06T09:28:29Z</time>
      </trkpt>
      <trkpt lat="45.69167" lon="2.88422">
        <ele>953.2</ele>
        <time>2022-08-06T09:28:31Z</time>
      </trkpt>
      <trkpt lat="45.6915" lon="2.88422">
        <ele>952.4</ele>
        <time>2022-08-06T09:28:33Z</time>
      </trkpt>
      <trkpt lat="45.69133" lon="2.88423">
        <ele>951.9</ele>
        <time>2022-08-06T09:28:35Z</time>
      </trkpt>
      <trkpt lat="45.69117" lon="2.88423">
        <ele>951.8</ele>
        <time>2022-08-06T09:28:37Z</time>
      </trkpt>
      <trkpt lat="45.69101" lon="2.88422">
        <ele>951.8</ele>
        <time>2022-08-06T09:28:39Z</time>
      </trkpt>
      <trkpt lat="45.69087" lon="2.88422">
        <ele>952.1</ele>
        <time>2022-08-06T09:28:41Z</time>
      </trkpt>
      <trkpt lat="45.69073" lon="2.88423">
        <ele>952.3</ele>
        <time>2022-08-06T09:28:43Z</time>
      </trkpt>
      <trkpt lat="45.6906" lon="2.88422">
        <ele>952.6</ele>
        <time>2022-08-06T09:28:45Z</time>
      </trkpt>
      <trkpt lat="45.69048" lon="2.88422">
        <ele>953</ele>
        <time>2022-08-06T09:28:47Z</time>
      </trkpt>
      <trkpt lat="45.69037" lon="2.88423">
        <ele>953.5</ele>
        <time>2022-08-06T09:28:49Z</time>
      </trkpt>
      <trkpt lat="45.69026" lon="2.88425">
        <ele>954</ele>
        <time>2022-08-06T09:28:51Z</time>
      </trkpt>
      <trkpt lat="45.69017" lon="2.8843">
        <ele>954.5</ele>
        <time>2022-08-06T09:28:53Z</time>
      </trkpt>
      <trkpt lat="45.69008" lon="2.88436">
        <ele>955</ele>
        <time>2022-08-06T09:28:55Z</time>
      </trkpt>
      <trkpt lat="45.69" lon="2.88442">
        <ele>955.5</ele>
        <time>2022-08-06T09:28:57Z</time>
      </trkpt>
      <trkpt lat="45.68992" lon="2.88449">
        <ele>956.2</ele>
        <time>2022-08-06T09:28:59Z</time>
      </trkpt>
      <trkpt lat="45.68984" lon="2.88455">
        <ele>956.8</ele>
        <time>2022-08-06T09:29:01Z</time>
      </trkpt>
      <trkpt lat="45.68976" lon="2.88459">
        <ele>957.5</ele>
        <time>2022-08-06T09:29:03Z</time>
      </trkpt>
      <trkpt lat="45.6897" lon="2.88466">
        <ele>958.1</ele>
        <time>2022-08-06T09:29:05Z</time>
      </trkpt>
      <trkpt lat="45.68963" lon="2.8847">
        <ele>958.7</ele>
        <time>2022-08-06T09:29:07Z</time>
      </trkpt>
      <trkpt lat="45.68956" lon="2.88476">
        <ele>959.4</ele>
        <time>2022-08-06T09:29:09Z</time>
      </trkpt>
      <trkpt lat="45.68949" lon="2.88481">
        <ele>960</ele>
        <time>2022-08-06T09:29:11Z</time>
      </trkpt>
      <trkpt lat="45.68944" lon="2.88486">
        <ele>960.5</ele>
        <time>2022-08-06T09:29:13Z</time>
      </trkpt>
      <trkpt lat="45.68937" lon="2.88491">
        <ele>961.1</ele>
        <time>2022-08-06T09:29:15Z</time>
      </trkpt>
      <trkpt lat="45.68932" lon="2.88495">
        <ele>961.5</ele>
        <time>2022-08-06T09:29:17Z</time>
      </trkpt>
      <trkpt lat="45.68926" lon="2.88499">
        <ele>961.9</ele>
        <time>2022-08-06T09:29:19Z</time>
      </trkpt>
      <trkpt lat="45.6892" lon="2.88501">
        <ele>962.1</ele>
        <time>2022-08-06T09:29:21Z</time>
      </trkpt>
      <trkpt lat="45.68914" lon="2.88503">
        <ele>962.1</ele>
        <time>2022-08-06T09:29:23Z</time>
      </trkpt>
      <trkpt lat="45.68909" lon="2.88504">
        <ele>962.1</ele>
        <time>2022-08-06T09:29:25Z</time>
      </trkpt>
      <trkpt lat="45.68905" lon="2.88505">
        <ele>962.1</ele>
        <time>2022-08-06T09:29:27Z</time>
      </trkpt>
      <trkpt lat="45.689" lon="2.88505">
        <ele>962.1</ele>
        <time>2022-08-06T09:29:29Z</time>
      </trkpt>
      <trkpt lat="45.68898" lon="2.88506">
        <ele>962.1</ele>
        <time>2022-08-06T09:29:31Z</time>
      </trkpt>
      <trkpt lat="45.68898" lon="2.88506">
        <ele>962.1</ele>
        <time>2022-08-06T09:29:33Z</time>
      </trkpt>
      <trkpt lat="45.68898" lon="2.88506">
        <ele>962.1</ele>
        <time>2022-08-06T09:29:35Z</time>
      </trkpt>
      <trkpt lat="45.68898" lon="2.88506">
        <ele>962.1</ele>
        <time>2022-08-06T09:29:39Z</time>
      </trkpt>
      <trkpt lat="45.68898" lon="2.88506">
        <ele>962.1</ele>
        <time>2022-08-06T09:29:41Z</time>
      </trkpt>
      <trkpt lat="45.68898" lon="2.88506">
        <ele>962.1</ele>
        <time>2022-08-06T09:29:43Z</time>
      </trkpt>
      <trkpt lat="45.68898" lon="2.88506">
        <ele>962.1</ele>
        <time>2022-08-06T09:29:45Z</time>
      </trkpt>
      <trkpt lat="45.68894" lon="2.88501">
        <ele>962</ele>
        <time>2022-08-06T09:30:03Z</time>
      </trkpt>
      <trkpt lat="45.68889" lon="2.88495">
        <ele>961.9</ele>
        <time>2022-08-06T09:30:05Z</time>
      </trkpt>
      <trkpt lat="45.68882" lon="2.8849">
        <ele>961.8</ele>
        <time>2022-08-06T09:30:07Z</time>
      </trkpt>
      <trkpt lat="45.68874" lon="2.88484">
        <ele>961.7</ele>
        <time>2022-08-06T09:30:09Z</time>
      </trkpt>
      <trkpt lat="45.68868" lon="2.88474">
        <ele>961.5</ele>
        <time>2022-08-06T09:30:11Z</time>
      </trkpt>
      <trkpt lat="45.68862" lon="2.88461">
        <ele>961.2</ele>
        <time>2022-08-06T09:30:13Z</time>
      </trkpt>
      <trkpt lat="45.68852" lon="2.88452">
        <ele>960.8</ele>
        <time>2022-08-06T09:30:15Z</time>
      </trkpt>
      <trkpt lat="45.68841" lon="2.88445">
        <ele>960.5</ele>
        <time>2022-08-06T09:30:17Z</time>
      </trkpt>
      <trkpt lat="45.68828" lon="2.88439">
        <ele>960.1</ele>
        <time>2022-08-06T09:30:19Z</time>
      </trkpt>
      <trkpt lat="45.68815" lon="2.88434">
        <ele>959.7</ele>
        <time>2022-08-06T09:30:21Z</time>
      </trkpt>
      <trkpt lat="45.68801" lon="2.88433">
        <ele>959.3</ele>
        <time>2022-08-06T09:30:23Z</time>
      </trkpt>
      <trkpt lat="45.68786" lon="2.88437">
        <ele>959</ele>
        <time>2022-08-06T09:30:25Z</time>
      </trkpt>
      <trkpt lat="45.68773" lon="2.88443">
        <ele>958.7</ele>
        <time>2022-08-06T09:30:27Z</time>
      </trkpt>
      <trkpt lat="45.6876" lon="2.8845">
        <ele>958.7</ele>
        <time>2022-08-06T09:30:29Z</time>
      </trkpt>
      <trkpt lat="45.68749" lon="2.88458">
        <ele>958.8</ele>
        <time>2022-08-06T09:30:31Z</time>
      </trkpt>
      <trkpt lat="45.68741" lon="2.88465">
        <ele>958.8</ele>
        <time>2022-08-06T09:30:33Z</time>
      </trkpt>
      <trkpt lat="45.68737" lon="2.88476">
        <ele>958.2</ele>
        <time>2022-08-06T09:30:35Z</time>
      </trkpt>
      <trkpt lat="45.68739" lon="2.88488">
        <ele>957.6</ele>
        <time>2022-08-06T09:30:37Z</time>
      </trkpt>
      <trkpt lat="45.68747" lon="2.88495">
        <ele>957.1</ele>
        <time>2022-08-06T09:30:39Z</time>
      </trkpt>
      <trkpt lat="45.68753" lon="2.88502">
        <ele>956.8</ele>
        <time>2022-08-06T09:30:41Z</time>
      </trkpt>
      <trkpt lat="45.68757" lon="2.88506">
        <ele>956.6</ele>
        <time>2022-08-06T09:30:43Z</time>
      </trkpt>
      <trkpt lat="45.68757" lon="2.88507">
        <ele>956.6</ele>
        <time>2022-08-06T09:30:45Z</time>
      </trkpt>
      <trkpt lat="45.6876" lon="2.88507">
        <ele>956.7</ele>
        <time>2022-08-06T09:30:47Z</time>
      </trkpt>
      <trkpt lat="45.68763" lon="2.88505">
        <ele>956.7</ele>
        <time>2022-08-06T09:30:49Z</time>
      </trkpt>
      <trkpt lat="45.68763" lon="2.88505">
        <ele>956.7</ele>
        <time>2022-08-06T09:30:51Z</time>
      </trkpt>
      <trkpt lat="45.68764" lon="2.88506">
        <ele>956.8</ele>
        <time>2022-08-06T09:30:53Z</time>
      </trkpt>
      <trkpt lat="45.68765" lon="2.88504">
        <ele>956.8</ele>
        <time>2022-08-06T09:30:55Z</time>
      </trkpt>
      <trkpt lat="45.68765" lon="2.88504">
        <ele>956.8</ele>
        <time>2022-08-06T09:30:57Z</time>
      </trkpt>
      <trkpt lat="45.68765" lon="2.88505">
        <ele>956.8</ele>
        <time>2022-08-06T09:30:59Z</time>
      </trkpt>
      <trkpt lat="45.68765" lon="2.88505">
        <ele>956.8</ele>
        <time>2022-08-06T09:31:01Z</time>
      </trkpt>
      <trkpt lat="45.68765" lon="2.88505">
        <ele>956.8</ele>
        <time>2022-08-06T09:31:03Z</time>
      </trkpt>
      <trkpt lat="45.68765" lon="2.88505">
        <ele>956.8</ele>
        <time>2022-08-06T09:31:05Z</time>
      </trkpt>
      <trkpt lat="45.68765" lon="2.88507">
        <ele>956.8</ele>
        <time>2022-08-06T09:31:19Z</time>
      </trkpt>
      <trkpt lat="45.68766" lon="2.88506">
        <ele>956.8</ele>
        <time>2022-08-06T09:31:21Z</time>
      </trkpt>
      <trkpt lat="45.68766" lon="2.88506">
        <ele>956.8</ele>
        <time>2022-08-06T09:31:23Z</time>
      </trkpt>
      <trkpt lat="45.68766" lon="2.88506">
        <ele>956.8</ele>
        <time>2022-08-06T09:31:25Z</time>
      </trkpt>
      <trkpt lat="45.68766" lon="2.88506">
        <ele>956.8</ele>
        <time>2022-08-06T09:31:27Z</time>
      </trkpt>
      <trkpt lat="45.68766" lon="2.88506">
        <ele>956.8</ele>
        <time>2022-08-06T09:31:29Z</time>
      </trkpt>
      <trkpt lat="45.68766" lon="2.88506">
        <ele>956.8</ele>
        <time>2022-08-06T09:31:31Z</time>
      </trkpt>
      <trkpt lat="45.68767" lon="2.88506">
        <ele>956.8</ele>
        <time>2022-08-06T09:31:39Z</time>
      </trkpt>
      <trkpt lat="45.68765" lon="2.88505">
        <ele>956.9</ele>
        <time>2022-08-06T09:31:41Z</time>
      </trkpt>
      <trkpt lat="45.68762" lon="2.88504">
        <ele>956.9</ele>
        <time>2022-08-06T09:31:43Z</time>
      </trkpt>
      <trkpt lat="45.68758" lon="2.88503">
        <ele>957</ele>
        <time>2022-08-06T09:31:45Z</time>
      </trkpt>
      <trkpt lat="45.68754" lon="2.88501">
        <ele>957.1</ele>
        <time>2022-08-06T09:31:47Z</time>
      </trkpt>
      <trkpt lat="45.68749" lon="2.88496">
        <ele>957.2</ele>
        <time>2022-08-06T09:31:49Z</time>
      </trkpt>
      <trkpt lat="45.68744" lon="2.8849">
        <ele>957.4</ele>
        <time>2022-08-06T09:31:51Z</time>
      </trkpt>
      <trkpt lat="45.68735" lon="2.88485">
        <ele>957.6</ele>
        <time>2022-08-06T09:31:53Z</time>
      </trkpt>
      <trkpt lat="45.68727" lon="2.8848">
        <ele>957.8</ele>
        <time>2022-08-06T09:31:55Z</time>
      </trkpt>
      <trkpt lat="45.68719" lon="2.88474">
        <ele>958.1</ele>
        <time>2022-08-06T09:31:57Z</time>
      </trkpt>
      <trkpt lat="45.68713" lon="2.88469">
        <ele>958.4</ele>
        <time>2022-08-06T09:31:59Z</time>
      </trkpt>
      <trkpt lat="45.68706" lon="2.88463">
        <ele>958.7</ele>
        <time>2022-08-06T09:32:01Z</time>
      </trkpt>
      <trkpt lat="45.68697" lon="2.88458">
        <ele>959.3</ele>
        <time>2022-08-06T09:32:03Z</time>
      </trkpt>
      <trkpt lat="45.6869" lon="2.88456">
        <ele>959.7</ele>
        <time>2022-08-06T09:32:05Z</time>
      </trkpt>
      <trkpt lat="45.68683" lon="2.88453">
        <ele>960.2</ele>
        <time>2022-08-06T09:32:07Z</time>
      </trkpt>
      <trkpt lat="45.68677" lon="2.8845">
        <ele>960.6</ele>
        <time>2022-08-06T09:32:09Z</time>
      </trkpt>
      <trkpt lat="45.68672" lon="2.88447">
        <ele>961</ele>
        <time>2022-08-06T09:32:11Z</time>
      </trkpt>
      <trkpt lat="45.68665" lon="2.88444">
        <ele>961.5</ele>
        <time>2022-08-06T09:32:13Z</time>
      </trkpt>
      <trkpt lat="45.68658" lon="2.88441">
        <ele>962</ele>
        <time>2022-08-06T09:32:15Z</time>
      </trkpt>
      <trkpt lat="45.68653" lon="2.88439">
        <ele>962.4</ele>
        <time>2022-08-06T09:32:17Z</time>
      </trkpt>
      <trkpt lat="45.68647" lon="2.88435">
        <ele>962.8</ele>
        <time>2022-08-06T09:32:19Z</time>
      </trkpt>
      <trkpt lat="45.6864" lon="2.88432">
        <ele>963.3</ele>
        <time>2022-08-06T09:32:21Z</time>
      </trkpt>
      <trkpt lat="45.68634" lon="2.88429">
        <ele>963.7</ele>
        <time>2022-08-06T09:32:23Z</time>
      </trkpt>
      <trkpt lat="45.68627" lon="2.88427">
        <ele>964</ele>
        <time>2022-08-06T09:32:25Z</time>
      </trkpt>
      <trkpt lat="45.68619" lon="2.88425">
        <ele>964.3</ele>
        <time>2022-08-06T09:32:27Z</time>
      </trkpt>
      <trkpt lat="45.68611" lon="2.88426">
        <ele>964.7</ele>
        <time>2022-08-06T09:32:29Z</time>
      </trkpt>
      <trkpt lat="45.68603" lon="2.88427">
        <ele>965</ele>
        <time>2022-08-06T09:32:31Z</time>
      </trkpt>
      <trkpt lat="45.68595" lon="2.88426">
        <ele>965.2</ele>
        <time>2022-08-06T09:32:33Z</time>
      </trkpt>
      <trkpt lat="45.68585" lon="2.88426">
        <ele>965.5</ele>
        <time>2022-08-06T09:32:35Z</time>
      </trkpt>
      <trkpt lat="45.68577" lon="2.88426">
        <ele>965.8</ele>
        <time>2022-08-06T09:32:37Z</time>
      </trkpt>
      <trkpt lat="45.68569" lon="2.88424">
        <ele>966</ele>
        <time>2022-08-06T09:32:39Z</time>
      </trkpt>
      <trkpt lat="45.6856" lon="2.88422">
        <ele>966.3</ele>
        <time>2022-08-06T09:32:41Z</time>
      </trkpt>
      <trkpt lat="45.68551" lon="2.88421">
        <ele>966.5</ele>
        <time>2022-08-06T09:32:43Z</time>
      </trkpt>
      <trkpt lat="45.68543" lon="2.88419">
        <ele>966.7</ele>
        <time>2022-08-06T09:32:45Z</time>
      </trkpt>
      <trkpt lat="45.68534" lon="2.88418">
        <ele>966.9</ele>
        <time>2022-08-06T09:32:47Z</time>
      </trkpt>
      <trkpt lat="45.68524" lon="2.88419">
        <ele>967.1</ele>
        <time>2022-08-06T09:32:49Z</time>
      </trkpt>
      <trkpt lat="45.68515" lon="2.88421">
        <ele>967.4</ele>
        <time>2022-08-06T09:32:51Z</time>
      </trkpt>
      <trkpt lat="45.68505" lon="2.88422">
        <ele>967.7</ele>
        <time>2022-08-06T09:32:53Z</time>
      </trkpt>
      <trkpt lat="45.68495" lon="2.88422">
        <ele>968.1</ele>
        <time>2022-08-06T09:32:55Z</time>
      </trkpt>
      <trkpt lat="45.68485" lon="2.88421">
        <ele>968.4</ele>
        <time>2022-08-06T09:32:57Z</time>
      </trkpt>
      <trkpt lat="45.68476" lon="2.88419">
        <ele>968.8</ele>
        <time>2022-08-06T09:32:59Z</time>
      </trkpt>
      <trkpt lat="45.68466" lon="2.88415">
        <ele>969.1</ele>
        <time>2022-08-06T09:33:01Z</time>
      </trkpt>
      <trkpt lat="45.68457" lon="2.8841">
        <ele>969.5</ele>
        <time>2022-08-06T09:33:03Z</time>
      </trkpt>
      <trkpt lat="45.68448" lon="2.88407">
        <ele>969.8</ele>
        <time>2022-08-06T09:33:05Z</time>
      </trkpt>
      <trkpt lat="45.68439" lon="2.88405">
        <ele>970.1</ele>
        <time>2022-08-06T09:33:07Z</time>
      </trkpt>
      <trkpt lat="45.6843" lon="2.88404">
        <ele>970.3</ele>
        <time>2022-08-06T09:33:09Z</time>
      </trkpt>
      <trkpt lat="45.68421" lon="2.88405">
        <ele>970.6</ele>
        <time>2022-08-06T09:33:11Z</time>
      </trkpt>
      <trkpt lat="45.68412" lon="2.88406">
        <ele>970.8</ele>
        <time>2022-08-06T09:33:13Z</time>
      </trkpt>
      <trkpt lat="45.68403" lon="2.88408">
        <ele>971</ele>
        <time>2022-08-06T09:33:15Z</time>
      </trkpt>
      <trkpt lat="45.68393" lon="2.8841">
        <ele>971.3</ele>
        <time>2022-08-06T09:33:17Z</time>
      </trkpt>
      <trkpt lat="45.68384" lon="2.88412">
        <ele>971.5</ele>
        <time>2022-08-06T09:33:19Z</time>
      </trkpt>
      <trkpt lat="45.68374" lon="2.88413">
        <ele>971.8</ele>
        <time>2022-08-06T09:33:21Z</time>
      </trkpt>
      <trkpt lat="45.68364" lon="2.88414">
        <ele>972.1</ele>
        <time>2022-08-06T09:33:23Z</time>
      </trkpt>
      <trkpt lat="45.68355" lon="2.88416">
        <ele>972.3</ele>
        <time>2022-08-06T09:33:25Z</time>
      </trkpt>
      <trkpt lat="45.68347" lon="2.88417">
        <ele>972.6</ele>
        <time>2022-08-06T09:33:27Z</time>
      </trkpt>
      <trkpt lat="45.68338" lon="2.88418">
        <ele>972.9</ele>
        <time>2022-08-06T09:33:29Z</time>
      </trkpt>
      <trkpt lat="45.68328" lon="2.88419">
        <ele>973.2</ele>
        <time>2022-08-06T09:33:31Z</time>
      </trkpt>
      <trkpt lat="45.68319" lon="2.8842">
        <ele>973.5</ele>
        <time>2022-08-06T09:33:33Z</time>
      </trkpt>
      <trkpt lat="45.6831" lon="2.88421">
        <ele>973.9</ele>
        <time>2022-08-06T09:33:35Z</time>
      </trkpt>
      <trkpt lat="45.68301" lon="2.88421">
        <ele>974.1</ele>
        <time>2022-08-06T09:33:37Z</time>
      </trkpt>
      <trkpt lat="45.68292" lon="2.8842">
        <ele>974.4</ele>
        <time>2022-08-06T09:33:39Z</time>
      </trkpt>
      <trkpt lat="45.68283" lon="2.8842">
        <ele>974.7</ele>
        <time>2022-08-06T09:33:41Z</time>
      </trkpt>
      <trkpt lat="45.68274" lon="2.88419">
        <ele>975</ele>
        <time>2022-08-06T09:33:43Z</time>
      </trkpt>
      <trkpt lat="45.68265" lon="2.8842">
        <ele>975.3</ele>
        <time>2022-08-06T09:33:45Z</time>
      </trkpt>
      <trkpt lat="45.68256" lon="2.8842">
        <ele>975.6</ele>
        <time>2022-08-06T09:33:47Z</time>
      </trkpt>
      <trkpt lat="45.68247" lon="2.88421">
        <ele>975.9</ele>
        <time>2022-08-06T09:33:49Z</time>
      </trkpt>
      <trkpt lat="45.68238" lon="2.88423">
        <ele>976.2</ele>
        <time>2022-08-06T09:33:51Z</time>
      </trkpt>
      <trkpt lat="45.68229" lon="2.88425">
        <ele>976.5</ele>
        <time>2022-08-06T09:33:53Z</time>
      </trkpt>
      <trkpt lat="45.6822" lon="2.88427">
        <ele>976.8</ele>
        <time>2022-08-06T09:33:55Z</time>
      </trkpt>
      <trkpt lat="45.68211" lon="2.88431">
        <ele>977.1</ele>
        <time>2022-08-06T09:33:57Z</time>
      </trkpt>
      <trkpt lat="45.68202" lon="2.88433">
        <ele>977.4</ele>
        <time>2022-08-06T09:33:59Z</time>
      </trkpt>
      <trkpt lat="45.68194" lon="2.88438">
        <ele>977.7</ele>
        <time>2022-08-06T09:34:01Z</time>
      </trkpt>
      <trkpt lat="45.68186" lon="2.88441">
        <ele>978</ele>
        <time>2022-08-06T09:34:03Z</time>
      </trkpt>
      <trkpt lat="45.68179" lon="2.88445">
        <ele>978.4</ele>
        <time>2022-08-06T09:34:05Z</time>
      </trkpt>
      <trkpt lat="45.6817" lon="2.8845">
        <ele>978.8</ele>
        <time>2022-08-06T09:34:07Z</time>
      </trkpt>
      <trkpt lat="45.68163" lon="2.88455">
        <ele>979.3</ele>
        <time>2022-08-06T09:34:09Z</time>
      </trkpt>
      <trkpt lat="45.68155" lon="2.8846">
        <ele>979.8</ele>
        <time>2022-08-06T09:34:11Z</time>
      </trkpt>
      <trkpt lat="45.68148" lon="2.88465">
        <ele>980.2</ele>
        <time>2022-08-06T09:34:13Z</time>
      </trkpt>
      <trkpt lat="45.6814" lon="2.88468">
        <ele>980.7</ele>
        <time>2022-08-06T09:34:15Z</time>
      </trkpt>
      <trkpt lat="45.68133" lon="2.88472">
        <ele>981.2</ele>
        <time>2022-08-06T09:34:17Z</time>
      </trkpt>
      <trkpt lat="45.68126" lon="2.88476">
        <ele>981.7</ele>
        <time>2022-08-06T09:34:19Z</time>
      </trkpt>
      <trkpt lat="45.68118" lon="2.8848">
        <ele>982.1</ele>
        <time>2022-08-06T09:34:21Z</time>
      </trkpt>
      <trkpt lat="45.68112" lon="2.88485">
        <ele>982.6</ele>
        <time>2022-08-06T09:34:23Z</time>
      </trkpt>
      <trkpt lat="45.68105" lon="2.88491">
        <ele>983</ele>
        <time>2022-08-06T09:34:25Z</time>
      </trkpt>
      <trkpt lat="45.68099" lon="2.88497">
        <ele>983.4</ele>
        <time>2022-08-06T09:34:27Z</time>
      </trkpt>
      <trkpt lat="45.68093" lon="2.88503">
        <ele>983.7</ele>
        <time>2022-08-06T09:34:29Z</time>
      </trkpt>
      <trkpt lat="45.68086" lon="2.88511">
        <ele>984.2</ele>
        <time>2022-08-06T09:34:31Z</time>
      </trkpt>
      <trkpt lat="45.68079" lon="2.88517">
        <ele>984.6</ele>
        <time>2022-08-06T09:34:33Z</time>
      </trkpt>
      <trkpt lat="45.68073" lon="2.88524">
        <ele>985</ele>
        <time>2022-08-06T09:34:35Z</time>
      </trkpt>
      <trkpt lat="45.68067" lon="2.88531">
        <ele>985.4</ele>
        <time>2022-08-06T09:34:37Z</time>
      </trkpt>
      <trkpt lat="45.68061" lon="2.8854">
        <ele>985.8</ele>
        <time>2022-08-06T09:34:39Z</time>
      </trkpt>
      <trkpt lat="45.68056" lon="2.88548">
        <ele>986.2</ele>
        <time>2022-08-06T09:34:41Z</time>
      </trkpt>
      <trkpt lat="45.68051" lon="2.88555">
        <ele>986.5</ele>
        <time>2022-08-06T09:34:43Z</time>
      </trkpt>
      <trkpt lat="45.68045" lon="2.88564">
        <ele>986.9</ele>
        <time>2022-08-06T09:34:45Z</time>
      </trkpt>
      <trkpt lat="45.68041" lon="2.88573">
        <ele>987.3</ele>
        <time>2022-08-06T09:34:47Z</time>
      </trkpt>
      <trkpt lat="45.68036" lon="2.88582">
        <ele>987.8</ele>
        <time>2022-08-06T09:34:49Z</time>
      </trkpt>
      <trkpt lat="45.6803" lon="2.88591">
        <ele>988.2</ele>
        <time>2022-08-06T09:34:51Z</time>
      </trkpt>
      <trkpt lat="45.68024" lon="2.88601">
        <ele>988.8</ele>
        <time>2022-08-06T09:34:53Z</time>
      </trkpt>
      <trkpt lat="45.68019" lon="2.8861">
        <ele>989.3</ele>
        <time>2022-08-06T09:34:55Z</time>
      </trkpt>
      <trkpt lat="45.68015" lon="2.88617">
        <ele>989.7</ele>
        <time>2022-08-06T09:34:57Z</time>
      </trkpt>
      <trkpt lat="45.6801" lon="2.88624">
        <ele>990.1</ele>
        <time>2022-08-06T09:34:59Z</time>
      </trkpt>
      <trkpt lat="45.68004" lon="2.88632">
        <ele>990.6</ele>
        <time>2022-08-06T09:35:01Z</time>
      </trkpt>
      <trkpt lat="45.67999" lon="2.88641">
        <ele>991.1</ele>
        <time>2022-08-06T09:35:03Z</time>
      </trkpt>
      <trkpt lat="45.67993" lon="2.88648">
        <ele>991.5</ele>
        <time>2022-08-06T09:35:05Z</time>
      </trkpt>
      <trkpt lat="45.67987" lon="2.88655">
        <ele>991.9</ele>
        <time>2022-08-06T09:35:07Z</time>
      </trkpt>
      <trkpt lat="45.6798" lon="2.88661">
        <ele>992.3</ele>
        <time>2022-08-06T09:35:09Z</time>
      </trkpt>
      <trkpt lat="45.67973" lon="2.88666">
        <ele>992.6</ele>
        <time>2022-08-06T09:35:11Z</time>
      </trkpt>
      <trkpt lat="45.67966" lon="2.88669">
        <ele>993</ele>
        <time>2022-08-06T09:35:13Z</time>
      </trkpt>
      <trkpt lat="45.67958" lon="2.88674">
        <ele>993.3</ele>
        <time>2022-08-06T09:35:15Z</time>
      </trkpt>
      <trkpt lat="45.67951" lon="2.88678">
        <ele>993.5</ele>
        <time>2022-08-06T09:35:17Z</time>
      </trkpt>
      <trkpt lat="45.67943" lon="2.88681">
        <ele>993.8</ele>
        <time>2022-08-06T09:35:19Z</time>
      </trkpt>
      <trkpt lat="45.67934" lon="2.88684">
        <ele>994.1</ele>
        <time>2022-08-06T09:35:21Z</time>
      </trkpt>
      <trkpt lat="45.67926" lon="2.88683">
        <ele>994.4</ele>
        <time>2022-08-06T09:35:23Z</time>
      </trkpt>
      <trkpt lat="45.67917" lon="2.88683">
        <ele>994.6</ele>
        <time>2022-08-06T09:35:25Z</time>
      </trkpt>
      <trkpt lat="45.67908" lon="2.88683">
        <ele>994.9</ele>
        <time>2022-08-06T09:35:27Z</time>
      </trkpt>
      <trkpt lat="45.67899" lon="2.88684">
        <ele>995.1</ele>
        <time>2022-08-06T09:35:29Z</time>
      </trkpt>
      <trkpt lat="45.6789" lon="2.88683">
        <ele>995.4</ele>
        <time>2022-08-06T09:35:31Z</time>
      </trkpt>
      <trkpt lat="45.67882" lon="2.88681">
        <ele>995.6</ele>
        <time>2022-08-06T09:35:33Z</time>
      </trkpt>
      <trkpt lat="45.67873" lon="2.88679">
        <ele>995.9</ele>
        <time>2022-08-06T09:35:35Z</time>
      </trkpt>
      <trkpt lat="45.67863" lon="2.88679">
        <ele>996.2</ele>
        <time>2022-08-06T09:35:37Z</time>
      </trkpt>
      <trkpt lat="45.67854" lon="2.88677">
        <ele>996.5</ele>
        <time>2022-08-06T09:35:39Z</time>
      </trkpt>
      <trkpt lat="45.67845" lon="2.88676">
        <ele>996.7</ele>
        <time>2022-08-06T09:35:41Z</time>
      </trkpt>
      <trkpt lat="45.67836" lon="2.88674">
        <ele>997</ele>
        <time>2022-08-06T09:35:43Z</time>
      </trkpt>
      <trkpt lat="45.67826" lon="2.88673">
        <ele>997.2</ele>
        <time>2022-08-06T09:35:45Z</time>
      </trkpt>
      <trkpt lat="45.67817" lon="2.88673">
        <ele>997.5</ele>
        <time>2022-08-06T09:35:47Z</time>
      </trkpt>
      <trkpt lat="45.67808" lon="2.88676">
        <ele>997.8</ele>
        <time>2022-08-06T09:35:49Z</time>
      </trkpt>
      <trkpt lat="45.67798" lon="2.8868">
        <ele>998.1</ele>
        <time>2022-08-06T09:35:51Z</time>
      </trkpt>
      <trkpt lat="45.6779" lon="2.88686">
        <ele>998.3</ele>
        <time>2022-08-06T09:35:53Z</time>
      </trkpt>
      <trkpt lat="45.67781" lon="2.88692">
        <ele>998.5</ele>
        <time>2022-08-06T09:35:55Z</time>
      </trkpt>
      <trkpt lat="45.67773" lon="2.88698">
        <ele>998.7</ele>
        <time>2022-08-06T09:35:57Z</time>
      </trkpt>
      <trkpt lat="45.67766" lon="2.88706">
        <ele>999</ele>
        <time>2022-08-06T09:35:59Z</time>
      </trkpt>
      <trkpt lat="45.67758" lon="2.88712">
        <ele>999.3</ele>
        <time>2022-08-06T09:36:01Z</time>
      </trkpt>
      <trkpt lat="45.67749" lon="2.88718">
        <ele>999.5</ele>
        <time>2022-08-06T09:36:03Z</time>
      </trkpt>
      <trkpt lat="45.6774" lon="2.88722">
        <ele>999.8</ele>
        <time>2022-08-06T09:36:05Z</time>
      </trkpt>
      <trkpt lat="45.6773" lon="2.88727">
        <ele>1000.1</ele>
        <time>2022-08-06T09:36:07Z</time>
      </trkpt>
      <trkpt lat="45.67721" lon="2.88732">
        <ele>1000.4</ele>
        <time>2022-08-06T09:36:09Z</time>
      </trkpt>
      <trkpt lat="45.67712" lon="2.88734">
        <ele>1000.8</ele>
        <time>2022-08-06T09:36:11Z</time>
      </trkpt>
      <trkpt lat="45.67702" lon="2.88735">
        <ele>1001.2</ele>
        <time>2022-08-06T09:36:13Z</time>
      </trkpt>
      <trkpt lat="45.67693" lon="2.88737">
        <ele>1001.6</ele>
        <time>2022-08-06T09:36:15Z</time>
      </trkpt>
      <trkpt lat="45.67683" lon="2.88739">
        <ele>1002.1</ele>
        <time>2022-08-06T09:36:17Z</time>
      </trkpt>
      <trkpt lat="45.67674" lon="2.88741">
        <ele>1002.5</ele>
        <time>2022-08-06T09:36:19Z</time>
      </trkpt>
      <trkpt lat="45.67666" lon="2.88742">
        <ele>1003</ele>
        <time>2022-08-06T09:36:21Z</time>
      </trkpt>
      <trkpt lat="45.67657" lon="2.88742">
        <ele>1003.4</ele>
        <time>2022-08-06T09:36:23Z</time>
      </trkpt>
      <trkpt lat="45.67649" lon="2.88742">
        <ele>1003.9</ele>
        <time>2022-08-06T09:36:25Z</time>
      </trkpt>
      <trkpt lat="45.67641" lon="2.88742">
        <ele>1004.3</ele>
        <time>2022-08-06T09:36:27Z</time>
      </trkpt>
      <trkpt lat="45.67634" lon="2.88741">
        <ele>1004.7</ele>
        <time>2022-08-06T09:36:29Z</time>
      </trkpt>
      <trkpt lat="45.67626" lon="2.8874">
        <ele>1005.2</ele>
        <time>2022-08-06T09:36:31Z</time>
      </trkpt>
      <trkpt lat="45.67618" lon="2.88739">
        <ele>1005.6</ele>
        <time>2022-08-06T09:36:33Z</time>
      </trkpt>
      <trkpt lat="45.67611" lon="2.88739">
        <ele>1006.1</ele>
        <time>2022-08-06T09:36:35Z</time>
      </trkpt>
      <trkpt lat="45.67604" lon="2.88738">
        <ele>1006.5</ele>
        <time>2022-08-06T09:36:37Z</time>
      </trkpt>
      <trkpt lat="45.67597" lon="2.88737">
        <ele>1006.9</ele>
        <time>2022-08-06T09:36:39Z</time>
      </trkpt>
      <trkpt lat="45.67589" lon="2.88738">
        <ele>1007.2</ele>
        <time>2022-08-06T09:36:41Z</time>
      </trkpt>
      <trkpt lat="45.67583" lon="2.88739">
        <ele>1007.6</ele>
        <time>2022-08-06T09:36:43Z</time>
      </trkpt>
      <trkpt lat="45.67578" lon="2.88742">
        <ele>1007.9</ele>
        <time>2022-08-06T09:36:45Z</time>
      </trkpt>
      <trkpt lat="45.67574" lon="2.88746">
        <ele>1008.1</ele>
        <time>2022-08-06T09:36:47Z</time>
      </trkpt>
      <trkpt lat="45.67573" lon="2.88748">
        <ele>1008.2</ele>
        <time>2022-08-06T09:36:49Z</time>
      </trkpt>
      <trkpt lat="45.67574" lon="2.88749">
        <ele>1008.2</ele>
        <time>2022-08-06T09:36:51Z</time>
      </trkpt>
      <trkpt lat="45.67574" lon="2.88749">
        <ele>1008.2</ele>
        <time>2022-08-06T09:36:53Z</time>
      </trkpt>
      <trkpt lat="45.6675" lon="2.88645">
        <ele>1048.7</ele>
        <time>2022-08-06T09:44:17Z</time>
      </trkpt>
      <trkpt lat="45.66744" lon="2.88651">
        <ele>1048.8</ele>
        <time>2022-08-06T09:44:19Z</time>
      </trkpt>
      <trkpt lat="45.66738" lon="2.88659">
        <ele>1049</ele>
        <time>2022-08-06T09:44:21Z</time>
      </trkpt>
      <trkpt lat="45.66729" lon="2.88664">
        <ele>1049.2</ele>
        <time>2022-08-06T09:44:23Z</time>
      </trkpt>
      <trkpt lat="45.66721" lon="2.88665">
        <ele>1049.5</ele>
        <time>2022-08-06T09:44:25Z</time>
      </trkpt>
      <trkpt lat="45.66713" lon="2.88664">
        <ele>1049.8</ele>
        <time>2022-08-06T09:44:27Z</time>
      </trkpt>
      <trkpt lat="45.66704" lon="2.88658">
        <ele>1050</ele>
        <time>2022-08-06T09:44:29Z</time>
      </trkpt>
      <trkpt lat="45.66697" lon="2.88653">
        <ele>1050.3</ele>
        <time>2022-08-06T09:44:31Z</time>
      </trkpt>
      <trkpt lat="45.66689" lon="2.8865">
        <ele>1050.5</ele>
        <time>2022-08-06T09:44:33Z</time>
      </trkpt>
      <trkpt lat="45.66681" lon="2.88645">
        <ele>1050.8</ele>
        <time>2022-08-06T09:44:35Z</time>
      </trkpt>
      <trkpt lat="45.66673" lon="2.88641">
        <ele>1051.1</ele>
        <time>2022-08-06T09:44:37Z</time>
      </trkpt>
      <trkpt lat="45.66665" lon="2.88637">
        <ele>1051.5</ele>
        <time>2022-08-06T09:44:39Z</time>
      </trkpt>
      <trkpt lat="45.66657" lon="2.88632">
        <ele>1051.9</ele>
        <time>2022-08-06T09:44:41Z</time>
      </trkpt>
      <trkpt lat="45.66649" lon="2.88628">
        <ele>1052.3</ele>
        <time>2022-08-06T09:44:43Z</time>
      </trkpt>
      <trkpt lat="45.6664" lon="2.88623">
        <ele>1052.7</ele>
        <time>2022-08-06T09:44:45Z</time>
      </trkpt>
      <trkpt lat="45.6663" lon="2.88619">
        <ele>1053.2</ele>
        <time>2022-08-06T09:44:47Z</time>
      </trkpt>
      <trkpt lat="45.66622" lon="2.88614">
        <ele>1053.7</ele>
        <time>2022-08-06T09:44:49Z</time>
      </trkpt>
      <trkpt lat="45.66613" lon="2.8861">
        <ele>1054.2</ele>
        <time>2022-08-06T09:44:51Z</time>
      </trkpt>
      <trkpt lat="45.66605" lon="2.88606">
        <ele>1054.6</ele>
        <time>2022-08-06T09:44:53Z</time>
      </trkpt>
      <trkpt lat="45.66597" lon="2.88601">
        <ele>1055.1</ele>
        <time>2022-08-06T09:44:55Z</time>
      </trkpt>
      <trkpt lat="45.66588" lon="2.88596">
        <ele>1055.6</ele>
        <time>2022-08-06T09:44:57Z</time>
      </trkpt>
      <trkpt lat="45.66579" lon="2.88592">
        <ele>1056.1</ele>
        <time>2022-08-06T09:44:59Z</time>
      </trkpt>
      <trkpt lat="45.66571" lon="2.88588">
        <ele>1056.6</ele>
        <time>2022-08-06T09:45:01Z</time>
      </trkpt>
      <trkpt lat="45.66563" lon="2.88585">
        <ele>1057</ele>
        <time>2022-08-06T09:45:03Z</time>
      </trkpt>
      <trkpt lat="45.66555" lon="2.88583">
        <ele>1057.6</ele>
        <time>2022-08-06T09:45:05Z</time>
      </trkpt>
      <trkpt lat="45.66545" lon="2.88582">
        <ele>1058.1</ele>
        <time>2022-08-06T09:45:07Z</time>
      </trkpt>
      <trkpt lat="45.66537" lon="2.88581">
        <ele>1058.6</ele>
        <time>2022-08-06T09:45:09Z</time>
      </trkpt>
      <trkpt lat="45.66528" lon="2.88581">
        <ele>1059.1</ele>
        <time>2022-08-06T09:45:11Z</time>
      </trkpt>
      <trkpt lat="45.66519" lon="2.88581">
        <ele>1059.6</ele>
        <time>2022-08-06T09:45:13Z</time>
      </trkpt>
      <trkpt lat="45.6651" lon="2.88581">
        <ele>1060</ele>
        <time>2022-08-06T09:45:15Z</time>
      </trkpt>
      <trkpt lat="45.66501" lon="2.88581">
        <ele>1060.5</ele>
        <time>2022-08-06T09:45:17Z</time>
      </trkpt>
      <trkpt lat="45.66493" lon="2.88579">
        <ele>1061</ele>
        <time>2022-08-06T09:45:19Z</time>
      </trkpt>
      <trkpt lat="45.66484" lon="2.88576">
        <ele>1061.5</ele>
        <time>2022-08-06T09:45:21Z</time>
      </trkpt>
      <trkpt lat="45.66476" lon="2.88574">
        <ele>1062</ele>
        <time>2022-08-06T09:45:23Z</time>
      </trkpt>
      <trkpt lat="45.66468" lon="2.88571">
        <ele>1062.5</ele>
        <time>2022-08-06T09:45:25Z</time>
      </trkpt>
      <trkpt lat="45.6646" lon="2.88569">
        <ele>1063</ele>
        <time>2022-08-06T09:45:27Z</time>
      </trkpt>
      <trkpt lat="45.66452" lon="2.88567">
        <ele>1063.5</ele>
        <time>2022-08-06T09:45:29Z</time>
      </trkpt>
      <trkpt lat="45.66444" lon="2.88563">
        <ele>1064</ele>
        <time>2022-08-06T09:45:31Z</time>
      </trkpt>
      <trkpt lat="45.66435" lon="2.88562">
        <ele>1064.5</ele>
        <time>2022-08-06T09:45:33Z</time>
      </trkpt>
      <trkpt lat="45.66426" lon="2.88559">
        <ele>1065</ele>
        <time>2022-08-06T09:45:35Z</time>
      </trkpt>
      <trkpt lat="45.66417" lon="2.88556">
        <ele>1065.4</ele>
        <time>2022-08-06T09:45:37Z</time>
      </trkpt>
      <trkpt lat="45.66409" lon="2.88554">
        <ele>1065.8</ele>
        <time>2022-08-06T09:45:39Z</time>
      </trkpt>
      <trkpt lat="45.664" lon="2.88552">
        <ele>1066.1</ele>
        <time>2022-08-06T09:45:41Z</time>
      </trkpt>
      <trkpt lat="45.66392" lon="2.88548">
        <ele>1066.3</ele>
        <time>2022-08-06T09:45:43Z</time>
      </trkpt>
      <trkpt lat="45.66384" lon="2.88543">
        <ele>1066.6</ele>
        <time>2022-08-06T09:45:45Z</time>
      </trkpt>
      <trkpt lat="45.66375" lon="2.88539">
        <ele>1066.8</ele>
        <time>2022-08-06T09:45:47Z</time>
      </trkpt>
      <trkpt lat="45.66366" lon="2.88535">
        <ele>1067</ele>
        <time>2022-08-06T09:45:49Z</time>
      </trkpt>
      <trkpt lat="45.66357" lon="2.8853">
        <ele>1067.2</ele>
        <time>2022-08-06T09:45:51Z</time>
      </trkpt>
      <trkpt lat="45.66348" lon="2.88525">
        <ele>1067.3</ele>
        <time>2022-08-06T09:45:53Z</time>
      </trkpt>
      <trkpt lat="45.66338" lon="2.88519">
        <ele>1067.3</ele>
        <time>2022-08-06T09:45:55Z</time>
      </trkpt>
      <trkpt lat="45.66327" lon="2.88514">
        <ele>1067.4</ele>
        <time>2022-08-06T09:45:57Z</time>
      </trkpt>
      <trkpt lat="45.66316" lon="2.88506">
        <ele>1067.4</ele>
        <time>2022-08-06T09:45:59Z</time>
      </trkpt>
      <trkpt lat="45.66305" lon="2.885">
        <ele>1067.4</ele>
        <time>2022-08-06T09:46:01Z</time>
      </trkpt>
      <trkpt lat="45.66294" lon="2.88494">
        <ele>1067.5</ele>
        <time>2022-08-06T09:46:03Z</time>
      </trkpt>
      <trkpt lat="45.66282" lon="2.88487">
        <ele>1067.5</ele>
        <time>2022-08-06T09:46:05Z</time>
      </trkpt>
      <trkpt lat="45.66271" lon="2.88481">
        <ele>1067.6</ele>
        <time>2022-08-06T09:46:07Z</time>
      </trkpt>
      <trkpt lat="45.6626" lon="2.88474">
        <ele>1067.6</ele>
        <time>2022-08-06T09:46:09Z</time>
      </trkpt>
      <trkpt lat="45.66248" lon="2.88467">
        <ele>1067.6</ele>
        <time>2022-08-06T09:46:11Z</time>
      </trkpt>
      <trkpt lat="45.66237" lon="2.8846">
        <ele>1067.6</ele>
        <time>2022-08-06T09:46:13Z</time>
      </trkpt>
      <trkpt lat="45.66225" lon="2.88454">
        <ele>1067.5</ele>
        <time>2022-08-06T09:46:15Z</time>
      </trkpt>
      <trkpt lat="45.66212" lon="2.88447">
        <ele>1067.3</ele>
        <time>2022-08-06T09:46:17Z</time>
      </trkpt>
      <trkpt lat="45.662" lon="2.88439">
        <ele>1067.1</ele>
        <time>2022-08-06T09:46:19Z</time>
      </trkpt>
      <trkpt lat="45.66188" lon="2.8843">
        <ele>1066.9</ele>
        <time>2022-08-06T09:46:21Z</time>
      </trkpt>
      <trkpt lat="45.66174" lon="2.88423">
        <ele>1066.6</ele>
        <time>2022-08-06T09:46:23Z</time>
      </trkpt>
      <trkpt lat="45.6616" lon="2.88415">
        <ele>1066.3</ele>
        <time>2022-08-06T09:46:25Z</time>
      </trkpt>
      <trkpt lat="45.66147" lon="2.88406">
        <ele>1066</ele>
        <time>2022-08-06T09:46:27Z</time>
      </trkpt>
      <trkpt lat="45.66133" lon="2.88397">
        <ele>1065.6</ele>
        <time>2022-08-06T09:46:29Z</time>
      </trkpt>
      <trkpt lat="45.66119" lon="2.88388">
        <ele>1065.2</ele>
        <time>2022-08-06T09:46:31Z</time>
      </trkpt>
      <trkpt lat="45.66104" lon="2.88378">
        <ele>1064.9</ele>
        <time>2022-08-06T09:46:33Z</time>
      </trkpt>
      <trkpt lat="45.66089" lon="2.88368">
        <ele>1064.5</ele>
        <time>2022-08-06T09:46:35Z</time>
      </trkpt>
      <trkpt lat="45.66074" lon="2.88358">
        <ele>1064.3</ele>
        <time>2022-08-06T09:46:37Z</time>
      </trkpt>
      <trkpt lat="45.66059" lon="2.88349">
        <ele>1064.1</ele>
        <time>2022-08-06T09:46:39Z</time>
      </trkpt>
      <trkpt lat="45.66045" lon="2.8834">
        <ele>1063.9</ele>
        <time>2022-08-06T09:46:41Z</time>
      </trkpt>
      <trkpt lat="45.66031" lon="2.88333">
        <ele>1063.9</ele>
        <time>2022-08-06T09:46:43Z</time>
      </trkpt>
      <trkpt lat="45.66016" lon="2.8833">
        <ele>1063.9</ele>
        <time>2022-08-06T09:46:45Z</time>
      </trkpt>
      <trkpt lat="45.66002" lon="2.8833">
        <ele>1063.9</ele>
        <time>2022-08-06T09:46:47Z</time>
      </trkpt>
      <trkpt lat="45.65988" lon="2.88333">
        <ele>1064</ele>
        <time>2022-08-06T09:46:49Z</time>
      </trkpt>
      <trkpt lat="45.65974" lon="2.88335">
        <ele>1064.2</ele>
        <time>2022-08-06T09:46:51Z</time>
      </trkpt>
      <trkpt lat="45.6596" lon="2.88338">
        <ele>1064.4</ele>
        <time>2022-08-06T09:46:53Z</time>
      </trkpt>
      <trkpt lat="45.65947" lon="2.88339">
        <ele>1064.6</ele>
        <time>2022-08-06T09:46:55Z</time>
      </trkpt>
      <trkpt lat="45.65935" lon="2.8834">
        <ele>1064.8</ele>
        <time>2022-08-06T09:46:57Z</time>
      </trkpt>
      <trkpt lat="45.65921" lon="2.88342">
        <ele>1065</ele>
        <time>2022-08-06T09:46:59Z</time>
      </trkpt>
      <trkpt lat="45.65909" lon="2.88345">
        <ele>1065.1</ele>
        <time>2022-08-06T09:47:01Z</time>
      </trkpt>
      <trkpt lat="45.65897" lon="2.88346">
        <ele>1065.3</ele>
        <time>2022-08-06T09:47:03Z</time>
      </trkpt>
      <trkpt lat="45.65884" lon="2.88348">
        <ele>1065.6</ele>
        <time>2022-08-06T09:47:05Z</time>
      </trkpt>
      <trkpt lat="45.65871" lon="2.8835">
        <ele>1065.9</ele>
        <time>2022-08-06T09:47:07Z</time>
      </trkpt>
      <trkpt lat="45.65858" lon="2.88352">
        <ele>1066.1</ele>
        <time>2022-08-06T09:47:09Z</time>
      </trkpt>
      <trkpt lat="45.65846" lon="2.88353">
        <ele>1066.4</ele>
        <time>2022-08-06T09:47:11Z</time>
      </trkpt>
      <trkpt lat="45.65834" lon="2.88354">
        <ele>1066.6</ele>
        <time>2022-08-06T09:47:13Z</time>
      </trkpt>
      <trkpt lat="45.65822" lon="2.88356">
        <ele>1066.9</ele>
        <time>2022-08-06T09:47:15Z</time>
      </trkpt>
      <trkpt lat="45.65809" lon="2.88359">
        <ele>1067.2</ele>
        <time>2022-08-06T09:47:17Z</time>
      </trkpt>
      <trkpt lat="45.65797" lon="2.88361">
        <ele>1067.5</ele>
        <time>2022-08-06T09:47:19Z</time>
      </trkpt>
      <trkpt lat="45.65785" lon="2.88363">
        <ele>1067.8</ele>
        <time>2022-08-06T09:47:21Z</time>
      </trkpt>
      <trkpt lat="45.65773" lon="2.88366">
        <ele>1068</ele>
        <time>2022-08-06T09:47:23Z</time>
      </trkpt>
      <trkpt lat="45.6576" lon="2.8837">
        <ele>1068.2</ele>
        <time>2022-08-06T09:47:25Z</time>
      </trkpt>
      <trkpt lat="45.65748" lon="2.88374">
        <ele>1068.4</ele>
        <time>2022-08-06T09:47:27Z</time>
      </trkpt>
      <trkpt lat="45.65737" lon="2.88381">
        <ele>1068.6</ele>
        <time>2022-08-06T09:47:29Z</time>
      </trkpt>
      <trkpt lat="45.65725" lon="2.88388">
        <ele>1068.8</ele>
        <time>2022-08-06T09:47:31Z</time>
      </trkpt>
      <trkpt lat="45.65715" lon="2.88397">
        <ele>1069</ele>
        <time>2022-08-06T09:47:33Z</time>
      </trkpt>
      <trkpt lat="45.65704" lon="2.88405">
        <ele>1069.2</ele>
        <time>2022-08-06T09:47:35Z</time>
      </trkpt>
      <trkpt lat="45.65694" lon="2.88413">
        <ele>1069.3</ele>
        <time>2022-08-06T09:47:37Z</time>
      </trkpt>
      <trkpt lat="45.65682" lon="2.88421">
        <ele>1069.5</ele>
        <time>2022-08-06T09:47:39Z</time>
      </trkpt>
      <trkpt lat="45.65671" lon="2.8843">
        <ele>1069.6</ele>
        <time>2022-08-06T09:47:41Z</time>
      </trkpt>
      <trkpt lat="45.6566" lon="2.88439">
        <ele>1069.7</ele>
        <time>2022-08-06T09:47:43Z</time>
      </trkpt>
      <trkpt lat="45.6565" lon="2.88448">
        <ele>1069.8</ele>
        <time>2022-08-06T09:47:45Z</time>
      </trkpt>
      <trkpt lat="45.65639" lon="2.88456">
        <ele>1069.9</ele>
        <time>2022-08-06T09:47:47Z</time>
      </trkpt>
      <trkpt lat="45.65628" lon="2.88463">
        <ele>1070</ele>
        <time>2022-08-06T09:47:49Z</time>
      </trkpt>
      <trkpt lat="45.65616" lon="2.88471">
        <ele>1069.9</ele>
        <time>2022-08-06T09:47:51Z</time>
      </trkpt>
      <trkpt lat="45.65604" lon="2.88478">
        <ele>1069.8</ele>
        <time>2022-08-06T09:47:53Z</time>
      </trkpt>
      <trkpt lat="45.65592" lon="2.88485">
        <ele>1069.6</ele>
        <time>2022-08-06T09:47:55Z</time>
      </trkpt>
      <trkpt lat="45.65578" lon="2.88487">
        <ele>1069.4</ele>
        <time>2022-08-06T09:47:57Z</time>
      </trkpt>
      <trkpt lat="45.65564" lon="2.88484">
        <ele>1069.1</ele>
        <time>2022-08-06T09:47:59Z</time>
      </trkpt>
      <trkpt lat="45.6555" lon="2.8848">
        <ele>1068.9</ele>
        <time>2022-08-06T09:48:01Z</time>
      </trkpt>
      <trkpt lat="45.65536" lon="2.88475">
        <ele>1068.7</ele>
        <time>2022-08-06T09:48:03Z</time>
      </trkpt>
      <trkpt lat="45.65521" lon="2.88469">
        <ele>1068.6</ele>
        <time>2022-08-06T09:48:05Z</time>
      </trkpt>
      <trkpt lat="45.65505" lon="2.88463">
        <ele>1068.4</ele>
        <time>2022-08-06T09:48:07Z</time>
      </trkpt>
      <trkpt lat="45.6549" lon="2.88461">
        <ele>1068.4</ele>
        <time>2022-08-06T09:48:09Z</time>
      </trkpt>
      <trkpt lat="45.65475" lon="2.88462">
        <ele>1068.5</ele>
        <time>2022-08-06T09:48:11Z</time>
      </trkpt>
      <trkpt lat="45.6546" lon="2.88468">
        <ele>1068.8</ele>
        <time>2022-08-06T09:48:13Z</time>
      </trkpt>
      <trkpt lat="45.65449" lon="2.88476">
        <ele>1069.2</ele>
        <time>2022-08-06T09:48:15Z</time>
      </trkpt>
      <trkpt lat="45.65439" lon="2.88485">
        <ele>1069.6</ele>
        <time>2022-08-06T09:48:17Z</time>
      </trkpt>
      <trkpt lat="45.65431" lon="2.88493">
        <ele>1070</ele>
        <time>2022-08-06T09:48:19Z</time>
      </trkpt>
      <trkpt lat="45.65422" lon="2.88502">
        <ele>1070.4</ele>
        <time>2022-08-06T09:48:21Z</time>
      </trkpt>
      <trkpt lat="45.65414" lon="2.88509">
        <ele>1070.8</ele>
        <time>2022-08-06T09:48:23Z</time>
      </trkpt>
      <trkpt lat="45.65406" lon="2.88514">
        <ele>1071.3</ele>
        <time>2022-08-06T09:48:25Z</time>
      </trkpt>
      <trkpt lat="45.654" lon="2.88518">
        <ele>1071.7</ele>
        <time>2022-08-06T09:48:27Z</time>
      </trkpt>
      <trkpt lat="45.65395" lon="2.8852">
        <ele>1072.1</ele>
        <time>2022-08-06T09:48:29Z</time>
      </trkpt>
      <trkpt lat="45.65388" lon="2.88522">
        <ele>1072.5</ele>
        <time>2022-08-06T09:48:31Z</time>
      </trkpt>
      <trkpt lat="45.65382" lon="2.88524">
        <ele>1072.9</ele>
        <time>2022-08-06T09:48:33Z</time>
      </trkpt>
      <trkpt lat="45.65374" lon="2.88526">
        <ele>1073.3</ele>
        <time>2022-08-06T09:48:35Z</time>
      </trkpt>
      <trkpt lat="45.65367" lon="2.88529">
        <ele>1073.8</ele>
        <time>2022-08-06T09:48:37Z</time>
      </trkpt>
      <trkpt lat="45.65359" lon="2.88531">
        <ele>1074.2</ele>
        <time>2022-08-06T09:48:39Z</time>
      </trkpt>
      <trkpt lat="45.65352" lon="2.88532">
        <ele>1074.6</ele>
        <time>2022-08-06T09:48:41Z</time>
      </trkpt>
      <trkpt lat="45.65346" lon="2.88534">
        <ele>1075</ele>
        <time>2022-08-06T09:48:43Z</time>
      </trkpt>
      <trkpt lat="45.65339" lon="2.88535">
        <ele>1075.4</ele>
        <time>2022-08-06T09:48:45Z</time>
      </trkpt>
      <trkpt lat="45.65332" lon="2.88536">
        <ele>1075.8</ele>
        <time>2022-08-06T09:48:47Z</time>
      </trkpt>
      <trkpt lat="45.65324" lon="2.88536">
        <ele>1076.1</ele>
        <time>2022-08-06T09:48:49Z</time>
      </trkpt>
      <trkpt lat="45.65316" lon="2.88536">
        <ele>1076.5</ele>
        <time>2022-08-06T09:48:51Z</time>
      </trkpt>
      <trkpt lat="45.65309" lon="2.88536">
        <ele>1076.8</ele>
        <time>2022-08-06T09:48:53Z</time>
      </trkpt>
      <trkpt lat="45.65301" lon="2.88537">
        <ele>1077.2</ele>
        <time>2022-08-06T09:48:55Z</time>
      </trkpt>
      <trkpt lat="45.65293" lon="2.88536">
        <ele>1077.4</ele>
        <time>2022-08-06T09:48:57Z</time>
      </trkpt>
      <trkpt lat="45.65285" lon="2.88535">
        <ele>1077.7</ele>
        <time>2022-08-06T09:48:59Z</time>
      </trkpt>
      <trkpt lat="45.65277" lon="2.88534">
        <ele>1078</ele>
        <time>2022-08-06T09:49:01Z</time>
      </trkpt>
      <trkpt lat="45.65269" lon="2.88533">
        <ele>1078.2</ele>
        <time>2022-08-06T09:49:03Z</time>
      </trkpt>
      <trkpt lat="45.6526" lon="2.88533">
        <ele>1078.5</ele>
        <time>2022-08-06T09:49:05Z</time>
      </trkpt>
      <trkpt lat="45.65252" lon="2.88532">
        <ele>1078.7</ele>
        <time>2022-08-06T09:49:07Z</time>
      </trkpt>
      <trkpt lat="45.65243" lon="2.88534">
        <ele>1079</ele>
        <time>2022-08-06T09:49:09Z</time>
      </trkpt>
      <trkpt lat="45.65235" lon="2.88539">
        <ele>1079.2</ele>
        <time>2022-08-06T09:49:11Z</time>
      </trkpt>
      <trkpt lat="45.65227" lon="2.88545">
        <ele>1079.5</ele>
        <time>2022-08-06T09:49:13Z</time>
      </trkpt>
      <trkpt lat="45.65219" lon="2.88552">
        <ele>1079.8</ele>
        <time>2022-08-06T09:49:15Z</time>
      </trkpt>
      <trkpt lat="45.65212" lon="2.88557">
        <ele>1080.1</ele>
        <time>2022-08-06T09:49:17Z</time>
      </trkpt>
      <trkpt lat="45.65204" lon="2.88564">
        <ele>1080.5</ele>
        <time>2022-08-06T09:49:19Z</time>
      </trkpt>
      <trkpt lat="45.65196" lon="2.8857">
        <ele>1080.9</ele>
        <time>2022-08-06T09:49:21Z</time>
      </trkpt>
      <trkpt lat="45.65189" lon="2.88577">
        <ele>1081.3</ele>
        <time>2022-08-06T09:49:23Z</time>
      </trkpt>
      <trkpt lat="45.65181" lon="2.88582">
        <ele>1081.8</ele>
        <time>2022-08-06T09:49:25Z</time>
      </trkpt>
      <trkpt lat="45.65173" lon="2.88587">
        <ele>1082.3</ele>
        <time>2022-08-06T09:49:27Z</time>
      </trkpt>
      <trkpt lat="45.65166" lon="2.88591">
        <ele>1082.7</ele>
        <time>2022-08-06T09:49:29Z</time>
      </trkpt>
      <trkpt lat="45.65159" lon="2.88593">
        <ele>1083.2</ele>
        <time>2022-08-06T09:49:31Z</time>
      </trkpt>
      <trkpt lat="45.65152" lon="2.88595">
        <ele>1083.6</ele>
        <time>2022-08-06T09:49:33Z</time>
      </trkpt>
      <trkpt lat="45.65146" lon="2.88595">
        <ele>1084</ele>
        <time>2022-08-06T09:49:35Z</time>
      </trkpt>
      <trkpt lat="45.65139" lon="2.88594">
        <ele>1084.5</ele>
        <time>2022-08-06T09:49:37Z</time>
      </trkpt>
      <trkpt lat="45.65133" lon="2.88592">
        <ele>1084.9</ele>
        <time>2022-08-06T09:49:39Z</time>
      </trkpt>
      <trkpt lat="45.65127" lon="2.88591">
        <ele>1085.4</ele>
        <time>2022-08-06T09:49:41Z</time>
      </trkpt>
      <trkpt lat="45.6512" lon="2.8859">
        <ele>1085.8</ele>
        <time>2022-08-06T09:49:43Z</time>
      </trkpt>
      <trkpt lat="45.65114" lon="2.88589">
        <ele>1086.2</ele>
        <time>2022-08-06T09:49:45Z</time>
      </trkpt>
      <trkpt lat="45.65108" lon="2.88588">
        <ele>1086.5</ele>
        <time>2022-08-06T09:49:47Z</time>
      </trkpt>
      <trkpt lat="45.65105" lon="2.88586">
        <ele>1086.7</ele>
        <time>2022-08-06T09:49:49Z</time>
      </trkpt>
      <trkpt lat="45.65104" lon="2.88586">
        <ele>1086.7</ele>
        <time>2022-08-06T09:49:51Z</time>
      </trkpt>
      <trkpt lat="45.65104" lon="2.88585">
        <ele>1086.8</ele>
        <time>2022-08-06T09:49:53Z</time>
      </trkpt>
      <trkpt lat="45.65105" lon="2.88583">
        <ele>1086.8</ele>
        <time>2022-08-06T09:49:55Z</time>
      </trkpt>
      <trkpt lat="45.65403" lon="2.88952">
        <ele>1092.4</ele>
        <time>2022-08-06T09:53:49Z</time>
      </trkpt>
      <trkpt lat="45.6541" lon="2.88972">
        <ele>1092.2</ele>
        <time>2022-08-06T09:53:51Z</time>
      </trkpt>
      <trkpt lat="45.65416" lon="2.88993">
        <ele>1092</ele>
        <time>2022-08-06T09:53:53Z</time>
      </trkpt>
      <trkpt lat="45.65422" lon="2.89015">
        <ele>1091.9</ele>
        <time>2022-08-06T09:53:55Z</time>
      </trkpt>
      <trkpt lat="45.65427" lon="2.89035">
        <ele>1091.7</ele>
        <time>2022-08-06T09:53:57Z</time>
      </trkpt>
      <trkpt lat="45.65433" lon="2.89056">
        <ele>1091.6</ele>
        <time>2022-08-06T09:53:59Z</time>
      </trkpt>
      <trkpt lat="45.65437" lon="2.89077">
        <ele>1091.4</ele>
        <time>2022-08-06T09:54:01Z</time>
      </trkpt>
      <trkpt lat="45.6544" lon="2.89099">
        <ele>1091.2</ele>
        <time>2022-08-06T09:54:03Z</time>
      </trkpt>
      <trkpt lat="45.65443" lon="2.89121">
        <ele>1091.1</ele>
        <time>2022-08-06T09:54:05Z</time>
      </trkpt>
      <trkpt lat="45.65442" lon="2.89144">
        <ele>1090.9</ele>
        <time>2022-08-06T09:54:07Z</time>
      </trkpt>
      <trkpt lat="45.65442" lon="2.89169">
        <ele>1090.6</ele>
        <time>2022-08-06T09:54:09Z</time>
      </trkpt>
      <trkpt lat="45.65443" lon="2.89195">
        <ele>1090.3</ele>
        <time>2022-08-06T09:54:11Z</time>
      </trkpt>
      <trkpt lat="45.6545" lon="2.89223">
        <ele>1090.1</ele>
        <time>2022-08-06T09:54:13Z</time>
      </trkpt>
      <trkpt lat="45.65458" lon="2.89249">
        <ele>1089.8</ele>
        <time>2022-08-06T09:54:15Z</time>
      </trkpt>
      <trkpt lat="45.65464" lon="2.89276">
        <ele>1089.5</ele>
        <time>2022-08-06T09:54:17Z</time>
      </trkpt>
      <trkpt lat="45.65468" lon="2.89302">
        <ele>1089.2</ele>
        <time>2022-08-06T09:54:19Z</time>
      </trkpt>
      <trkpt lat="45.65471" lon="2.89327">
        <ele>1089</ele>
        <time>2022-08-06T09:54:21Z</time>
      </trkpt>
      <trkpt lat="45.65474" lon="2.89353">
        <ele>1088.7</ele>
        <time>2022-08-06T09:54:23Z</time>
      </trkpt>
      <trkpt lat="45.65476" lon="2.89379">
        <ele>1088.5</ele>
        <time>2022-08-06T09:54:25Z</time>
      </trkpt>
      <trkpt lat="45.65478" lon="2.89404">
        <ele>1088.4</ele>
        <time>2022-08-06T09:54:27Z</time>
      </trkpt>
      <trkpt lat="45.6548" lon="2.8943">
        <ele>1088.2</ele>
        <time>2022-08-06T09:54:29Z</time>
      </trkpt>
      <trkpt lat="45.65483" lon="2.89456">
        <ele>1088</ele>
        <time>2022-08-06T09:54:31Z</time>
      </trkpt>
      <trkpt lat="45.65485" lon="2.89481">
        <ele>1087.8</ele>
        <time>2022-08-06T09:54:33Z</time>
      </trkpt>
      <trkpt lat="45.65487" lon="2.89506">
        <ele>1087.7</ele>
        <time>2022-08-06T09:54:35Z</time>
      </trkpt>
      <trkpt lat="45.65489" lon="2.89532">
        <ele>1087.5</ele>
        <time>2022-08-06T09:54:37Z</time>
      </trkpt>
      <trkpt lat="45.65491" lon="2.89558">
        <ele>1087.2</ele>
        <time>2022-08-06T09:54:39Z</time>
      </trkpt>
      <trkpt lat="45.65492" lon="2.89583">
        <ele>1087</ele>
        <time>2022-08-06T09:54:41Z</time>
      </trkpt>
      <trkpt lat="45.65494" lon="2.89609">
        <ele>1086.8</ele>
        <time>2022-08-06T09:54:43Z</time>
      </trkpt>
      <trkpt lat="45.65496" lon="2.89634">
        <ele>1086.5</ele>
        <time>2022-08-06T09:54:45Z</time>
      </trkpt>
      <trkpt lat="45.65498" lon="2.8966">
        <ele>1086.1</ele>
        <time>2022-08-06T09:54:47Z</time>
      </trkpt>
      <trkpt lat="45.655" lon="2.89686">
        <ele>1085.7</ele>
        <time>2022-08-06T09:54:49Z</time>
      </trkpt>
      <trkpt lat="45.65502" lon="2.89712">
        <ele>1085.3</ele>
        <time>2022-08-06T09:54:51Z</time>
      </trkpt>
      <trkpt lat="45.65504" lon="2.89738">
        <ele>1084.8</ele>
        <time>2022-08-06T09:54:53Z</time>
      </trkpt>
      <trkpt lat="45.65505" lon="2.89765">
        <ele>1084.3</ele>
        <time>2022-08-06T09:54:55Z</time>
      </trkpt>
      <trkpt lat="45.65507" lon="2.89791">
        <ele>1083.8</ele>
        <time>2022-08-06T09:54:57Z</time>
      </trkpt>
      <trkpt lat="45.65508" lon="2.89817">
        <ele>1083.2</ele>
        <time>2022-08-06T09:54:59Z</time>
      </trkpt>
      <trkpt lat="45.6551" lon="2.89844">
        <ele>1082.7</ele>
        <time>2022-08-06T09:55:01Z</time>
      </trkpt>
      <trkpt lat="45.65512" lon="2.8987">
        <ele>1082.2</ele>
        <time>2022-08-06T09:55:03Z</time>
      </trkpt>
      <trkpt lat="45.65513" lon="2.89896">
        <ele>1081.7</ele>
        <time>2022-08-06T09:55:05Z</time>
      </trkpt>
      <trkpt lat="45.65514" lon="2.89922">
        <ele>1081.3</ele>
        <time>2022-08-06T09:55:07Z</time>
      </trkpt>
      <trkpt lat="45.65513" lon="2.89948">
        <ele>1080.9</ele>
        <time>2022-08-06T09:55:09Z</time>
      </trkpt>
      <trkpt lat="45.65509" lon="2.89973">
        <ele>1080.3</ele>
        <time>2022-08-06T09:55:11Z</time>
      </trkpt>
      <trkpt lat="45.65505" lon="2.90001">
        <ele>1079.6</ele>
        <time>2022-08-06T09:55:13Z</time>
      </trkpt>
      <trkpt lat="45.65501" lon="2.90028">
        <ele>1079</ele>
        <time>2022-08-06T09:55:15Z</time>
      </trkpt>
      <trkpt lat="45.65496" lon="2.90056">
        <ele>1078.4</ele>
        <time>2022-08-06T09:55:17Z</time>
      </trkpt>
      <trkpt lat="45.65492" lon="2.90086">
        <ele>1077.6</ele>
        <time>2022-08-06T09:55:19Z</time>
      </trkpt>
      <trkpt lat="45.65487" lon="2.90115">
        <ele>1076.9</ele>
        <time>2022-08-06T09:55:21Z</time>
      </trkpt>
      <trkpt lat="45.65483" lon="2.90145">
        <ele>1076</ele>
        <time>2022-08-06T09:55:23Z</time>
      </trkpt>
      <trkpt lat="45.65478" lon="2.90176">
        <ele>1075.2</ele>
        <time>2022-08-06T09:55:25Z</time>
      </trkpt>
      <trkpt lat="45.65475" lon="2.90206">
        <ele>1074.3</ele>
        <time>2022-08-06T09:55:27Z</time>
      </trkpt>
      <trkpt lat="45.65473" lon="2.90237">
        <ele>1073.3</ele>
        <time>2022-08-06T09:55:29Z</time>
      </trkpt>
      <trkpt lat="45.65475" lon="2.90269">
        <ele>1072.3</ele>
        <time>2022-08-06T09:55:31Z</time>
      </trkpt>
      <trkpt lat="45.65478" lon="2.903">
        <ele>1071.4</ele>
        <time>2022-08-06T09:55:33Z</time>
      </trkpt>
      <trkpt lat="45.65484" lon="2.90332">
        <ele>1070.5</ele>
        <time>2022-08-06T09:55:35Z</time>
      </trkpt>
      <trkpt lat="45.6549" lon="2.90364">
        <ele>1069.7</ele>
        <time>2022-08-06T09:55:37Z</time>
      </trkpt>
      <trkpt lat="45.65494" lon="2.90397">
        <ele>1068.8</ele>
        <time>2022-08-06T09:55:39Z</time>
      </trkpt>
      <trkpt lat="45.65498" lon="2.9043">
        <ele>1068</ele>
        <time>2022-08-06T09:55:41Z</time>
      </trkpt>
      <trkpt lat="45.65502" lon="2.90462">
        <ele>1067.2</ele>
        <time>2022-08-06T09:55:43Z</time>
      </trkpt>
      <trkpt lat="45.65506" lon="2.90492">
        <ele>1066.4</ele>
        <time>2022-08-06T09:55:45Z</time>
      </trkpt>
      <trkpt lat="45.6551" lon="2.90522">
        <ele>1065.7</ele>
        <time>2022-08-06T09:55:47Z</time>
      </trkpt>
      <trkpt lat="45.65515" lon="2.90551">
        <ele>1065.1</ele>
        <time>2022-08-06T09:55:49Z</time>
      </trkpt>
      <trkpt lat="45.65518" lon="2.9058">
        <ele>1064.6</ele>
        <time>2022-08-06T09:55:51Z</time>
      </trkpt>
      <trkpt lat="45.65522" lon="2.90609">
        <ele>1064.1</ele>
        <time>2022-08-06T09:55:53Z</time>
      </trkpt>
      <trkpt lat="45.65527" lon="2.90639">
        <ele>1063.6</ele>
        <time>2022-08-06T09:55:55Z</time>
      </trkpt>
      <trkpt lat="45.65531" lon="2.90668">
        <ele>1063.1</ele>
        <time>2022-08-06T09:55:57Z</time>
      </trkpt>
      <trkpt lat="45.65535" lon="2.90698">
        <ele>1062.6</ele>
        <time>2022-08-06T09:55:59Z</time>
      </trkpt>
      <trkpt lat="45.65539" lon="2.90727">
        <ele>1062.2</ele>
        <time>2022-08-06T09:56:01Z</time>
      </trkpt>
      <trkpt lat="45.65543" lon="2.90756">
        <ele>1061.8</ele>
        <time>2022-08-06T09:56:03Z</time>
      </trkpt>
      <trkpt lat="45.65547" lon="2.90784">
        <ele>1061.3</ele>
        <time>2022-08-06T09:56:05Z</time>
      </trkpt>
      <trkpt lat="45.65551" lon="2.90813">
        <ele>1060.8</ele>
        <time>2022-08-06T09:56:07Z</time>
      </trkpt>
      <trkpt lat="45.65555" lon="2.9084">
        <ele>1060.1</ele>
        <time>2022-08-06T09:56:09Z</time>
      </trkpt>
      <trkpt lat="45.65559" lon="2.90868">
        <ele>1059.3</ele>
        <time>2022-08-06T09:56:11Z</time>
      </trkpt>
      <trkpt lat="45.65563" lon="2.90897">
        <ele>1058.4</ele>
        <time>2022-08-06T09:56:13Z</time>
      </trkpt>
      <trkpt lat="45.65567" lon="2.90925">
        <ele>1057.6</ele>
        <time>2022-08-06T09:56:15Z</time>
      </trkpt>
      <trkpt lat="45.65571" lon="2.90953">
        <ele>1056.9</ele>
        <time>2022-08-06T09:56:17Z</time>
      </trkpt>
      <trkpt lat="45.65575" lon="2.90982">
        <ele>1056.1</ele>
        <time>2022-08-06T09:56:19Z</time>
      </trkpt>
      <trkpt lat="45.65574" lon="2.91011">
        <ele>1055.4</ele>
        <time>2022-08-06T09:56:21Z</time>
      </trkpt>
      <trkpt lat="45.6557" lon="2.91039">
        <ele>1054.5</ele>
        <time>2022-08-06T09:56:23Z</time>
      </trkpt>
      <trkpt lat="45.65561" lon="2.91066">
        <ele>1053.5</ele>
        <time>2022-08-06T09:56:25Z</time>
      </trkpt>
      <trkpt lat="45.65551" lon="2.91093">
        <ele>1052.6</ele>
        <time>2022-08-06T09:56:27Z</time>
      </trkpt>
      <trkpt lat="45.65541" lon="2.9112">
        <ele>1051.7</ele>
        <time>2022-08-06T09:56:29Z</time>
      </trkpt>
      <trkpt lat="45.65531" lon="2.91147">
        <ele>1050.8</ele>
        <time>2022-08-06T09:56:31Z</time>
      </trkpt>
      <trkpt lat="45.65521" lon="2.91173">
        <ele>1049.9</ele>
        <time>2022-08-06T09:56:33Z</time>
      </trkpt>
      <trkpt lat="45.6551" lon="2.912">
        <ele>1049.2</ele>
        <time>2022-08-06T09:56:35Z</time>
      </trkpt>
      <trkpt lat="45.655" lon="2.91227">
        <ele>1048.4</ele>
        <time>2022-08-06T09:56:37Z</time>
      </trkpt>
      <trkpt lat="45.65492" lon="2.91256">
        <ele>1047.9</ele>
        <time>2022-08-06T09:56:39Z</time>
      </trkpt>
      <trkpt lat="45.65496" lon="2.91288">
        <ele>1047</ele>
        <time>2022-08-06T09:56:41Z</time>
      </trkpt>
      <trkpt lat="45.65502" lon="2.9132">
        <ele>1046</ele>
        <time>2022-08-06T09:56:43Z</time>
      </trkpt>
      <trkpt lat="45.65508" lon="2.91351">
        <ele>1045.2</ele>
        <time>2022-08-06T09:56:45Z</time>
      </trkpt>
      <trkpt lat="45.65514" lon="2.91384">
        <ele>1044.4</ele>
        <time>2022-08-06T09:56:47Z</time>
      </trkpt>
      <trkpt lat="45.6552" lon="2.91413">
        <ele>1043.8</ele>
        <time>2022-08-06T09:56:49Z</time>
      </trkpt>
      <trkpt lat="45.65526" lon="2.91442">
        <ele>1043.2</ele>
        <time>2022-08-06T09:56:51Z</time>
      </trkpt>
      <trkpt lat="45.65531" lon="2.9147">
        <ele>1042.8</ele>
        <time>2022-08-06T09:56:53Z</time>
      </trkpt>
      <trkpt lat="45.65537" lon="2.91497">
        <ele>1042.3</ele>
        <time>2022-08-06T09:56:55Z</time>
      </trkpt>
      <trkpt lat="45.65543" lon="2.91525">
        <ele>1041.7</ele>
        <time>2022-08-06T09:56:57Z</time>
      </trkpt>
      <trkpt lat="45.65549" lon="2.91555">
        <ele>1041.1</ele>
        <time>2022-08-06T09:56:59Z</time>
      </trkpt>
      <trkpt lat="45.65553" lon="2.91584">
        <ele>1040.7</ele>
        <time>2022-08-06T09:57:01Z</time>
      </trkpt>
      <trkpt lat="45.65555" lon="2.91613">
        <ele>1040.4</ele>
        <time>2022-08-06T09:57:03Z</time>
      </trkpt>
      <trkpt lat="45.65559" lon="2.91643">
        <ele>1040</ele>
        <time>2022-08-06T09:57:05Z</time>
      </trkpt>
      <trkpt lat="45.65568" lon="2.9167">
        <ele>1039.5</ele>
        <time>2022-08-06T09:57:07Z</time>
      </trkpt>
      <trkpt lat="45.65581" lon="2.91692">
        <ele>1039</ele>
        <time>2022-08-06T09:57:09Z</time>
      </trkpt>
      <trkpt lat="45.65595" lon="2.91713">
        <ele>1038.5</ele>
        <time>2022-08-06T09:57:11Z</time>
      </trkpt>
      <trkpt lat="45.65609" lon="2.91734">
        <ele>1037.8</ele>
        <time>2022-08-06T09:57:13Z</time>
      </trkpt>
      <trkpt lat="45.65622" lon="2.91755">
        <ele>1037.1</ele>
        <time>2022-08-06T09:57:15Z</time>
      </trkpt>
      <trkpt lat="45.65635" lon="2.91776">
        <ele>1036.4</ele>
        <time>2022-08-06T09:57:17Z</time>
      </trkpt>
      <trkpt lat="45.65646" lon="2.91799">
        <ele>1035.5</ele>
        <time>2022-08-06T09:57:19Z</time>
      </trkpt>
      <trkpt lat="45.65657" lon="2.91825">
        <ele>1034.6</ele>
        <time>2022-08-06T09:57:21Z</time>
      </trkpt>
      <trkpt lat="45.65668" lon="2.9185">
        <ele>1033.8</ele>
        <time>2022-08-06T09:57:23Z</time>
      </trkpt>
      <trkpt lat="45.65678" lon="2.91875">
        <ele>1033.3</ele>
        <time>2022-08-06T09:57:25Z</time>
      </trkpt>
      <trkpt lat="45.65689" lon="2.91901">
        <ele>1032.8</ele>
        <time>2022-08-06T09:57:27Z</time>
      </trkpt>
      <trkpt lat="45.65701" lon="2.91926">
        <ele>1032.4</ele>
        <time>2022-08-06T09:57:29Z</time>
      </trkpt>
      <trkpt lat="45.65715" lon="2.91948">
        <ele>1032.2</ele>
        <time>2022-08-06T09:57:31Z</time>
      </trkpt>
      <trkpt lat="45.6573" lon="2.91968">
        <ele>1032.2</ele>
        <time>2022-08-06T09:57:33Z</time>
      </trkpt>
      <trkpt lat="45.65746" lon="2.91983">
        <ele>1032.3</ele>
        <time>2022-08-06T09:57:35Z</time>
      </trkpt>
      <trkpt lat="45.65762" lon="2.91998">
        <ele>1032.6</ele>
        <time>2022-08-06T09:57:37Z</time>
      </trkpt>
      <trkpt lat="45.65777" lon="2.92012">
        <ele>1033</ele>
        <time>2022-08-06T09:57:39Z</time>
      </trkpt>
      <trkpt lat="45.65791" lon="2.92026">
        <ele>1033.3</ele>
        <time>2022-08-06T09:57:41Z</time>
      </trkpt>
      <trkpt lat="45.65804" lon="2.9204">
        <ele>1033.6</ele>
        <time>2022-08-06T09:57:43Z</time>
      </trkpt>
      <trkpt lat="45.65818" lon="2.92054">
        <ele>1033.9</ele>
        <time>2022-08-06T09:57:45Z</time>
      </trkpt>
      <trkpt lat="45.65832" lon="2.92067">
        <ele>1034.3</ele>
        <time>2022-08-06T09:57:47Z</time>
      </trkpt>
      <trkpt lat="45.65845" lon="2.92081">
        <ele>1034.9</ele>
        <time>2022-08-06T09:57:49Z</time>
      </trkpt>
      <trkpt lat="45.65859" lon="2.92094">
        <ele>1035.3</ele>
        <time>2022-08-06T09:57:51Z</time>
      </trkpt>
      <trkpt lat="45.65873" lon="2.92106">
        <ele>1035.6</ele>
        <time>2022-08-06T09:57:53Z</time>
      </trkpt>
      <trkpt lat="45.65887" lon="2.92117">
        <ele>1035.5</ele>
        <time>2022-08-06T09:57:55Z</time>
      </trkpt>
      <trkpt lat="45.65901" lon="2.92126">
        <ele>1035.2</ele>
        <time>2022-08-06T09:57:57Z</time>
      </trkpt>
      <trkpt lat="45.65916" lon="2.92138">
        <ele>1034.5</ele>
        <time>2022-08-06T09:57:59Z</time>
      </trkpt>
      <trkpt lat="45.65931" lon="2.92153">
        <ele>1033.5</ele>
        <time>2022-08-06T09:58:01Z</time>
      </trkpt>
      <trkpt lat="45.65947" lon="2.92169">
        <ele>1032.3</ele>
        <time>2022-08-06T09:58:03Z</time>
      </trkpt>
      <trkpt lat="45.65964" lon="2.92185">
        <ele>1031.1</ele>
        <time>2022-08-06T09:58:05Z</time>
      </trkpt>
      <trkpt lat="45.6598" lon="2.92202">
        <ele>1029.8</ele>
        <time>2022-08-06T09:58:07Z</time>
      </trkpt>
      <trkpt lat="45.65998" lon="2.9222">
        <ele>1028.4</ele>
        <time>2022-08-06T09:58:09Z</time>
      </trkpt>
      <trkpt lat="45.66016" lon="2.92238">
        <ele>1027</ele>
        <time>2022-08-06T09:58:11Z</time>
      </trkpt>
      <trkpt lat="45.66033" lon="2.92256">
        <ele>1025.6</ele>
        <time>2022-08-06T09:58:13Z</time>
      </trkpt>
      <trkpt lat="45.66051" lon="2.92274">
        <ele>1024.4</ele>
        <time>2022-08-06T09:58:15Z</time>
      </trkpt>
      <trkpt lat="45.66068" lon="2.92292">
        <ele>1023.3</ele>
        <time>2022-08-06T09:58:17Z</time>
      </trkpt>
      <trkpt lat="45.66087" lon="2.9231">
        <ele>1022.1</ele>
        <time>2022-08-06T09:58:19Z</time>
      </trkpt>
      <trkpt lat="45.66104" lon="2.92328">
        <ele>1021.3</ele>
        <time>2022-08-06T09:58:21Z</time>
      </trkpt>
      <trkpt lat="45.6612" lon="2.92348">
        <ele>1020.6</ele>
        <time>2022-08-06T09:58:23Z</time>
      </trkpt>
      <trkpt lat="45.66134" lon="2.92368">
        <ele>1020.3</ele>
        <time>2022-08-06T09:58:25Z</time>
      </trkpt>
      <trkpt lat="45.66148" lon="2.92388">
        <ele>1020.1</ele>
        <time>2022-08-06T09:58:27Z</time>
      </trkpt>
      <trkpt lat="45.6616" lon="2.92408">
        <ele>1020</ele>
        <time>2022-08-06T09:58:29Z</time>
      </trkpt>
      <trkpt lat="45.66171" lon="2.9243">
        <ele>1019.9</ele>
        <time>2022-08-06T09:58:31Z</time>
      </trkpt>
      <trkpt lat="45.66182" lon="2.9245">
        <ele>1019.9</ele>
        <time>2022-08-06T09:58:33Z</time>
      </trkpt>
      <trkpt lat="45.66193" lon="2.92469">
        <ele>1020</ele>
        <time>2022-08-06T09:58:35Z</time>
      </trkpt>
      <trkpt lat="45.66202" lon="2.92488">
        <ele>1020.1</ele>
        <time>2022-08-06T09:58:37Z</time>
      </trkpt>
      <trkpt lat="45.66212" lon="2.92506">
        <ele>1020.2</ele>
        <time>2022-08-06T09:58:39Z</time>
      </trkpt>
      <trkpt lat="45.66222" lon="2.92525">
        <ele>1020.4</ele>
        <time>2022-08-06T09:58:41Z</time>
      </trkpt>
      <trkpt lat="45.66231" lon="2.92543">
        <ele>1020.5</ele>
        <time>2022-08-06T09:58:43Z</time>
      </trkpt>
      <trkpt lat="45.66241" lon="2.9256">
        <ele>1020.8</ele>
        <time>2022-08-06T09:58:45Z</time>
      </trkpt>
      <trkpt lat="45.66249" lon="2.92579">
        <ele>1021.1</ele>
        <time>2022-08-06T09:58:47Z</time>
      </trkpt>
      <trkpt lat="45.66258" lon="2.92596">
        <ele>1021.4</ele>
        <time>2022-08-06T09:58:49Z</time>
      </trkpt>
      <trkpt lat="45.66267" lon="2.92614">
        <ele>1021.7</ele>
        <time>2022-08-06T09:58:51Z</time>
      </trkpt>
      <trkpt lat="45.66274" lon="2.92632">
        <ele>1022</ele>
        <time>2022-08-06T09:58:53Z</time>
      </trkpt>
      <trkpt lat="45.66281" lon="2.9265">
        <ele>1022.3</ele>
        <time>2022-08-06T09:58:55Z</time>
      </trkpt>
      <trkpt lat="45.66288" lon="2.92668">
        <ele>1022.5</ele>
        <time>2022-08-06T09:58:57Z</time>
      </trkpt>
      <trkpt lat="45.66294" lon="2.92687">
        <ele>1022.7</ele>
        <time>2022-08-06T09:58:59Z</time>
      </trkpt>
      <trkpt lat="45.663" lon="2.92703">
        <ele>1022.9</ele>
        <time>2022-08-06T09:59:01Z</time>
      </trkpt>
      <trkpt lat="45.66307" lon="2.9272">
        <ele>1023.1</ele>
        <time>2022-08-06T09:59:03Z</time>
      </trkpt>
      <trkpt lat="45.66315" lon="2.92736">
        <ele>1023.3</ele>
        <time>2022-08-06T09:59:05Z</time>
      </trkpt>
      <trkpt lat="45.66322" lon="2.92752">
        <ele>1023.5</ele>
        <time>2022-08-06T09:59:07Z</time>
      </trkpt>
      <trkpt lat="45.6633" lon="2.92769">
        <ele>1023.6</ele>
        <time>2022-08-06T09:59:09Z</time>
      </trkpt>
      <trkpt lat="45.66339" lon="2.92786">
        <ele>1023.7</ele>
        <time>2022-08-06T09:59:11Z</time>
      </trkpt>
      <trkpt lat="45.66347" lon="2.92802">
        <ele>1023.7</ele>
        <time>2022-08-06T09:59:13Z</time>
      </trkpt>
      <trkpt lat="45.66355" lon="2.92818">
        <ele>1023.7</ele>
        <time>2022-08-06T09:59:15Z</time>
      </trkpt>
      <trkpt lat="45.66364" lon="2.92835">
        <ele>1023.6</ele>
        <time>2022-08-06T09:59:17Z</time>
      </trkpt>
      <trkpt lat="45.66372" lon="2.92852">
        <ele>1023.6</ele>
        <time>2022-08-06T09:59:19Z</time>
      </trkpt>
      <trkpt lat="45.66381" lon="2.92868">
        <ele>1023.6</ele>
        <time>2022-08-06T09:59:21Z</time>
      </trkpt>
      <trkpt lat="45.6639" lon="2.92885">
        <ele>1023.5</ele>
        <time>2022-08-06T09:59:23Z</time>
      </trkpt>
      <trkpt lat="45.66397" lon="2.92903">
        <ele>1023.4</ele>
        <time>2022-08-06T09:59:25Z</time>
      </trkpt>
      <trkpt lat="45.66404" lon="2.92921">
        <ele>1023.4</ele>
        <time>2022-08-06T09:59:27Z</time>
      </trkpt>
      <trkpt lat="45.6641" lon="2.92938">
        <ele>1023.3</ele>
        <time>2022-08-06T09:59:29Z</time>
      </trkpt>
      <trkpt lat="45.66416" lon="2.92957">
        <ele>1023.2</ele>
        <time>2022-08-06T09:59:31Z</time>
      </trkpt>
      <trkpt lat="45.66421" lon="2.92975">
        <ele>1023.2</ele>
        <time>2022-08-06T09:59:33Z</time>
      </trkpt>
      <trkpt lat="45.66426" lon="2.92994">
        <ele>1023.1</ele>
        <time>2022-08-06T09:59:35Z</time>
      </trkpt>
      <trkpt lat="45.66432" lon="2.93012">
        <ele>1023.1</ele>
        <time>2022-08-06T09:59:37Z</time>
      </trkpt>
      <trkpt lat="45.66437" lon="2.9303">
        <ele>1023</ele>
        <time>2022-08-06T09:59:39Z</time>
      </trkpt>
      <trkpt lat="45.66442" lon="2.93047">
        <ele>1023</ele>
        <time>2022-08-06T09:59:41Z</time>
      </trkpt>
      <trkpt lat="45.66447" lon="2.93064">
        <ele>1023</ele>
        <time>2022-08-06T09:59:43Z</time>
      </trkpt>
      <trkpt lat="45.66452" lon="2.93081">
        <ele>1023</ele>
        <time>2022-08-06T09:59:45Z</time>
      </trkpt>
      <trkpt lat="45.66458" lon="2.93098">
        <ele>1023</ele>
        <time>2022-08-06T09:59:47Z</time>
      </trkpt>
      <trkpt lat="45.66463" lon="2.93115">
        <ele>1023.1</ele>
        <time>2022-08-06T09:59:49Z</time>
      </trkpt>
      <trkpt lat="45.66467" lon="2.93133">
        <ele>1023.1</ele>
        <time>2022-08-06T09:59:51Z</time>
      </trkpt>
      <trkpt lat="45.66472" lon="2.93151">
        <ele>1023.3</ele>
        <time>2022-08-06T09:59:53Z</time>
      </trkpt>
      <trkpt lat="45.66477" lon="2.93168">
        <ele>1023.4</ele>
        <time>2022-08-06T09:59:55Z</time>
      </trkpt>
      <trkpt lat="45.66483" lon="2.93186">
        <ele>1023.6</ele>
        <time>2022-08-06T09:59:57Z</time>
      </trkpt>
      <trkpt lat="45.66489" lon="2.93206">
        <ele>1023.8</ele>
        <time>2022-08-06T09:59:59Z</time>
      </trkpt>
      <trkpt lat="45.66495" lon="2.93225">
        <ele>1024</ele>
        <time>2022-08-06T10:00:01Z</time>
      </trkpt>
      <trkpt lat="45.665" lon="2.93245">
        <ele>1024.2</ele>
        <time>2022-08-06T10:00:03Z</time>
      </trkpt>
      <trkpt lat="45.66506" lon="2.93264">
        <ele>1024.3</ele>
        <time>2022-08-06T10:00:05Z</time>
      </trkpt>
      <trkpt lat="45.66512" lon="2.93282">
        <ele>1024.4</ele>
        <time>2022-08-06T10:00:07Z</time>
      </trkpt>
      <trkpt lat="45.66519" lon="2.933">
        <ele>1024.5</ele>
        <time>2022-08-06T10:00:09Z</time>
      </trkpt>
      <trkpt lat="45.66526" lon="2.93317">
        <ele>1024.5</ele>
        <time>2022-08-06T10:00:11Z</time>
      </trkpt>
      <trkpt lat="45.66532" lon="2.93335">
        <ele>1024.5</ele>
        <time>2022-08-06T10:00:13Z</time>
      </trkpt>
      <trkpt lat="45.66539" lon="2.93353">
        <ele>1024.5</ele>
        <time>2022-08-06T10:00:15Z</time>
      </trkpt>
      <trkpt lat="45.66546" lon="2.9337">
        <ele>1024.5</ele>
        <time>2022-08-06T10:00:17Z</time>
      </trkpt>
      <trkpt lat="45.66554" lon="2.93386">
        <ele>1024.5</ele>
        <time>2022-08-06T10:00:19Z</time>
      </trkpt>
      <trkpt lat="45.66563" lon="2.93403">
        <ele>1024.5</ele>
        <time>2022-08-06T10:00:21Z</time>
      </trkpt>
      <trkpt lat="45.66571" lon="2.93418">
        <ele>1024.6</ele>
        <time>2022-08-06T10:00:23Z</time>
      </trkpt>
      <trkpt lat="45.66579" lon="2.93434">
        <ele>1024.8</ele>
        <time>2022-08-06T10:00:25Z</time>
      </trkpt>
      <trkpt lat="45.66587" lon="2.93449">
        <ele>1025</ele>
        <time>2022-08-06T10:00:27Z</time>
      </trkpt>
      <trkpt lat="45.66595" lon="2.93463">
        <ele>1025.1</ele>
        <time>2022-08-06T10:00:29Z</time>
      </trkpt>
      <trkpt lat="45.66604" lon="2.93477">
        <ele>1025.3</ele>
        <time>2022-08-06T10:00:31Z</time>
      </trkpt>
      <trkpt lat="45.66613" lon="2.9349">
        <ele>1025.4</ele>
        <time>2022-08-06T10:00:33Z</time>
      </trkpt>
      <trkpt lat="45.66623" lon="2.93503">
        <ele>1025.6</ele>
        <time>2022-08-06T10:00:35Z</time>
      </trkpt>
      <trkpt lat="45.66633" lon="2.93516">
        <ele>1025.7</ele>
        <time>2022-08-06T10:00:37Z</time>
      </trkpt>
      <trkpt lat="45.66642" lon="2.93528">
        <ele>1025.9</ele>
        <time>2022-08-06T10:00:39Z</time>
      </trkpt>
      <trkpt lat="45.66652" lon="2.9354">
        <ele>1026.1</ele>
        <time>2022-08-06T10:00:41Z</time>
      </trkpt>
      <trkpt lat="45.66661" lon="2.93552">
        <ele>1026.3</ele>
        <time>2022-08-06T10:00:43Z</time>
      </trkpt>
      <trkpt lat="45.66671" lon="2.93565">
        <ele>1026.4</ele>
        <time>2022-08-06T10:00:45Z</time>
      </trkpt>
      <trkpt lat="45.66681" lon="2.93578">
        <ele>1026.6</ele>
        <time>2022-08-06T10:00:47Z</time>
      </trkpt>
      <trkpt lat="45.66691" lon="2.93591">
        <ele>1026.8</ele>
        <time>2022-08-06T10:00:49Z</time>
      </trkpt>
      <trkpt lat="45.667" lon="2.93603">
        <ele>1026.9</ele>
        <time>2022-08-06T10:00:51Z</time>
      </trkpt>
      <trkpt lat="45.66709" lon="2.93615">
        <ele>1027</ele>
        <time>2022-08-06T10:00:53Z</time>
      </trkpt>
      <trkpt lat="45.66718" lon="2.93628">
        <ele>1027.2</ele>
        <time>2022-08-06T10:00:55Z</time>
      </trkpt>
      <trkpt lat="45.66728" lon="2.93641">
        <ele>1027.3</ele>
        <time>2022-08-06T10:00:57Z</time>
      </trkpt>
      <trkpt lat="45.66738" lon="2.93654">
        <ele>1027.4</ele>
        <time>2022-08-06T10:00:59Z</time>
      </trkpt>
      <trkpt lat="45.66747" lon="2.93667">
        <ele>1027.5</ele>
        <time>2022-08-06T10:01:01Z</time>
      </trkpt>
      <trkpt lat="45.66756" lon="2.93681">
        <ele>1027.6</ele>
        <time>2022-08-06T10:01:03Z</time>
      </trkpt>
      <trkpt lat="45.66766" lon="2.93694">
        <ele>1027.7</ele>
        <time>2022-08-06T10:01:05Z</time>
      </trkpt>
      <trkpt lat="45.66775" lon="2.93707">
        <ele>1027.9</ele>
        <time>2022-08-06T10:01:07Z</time>
      </trkpt>
      <trkpt lat="45.66785" lon="2.9372">
        <ele>1028</ele>
        <time>2022-08-06T10:01:09Z</time>
      </trkpt>
      <trkpt lat="45.66795" lon="2.93733">
        <ele>1028.1</ele>
        <time>2022-08-06T10:01:11Z</time>
      </trkpt>
      <trkpt lat="45.66804" lon="2.93745">
        <ele>1028.1</ele>
        <time>2022-08-06T10:01:13Z</time>
      </trkpt>
      <trkpt lat="45.66814" lon="2.93757">
        <ele>1028.2</ele>
        <time>2022-08-06T10:01:15Z</time>
      </trkpt>
      <trkpt lat="45.66824" lon="2.9377">
        <ele>1028.2</ele>
        <time>2022-08-06T10:01:17Z</time>
      </trkpt>
      <trkpt lat="45.66833" lon="2.93783">
        <ele>1028.1</ele>
        <time>2022-08-06T10:01:19Z</time>
      </trkpt>
      <trkpt lat="45.66843" lon="2.93795">
        <ele>1028</ele>
        <time>2022-08-06T10:01:21Z</time>
      </trkpt>
      <trkpt lat="45.66853" lon="2.93807">
        <ele>1027.8</ele>
        <time>2022-08-06T10:01:23Z</time>
      </trkpt>
      <trkpt lat="45.66863" lon="2.9382">
        <ele>1027.7</ele>
        <time>2022-08-06T10:01:25Z</time>
      </trkpt>
      <trkpt lat="45.66873" lon="2.93831">
        <ele>1027.5</ele>
        <time>2022-08-06T10:01:27Z</time>
      </trkpt>
      <trkpt lat="45.66885" lon="2.93841">
        <ele>1027.3</ele>
        <time>2022-08-06T10:01:29Z</time>
      </trkpt>
      <trkpt lat="45.66898" lon="2.93849">
        <ele>1027.1</ele>
        <time>2022-08-06T10:01:31Z</time>
      </trkpt>
      <trkpt lat="45.66911" lon="2.93855">
        <ele>1027.1</ele>
        <time>2022-08-06T10:01:33Z</time>
      </trkpt>
      <trkpt lat="45.66925" lon="2.93859">
        <ele>1027</ele>
        <time>2022-08-06T10:01:35Z</time>
      </trkpt>
      <trkpt lat="45.66939" lon="2.93858">
        <ele>1026.8</ele>
        <time>2022-08-06T10:01:37Z</time>
      </trkpt>
      <trkpt lat="45.66953" lon="2.93856">
        <ele>1026.7</ele>
        <time>2022-08-06T10:01:39Z</time>
      </trkpt>
      <trkpt lat="45.6697" lon="2.93853">
        <ele>1026.6</ele>
        <time>2022-08-06T10:01:41Z</time>
      </trkpt>
      <trkpt lat="45.66986" lon="2.93851">
        <ele>1026.5</ele>
        <time>2022-08-06T10:01:43Z</time>
      </trkpt>
      <trkpt lat="45.67003" lon="2.93848">
        <ele>1026.4</ele>
        <time>2022-08-06T10:01:45Z</time>
      </trkpt>
      <trkpt lat="45.67021" lon="2.93845">
        <ele>1026.3</ele>
        <time>2022-08-06T10:01:47Z</time>
      </trkpt>
      <trkpt lat="45.67039" lon="2.93842">
        <ele>1026.3</ele>
        <time>2022-08-06T10:01:49Z</time>
      </trkpt>
      <trkpt lat="45.67057" lon="2.93839">
        <ele>1026.3</ele>
        <time>2022-08-06T10:01:51Z</time>
      </trkpt>
      <trkpt lat="45.67074" lon="2.93836">
        <ele>1026.2</ele>
        <time>2022-08-06T10:01:53Z</time>
      </trkpt>
      <trkpt lat="45.67092" lon="2.93832">
        <ele>1026.1</ele>
        <time>2022-08-06T10:01:55Z</time>
      </trkpt>
      <trkpt lat="45.6711" lon="2.93826">
        <ele>1025.8</ele>
        <time>2022-08-06T10:01:57Z</time>
      </trkpt>
      <trkpt lat="45.67127" lon="2.9382">
        <ele>1025.3</ele>
        <time>2022-08-06T10:01:59Z</time>
      </trkpt>
      <trkpt lat="45.67145" lon="2.93813">
        <ele>1024.8</ele>
        <time>2022-08-06T10:02:01Z</time>
      </trkpt>
      <trkpt lat="45.67163" lon="2.93806">
        <ele>1024.4</ele>
        <time>2022-08-06T10:02:03Z</time>
      </trkpt>
      <trkpt lat="45.67181" lon="2.93798">
        <ele>1023.9</ele>
        <time>2022-08-06T10:02:05Z</time>
      </trkpt>
      <trkpt lat="45.672" lon="2.93792">
        <ele>1023.5</ele>
        <time>2022-08-06T10:02:07Z</time>
      </trkpt>
      <trkpt lat="45.67218" lon="2.93788">
        <ele>1023</ele>
        <time>2022-08-06T10:02:09Z</time>
      </trkpt>
      <trkpt lat="45.67237" lon="2.93782">
        <ele>1022.5</ele>
        <time>2022-08-06T10:02:11Z</time>
      </trkpt>
      <trkpt lat="45.67256" lon="2.93778">
        <ele>1021.9</ele>
        <time>2022-08-06T10:02:13Z</time>
      </trkpt>
      <trkpt lat="45.67275" lon="2.93773">
        <ele>1021.2</ele>
        <time>2022-08-06T10:02:15Z</time>
      </trkpt>
      <trkpt lat="45.67295" lon="2.93768">
        <ele>1020.4</ele>
        <time>2022-08-06T10:02:17Z</time>
      </trkpt>
      <trkpt lat="45.67315" lon="2.93763">
        <ele>1019.7</ele>
        <time>2022-08-06T10:02:19Z</time>
      </trkpt>
      <trkpt lat="45.67336" lon="2.93758">
        <ele>1019</ele>
        <time>2022-08-06T10:02:21Z</time>
      </trkpt>
      <trkpt lat="45.67355" lon="2.93752">
        <ele>1018.2</ele>
        <time>2022-08-06T10:02:23Z</time>
      </trkpt>
      <trkpt lat="45.67375" lon="2.93745">
        <ele>1017.2</ele>
        <time>2022-08-06T10:02:25Z</time>
      </trkpt>
      <trkpt lat="45.67394" lon="2.93732">
        <ele>1016</ele>
        <time>2022-08-06T10:02:27Z</time>
      </trkpt>
      <trkpt lat="45.6741" lon="2.9371">
        <ele>1014.9</ele>
        <time>2022-08-06T10:02:29Z</time>
      </trkpt>
      <trkpt lat="45.67421" lon="2.93682">
        <ele>1013.7</ele>
        <time>2022-08-06T10:02:31Z</time>
      </trkpt>
      <trkpt lat="45.6743" lon="2.93651">
        <ele>1012.5</ele>
        <time>2022-08-06T10:02:33Z</time>
      </trkpt>
      <trkpt lat="45.6744" lon="2.93619">
        <ele>1011.4</ele>
        <time>2022-08-06T10:02:35Z</time>
      </trkpt>
      <trkpt lat="45.67449" lon="2.93588">
        <ele>1010.3</ele>
        <time>2022-08-06T10:02:37Z</time>
      </trkpt>
      <trkpt lat="45.67461" lon="2.93557">
        <ele>1009.3</ele>
        <time>2022-08-06T10:02:39Z</time>
      </trkpt>
      <trkpt lat="45.67475" lon="2.93528">
        <ele>1008.2</ele>
        <time>2022-08-06T10:02:41Z</time>
      </trkpt>
      <trkpt lat="45.67491" lon="2.93503">
        <ele>1007.2</ele>
        <time>2022-08-06T10:02:43Z</time>
      </trkpt>
      <trkpt lat="45.67509" lon="2.9348">
        <ele>1006.3</ele>
        <time>2022-08-06T10:02:45Z</time>
      </trkpt>
      <trkpt lat="45.67526" lon="2.93457">
        <ele>1005.2</ele>
        <time>2022-08-06T10:02:47Z</time>
      </trkpt>
      <trkpt lat="45.67545" lon="2.93435">
        <ele>1004.2</ele>
        <time>2022-08-06T10:02:49Z</time>
      </trkpt>
      <trkpt lat="45.67565" lon="2.93416">
        <ele>1003.1</ele>
        <time>2022-08-06T10:02:51Z</time>
      </trkpt>
      <trkpt lat="45.67585" lon="2.93399">
        <ele>1001.9</ele>
        <time>2022-08-06T10:02:53Z</time>
      </trkpt>
      <trkpt lat="45.67607" lon="2.93386">
        <ele>1000.8</ele>
        <time>2022-08-06T10:02:55Z</time>
      </trkpt>
      <trkpt lat="45.67631" lon="2.93382">
        <ele>999.6</ele>
        <time>2022-08-06T10:02:57Z</time>
      </trkpt>
      <trkpt lat="45.67654" lon="2.93392">
        <ele>998.8</ele>
        <time>2022-08-06T10:02:59Z</time>
      </trkpt>
      <trkpt lat="45.67678" lon="2.93405">
        <ele>997.7</ele>
        <time>2022-08-06T10:03:01Z</time>
      </trkpt>
      <trkpt lat="45.67701" lon="2.93421">
        <ele>996.6</ele>
        <time>2022-08-06T10:03:03Z</time>
      </trkpt>
      <trkpt lat="45.67724" lon="2.93437">
        <ele>995.7</ele>
        <time>2022-08-06T10:03:05Z</time>
      </trkpt>
      <trkpt lat="45.67748" lon="2.93454">
        <ele>995.1</ele>
        <time>2022-08-06T10:03:07Z</time>
      </trkpt>
      <trkpt lat="45.6777" lon="2.93471">
        <ele>994.6</ele>
        <time>2022-08-06T10:03:09Z</time>
      </trkpt>
      <trkpt lat="45.67791" lon="2.93488">
        <ele>994.2</ele>
        <time>2022-08-06T10:03:11Z</time>
      </trkpt>
      <trkpt lat="45.67811" lon="2.93506">
        <ele>993.9</ele>
        <time>2022-08-06T10:03:13Z</time>
      </trkpt>
      <trkpt lat="45.67831" lon="2.93521">
        <ele>993.7</ele>
        <time>2022-08-06T10:03:15Z</time>
      </trkpt>
      <trkpt lat="45.67851" lon="2.93533">
        <ele>993.5</ele>
        <time>2022-08-06T10:03:17Z</time>
      </trkpt>
      <trkpt lat="45.67871" lon="2.9354">
        <ele>993.4</ele>
        <time>2022-08-06T10:03:19Z</time>
      </trkpt>
      <trkpt lat="45.67891" lon="2.93548">
        <ele>993.1</ele>
        <time>2022-08-06T10:03:21Z</time>
      </trkpt>
      <trkpt lat="45.67912" lon="2.93556">
        <ele>992.8</ele>
        <time>2022-08-06T10:03:23Z</time>
      </trkpt>
      <trkpt lat="45.67933" lon="2.93565">
        <ele>992.4</ele>
        <time>2022-08-06T10:03:25Z</time>
      </trkpt>
      <trkpt lat="45.67952" lon="2.93577">
        <ele>992</ele>
        <time>2022-08-06T10:03:27Z</time>
      </trkpt>
      <trkpt lat="45.67972" lon="2.9359">
        <ele>991.4</ele>
        <time>2022-08-06T10:03:29Z</time>
      </trkpt>
      <trkpt lat="45.67992" lon="2.93603">
        <ele>990.8</ele>
        <time>2022-08-06T10:03:31Z</time>
      </trkpt>
      <trkpt lat="45.68011" lon="2.93617">
        <ele>990.2</ele>
        <time>2022-08-06T10:03:33Z</time>
      </trkpt>
      <trkpt lat="45.68031" lon="2.9363">
        <ele>989.4</ele>
        <time>2022-08-06T10:03:35Z</time>
      </trkpt>
      <trkpt lat="45.6805" lon="2.93641">
        <ele>988.7</ele>
        <time>2022-08-06T10:03:37Z</time>
      </trkpt>
      <trkpt lat="45.68069" lon="2.9365">
        <ele>987.9</ele>
        <time>2022-08-06T10:03:39Z</time>
      </trkpt>
      <trkpt lat="45.6809" lon="2.93655">
        <ele>987.1</ele>
        <time>2022-08-06T10:03:41Z</time>
      </trkpt>
      <trkpt lat="45.68113" lon="2.9366">
        <ele>986.2</ele>
        <time>2022-08-06T10:03:43Z</time>
      </trkpt>
      <trkpt lat="45.68135" lon="2.93665">
        <ele>985.4</ele>
        <time>2022-08-06T10:03:45Z</time>
      </trkpt>
      <trkpt lat="45.68157" lon="2.93671">
        <ele>984.6</ele>
        <time>2022-08-06T10:03:47Z</time>
      </trkpt>
      <trkpt lat="45.68179" lon="2.93677">
        <ele>983.8</ele>
        <time>2022-08-06T10:03:49Z</time>
      </trkpt>
      <trkpt lat="45.68201" lon="2.93682">
        <ele>983</ele>
        <time>2022-08-06T10:03:51Z</time>
      </trkpt>
      <trkpt lat="45.68222" lon="2.93688">
        <ele>982.3</ele>
        <time>2022-08-06T10:03:53Z</time>
      </trkpt>
      <trkpt lat="45.68243" lon="2.93693">
        <ele>981.5</ele>
        <time>2022-08-06T10:03:55Z</time>
      </trkpt>
      <trkpt lat="45.68263" lon="2.93699">
        <ele>980.8</ele>
        <time>2022-08-06T10:03:57Z</time>
      </trkpt>
      <trkpt lat="45.68281" lon="2.93709">
        <ele>980.1</ele>
        <time>2022-08-06T10:03:59Z</time>
      </trkpt>
      <trkpt lat="45.68299" lon="2.93722">
        <ele>979.4</ele>
        <time>2022-08-06T10:04:01Z</time>
      </trkpt>
      <trkpt lat="45.68315" lon="2.9374">
        <ele>978.4</ele>
        <time>2022-08-06T10:04:03Z</time>
      </trkpt>
      <trkpt lat="45.6833" lon="2.93759">
        <ele>977.3</ele>
        <time>2022-08-06T10:04:05Z</time>
      </trkpt>
      <trkpt lat="45.68346" lon="2.9378">
        <ele>976.1</ele>
        <time>2022-08-06T10:04:07Z</time>
      </trkpt>
      <trkpt lat="45.68361" lon="2.938">
        <ele>974.9</ele>
        <time>2022-08-06T10:04:09Z</time>
      </trkpt>
      <trkpt lat="45.68376" lon="2.9382">
        <ele>973.7</ele>
        <time>2022-08-06T10:04:11Z</time>
      </trkpt>
      <trkpt lat="45.68393" lon="2.93839">
        <ele>972.5</ele>
        <time>2022-08-06T10:04:13Z</time>
      </trkpt>
      <trkpt lat="45.68411" lon="2.93857">
        <ele>971.3</ele>
        <time>2022-08-06T10:04:15Z</time>
      </trkpt>
      <trkpt lat="45.68429" lon="2.9387">
        <ele>970.2</ele>
        <time>2022-08-06T10:04:17Z</time>
      </trkpt>
      <trkpt lat="45.68449" lon="2.93877">
        <ele>969.1</ele>
        <time>2022-08-06T10:04:19Z</time>
      </trkpt>
      <trkpt lat="45.68468" lon="2.93876">
        <ele>968.1</ele>
        <time>2022-08-06T10:04:21Z</time>
      </trkpt>
      <trkpt lat="45.68488" lon="2.93874">
        <ele>967.4</ele>
        <time>2022-08-06T10:04:23Z</time>
      </trkpt>
      <trkpt lat="45.68506" lon="2.93872">
        <ele>967.1</ele>
        <time>2022-08-06T10:04:25Z</time>
      </trkpt>
      <trkpt lat="45.68521" lon="2.93876">
        <ele>966.9</ele>
        <time>2022-08-06T10:04:27Z</time>
      </trkpt>
      <trkpt lat="45.68531" lon="2.93881">
        <ele>966.2</ele>
        <time>2022-08-06T10:04:29Z</time>
      </trkpt>
      <trkpt lat="45.68533" lon="2.93881">
        <ele>966.2</ele>
        <time>2022-08-06T10:04:31Z</time>
      </trkpt>
      <trkpt lat="45.68532" lon="2.9388">
        <ele>966.2</ele>
        <time>2022-08-06T10:04:33Z</time>
      </trkpt>
      <trkpt lat="45.68532" lon="2.9388">
        <ele>966.2</ele>
        <time>2022-08-06T10:04:35Z</time>
      </trkpt>
      <trkpt lat="45.68532" lon="2.9388">
        <ele>966.2</ele>
        <time>2022-08-06T10:04:37Z</time>
      </trkpt>
      <trkpt lat="45.68532" lon="2.9388">
        <ele>966.2</ele>
        <time>2022-08-06T10:04:39Z</time>
      </trkpt>
      <trkpt lat="45.68532" lon="2.9388">
        <ele>966.2</ele>
        <time>2022-08-06T10:04:41Z</time>
      </trkpt>
      <trkpt lat="45.68532" lon="2.9388">
        <ele>966.2</ele>
        <time>2022-08-06T10:04:43Z</time>
      </trkpt>
      <trkpt lat="45.68531" lon="2.93893">
        <ele>965.9</ele>
        <time>2022-08-06T10:04:53Z</time>
      </trkpt>
      <trkpt lat="45.68529" lon="2.93905">
        <ele>965.7</ele>
        <time>2022-08-06T10:04:55Z</time>
      </trkpt>
      <trkpt lat="45.68527" lon="2.9392">
        <ele>965.4</ele>
        <time>2022-08-06T10:04:57Z</time>
      </trkpt>
      <trkpt lat="45.68526" lon="2.93938">
        <ele>965.1</ele>
        <time>2022-08-06T10:04:59Z</time>
      </trkpt>
      <trkpt lat="45.68525" lon="2.93956">
        <ele>964.8</ele>
        <time>2022-08-06T10:05:01Z</time>
      </trkpt>
      <trkpt lat="45.68525" lon="2.93974">
        <ele>964.6</ele>
        <time>2022-08-06T10:05:03Z</time>
      </trkpt>
      <trkpt lat="45.68524" lon="2.93994">
        <ele>964.5</ele>
        <time>2022-08-06T10:05:05Z</time>
      </trkpt>
      <trkpt lat="45.68524" lon="2.94014">
        <ele>964.4</ele>
        <time>2022-08-06T10:05:07Z</time>
      </trkpt>
      <trkpt lat="45.68525" lon="2.94033">
        <ele>964.3</ele>
        <time>2022-08-06T10:05:09Z</time>
      </trkpt>
      <trkpt lat="45.68524" lon="2.94051">
        <ele>964.3</ele>
        <time>2022-08-06T10:05:11Z</time>
      </trkpt>
      <trkpt lat="45.68523" lon="2.94068">
        <ele>964.2</ele>
        <time>2022-08-06T10:05:13Z</time>
      </trkpt>
      <trkpt lat="45.68523" lon="2.94085">
        <ele>964.2</ele>
        <time>2022-08-06T10:05:15Z</time>
      </trkpt>
      <trkpt lat="45.68523" lon="2.94104">
        <ele>964.1</ele>
        <time>2022-08-06T10:05:17Z</time>
      </trkpt>
      <trkpt lat="45.68523" lon="2.94124">
        <ele>963.9</ele>
        <time>2022-08-06T10:05:19Z</time>
      </trkpt>
      <trkpt lat="45.68523" lon="2.94143">
        <ele>963.9</ele>
        <time>2022-08-06T10:05:21Z</time>
      </trkpt>
      <trkpt lat="45.68523" lon="2.94161">
        <ele>963.9</ele>
        <time>2022-08-06T10:05:23Z</time>
      </trkpt>
      <trkpt lat="45.68523" lon="2.9418">
        <ele>963.9</ele>
        <time>2022-08-06T10:05:25Z</time>
      </trkpt>
      <trkpt lat="45.68523" lon="2.94198">
        <ele>963.8</ele>
        <time>2022-08-06T10:05:27Z</time>
      </trkpt>
      <trkpt lat="45.68523" lon="2.94217">
        <ele>963.8</ele>
        <time>2022-08-06T10:05:29Z</time>
      </trkpt>
      <trkpt lat="45.68522" lon="2.94237">
        <ele>963.7</ele>
        <time>2022-08-06T10:05:31Z</time>
      </trkpt>
      <trkpt lat="45.68522" lon="2.94259">
        <ele>963.5</ele>
        <time>2022-08-06T10:05:33Z</time>
      </trkpt>
      <trkpt lat="45.68521" lon="2.94281">
        <ele>963.3</ele>
        <time>2022-08-06T10:05:35Z</time>
      </trkpt>
      <trkpt lat="45.68521" lon="2.94303">
        <ele>963.1</ele>
        <time>2022-08-06T10:05:37Z</time>
      </trkpt>
      <trkpt lat="45.68521" lon="2.94326">
        <ele>962.9</ele>
        <time>2022-08-06T10:05:39Z</time>
      </trkpt>
      <trkpt lat="45.6852" lon="2.94349">
        <ele>962.7</ele>
        <time>2022-08-06T10:05:41Z</time>
      </trkpt>
      <trkpt lat="45.6852" lon="2.94372">
        <ele>962.5</ele>
        <time>2022-08-06T10:05:43Z</time>
      </trkpt>
      <trkpt lat="45.68519" lon="2.94396">
        <ele>962.4</ele>
        <time>2022-08-06T10:05:45Z</time>
      </trkpt>
      <trkpt lat="45.68519" lon="2.94419">
        <ele>962.4</ele>
        <time>2022-08-06T10:05:47Z</time>
      </trkpt>
      <trkpt lat="45.68517" lon="2.94442">
        <ele>962.3</ele>
        <time>2022-08-06T10:05:49Z</time>
      </trkpt>
      <trkpt lat="45.68513" lon="2.94463">
        <ele>962.3</ele>
        <time>2022-08-06T10:05:51Z</time>
      </trkpt>
      <trkpt lat="45.68509" lon="2.94485">
        <ele>962.2</ele>
        <time>2022-08-06T10:05:53Z</time>
      </trkpt>
      <trkpt lat="45.68503" lon="2.94505">
        <ele>962.2</ele>
        <time>2022-08-06T10:05:55Z</time>
      </trkpt>
      <trkpt lat="45.68496" lon="2.94525">
        <ele>962.2</ele>
        <time>2022-08-06T10:05:57Z</time>
      </trkpt>
      <trkpt lat="45.68489" lon="2.94545">
        <ele>962.1</ele>
        <time>2022-08-06T10:05:59Z</time>
      </trkpt>
      <trkpt lat="45.68483" lon="2.94564">
        <ele>962</ele>
        <time>2022-08-06T10:06:01Z</time>
      </trkpt>
      <trkpt lat="45.68475" lon="2.94583">
        <ele>961.9</ele>
        <time>2022-08-06T10:06:03Z</time>
      </trkpt>
      <trkpt lat="45.68468" lon="2.94602">
        <ele>961.7</ele>
        <time>2022-08-06T10:06:05Z</time>
      </trkpt>
      <trkpt lat="45.68462" lon="2.94621">
        <ele>961.6</ele>
        <time>2022-08-06T10:06:07Z</time>
      </trkpt>
      <trkpt lat="45.68454" lon="2.9464">
        <ele>961.4</ele>
        <time>2022-08-06T10:06:09Z</time>
      </trkpt>
      <trkpt lat="45.68447" lon="2.94659">
        <ele>961.1</ele>
        <time>2022-08-06T10:06:11Z</time>
      </trkpt>
      <trkpt lat="45.6844" lon="2.9468">
        <ele>960.9</ele>
        <time>2022-08-06T10:06:13Z</time>
      </trkpt>
      <trkpt lat="45.68432" lon="2.94701">
        <ele>960.5</ele>
        <time>2022-08-06T10:06:15Z</time>
      </trkpt>
      <trkpt lat="45.68425" lon="2.94722">
        <ele>960.2</ele>
        <time>2022-08-06T10:06:17Z</time>
      </trkpt>
      <trkpt lat="45.68417" lon="2.94743">
        <ele>959.8</ele>
        <time>2022-08-06T10:06:19Z</time>
      </trkpt>
      <trkpt lat="45.6841" lon="2.94765">
        <ele>959.4</ele>
        <time>2022-08-06T10:06:21Z</time>
      </trkpt>
      <trkpt lat="45.68402" lon="2.94788">
        <ele>958.9</ele>
        <time>2022-08-06T10:06:23Z</time>
      </trkpt>
      <trkpt lat="45.68395" lon="2.94811">
        <ele>958.5</ele>
        <time>2022-08-06T10:06:25Z</time>
      </trkpt>
      <trkpt lat="45.68387" lon="2.94833">
        <ele>958.2</ele>
        <time>2022-08-06T10:06:27Z</time>
      </trkpt>
      <trkpt lat="45.6838" lon="2.94856">
        <ele>958.2</ele>
        <time>2022-08-06T10:06:29Z</time>
      </trkpt>
      <trkpt lat="45.68373" lon="2.94879">
        <ele>958.3</ele>
        <time>2022-08-06T10:06:31Z</time>
      </trkpt>
      <trkpt lat="45.68367" lon="2.94901">
        <ele>958.4</ele>
        <time>2022-08-06T10:06:33Z</time>
      </trkpt>
      <trkpt lat="45.68362" lon="2.94923">
        <ele>958.5</ele>
        <time>2022-08-06T10:06:35Z</time>
      </trkpt>
      <trkpt lat="45.68359" lon="2.94946">
        <ele>958.5</ele>
        <time>2022-08-06T10:06:37Z</time>
      </trkpt>
      <trkpt lat="45.68356" lon="2.94969">
        <ele>958.5</ele>
        <time>2022-08-06T10:06:39Z</time>
      </trkpt>
      <trkpt lat="45.68354" lon="2.94991">
        <ele>958.4</ele>
        <time>2022-08-06T10:06:41Z</time>
      </trkpt>
      <trkpt lat="45.68351" lon="2.95013">
        <ele>958.3</ele>
        <time>2022-08-06T10:06:43Z</time>
      </trkpt>
      <trkpt lat="45.68349" lon="2.95035">
        <ele>958.3</ele>
        <time>2022-08-06T10:06:45Z</time>
      </trkpt>
      <trkpt lat="45.68347" lon="2.95056">
        <ele>958.2</ele>
        <time>2022-08-06T10:06:47Z</time>
      </trkpt>
      <trkpt lat="45.68346" lon="2.95078">
        <ele>958.1</ele>
        <time>2022-08-06T10:06:49Z</time>
      </trkpt>
      <trkpt lat="45.68343" lon="2.951">
        <ele>958</ele>
        <time>2022-08-06T10:06:51Z</time>
      </trkpt>
      <trkpt lat="45.6834" lon="2.95121">
        <ele>957.8</ele>
        <time>2022-08-06T10:06:53Z</time>
      </trkpt>
      <trkpt lat="45.68338" lon="2.95143">
        <ele>957.6</ele>
        <time>2022-08-06T10:06:55Z</time>
      </trkpt>
      <trkpt lat="45.68336" lon="2.95165">
        <ele>957.5</ele>
        <time>2022-08-06T10:06:57Z</time>
      </trkpt>
      <trkpt lat="45.68334" lon="2.95187">
        <ele>957.4</ele>
        <time>2022-08-06T10:06:59Z</time>
      </trkpt>
      <trkpt lat="45.68331" lon="2.95209">
        <ele>957.3</ele>
        <time>2022-08-06T10:07:01Z</time>
      </trkpt>
      <trkpt lat="45.68329" lon="2.95232">
        <ele>957.2</ele>
        <time>2022-08-06T10:07:03Z</time>
      </trkpt>
      <trkpt lat="45.68327" lon="2.95256">
        <ele>957.1</ele>
        <time>2022-08-06T10:07:05Z</time>
      </trkpt>
      <trkpt lat="45.68325" lon="2.95279">
        <ele>957.1</ele>
        <time>2022-08-06T10:07:07Z</time>
      </trkpt>
      <trkpt lat="45.68323" lon="2.95301">
        <ele>957</ele>
        <time>2022-08-06T10:07:09Z</time>
      </trkpt>
      <trkpt lat="45.68321" lon="2.95324">
        <ele>957</ele>
        <time>2022-08-06T10:07:11Z</time>
      </trkpt>
      <trkpt lat="45.68318" lon="2.95347">
        <ele>957</ele>
        <time>2022-08-06T10:07:13Z</time>
      </trkpt>
      <trkpt lat="45.68316" lon="2.95369">
        <ele>957</ele>
        <time>2022-08-06T10:07:15Z</time>
      </trkpt>
      <trkpt lat="45.68313" lon="2.95391">
        <ele>957</ele>
        <time>2022-08-06T10:07:17Z</time>
      </trkpt>
      <trkpt lat="45.68312" lon="2.95413">
        <ele>957</ele>
        <time>2022-08-06T10:07:19Z</time>
      </trkpt>
      <trkpt lat="45.6831" lon="2.95435">
        <ele>957</ele>
        <time>2022-08-06T10:07:21Z</time>
      </trkpt>
      <trkpt lat="45.68307" lon="2.95457">
        <ele>957.1</ele>
        <time>2022-08-06T10:07:23Z</time>
      </trkpt>
      <trkpt lat="45.68306" lon="2.95478">
        <ele>957.1</ele>
        <time>2022-08-06T10:07:25Z</time>
      </trkpt>
      <trkpt lat="45.68305" lon="2.955">
        <ele>957.1</ele>
        <time>2022-08-06T10:07:27Z</time>
      </trkpt>
      <trkpt lat="45.68304" lon="2.95521">
        <ele>957.2</ele>
        <time>2022-08-06T10:07:29Z</time>
      </trkpt>
      <trkpt lat="45.68304" lon="2.95542">
        <ele>957.2</ele>
        <time>2022-08-06T10:07:31Z</time>
      </trkpt>
      <trkpt lat="45.68304" lon="2.95564">
        <ele>957.2</ele>
        <time>2022-08-06T10:07:33Z</time>
      </trkpt>
      <trkpt lat="45.68306" lon="2.95585">
        <ele>957.3</ele>
        <time>2022-08-06T10:07:35Z</time>
      </trkpt>
      <trkpt lat="45.68306" lon="2.95606">
        <ele>957.3</ele>
        <time>2022-08-06T10:07:37Z</time>
      </trkpt>
      <trkpt lat="45.68308" lon="2.95628">
        <ele>957.3</ele>
        <time>2022-08-06T10:07:39Z</time>
      </trkpt>
      <trkpt lat="45.68309" lon="2.95649">
        <ele>957.3</ele>
        <time>2022-08-06T10:07:41Z</time>
      </trkpt>
      <trkpt lat="45.68309" lon="2.95671">
        <ele>957.4</ele>
        <time>2022-08-06T10:07:43Z</time>
      </trkpt>
      <trkpt lat="45.6831" lon="2.95692">
        <ele>957.5</ele>
        <time>2022-08-06T10:07:45Z</time>
      </trkpt>
      <trkpt lat="45.6831" lon="2.95713">
        <ele>957.6</ele>
        <time>2022-08-06T10:07:47Z</time>
      </trkpt>
      <trkpt lat="45.68311" lon="2.95734">
        <ele>957.8</ele>
        <time>2022-08-06T10:07:49Z</time>
      </trkpt>
      <trkpt lat="45.68313" lon="2.95755">
        <ele>958</ele>
        <time>2022-08-06T10:07:51Z</time>
      </trkpt>
      <trkpt lat="45.68314" lon="2.95776">
        <ele>958.2</ele>
        <time>2022-08-06T10:07:53Z</time>
      </trkpt>
      <trkpt lat="45.68315" lon="2.95797">
        <ele>958.5</ele>
        <time>2022-08-06T10:07:55Z</time>
      </trkpt>
      <trkpt lat="45.68316" lon="2.95817">
        <ele>958.6</ele>
        <time>2022-08-06T10:07:57Z</time>
      </trkpt>
      <trkpt lat="45.68316" lon="2.95838">
        <ele>958.8</ele>
        <time>2022-08-06T10:07:59Z</time>
      </trkpt>
      <trkpt lat="45.68317" lon="2.95858">
        <ele>959</ele>
        <time>2022-08-06T10:08:01Z</time>
      </trkpt>
      <trkpt lat="45.68318" lon="2.95879">
        <ele>959.1</ele>
        <time>2022-08-06T10:08:03Z</time>
      </trkpt>
      <trkpt lat="45.6832" lon="2.95899">
        <ele>959.2</ele>
        <time>2022-08-06T10:08:05Z</time>
      </trkpt>
      <trkpt lat="45.6832" lon="2.9592">
        <ele>959.2</ele>
        <time>2022-08-06T10:08:07Z</time>
      </trkpt>
      <trkpt lat="45.68321" lon="2.95942">
        <ele>959.1</ele>
        <time>2022-08-06T10:08:09Z</time>
      </trkpt>
      <trkpt lat="45.68322" lon="2.95963">
        <ele>959.1</ele>
        <time>2022-08-06T10:08:11Z</time>
      </trkpt>
      <trkpt lat="45.68323" lon="2.95984">
        <ele>959.1</ele>
        <time>2022-08-06T10:08:13Z</time>
      </trkpt>
      <trkpt lat="45.68323" lon="2.96004">
        <ele>959.2</ele>
        <time>2022-08-06T10:08:15Z</time>
      </trkpt>
      <trkpt lat="45.68324" lon="2.96025">
        <ele>959.2</ele>
        <time>2022-08-06T10:08:17Z</time>
      </trkpt>
      <trkpt lat="45.68325" lon="2.96045">
        <ele>959.3</ele>
        <time>2022-08-06T10:08:19Z</time>
      </trkpt>
      <trkpt lat="45.68326" lon="2.96065">
        <ele>959.4</ele>
        <time>2022-08-06T10:08:21Z</time>
      </trkpt>
      <trkpt lat="45.68326" lon="2.96084">
        <ele>959.6</ele>
        <time>2022-08-06T10:08:23Z</time>
      </trkpt>
      <trkpt lat="45.68328" lon="2.96104">
        <ele>959.8</ele>
        <time>2022-08-06T10:08:25Z</time>
      </trkpt>
      <trkpt lat="45.68329" lon="2.96124">
        <ele>960.1</ele>
        <time>2022-08-06T10:08:27Z</time>
      </trkpt>
      <trkpt lat="45.6833" lon="2.96144">
        <ele>960.3</ele>
        <time>2022-08-06T10:08:29Z</time>
      </trkpt>
      <trkpt lat="45.68331" lon="2.96164">
        <ele>960.2</ele>
        <time>2022-08-06T10:08:31Z</time>
      </trkpt>
      <trkpt lat="45.68331" lon="2.96184">
        <ele>960</ele>
        <time>2022-08-06T10:08:33Z</time>
      </trkpt>
      <trkpt lat="45.68332" lon="2.96204">
        <ele>959.7</ele>
        <time>2022-08-06T10:08:35Z</time>
      </trkpt>
      <trkpt lat="45.68333" lon="2.96224">
        <ele>959.6</ele>
        <time>2022-08-06T10:08:37Z</time>
      </trkpt>
      <trkpt lat="45.68334" lon="2.96245">
        <ele>959.7</ele>
        <time>2022-08-06T10:08:39Z</time>
      </trkpt>
      <trkpt lat="45.68334" lon="2.96267">
        <ele>959.7</ele>
        <time>2022-08-06T10:08:41Z</time>
      </trkpt>
      <trkpt lat="45.68334" lon="2.96289">
        <ele>959.7</ele>
        <time>2022-08-06T10:08:43Z</time>
      </trkpt>
      <trkpt lat="45.68332" lon="2.9631">
        <ele>959.6</ele>
        <time>2022-08-06T10:08:45Z</time>
      </trkpt>
      <trkpt lat="45.68329" lon="2.96332">
        <ele>959.6</ele>
        <time>2022-08-06T10:08:47Z</time>
      </trkpt>
      <trkpt lat="45.68324" lon="2.96352">
        <ele>959.6</ele>
        <time>2022-08-06T10:08:49Z</time>
      </trkpt>
      <trkpt lat="45.68317" lon="2.96372">
        <ele>959.6</ele>
        <time>2022-08-06T10:08:51Z</time>
      </trkpt>
      <trkpt lat="45.68309" lon="2.96389">
        <ele>959.7</ele>
        <time>2022-08-06T10:08:53Z</time>
      </trkpt>
      <trkpt lat="45.68301" lon="2.96406">
        <ele>959.8</ele>
        <time>2022-08-06T10:08:55Z</time>
      </trkpt>
      <trkpt lat="45.68294" lon="2.96422">
        <ele>960</ele>
        <time>2022-08-06T10:08:57Z</time>
      </trkpt>
      <trkpt lat="45.68287" lon="2.96438">
        <ele>960.3</ele>
        <time>2022-08-06T10:08:59Z</time>
      </trkpt>
      <trkpt lat="45.68279" lon="2.96454">
        <ele>960.6</ele>
        <time>2022-08-06T10:09:01Z</time>
      </trkpt>
      <trkpt lat="45.68271" lon="2.9647">
        <ele>960.9</ele>
        <time>2022-08-06T10:09:03Z</time>
      </trkpt>
      <trkpt lat="45.68264" lon="2.96485">
        <ele>961.1</ele>
        <time>2022-08-06T10:09:05Z</time>
      </trkpt>
      <trkpt lat="45.68256" lon="2.965">
        <ele>961.3</ele>
        <time>2022-08-06T10:09:07Z</time>
      </trkpt>
      <trkpt lat="45.68248" lon="2.96515">
        <ele>961.6</ele>
        <time>2022-08-06T10:09:09Z</time>
      </trkpt>
      <trkpt lat="45.68241" lon="2.9653">
        <ele>961.9</ele>
        <time>2022-08-06T10:09:11Z</time>
      </trkpt>
      <trkpt lat="45.68235" lon="2.96545">
        <ele>962.3</ele>
        <time>2022-08-06T10:09:13Z</time>
      </trkpt>
      <trkpt lat="45.68229" lon="2.9656">
        <ele>962.4</ele>
        <time>2022-08-06T10:09:15Z</time>
      </trkpt>
      <trkpt lat="45.68226" lon="2.96576">
        <ele>962.4</ele>
        <time>2022-08-06T10:09:17Z</time>
      </trkpt>
      <trkpt lat="45.68223" lon="2.96593">
        <ele>962.4</ele>
        <time>2022-08-06T10:09:19Z</time>
      </trkpt>
      <trkpt lat="45.6822" lon="2.96609">
        <ele>962.4</ele>
        <time>2022-08-06T10:09:21Z</time>
      </trkpt>
      <trkpt lat="45.68218" lon="2.96626">
        <ele>962.4</ele>
        <time>2022-08-06T10:09:23Z</time>
      </trkpt>
      <trkpt lat="45.68217" lon="2.96643">
        <ele>962.5</ele>
        <time>2022-08-06T10:09:25Z</time>
      </trkpt>
      <trkpt lat="45.68218" lon="2.9666">
        <ele>962.6</ele>
        <time>2022-08-06T10:09:27Z</time>
      </trkpt>
      <trkpt lat="45.68219" lon="2.96677">
        <ele>962.7</ele>
        <time>2022-08-06T10:09:29Z</time>
      </trkpt>
      <trkpt lat="45.68222" lon="2.96695">
        <ele>962.6</ele>
        <time>2022-08-06T10:09:31Z</time>
      </trkpt>
      <trkpt lat="45.68226" lon="2.96712">
        <ele>962.4</ele>
        <time>2022-08-06T10:09:33Z</time>
      </trkpt>
      <trkpt lat="45.6823" lon="2.96729">
        <ele>962.4</ele>
        <time>2022-08-06T10:09:35Z</time>
      </trkpt>
      <trkpt lat="45.68235" lon="2.96747">
        <ele>962.3</ele>
        <time>2022-08-06T10:09:37Z</time>
      </trkpt>
      <trkpt lat="45.68242" lon="2.96764">
        <ele>962.2</ele>
        <time>2022-08-06T10:09:39Z</time>
      </trkpt>
      <trkpt lat="45.68251" lon="2.9678">
        <ele>962</ele>
        <time>2022-08-06T10:09:41Z</time>
      </trkpt>
      <trkpt lat="45.68261" lon="2.96796">
        <ele>961.8</ele>
        <time>2022-08-06T10:09:43Z</time>
      </trkpt>
      <trkpt lat="45.68272" lon="2.96811">
        <ele>961.5</ele>
        <time>2022-08-06T10:09:45Z</time>
      </trkpt>
      <trkpt lat="45.68285" lon="2.96824">
        <ele>961</ele>
        <time>2022-08-06T10:09:47Z</time>
      </trkpt>
      <trkpt lat="45.68299" lon="2.96835">
        <ele>960.4</ele>
        <time>2022-08-06T10:09:49Z</time>
      </trkpt>
      <trkpt lat="45.68314" lon="2.96844">
        <ele>959.7</ele>
        <time>2022-08-06T10:09:51Z</time>
      </trkpt>
      <trkpt lat="45.68331" lon="2.96851">
        <ele>959</ele>
        <time>2022-08-06T10:09:53Z</time>
      </trkpt>
      <trkpt lat="45.68348" lon="2.96858">
        <ele>958.1</ele>
        <time>2022-08-06T10:09:55Z</time>
      </trkpt>
      <trkpt lat="45.68367" lon="2.96861">
        <ele>957.3</ele>
        <time>2022-08-06T10:09:57Z</time>
      </trkpt>
      <trkpt lat="45.68386" lon="2.9686">
        <ele>956.4</ele>
        <time>2022-08-06T10:09:59Z</time>
      </trkpt>
      <trkpt lat="45.68405" lon="2.96857">
        <ele>955.5</ele>
        <time>2022-08-06T10:10:01Z</time>
      </trkpt>
      <trkpt lat="45.68424" lon="2.96853">
        <ele>954.6</ele>
        <time>2022-08-06T10:10:03Z</time>
      </trkpt>
      <trkpt lat="45.68444" lon="2.96849">
        <ele>953.6</ele>
        <time>2022-08-06T10:10:05Z</time>
      </trkpt>
      <trkpt lat="45.68465" lon="2.96846">
        <ele>952.4</ele>
        <time>2022-08-06T10:10:07Z</time>
      </trkpt>
      <trkpt lat="45.68487" lon="2.96845">
        <ele>951</ele>
        <time>2022-08-06T10:10:09Z</time>
      </trkpt>
      <trkpt lat="45.68509" lon="2.96848">
        <ele>949.6</ele>
        <time>2022-08-06T10:10:11Z</time>
      </trkpt>
      <trkpt lat="45.68531" lon="2.96856">
        <ele>948.1</ele>
        <time>2022-08-06T10:10:13Z</time>
      </trkpt>
      <trkpt lat="45.68552" lon="2.96869">
        <ele>946.5</ele>
        <time>2022-08-06T10:10:15Z</time>
      </trkpt>
      <trkpt lat="45.68572" lon="2.96884">
        <ele>945.1</ele>
        <time>2022-08-06T10:10:17Z</time>
      </trkpt>
      <trkpt lat="45.68591" lon="2.96905">
        <ele>943.5</ele>
        <time>2022-08-06T10:10:19Z</time>
      </trkpt>
      <trkpt lat="45.68608" lon="2.96929">
        <ele>941.9</ele>
        <time>2022-08-06T10:10:21Z</time>
      </trkpt>
      <trkpt lat="45.68624" lon="2.96957">
        <ele>940.3</ele>
        <time>2022-08-06T10:10:23Z</time>
      </trkpt>
      <trkpt lat="45.68636" lon="2.96989">
        <ele>938.8</ele>
        <time>2022-08-06T10:10:25Z</time>
      </trkpt>
      <trkpt lat="45.68646" lon="2.97023">
        <ele>937.4</ele>
        <time>2022-08-06T10:10:27Z</time>
      </trkpt>
      <trkpt lat="45.68653" lon="2.97058">
        <ele>936.2</ele>
        <time>2022-08-06T10:10:29Z</time>
      </trkpt>
      <trkpt lat="45.6866" lon="2.97094">
        <ele>935.1</ele>
        <time>2022-08-06T10:10:31Z</time>
      </trkpt>
      <trkpt lat="45.68665" lon="2.97129">
        <ele>934.1</ele>
        <time>2022-08-06T10:10:33Z</time>
      </trkpt>
      <trkpt lat="45.6867" lon="2.97166">
        <ele>933.1</ele>
        <time>2022-08-06T10:10:35Z</time>
      </trkpt>
      <trkpt lat="45.68677" lon="2.97202">
        <ele>932.2</ele>
        <time>2022-08-06T10:10:37Z</time>
      </trkpt>
      <trkpt lat="45.68683" lon="2.97237">
        <ele>931.1</ele>
        <time>2022-08-06T10:10:39Z</time>
      </trkpt>
      <trkpt lat="45.6869" lon="2.97272">
        <ele>930.2</ele>
        <time>2022-08-06T10:10:41Z</time>
      </trkpt>
      <trkpt lat="45.68697" lon="2.97306">
        <ele>929.1</ele>
        <time>2022-08-06T10:10:43Z</time>
      </trkpt>
      <trkpt lat="45.68703" lon="2.97341">
        <ele>927.9</ele>
        <time>2022-08-06T10:10:45Z</time>
      </trkpt>
      <trkpt lat="45.68709" lon="2.97374">
        <ele>926.9</ele>
        <time>2022-08-06T10:10:47Z</time>
      </trkpt>
      <trkpt lat="45.68716" lon="2.97408">
        <ele>926.1</ele>
        <time>2022-08-06T10:10:49Z</time>
      </trkpt>
      <trkpt lat="45.68722" lon="2.97441">
        <ele>925</ele>
        <time>2022-08-06T10:10:51Z</time>
      </trkpt>
      <trkpt lat="45.6873" lon="2.97473">
        <ele>924.3</ele>
        <time>2022-08-06T10:10:53Z</time>
      </trkpt>
      <trkpt lat="45.68738" lon="2.97504">
        <ele>923.7</ele>
        <time>2022-08-06T10:10:55Z</time>
      </trkpt>
      <trkpt lat="45.68747" lon="2.97533">
        <ele>923.2</ele>
        <time>2022-08-06T10:10:57Z</time>
      </trkpt>
      <trkpt lat="45.68755" lon="2.97561">
        <ele>922.9</ele>
        <time>2022-08-06T10:10:59Z</time>
      </trkpt>
      <trkpt lat="45.68764" lon="2.97588">
        <ele>922.7</ele>
        <time>2022-08-06T10:11:01Z</time>
      </trkpt>
      <trkpt lat="45.68772" lon="2.97616">
        <ele>922.6</ele>
        <time>2022-08-06T10:11:03Z</time>
      </trkpt>
      <trkpt lat="45.68781" lon="2.97641">
        <ele>922.4</ele>
        <time>2022-08-06T10:11:05Z</time>
      </trkpt>
      <trkpt lat="45.6879" lon="2.97666">
        <ele>922.3</ele>
        <time>2022-08-06T10:11:07Z</time>
      </trkpt>
      <trkpt lat="45.68799" lon="2.97691">
        <ele>922.2</ele>
        <time>2022-08-06T10:11:09Z</time>
      </trkpt>
      <trkpt lat="45.68808" lon="2.97716">
        <ele>922.1</ele>
        <time>2022-08-06T10:11:11Z</time>
      </trkpt>
      <trkpt lat="45.68817" lon="2.9774">
        <ele>922.1</ele>
        <time>2022-08-06T10:11:13Z</time>
      </trkpt>
      <trkpt lat="45.68825" lon="2.97764">
        <ele>922.1</ele>
        <time>2022-08-06T10:11:15Z</time>
      </trkpt>
      <trkpt lat="45.68833" lon="2.97787">
        <ele>922.1</ele>
        <time>2022-08-06T10:11:17Z</time>
      </trkpt>
      <trkpt lat="45.68842" lon="2.97811">
        <ele>922.1</ele>
        <time>2022-08-06T10:11:19Z</time>
      </trkpt>
      <trkpt lat="45.6885" lon="2.97833">
        <ele>922.1</ele>
        <time>2022-08-06T10:11:21Z</time>
      </trkpt>
      <trkpt lat="45.68859" lon="2.97856">
        <ele>921.9</ele>
        <time>2022-08-06T10:11:23Z</time>
      </trkpt>
      <trkpt lat="45.68867" lon="2.97879">
        <ele>921.7</ele>
        <time>2022-08-06T10:11:25Z</time>
      </trkpt>
      <trkpt lat="45.68875" lon="2.97901">
        <ele>921.5</ele>
        <time>2022-08-06T10:11:27Z</time>
      </trkpt>
      <trkpt lat="45.68883" lon="2.97925">
        <ele>921.2</ele>
        <time>2022-08-06T10:11:29Z</time>
      </trkpt>
      <trkpt lat="45.68892" lon="2.97948">
        <ele>920.8</ele>
        <time>2022-08-06T10:11:31Z</time>
      </trkpt>
      <trkpt lat="45.68901" lon="2.97972">
        <ele>920.5</ele>
        <time>2022-08-06T10:11:33Z</time>
      </trkpt>
      <trkpt lat="45.68909" lon="2.97994">
        <ele>920.1</ele>
        <time>2022-08-06T10:11:35Z</time>
      </trkpt>
      <trkpt lat="45.68916" lon="2.98018">
        <ele>919.9</ele>
        <time>2022-08-06T10:11:37Z</time>
      </trkpt>
      <trkpt lat="45.68924" lon="2.98041">
        <ele>919.5</ele>
        <time>2022-08-06T10:11:39Z</time>
      </trkpt>
      <trkpt lat="45.68933" lon="2.98063">
        <ele>919.1</ele>
        <time>2022-08-06T10:11:41Z</time>
      </trkpt>
      <trkpt lat="45.68942" lon="2.98085">
        <ele>918.8</ele>
        <time>2022-08-06T10:11:43Z</time>
      </trkpt>
      <trkpt lat="45.68951" lon="2.98107">
        <ele>918.5</ele>
        <time>2022-08-06T10:11:45Z</time>
      </trkpt>
      <trkpt lat="45.68962" lon="2.98129">
        <ele>918.1</ele>
        <time>2022-08-06T10:11:47Z</time>
      </trkpt>
      <trkpt lat="45.68973" lon="2.98151">
        <ele>917.8</ele>
        <time>2022-08-06T10:11:49Z</time>
      </trkpt>
      <trkpt lat="45.68984" lon="2.98173">
        <ele>917.5</ele>
        <time>2022-08-06T10:11:51Z</time>
      </trkpt>
      <trkpt lat="45.68994" lon="2.98195">
        <ele>917.2</ele>
        <time>2022-08-06T10:11:53Z</time>
      </trkpt>
      <trkpt lat="45.69004" lon="2.98216">
        <ele>917.1</ele>
        <time>2022-08-06T10:11:55Z</time>
      </trkpt>
      <trkpt lat="45.69014" lon="2.98236">
        <ele>917</ele>
        <time>2022-08-06T10:11:57Z</time>
      </trkpt>
      <trkpt lat="45.69024" lon="2.98257">
        <ele>917</ele>
        <time>2022-08-06T10:11:59Z</time>
      </trkpt>
      <trkpt lat="45.69033" lon="2.98279">
        <ele>916.9</ele>
        <time>2022-08-06T10:12:01Z</time>
      </trkpt>
      <trkpt lat="45.69041" lon="2.98301">
        <ele>916.9</ele>
        <time>2022-08-06T10:12:03Z</time>
      </trkpt>
      <trkpt lat="45.69049" lon="2.98324">
        <ele>916.8</ele>
        <time>2022-08-06T10:12:05Z</time>
      </trkpt>
      <trkpt lat="45.69057" lon="2.98347">
        <ele>916.7</ele>
        <time>2022-08-06T10:12:07Z</time>
      </trkpt>
      <trkpt lat="45.69064" lon="2.98369">
        <ele>916.7</ele>
        <time>2022-08-06T10:12:09Z</time>
      </trkpt>
      <trkpt lat="45.69071" lon="2.98392">
        <ele>916.6</ele>
        <time>2022-08-06T10:12:11Z</time>
      </trkpt>
      <trkpt lat="45.69077" lon="2.98416">
        <ele>916.4</ele>
        <time>2022-08-06T10:12:13Z</time>
      </trkpt>
      <trkpt lat="45.69082" lon="2.98439">
        <ele>916.2</ele>
        <time>2022-08-06T10:12:15Z</time>
      </trkpt>
      <trkpt lat="45.69088" lon="2.98461">
        <ele>916.2</ele>
        <time>2022-08-06T10:12:17Z</time>
      </trkpt>
      <trkpt lat="45.69094" lon="2.98483">
        <ele>916.1</ele>
        <time>2022-08-06T10:12:19Z</time>
      </trkpt>
      <trkpt lat="45.691" lon="2.98506">
        <ele>916.2</ele>
        <time>2022-08-06T10:12:21Z</time>
      </trkpt>
      <trkpt lat="45.69105" lon="2.98529">
        <ele>916.4</ele>
        <time>2022-08-06T10:12:23Z</time>
      </trkpt>
      <trkpt lat="45.69109" lon="2.98552">
        <ele>916.5</ele>
        <time>2022-08-06T10:12:25Z</time>
      </trkpt>
      <trkpt lat="45.69112" lon="2.98575">
        <ele>916.6</ele>
        <time>2022-08-06T10:12:27Z</time>
      </trkpt>
      <trkpt lat="45.69113" lon="2.98598">
        <ele>916.7</ele>
        <time>2022-08-06T10:12:29Z</time>
      </trkpt>
      <trkpt lat="45.69114" lon="2.9862">
        <ele>916.8</ele>
        <time>2022-08-06T10:12:31Z</time>
      </trkpt>
      <trkpt lat="45.69113" lon="2.98642">
        <ele>916.9</ele>
        <time>2022-08-06T10:12:33Z</time>
      </trkpt>
      <trkpt lat="45.69112" lon="2.98664">
        <ele>917</ele>
        <time>2022-08-06T10:12:35Z</time>
      </trkpt>
      <trkpt lat="45.69108" lon="2.98685">
        <ele>917.1</ele>
        <time>2022-08-06T10:12:37Z</time>
      </trkpt>
      <trkpt lat="45.69104" lon="2.98706">
        <ele>917.1</ele>
        <time>2022-08-06T10:12:39Z</time>
      </trkpt>
      <trkpt lat="45.69101" lon="2.98726">
        <ele>917.1</ele>
        <time>2022-08-06T10:12:41Z</time>
      </trkpt>
      <trkpt lat="45.69097" lon="2.98746">
        <ele>917.1</ele>
        <time>2022-08-06T10:12:43Z</time>
      </trkpt>
      <trkpt lat="45.69092" lon="2.98766">
        <ele>917.1</ele>
        <time>2022-08-06T10:12:45Z</time>
      </trkpt>
      <trkpt lat="45.69088" lon="2.98787">
        <ele>917.1</ele>
        <time>2022-08-06T10:12:47Z</time>
      </trkpt>
      <trkpt lat="45.69084" lon="2.98808">
        <ele>917</ele>
        <time>2022-08-06T10:12:49Z</time>
      </trkpt>
      <trkpt lat="45.69082" lon="2.98828">
        <ele>916.7</ele>
        <time>2022-08-06T10:12:51Z</time>
      </trkpt>
      <trkpt lat="45.69079" lon="2.98849">
        <ele>916.4</ele>
        <time>2022-08-06T10:12:53Z</time>
      </trkpt>
      <trkpt lat="45.69077" lon="2.98871">
        <ele>916</ele>
        <time>2022-08-06T10:12:55Z</time>
      </trkpt>
      <trkpt lat="45.69076" lon="2.98893">
        <ele>915.5</ele>
        <time>2022-08-06T10:12:57Z</time>
      </trkpt>
      <trkpt lat="45.69077" lon="2.98915">
        <ele>914.9</ele>
        <time>2022-08-06T10:12:59Z</time>
      </trkpt>
      <trkpt lat="45.69079" lon="2.98938">
        <ele>914.3</ele>
        <time>2022-08-06T10:13:01Z</time>
      </trkpt>
      <trkpt lat="45.69082" lon="2.98961">
        <ele>913.6</ele>
        <time>2022-08-06T10:13:03Z</time>
      </trkpt>
      <trkpt lat="45.69086" lon="2.98984">
        <ele>912.7</ele>
        <time>2022-08-06T10:13:05Z</time>
      </trkpt>
      <trkpt lat="45.69091" lon="2.99007">
        <ele>911.7</ele>
        <time>2022-08-06T10:13:07Z</time>
      </trkpt>
      <trkpt lat="45.69099" lon="2.9903">
        <ele>910.6</ele>
        <time>2022-08-06T10:13:09Z</time>
      </trkpt>
      <trkpt lat="45.69107" lon="2.99054">
        <ele>909.5</ele>
        <time>2022-08-06T10:13:11Z</time>
      </trkpt>
      <trkpt lat="45.69115" lon="2.99079">
        <ele>908.5</ele>
        <time>2022-08-06T10:13:13Z</time>
      </trkpt>
      <trkpt lat="45.69124" lon="2.99103">
        <ele>907.6</ele>
        <time>2022-08-06T10:13:15Z</time>
      </trkpt>
      <trkpt lat="45.69132" lon="2.99127">
        <ele>907</ele>
        <time>2022-08-06T10:13:17Z</time>
      </trkpt>
      <trkpt lat="45.69141" lon="2.99151">
        <ele>906.4</ele>
        <time>2022-08-06T10:13:19Z</time>
      </trkpt>
      <trkpt lat="45.69149" lon="2.99174">
        <ele>905.9</ele>
        <time>2022-08-06T10:13:21Z</time>
      </trkpt>
      <trkpt lat="45.69157" lon="2.99198">
        <ele>905.5</ele>
        <time>2022-08-06T10:13:23Z</time>
      </trkpt>
      <trkpt lat="45.69165" lon="2.99222">
        <ele>905.3</ele>
        <time>2022-08-06T10:13:25Z</time>
      </trkpt>
      <trkpt lat="45.69174" lon="2.99245">
        <ele>905.3</ele>
        <time>2022-08-06T10:13:27Z</time>
      </trkpt>
      <trkpt lat="45.69182" lon="2.99266">
        <ele>905.6</ele>
        <time>2022-08-06T10:13:29Z</time>
      </trkpt>
      <trkpt lat="45.69189" lon="2.99286">
        <ele>906</ele>
        <time>2022-08-06T10:13:31Z</time>
      </trkpt>
      <trkpt lat="45.69198" lon="2.99306">
        <ele>906.6</ele>
        <time>2022-08-06T10:13:33Z</time>
      </trkpt>
      <trkpt lat="45.69206" lon="2.99324">
        <ele>907.3</ele>
        <time>2022-08-06T10:13:35Z</time>
      </trkpt>
      <trkpt lat="45.69214" lon="2.99342">
        <ele>908.1</ele>
        <time>2022-08-06T10:13:37Z</time>
      </trkpt>
      <trkpt lat="45.69222" lon="2.9936">
        <ele>908.9</ele>
        <time>2022-08-06T10:13:39Z</time>
      </trkpt>
      <trkpt lat="45.69231" lon="2.99376">
        <ele>909.6</ele>
        <time>2022-08-06T10:13:41Z</time>
      </trkpt>
      <trkpt lat="45.69241" lon="2.99393">
        <ele>910.2</ele>
        <time>2022-08-06T10:13:43Z</time>
      </trkpt>
      <trkpt lat="45.69249" lon="2.99408">
        <ele>910.9</ele>
        <time>2022-08-06T10:13:45Z</time>
      </trkpt>
      <trkpt lat="45.69258" lon="2.99421">
        <ele>911.5</ele>
        <time>2022-08-06T10:13:47Z</time>
      </trkpt>
      <trkpt lat="45.69266" lon="2.99434">
        <ele>912.1</ele>
        <time>2022-08-06T10:13:49Z</time>
      </trkpt>
      <trkpt lat="45.69274" lon="2.99446">
        <ele>912.6</ele>
        <time>2022-08-06T10:13:51Z</time>
      </trkpt>
      <trkpt lat="45.69283" lon="2.99459">
        <ele>913</ele>
        <time>2022-08-06T10:13:53Z</time>
      </trkpt>
      <trkpt lat="45.6929" lon="2.99471">
        <ele>913.4</ele>
        <time>2022-08-06T10:13:55Z</time>
      </trkpt>
      <trkpt lat="45.69298" lon="2.99484">
        <ele>913.7</ele>
        <time>2022-08-06T10:13:57Z</time>
      </trkpt>
      <trkpt lat="45.69307" lon="2.99497">
        <ele>914</ele>
        <time>2022-08-06T10:13:59Z</time>
      </trkpt>
      <trkpt lat="45.69315" lon="2.9951">
        <ele>914.2</ele>
        <time>2022-08-06T10:14:01Z</time>
      </trkpt>
      <trkpt lat="45.69323" lon="2.99522">
        <ele>914.3</ele>
        <time>2022-08-06T10:14:03Z</time>
      </trkpt>
      <trkpt lat="45.69332" lon="2.99536">
        <ele>914.5</ele>
        <time>2022-08-06T10:14:05Z</time>
      </trkpt>
      <trkpt lat="45.69341" lon="2.99549">
        <ele>914.5</ele>
        <time>2022-08-06T10:14:07Z</time>
      </trkpt>
      <trkpt lat="45.6935" lon="2.99563">
        <ele>914.4</ele>
        <time>2022-08-06T10:14:09Z</time>
      </trkpt>
      <trkpt lat="45.69359" lon="2.99577">
        <ele>914.3</ele>
        <time>2022-08-06T10:14:11Z</time>
      </trkpt>
      <trkpt lat="45.69369" lon="2.99591">
        <ele>914.1</ele>
        <time>2022-08-06T10:14:13Z</time>
      </trkpt>
      <trkpt lat="45.6938" lon="2.99605">
        <ele>913.8</ele>
        <time>2022-08-06T10:14:15Z</time>
      </trkpt>
      <trkpt lat="45.69389" lon="2.9962">
        <ele>913.4</ele>
        <time>2022-08-06T10:14:17Z</time>
      </trkpt>
      <trkpt lat="45.694" lon="2.99635">
        <ele>913</ele>
        <time>2022-08-06T10:14:19Z</time>
      </trkpt>
      <trkpt lat="45.69411" lon="2.9965">
        <ele>912.6</ele>
        <time>2022-08-06T10:14:21Z</time>
      </trkpt>
      <trkpt lat="45.69422" lon="2.99666">
        <ele>912.2</ele>
        <time>2022-08-06T10:14:23Z</time>
      </trkpt>
      <trkpt lat="45.69434" lon="2.99682">
        <ele>911.8</ele>
        <time>2022-08-06T10:14:25Z</time>
      </trkpt>
      <trkpt lat="45.69446" lon="2.99699">
        <ele>911.2</ele>
        <time>2022-08-06T10:14:27Z</time>
      </trkpt>
      <trkpt lat="45.69458" lon="2.99715">
        <ele>910.4</ele>
        <time>2022-08-06T10:14:29Z</time>
      </trkpt>
      <trkpt lat="45.6947" lon="2.99733">
        <ele>909.3</ele>
        <time>2022-08-06T10:14:31Z</time>
      </trkpt>
      <trkpt lat="45.69483" lon="2.99751">
        <ele>908.1</ele>
        <time>2022-08-06T10:14:33Z</time>
      </trkpt>
      <trkpt lat="45.69495" lon="2.9977">
        <ele>906.8</ele>
        <time>2022-08-06T10:14:35Z</time>
      </trkpt>
      <trkpt lat="45.6951" lon="2.9979">
        <ele>905.4</ele>
        <time>2022-08-06T10:14:37Z</time>
      </trkpt>
      <trkpt lat="45.69523" lon="2.9981">
        <ele>903.8</ele>
        <time>2022-08-06T10:14:39Z</time>
      </trkpt>
      <trkpt lat="45.69538" lon="2.9983">
        <ele>902.2</ele>
        <time>2022-08-06T10:14:41Z</time>
      </trkpt>
      <trkpt lat="45.69552" lon="2.9985">
        <ele>900.5</ele>
        <time>2022-08-06T10:14:43Z</time>
      </trkpt>
      <trkpt lat="45.69568" lon="2.99872">
        <ele>898.9</ele>
        <time>2022-08-06T10:14:45Z</time>
      </trkpt>
      <trkpt lat="45.69585" lon="2.99891">
        <ele>897.3</ele>
        <time>2022-08-06T10:14:47Z</time>
      </trkpt>
      <trkpt lat="45.69604" lon="2.9991">
        <ele>895.6</ele>
        <time>2022-08-06T10:14:49Z</time>
      </trkpt>
      <trkpt lat="45.69623" lon="2.99929">
        <ele>893.8</ele>
        <time>2022-08-06T10:14:51Z</time>
      </trkpt>
      <trkpt lat="45.69643" lon="2.99949">
        <ele>891.9</ele>
        <time>2022-08-06T10:14:53Z</time>
      </trkpt>
      <trkpt lat="45.69663" lon="2.99969">
        <ele>890</ele>
        <time>2022-08-06T10:14:55Z</time>
      </trkpt>
      <trkpt lat="45.69683" lon="2.99989">
        <ele>888.1</ele>
        <time>2022-08-06T10:14:57Z</time>
      </trkpt>
      <trkpt lat="45.69705" lon="3.00009">
        <ele>886.3</ele>
        <time>2022-08-06T10:14:59Z</time>
      </trkpt>
      <trkpt lat="45.69727" lon="3.0003">
        <ele>884.6</ele>
        <time>2022-08-06T10:15:01Z</time>
      </trkpt>
      <trkpt lat="45.69748" lon="3.0005">
        <ele>882.8</ele>
        <time>2022-08-06T10:15:03Z</time>
      </trkpt>
      <trkpt lat="45.6977" lon="3.0007">
        <ele>881</ele>
        <time>2022-08-06T10:15:05Z</time>
      </trkpt>
      <trkpt lat="45.69791" lon="3.00089">
        <ele>879.1</ele>
        <time>2022-08-06T10:15:07Z</time>
      </trkpt>
      <trkpt lat="45.69814" lon="3.00109">
        <ele>877.4</ele>
        <time>2022-08-06T10:15:09Z</time>
      </trkpt>
      <trkpt lat="45.69836" lon="3.0013">
        <ele>875.7</ele>
        <time>2022-08-06T10:15:11Z</time>
      </trkpt>
      <trkpt lat="45.69857" lon="3.0015">
        <ele>874</ele>
        <time>2022-08-06T10:15:13Z</time>
      </trkpt>
      <trkpt lat="45.69878" lon="3.0017">
        <ele>872.3</ele>
        <time>2022-08-06T10:15:15Z</time>
      </trkpt>
      <trkpt lat="45.699" lon="3.0019">
        <ele>870.7</ele>
        <time>2022-08-06T10:15:17Z</time>
      </trkpt>
      <trkpt lat="45.69921" lon="3.00211">
        <ele>868.9</ele>
        <time>2022-08-06T10:15:19Z</time>
      </trkpt>
      <trkpt lat="45.69943" lon="3.00233">
        <ele>867.1</ele>
        <time>2022-08-06T10:15:21Z</time>
      </trkpt>
      <trkpt lat="45.69964" lon="3.00257">
        <ele>865.5</ele>
        <time>2022-08-06T10:15:23Z</time>
      </trkpt>
      <trkpt lat="45.69983" lon="3.00284">
        <ele>863.8</ele>
        <time>2022-08-06T10:15:25Z</time>
      </trkpt>
      <trkpt lat="45.7" lon="3.00311">
        <ele>862</ele>
        <time>2022-08-06T10:15:27Z</time>
      </trkpt>
      <trkpt lat="45.70017" lon="3.00341">
        <ele>860.3</ele>
        <time>2022-08-06T10:15:29Z</time>
      </trkpt>
      <trkpt lat="45.70031" lon="3.00371">
        <ele>858.8</ele>
        <time>2022-08-06T10:15:31Z</time>
      </trkpt>
      <trkpt lat="45.70044" lon="3.00402">
        <ele>857.4</ele>
        <time>2022-08-06T10:15:33Z</time>
      </trkpt>
      <trkpt lat="45.70055" lon="3.00434">
        <ele>856</ele>
        <time>2022-08-06T10:15:35Z</time>
      </trkpt>
      <trkpt lat="45.70064" lon="3.00466">
        <ele>854.7</ele>
        <time>2022-08-06T10:15:37Z</time>
      </trkpt>
      <trkpt lat="45.70071" lon="3.00499">
        <ele>853.6</ele>
        <time>2022-08-06T10:15:39Z</time>
      </trkpt>
      <trkpt lat="45.70077" lon="3.00531">
        <ele>852.6</ele>
        <time>2022-08-06T10:15:41Z</time>
      </trkpt>
      <trkpt lat="45.70082" lon="3.00563">
        <ele>851.5</ele>
        <time>2022-08-06T10:15:43Z</time>
      </trkpt>
      <trkpt lat="45.70084" lon="3.00595">
        <ele>850.5</ele>
        <time>2022-08-06T10:15:45Z</time>
      </trkpt>
      <trkpt lat="45.70085" lon="3.00626">
        <ele>849.7</ele>
        <time>2022-08-06T10:15:47Z</time>
      </trkpt>
      <trkpt lat="45.70084" lon="3.00656">
        <ele>848.9</ele>
        <time>2022-08-06T10:15:49Z</time>
      </trkpt>
      <trkpt lat="45.70083" lon="3.00684">
        <ele>848.3</ele>
        <time>2022-08-06T10:15:51Z</time>
      </trkpt>
      <trkpt lat="45.70082" lon="3.00712">
        <ele>847.6</ele>
        <time>2022-08-06T10:15:53Z</time>
      </trkpt>
      <trkpt lat="45.70081" lon="3.0074">
        <ele>847</ele>
        <time>2022-08-06T10:15:55Z</time>
      </trkpt>
      <trkpt lat="45.7008" lon="3.00767">
        <ele>846.3</ele>
        <time>2022-08-06T10:15:57Z</time>
      </trkpt>
      <trkpt lat="45.70078" lon="3.00795">
        <ele>845.7</ele>
        <time>2022-08-06T10:15:59Z</time>
      </trkpt>
      <trkpt lat="45.70076" lon="3.00824">
        <ele>845.1</ele>
        <time>2022-08-06T10:16:01Z</time>
      </trkpt>
      <trkpt lat="45.70074" lon="3.00852">
        <ele>844.4</ele>
        <time>2022-08-06T10:16:03Z</time>
      </trkpt>
      <trkpt lat="45.70073" lon="3.00881">
        <ele>843.8</ele>
        <time>2022-08-06T10:16:05Z</time>
      </trkpt>
      <trkpt lat="45.70073" lon="3.0091">
        <ele>843.2</ele>
        <time>2022-08-06T10:16:07Z</time>
      </trkpt>
      <trkpt lat="45.70073" lon="3.00938">
        <ele>842.7</ele>
        <time>2022-08-06T10:16:09Z</time>
      </trkpt>
      <trkpt lat="45.70075" lon="3.00966">
        <ele>842</ele>
        <time>2022-08-06T10:16:11Z</time>
      </trkpt>
      <trkpt lat="45.70079" lon="3.00994">
        <ele>841.4</ele>
        <time>2022-08-06T10:16:13Z</time>
      </trkpt>
      <trkpt lat="45.70083" lon="3.01021">
        <ele>840.8</ele>
        <time>2022-08-06T10:16:15Z</time>
      </trkpt>
      <trkpt lat="45.70088" lon="3.01049">
        <ele>840.1</ele>
        <time>2022-08-06T10:16:17Z</time>
      </trkpt>
      <trkpt lat="45.70095" lon="3.01078">
        <ele>839.5</ele>
        <time>2022-08-06T10:16:19Z</time>
      </trkpt>
      <trkpt lat="45.70103" lon="3.01106">
        <ele>838.8</ele>
        <time>2022-08-06T10:16:21Z</time>
      </trkpt>
      <trkpt lat="45.70111" lon="3.01135">
        <ele>838.1</ele>
        <time>2022-08-06T10:16:23Z</time>
      </trkpt>
      <trkpt lat="45.70122" lon="3.01163">
        <ele>837.3</ele>
        <time>2022-08-06T10:16:25Z</time>
      </trkpt>
      <trkpt lat="45.70134" lon="3.0119">
        <ele>836.5</ele>
        <time>2022-08-06T10:16:27Z</time>
      </trkpt>
      <trkpt lat="45.70147" lon="3.01217">
        <ele>835.7</ele>
        <time>2022-08-06T10:16:29Z</time>
      </trkpt>
      <trkpt lat="45.7016" lon="3.01243">
        <ele>835</ele>
        <time>2022-08-06T10:16:31Z</time>
      </trkpt>
      <trkpt lat="45.70174" lon="3.01269">
        <ele>834.3</ele>
        <time>2022-08-06T10:16:33Z</time>
      </trkpt>
      <trkpt lat="45.70188" lon="3.01295">
        <ele>833.5</ele>
        <time>2022-08-06T10:16:35Z</time>
      </trkpt>
      <trkpt lat="45.70201" lon="3.01322">
        <ele>832.7</ele>
        <time>2022-08-06T10:16:37Z</time>
      </trkpt>
      <trkpt lat="45.70214" lon="3.01349">
        <ele>831.8</ele>
        <time>2022-08-06T10:16:39Z</time>
      </trkpt>
      <trkpt lat="45.70228" lon="3.01376">
        <ele>831</ele>
        <time>2022-08-06T10:16:41Z</time>
      </trkpt>
      <trkpt lat="45.70241" lon="3.01401">
        <ele>830.1</ele>
        <time>2022-08-06T10:16:43Z</time>
      </trkpt>
      <trkpt lat="45.70254" lon="3.01427">
        <ele>829.2</ele>
        <time>2022-08-06T10:16:45Z</time>
      </trkpt>
      <trkpt lat="45.70267" lon="3.01452">
        <ele>828.3</ele>
        <time>2022-08-06T10:16:47Z</time>
      </trkpt>
      <trkpt lat="45.70279" lon="3.01476">
        <ele>827.4</ele>
        <time>2022-08-06T10:16:49Z</time>
      </trkpt>
      <trkpt lat="45.70291" lon="3.015">
        <ele>826.5</ele>
        <time>2022-08-06T10:16:51Z</time>
      </trkpt>
      <trkpt lat="45.70303" lon="3.01525">
        <ele>825.6</ele>
        <time>2022-08-06T10:16:53Z</time>
      </trkpt>
      <trkpt lat="45.70315" lon="3.0155">
        <ele>824.8</ele>
        <time>2022-08-06T10:16:55Z</time>
      </trkpt>
      <trkpt lat="45.70327" lon="3.01575">
        <ele>823.9</ele>
        <time>2022-08-06T10:16:57Z</time>
      </trkpt>
      <trkpt lat="45.7034" lon="3.016">
        <ele>823</ele>
        <time>2022-08-06T10:16:59Z</time>
      </trkpt>
      <trkpt lat="45.70353" lon="3.01625">
        <ele>822.1</ele>
        <time>2022-08-06T10:17:01Z</time>
      </trkpt>
      <trkpt lat="45.70366" lon="3.0165">
        <ele>821.4</ele>
        <time>2022-08-06T10:17:03Z</time>
      </trkpt>
      <trkpt lat="45.70379" lon="3.01676">
        <ele>820.6</ele>
        <time>2022-08-06T10:17:05Z</time>
      </trkpt>
      <trkpt lat="45.70393" lon="3.01702">
        <ele>819.9</ele>
        <time>2022-08-06T10:17:07Z</time>
      </trkpt>
      <trkpt lat="45.70406" lon="3.01728">
        <ele>819.1</ele>
        <time>2022-08-06T10:17:09Z</time>
      </trkpt>
      <trkpt lat="45.70419" lon="3.01754">
        <ele>818.2</ele>
        <time>2022-08-06T10:17:11Z</time>
      </trkpt>
      <trkpt lat="45.70432" lon="3.01779">
        <ele>817.7</ele>
        <time>2022-08-06T10:17:13Z</time>
      </trkpt>
      <trkpt lat="45.70443" lon="3.01807">
        <ele>817</ele>
        <time>2022-08-06T10:17:15Z</time>
      </trkpt>
      <trkpt lat="45.70447" lon="3.01836">
        <ele>816.2</ele>
        <time>2022-08-06T10:17:17Z</time>
      </trkpt>
      <trkpt lat="45.70458" lon="3.01859">
        <ele>815.4</ele>
        <time>2022-08-06T10:17:19Z</time>
      </trkpt>
      <trkpt lat="45.70476" lon="3.01873">
        <ele>814.5</ele>
        <time>2022-08-06T10:17:21Z</time>
      </trkpt>
      <trkpt lat="45.7049" lon="3.01895">
        <ele>813.5</ele>
        <time>2022-08-06T10:17:23Z</time>
      </trkpt>
      <trkpt lat="45.70503" lon="3.01919">
        <ele>812.7</ele>
        <time>2022-08-06T10:17:25Z</time>
      </trkpt>
      <trkpt lat="45.70515" lon="3.01944">
        <ele>811.8</ele>
        <time>2022-08-06T10:17:27Z</time>
      </trkpt>
      <trkpt lat="45.70528" lon="3.01971">
        <ele>810.8</ele>
        <time>2022-08-06T10:17:29Z</time>
      </trkpt>
      <trkpt lat="45.7054" lon="3.01997">
        <ele>809.8</ele>
        <time>2022-08-06T10:17:31Z</time>
      </trkpt>
      <trkpt lat="45.70549" lon="3.02026">
        <ele>808.7</ele>
        <time>2022-08-06T10:17:33Z</time>
      </trkpt>
      <trkpt lat="45.70556" lon="3.02055">
        <ele>807.9</ele>
        <time>2022-08-06T10:17:35Z</time>
      </trkpt>
      <trkpt lat="45.70564" lon="3.02085">
        <ele>807.5</ele>
        <time>2022-08-06T10:17:37Z</time>
      </trkpt>
      <trkpt lat="45.70572" lon="3.02116">
        <ele>807.3</ele>
        <time>2022-08-06T10:17:39Z</time>
      </trkpt>
      <trkpt lat="45.70578" lon="3.02145">
        <ele>807.2</ele>
        <time>2022-08-06T10:17:41Z</time>
      </trkpt>
      <trkpt lat="45.70585" lon="3.02173">
        <ele>807</ele>
        <time>2022-08-06T10:17:43Z</time>
      </trkpt>
      <trkpt lat="45.70593" lon="3.022">
        <ele>806.9</ele>
        <time>2022-08-06T10:17:45Z</time>
      </trkpt>
      <trkpt lat="45.706" lon="3.02227">
        <ele>806.8</ele>
        <time>2022-08-06T10:17:47Z</time>
      </trkpt>
      <trkpt lat="45.70605" lon="3.02253">
        <ele>806.7</ele>
        <time>2022-08-06T10:17:49Z</time>
      </trkpt>
      <trkpt lat="45.7061" lon="3.0228">
        <ele>806.6</ele>
        <time>2022-08-06T10:17:51Z</time>
      </trkpt>
      <trkpt lat="45.70614" lon="3.02307">
        <ele>806.5</ele>
        <time>2022-08-06T10:17:53Z</time>
      </trkpt>
      <trkpt lat="45.70617" lon="3.02333">
        <ele>806.3</ele>
        <time>2022-08-06T10:17:55Z</time>
      </trkpt>
      <trkpt lat="45.70619" lon="3.02359">
        <ele>806.2</ele>
        <time>2022-08-06T10:17:57Z</time>
      </trkpt>
      <trkpt lat="45.70621" lon="3.02385">
        <ele>806.1</ele>
        <time>2022-08-06T10:17:59Z</time>
      </trkpt>
      <trkpt lat="45.70621" lon="3.02409">
        <ele>806</ele>
        <time>2022-08-06T10:18:01Z</time>
      </trkpt>
      <trkpt lat="45.70622" lon="3.02434">
        <ele>805.9</ele>
        <time>2022-08-06T10:18:03Z</time>
      </trkpt>
      <trkpt lat="45.70623" lon="3.0246">
        <ele>805.6</ele>
        <time>2022-08-06T10:18:05Z</time>
      </trkpt>
      <trkpt lat="45.70623" lon="3.02485">
        <ele>805.1</ele>
        <time>2022-08-06T10:18:07Z</time>
      </trkpt>
      <trkpt lat="45.70623" lon="3.02511">
        <ele>804.6</ele>
        <time>2022-08-06T10:18:09Z</time>
      </trkpt>
      <trkpt lat="45.70624" lon="3.02537">
        <ele>804.1</ele>
        <time>2022-08-06T10:18:11Z</time>
      </trkpt>
      <trkpt lat="45.70624" lon="3.02564">
        <ele>803.6</ele>
        <time>2022-08-06T10:18:13Z</time>
      </trkpt>
      <trkpt lat="45.70624" lon="3.02591">
        <ele>803.1</ele>
        <time>2022-08-06T10:18:15Z</time>
      </trkpt>
      <trkpt lat="45.70624" lon="3.0262">
        <ele>802.5</ele>
        <time>2022-08-06T10:18:17Z</time>
      </trkpt>
      <trkpt lat="45.70624" lon="3.02649">
        <ele>801.9</ele>
        <time>2022-08-06T10:18:19Z</time>
      </trkpt>
      <trkpt lat="45.70625" lon="3.02679">
        <ele>801.3</ele>
        <time>2022-08-06T10:18:21Z</time>
      </trkpt>
      <trkpt lat="45.70625" lon="3.02708">
        <ele>800.6</ele>
        <time>2022-08-06T10:18:23Z</time>
      </trkpt>
      <trkpt lat="45.70625" lon="3.02737">
        <ele>800</ele>
        <time>2022-08-06T10:18:25Z</time>
      </trkpt>
      <trkpt lat="45.70627" lon="3.02768">
        <ele>799.3</ele>
        <time>2022-08-06T10:18:27Z</time>
      </trkpt>
      <trkpt lat="45.70629" lon="3.02798">
        <ele>798.7</ele>
        <time>2022-08-06T10:18:29Z</time>
      </trkpt>
      <trkpt lat="45.70635" lon="3.02828">
        <ele>798</ele>
        <time>2022-08-06T10:18:31Z</time>
      </trkpt>
      <trkpt lat="45.7064" lon="3.02857">
        <ele>797.5</ele>
        <time>2022-08-06T10:18:33Z</time>
      </trkpt>
      <trkpt lat="45.70647" lon="3.02886">
        <ele>797.1</ele>
        <time>2022-08-06T10:18:35Z</time>
      </trkpt>
      <trkpt lat="45.70654" lon="3.02916">
        <ele>796.6</ele>
        <time>2022-08-06T10:18:37Z</time>
      </trkpt>
      <trkpt lat="45.70659" lon="3.02947">
        <ele>796.2</ele>
        <time>2022-08-06T10:18:39Z</time>
      </trkpt>
      <trkpt lat="45.70663" lon="3.02979">
        <ele>795.9</ele>
        <time>2022-08-06T10:18:41Z</time>
      </trkpt>
      <trkpt lat="45.70663" lon="3.03011">
        <ele>795.6</ele>
        <time>2022-08-06T10:18:43Z</time>
      </trkpt>
      <trkpt lat="45.70662" lon="3.03042">
        <ele>795.3</ele>
        <time>2022-08-06T10:18:45Z</time>
      </trkpt>
      <trkpt lat="45.70659" lon="3.03073">
        <ele>795</ele>
        <time>2022-08-06T10:18:47Z</time>
      </trkpt>
      <trkpt lat="45.70654" lon="3.03102">
        <ele>794.9</ele>
        <time>2022-08-06T10:18:49Z</time>
      </trkpt>
      <trkpt lat="45.7065" lon="3.03131">
        <ele>794.8</ele>
        <time>2022-08-06T10:18:51Z</time>
      </trkpt>
      <trkpt lat="45.70646" lon="3.0316">
        <ele>794.6</ele>
        <time>2022-08-06T10:18:53Z</time>
      </trkpt>
      <trkpt lat="45.70641" lon="3.03188">
        <ele>794.5</ele>
        <time>2022-08-06T10:18:55Z</time>
      </trkpt>
      <trkpt lat="45.70637" lon="3.03216">
        <ele>794.3</ele>
        <time>2022-08-06T10:18:57Z</time>
      </trkpt>
      <trkpt lat="45.70634" lon="3.03243">
        <ele>794.2</ele>
        <time>2022-08-06T10:18:59Z</time>
      </trkpt>
      <trkpt lat="45.70633" lon="3.0327">
        <ele>794.1</ele>
        <time>2022-08-06T10:19:01Z</time>
      </trkpt>
      <trkpt lat="45.70634" lon="3.03298">
        <ele>794</ele>
        <time>2022-08-06T10:19:03Z</time>
      </trkpt>
      <trkpt lat="45.70634" lon="3.03326">
        <ele>793.9</ele>
        <time>2022-08-06T10:19:05Z</time>
      </trkpt>
      <trkpt lat="45.70634" lon="3.03354">
        <ele>793.8</ele>
        <time>2022-08-06T10:19:07Z</time>
      </trkpt>
      <trkpt lat="45.70635" lon="3.03381">
        <ele>793.6</ele>
        <time>2022-08-06T10:19:09Z</time>
      </trkpt>
      <trkpt lat="45.70636" lon="3.03407">
        <ele>793.5</ele>
        <time>2022-08-06T10:19:11Z</time>
      </trkpt>
      <trkpt lat="45.70641" lon="3.03433">
        <ele>793.5</ele>
        <time>2022-08-06T10:19:13Z</time>
      </trkpt>
      <trkpt lat="45.70647" lon="3.03457">
        <ele>793.4</ele>
        <time>2022-08-06T10:19:15Z</time>
      </trkpt>
      <trkpt lat="45.70657" lon="3.03479">
        <ele>793.2</ele>
        <time>2022-08-06T10:19:17Z</time>
      </trkpt>
      <trkpt lat="45.70667" lon="3.03501">
        <ele>793</ele>
        <time>2022-08-06T10:19:19Z</time>
      </trkpt>
      <trkpt lat="45.70675" lon="3.03526">
        <ele>792.7</ele>
        <time>2022-08-06T10:19:21Z</time>
      </trkpt>
      <trkpt lat="45.70679" lon="3.03553">
        <ele>792.5</ele>
        <time>2022-08-06T10:19:23Z</time>
      </trkpt>
      <trkpt lat="45.70678" lon="3.03581">
        <ele>792.3</ele>
        <time>2022-08-06T10:19:25Z</time>
      </trkpt>
      <trkpt lat="45.70674" lon="3.03608">
        <ele>792.1</ele>
        <time>2022-08-06T10:19:27Z</time>
      </trkpt>
      <trkpt lat="45.70669" lon="3.03634">
        <ele>791.7</ele>
        <time>2022-08-06T10:19:29Z</time>
      </trkpt>
      <trkpt lat="45.70661" lon="3.03659">
        <ele>791.4</ele>
        <time>2022-08-06T10:19:31Z</time>
      </trkpt>
      <trkpt lat="45.7065" lon="3.03682">
        <ele>791.1</ele>
        <time>2022-08-06T10:19:33Z</time>
      </trkpt>
      <trkpt lat="45.70637" lon="3.03701">
        <ele>790.9</ele>
        <time>2022-08-06T10:19:35Z</time>
      </trkpt>
      <trkpt lat="45.70625" lon="3.0372">
        <ele>790.8</ele>
        <time>2022-08-06T10:19:37Z</time>
      </trkpt>
      <trkpt lat="45.70614" lon="3.03742">
        <ele>790.6</ele>
        <time>2022-08-06T10:19:39Z</time>
      </trkpt>
      <trkpt lat="45.70606" lon="3.03766">
        <ele>790.4</ele>
        <time>2022-08-06T10:19:41Z</time>
      </trkpt>
      <trkpt lat="45.706" lon="3.0379">
        <ele>790.1</ele>
        <time>2022-08-06T10:19:43Z</time>
      </trkpt>
      <trkpt lat="45.70594" lon="3.03815">
        <ele>789.9</ele>
        <time>2022-08-06T10:19:45Z</time>
      </trkpt>
      <trkpt lat="45.70587" lon="3.0384">
        <ele>789.7</ele>
        <time>2022-08-06T10:19:47Z</time>
      </trkpt>
      <trkpt lat="45.70581" lon="3.03866">
        <ele>789.5</ele>
        <time>2022-08-06T10:19:49Z</time>
      </trkpt>
      <trkpt lat="45.70575" lon="3.0389">
        <ele>789.3</ele>
        <time>2022-08-06T10:19:51Z</time>
      </trkpt>
      <trkpt lat="45.70568" lon="3.03915">
        <ele>789.2</ele>
        <time>2022-08-06T10:19:53Z</time>
      </trkpt>
      <trkpt lat="45.70562" lon="3.0394">
        <ele>789.1</ele>
        <time>2022-08-06T10:19:55Z</time>
      </trkpt>
      <trkpt lat="45.70556" lon="3.03965">
        <ele>788.9</ele>
        <time>2022-08-06T10:19:57Z</time>
      </trkpt>
      <trkpt lat="45.7055" lon="3.0399">
        <ele>788.7</ele>
        <time>2022-08-06T10:19:59Z</time>
      </trkpt>
      <trkpt lat="45.70544" lon="3.04015">
        <ele>788.5</ele>
        <time>2022-08-06T10:20:01Z</time>
      </trkpt>
      <trkpt lat="45.70537" lon="3.04039">
        <ele>788.3</ele>
        <time>2022-08-06T10:20:03Z</time>
      </trkpt>
      <trkpt lat="45.70531" lon="3.04064">
        <ele>788</ele>
        <time>2022-08-06T10:20:05Z</time>
      </trkpt>
      <trkpt lat="45.70523" lon="3.04088">
        <ele>787.7</ele>
        <time>2022-08-06T10:20:07Z</time>
      </trkpt>
      <trkpt lat="45.70515" lon="3.0411">
        <ele>787.4</ele>
        <time>2022-08-06T10:20:09Z</time>
      </trkpt>
      <trkpt lat="45.70504" lon="3.04131">
        <ele>787.2</ele>
        <time>2022-08-06T10:20:11Z</time>
      </trkpt>
      <trkpt lat="45.7049" lon="3.0415">
        <ele>786.9</ele>
        <time>2022-08-06T10:20:13Z</time>
      </trkpt>
      <trkpt lat="45.70476" lon="3.04167">
        <ele>786.6</ele>
        <time>2022-08-06T10:20:15Z</time>
      </trkpt>
      <trkpt lat="45.70461" lon="3.04182">
        <ele>786.4</ele>
        <time>2022-08-06T10:20:17Z</time>
      </trkpt>
      <trkpt lat="45.70447" lon="3.04198">
        <ele>786.2</ele>
        <time>2022-08-06T10:20:19Z</time>
      </trkpt>
      <trkpt lat="45.70433" lon="3.04215">
        <ele>785.9</ele>
        <time>2022-08-06T10:20:21Z</time>
      </trkpt>
      <trkpt lat="45.70418" lon="3.04231">
        <ele>785.7</ele>
        <time>2022-08-06T10:20:23Z</time>
      </trkpt>
      <trkpt lat="45.70402" lon="3.04247">
        <ele>785.4</ele>
        <time>2022-08-06T10:20:25Z</time>
      </trkpt>
      <trkpt lat="45.70388" lon="3.04263">
        <ele>785.1</ele>
        <time>2022-08-06T10:20:27Z</time>
      </trkpt>
      <trkpt lat="45.70373" lon="3.0428">
        <ele>784.9</ele>
        <time>2022-08-06T10:20:29Z</time>
      </trkpt>
      <trkpt lat="45.70358" lon="3.04298">
        <ele>784.5</ele>
        <time>2022-08-06T10:20:31Z</time>
      </trkpt>
      <trkpt lat="45.70342" lon="3.04315">
        <ele>784</ele>
        <time>2022-08-06T10:20:33Z</time>
      </trkpt>
      <trkpt lat="45.70326" lon="3.04332">
        <ele>783.5</ele>
        <time>2022-08-06T10:20:35Z</time>
      </trkpt>
      <trkpt lat="45.70311" lon="3.04349">
        <ele>783.1</ele>
        <time>2022-08-06T10:20:37Z</time>
      </trkpt>
      <trkpt lat="45.70297" lon="3.04369">
        <ele>782.5</ele>
        <time>2022-08-06T10:20:39Z</time>
      </trkpt>
      <trkpt lat="45.70284" lon="3.0439">
        <ele>781.9</ele>
        <time>2022-08-06T10:20:41Z</time>
      </trkpt>
      <trkpt lat="45.70275" lon="3.04415">
        <ele>781.3</ele>
        <time>2022-08-06T10:20:43Z</time>
      </trkpt>
      <trkpt lat="45.70268" lon="3.04441">
        <ele>780.6</ele>
        <time>2022-08-06T10:20:45Z</time>
      </trkpt>
      <trkpt lat="45.70264" lon="3.04469">
        <ele>779.9</ele>
        <time>2022-08-06T10:20:47Z</time>
      </trkpt>
      <trkpt lat="45.70263" lon="3.04497">
        <ele>779.1</ele>
        <time>2022-08-06T10:20:49Z</time>
      </trkpt>
      <trkpt lat="45.70266" lon="3.04526">
        <ele>778.2</ele>
        <time>2022-08-06T10:20:51Z</time>
      </trkpt>
      <trkpt lat="45.70273" lon="3.04554">
        <ele>777.3</ele>
        <time>2022-08-06T10:20:53Z</time>
      </trkpt>
      <trkpt lat="45.70282" lon="3.0458">
        <ele>776.3</ele>
        <time>2022-08-06T10:20:55Z</time>
      </trkpt>
      <trkpt lat="45.70294" lon="3.04604">
        <ele>775.3</ele>
        <time>2022-08-06T10:20:57Z</time>
      </trkpt>
      <trkpt lat="45.70309" lon="3.04627">
        <ele>774.3</ele>
        <time>2022-08-06T10:20:59Z</time>
      </trkpt>
      <trkpt lat="45.70328" lon="3.04641">
        <ele>773.3</ele>
        <time>2022-08-06T10:21:01Z</time>
      </trkpt>
      <trkpt lat="45.70348" lon="3.04651">
        <ele>773</ele>
        <time>2022-08-06T10:21:03Z</time>
      </trkpt>
      <trkpt lat="45.70368" lon="3.0466">
        <ele>772.3</ele>
        <time>2022-08-06T10:21:05Z</time>
      </trkpt>
      <trkpt lat="45.70389" lon="3.04669">
        <ele>771.3</ele>
        <time>2022-08-06T10:21:07Z</time>
      </trkpt>
      <trkpt lat="45.7041" lon="3.04676">
        <ele>770.4</ele>
        <time>2022-08-06T10:21:09Z</time>
      </trkpt>
      <trkpt lat="45.70431" lon="3.04684">
        <ele>769.8</ele>
        <time>2022-08-06T10:21:11Z</time>
      </trkpt>
      <trkpt lat="45.70452" lon="3.04691">
        <ele>768.8</ele>
        <time>2022-08-06T10:21:13Z</time>
      </trkpt>
      <trkpt lat="45.70473" lon="3.04699">
        <ele>767.6</ele>
        <time>2022-08-06T10:21:15Z</time>
      </trkpt>
      <trkpt lat="45.70495" lon="3.04708">
        <ele>766.2</ele>
        <time>2022-08-06T10:21:17Z</time>
      </trkpt>
      <trkpt lat="45.70517" lon="3.04717">
        <ele>764.6</ele>
        <time>2022-08-06T10:21:19Z</time>
      </trkpt>
      <trkpt lat="45.70538" lon="3.04731">
        <ele>762.9</ele>
        <time>2022-08-06T10:21:21Z</time>
      </trkpt>
      <trkpt lat="45.70556" lon="3.0475">
        <ele>761.3</ele>
        <time>2022-08-06T10:21:23Z</time>
      </trkpt>
      <trkpt lat="45.70572" lon="3.04773">
        <ele>759.6</ele>
        <time>2022-08-06T10:21:25Z</time>
      </trkpt>
      <trkpt lat="45.70585" lon="3.048">
        <ele>758</ele>
        <time>2022-08-06T10:21:27Z</time>
      </trkpt>
      <trkpt lat="45.70596" lon="3.0483">
        <ele>756.5</ele>
        <time>2022-08-06T10:21:29Z</time>
      </trkpt>
      <trkpt lat="45.70602" lon="3.04862">
        <ele>755.1</ele>
        <time>2022-08-06T10:21:31Z</time>
      </trkpt>
      <trkpt lat="45.70604" lon="3.04898">
        <ele>753.8</ele>
        <time>2022-08-06T10:21:33Z</time>
      </trkpt>
      <trkpt lat="45.70603" lon="3.04932">
        <ele>752.8</ele>
        <time>2022-08-06T10:21:35Z</time>
      </trkpt>
      <trkpt lat="45.70601" lon="3.04966">
        <ele>751.9</ele>
        <time>2022-08-06T10:21:37Z</time>
      </trkpt>
      <trkpt lat="45.70599" lon="3.05001">
        <ele>751.1</ele>
        <time>2022-08-06T10:21:39Z</time>
      </trkpt>
      <trkpt lat="45.70596" lon="3.05036">
        <ele>750.3</ele>
        <time>2022-08-06T10:21:41Z</time>
      </trkpt>
      <trkpt lat="45.70594" lon="3.0507">
        <ele>749.4</ele>
        <time>2022-08-06T10:21:43Z</time>
      </trkpt>
      <trkpt lat="45.70591" lon="3.05105">
        <ele>748.6</ele>
        <time>2022-08-06T10:21:45Z</time>
      </trkpt>
      <trkpt lat="45.70589" lon="3.0514">
        <ele>747.8</ele>
        <time>2022-08-06T10:21:47Z</time>
      </trkpt>
      <trkpt lat="45.70587" lon="3.05175">
        <ele>746.9</ele>
        <time>2022-08-06T10:21:49Z</time>
      </trkpt>
      <trkpt lat="45.70587" lon="3.05209">
        <ele>745.9</ele>
        <time>2022-08-06T10:21:51Z</time>
      </trkpt>
      <trkpt lat="45.70588" lon="3.05242">
        <ele>744.7</ele>
        <time>2022-08-06T10:21:53Z</time>
      </trkpt>
      <trkpt lat="45.70592" lon="3.05274">
        <ele>743.6</ele>
        <time>2022-08-06T10:21:55Z</time>
      </trkpt>
      <trkpt lat="45.706" lon="3.05303">
        <ele>743</ele>
        <time>2022-08-06T10:21:57Z</time>
      </trkpt>
      <trkpt lat="45.70613" lon="3.05328">
        <ele>742.5</ele>
        <time>2022-08-06T10:21:59Z</time>
      </trkpt>
      <trkpt lat="45.70629" lon="3.05349">
        <ele>741.8</ele>
        <time>2022-08-06T10:22:01Z</time>
      </trkpt>
      <trkpt lat="45.70645" lon="3.05369">
        <ele>741</ele>
        <time>2022-08-06T10:22:03Z</time>
      </trkpt>
      <trkpt lat="45.70661" lon="3.05386">
        <ele>740.4</ele>
        <time>2022-08-06T10:22:05Z</time>
      </trkpt>
      <trkpt lat="45.70673" lon="3.05396">
        <ele>740.1</ele>
        <time>2022-08-06T10:22:07Z</time>
      </trkpt>
      <trkpt lat="45.70684" lon="3.05405">
        <ele>739.8</ele>
        <time>2022-08-06T10:22:09Z</time>
      </trkpt>
      <trkpt lat="45.70693" lon="3.05414">
        <ele>739.6</ele>
        <time>2022-08-06T10:22:11Z</time>
      </trkpt>
      <trkpt lat="45.707" lon="3.05421">
        <ele>739.4</ele>
        <time>2022-08-06T10:22:13Z</time>
      </trkpt>
      <trkpt lat="45.7071" lon="3.05429">
        <ele>739.2</ele>
        <time>2022-08-06T10:22:15Z</time>
      </trkpt>
      <trkpt lat="45.70723" lon="3.05441">
        <ele>738.8</ele>
        <time>2022-08-06T10:22:17Z</time>
      </trkpt>
      <trkpt lat="45.70737" lon="3.05454">
        <ele>738</ele>
        <time>2022-08-06T10:22:19Z</time>
      </trkpt>
      <trkpt lat="45.70754" lon="3.05468">
        <ele>737.1</ele>
        <time>2022-08-06T10:22:21Z</time>
      </trkpt>
      <trkpt lat="45.7077" lon="3.05483">
        <ele>736.1</ele>
        <time>2022-08-06T10:22:23Z</time>
      </trkpt>
      <trkpt lat="45.70787" lon="3.05497">
        <ele>735.1</ele>
        <time>2022-08-06T10:22:25Z</time>
      </trkpt>
      <trkpt lat="45.70806" lon="3.05514">
        <ele>734</ele>
        <time>2022-08-06T10:22:27Z</time>
      </trkpt>
      <trkpt lat="45.70826" lon="3.05531">
        <ele>732.9</ele>
        <time>2022-08-06T10:22:29Z</time>
      </trkpt>
      <trkpt lat="45.70844" lon="3.05551">
        <ele>731.8</ele>
        <time>2022-08-06T10:22:31Z</time>
      </trkpt>
      <trkpt lat="45.70861" lon="3.05576">
        <ele>730.7</ele>
        <time>2022-08-06T10:22:33Z</time>
      </trkpt>
      <trkpt lat="45.70875" lon="3.05605">
        <ele>729.5</ele>
        <time>2022-08-06T10:22:35Z</time>
      </trkpt>
      <trkpt lat="45.70886" lon="3.05636">
        <ele>728.4</ele>
        <time>2022-08-06T10:22:37Z</time>
      </trkpt>
      <trkpt lat="45.70896" lon="3.05667">
        <ele>727.3</ele>
        <time>2022-08-06T10:22:39Z</time>
      </trkpt>
      <trkpt lat="45.70906" lon="3.05698">
        <ele>726.4</ele>
        <time>2022-08-06T10:22:41Z</time>
      </trkpt>
      <trkpt lat="45.70916" lon="3.05729">
        <ele>725.4</ele>
        <time>2022-08-06T10:22:43Z</time>
      </trkpt>
      <trkpt lat="45.70925" lon="3.05761">
        <ele>724.3</ele>
        <time>2022-08-06T10:22:45Z</time>
      </trkpt>
      <trkpt lat="45.70925" lon="3.05797">
        <ele>723.1</ele>
        <time>2022-08-06T10:22:47Z</time>
      </trkpt>
      <trkpt lat="45.7092" lon="3.05834">
        <ele>721.9</ele>
        <time>2022-08-06T10:22:49Z</time>
      </trkpt>
      <trkpt lat="45.70908" lon="3.05868">
        <ele>720.6</ele>
        <time>2022-08-06T10:22:51Z</time>
      </trkpt>
      <trkpt lat="45.70889" lon="3.05893">
        <ele>719.2</ele>
        <time>2022-08-06T10:22:53Z</time>
      </trkpt>
      <trkpt lat="45.70868" lon="3.05914">
        <ele>718</ele>
        <time>2022-08-06T10:22:55Z</time>
      </trkpt>
      <trkpt lat="45.70847" lon="3.05931">
        <ele>717</ele>
        <time>2022-08-06T10:22:57Z</time>
      </trkpt>
      <trkpt lat="45.70825" lon="3.05951">
        <ele>715.9</ele>
        <time>2022-08-06T10:22:59Z</time>
      </trkpt>
      <trkpt lat="45.70805" lon="3.05974">
        <ele>714.9</ele>
        <time>2022-08-06T10:23:01Z</time>
      </trkpt>
      <trkpt lat="45.70787" lon="3.06001">
        <ele>713.7</ele>
        <time>2022-08-06T10:23:03Z</time>
      </trkpt>
      <trkpt lat="45.70772" lon="3.06032">
        <ele>712.5</ele>
        <time>2022-08-06T10:23:05Z</time>
      </trkpt>
      <trkpt lat="45.70758" lon="3.06065">
        <ele>711.2</ele>
        <time>2022-08-06T10:23:07Z</time>
      </trkpt>
      <trkpt lat="45.70746" lon="3.06099">
        <ele>709.9</ele>
        <time>2022-08-06T10:23:09Z</time>
      </trkpt>
      <trkpt lat="45.70734" lon="3.06134">
        <ele>708.6</ele>
        <time>2022-08-06T10:23:11Z</time>
      </trkpt>
      <trkpt lat="45.70726" lon="3.06171">
        <ele>707.3</ele>
        <time>2022-08-06T10:23:13Z</time>
      </trkpt>
      <trkpt lat="45.70722" lon="3.06209">
        <ele>705.9</ele>
        <time>2022-08-06T10:23:15Z</time>
      </trkpt>
      <trkpt lat="45.70722" lon="3.06247">
        <ele>704.7</ele>
        <time>2022-08-06T10:23:17Z</time>
      </trkpt>
      <trkpt lat="45.70725" lon="3.06283">
        <ele>703.6</ele>
        <time>2022-08-06T10:23:19Z</time>
      </trkpt>
      <trkpt lat="45.70732" lon="3.06319">
        <ele>702.4</ele>
        <time>2022-08-06T10:23:21Z</time>
      </trkpt>
      <trkpt lat="45.70739" lon="3.06356">
        <ele>701.1</ele>
        <time>2022-08-06T10:23:23Z</time>
      </trkpt>
      <trkpt lat="45.70746" lon="3.06393">
        <ele>700</ele>
        <time>2022-08-06T10:23:25Z</time>
      </trkpt>
      <trkpt lat="45.70753" lon="3.0643">
        <ele>699</ele>
        <time>2022-08-06T10:23:27Z</time>
      </trkpt>
      <trkpt lat="45.70761" lon="3.06466">
        <ele>698</ele>
        <time>2022-08-06T10:23:29Z</time>
      </trkpt>
      <trkpt lat="45.70769" lon="3.06502">
        <ele>696.8</ele>
        <time>2022-08-06T10:23:31Z</time>
      </trkpt>
      <trkpt lat="45.70776" lon="3.06537">
        <ele>695.5</ele>
        <time>2022-08-06T10:23:33Z</time>
      </trkpt>
      <trkpt lat="45.70784" lon="3.06572">
        <ele>694.4</ele>
        <time>2022-08-06T10:23:35Z</time>
      </trkpt>
      <trkpt lat="45.7079" lon="3.06604">
        <ele>693.3</ele>
        <time>2022-08-06T10:23:37Z</time>
      </trkpt>
      <trkpt lat="45.70797" lon="3.06636">
        <ele>692.2</ele>
        <time>2022-08-06T10:23:39Z</time>
      </trkpt>
      <trkpt lat="45.70803" lon="3.06668">
        <ele>691</ele>
        <time>2022-08-06T10:23:41Z</time>
      </trkpt>
      <trkpt lat="45.7081" lon="3.067">
        <ele>689.9</ele>
        <time>2022-08-06T10:23:43Z</time>
      </trkpt>
      <trkpt lat="45.70817" lon="3.06733">
        <ele>688.7</ele>
        <time>2022-08-06T10:23:45Z</time>
      </trkpt>
      <trkpt lat="45.70825" lon="3.06767">
        <ele>687.4</ele>
        <time>2022-08-06T10:23:47Z</time>
      </trkpt>
      <trkpt lat="45.70831" lon="3.06801">
        <ele>686.1</ele>
        <time>2022-08-06T10:23:49Z</time>
      </trkpt>
      <trkpt lat="45.70838" lon="3.06835">
        <ele>684.8</ele>
        <time>2022-08-06T10:23:51Z</time>
      </trkpt>
      <trkpt lat="45.70846" lon="3.06869">
        <ele>683.6</ele>
        <time>2022-08-06T10:23:53Z</time>
      </trkpt>
      <trkpt lat="45.70854" lon="3.06902">
        <ele>683.1</ele>
        <time>2022-08-06T10:23:55Z</time>
      </trkpt>
      <trkpt lat="45.70865" lon="3.06932">
        <ele>682</ele>
        <time>2022-08-06T10:23:57Z</time>
      </trkpt>
      <trkpt lat="45.70881" lon="3.06958">
        <ele>680.7</ele>
        <time>2022-08-06T10:23:59Z</time>
      </trkpt>
      <trkpt lat="45.709" lon="3.0698">
        <ele>679.3</ele>
        <time>2022-08-06T10:24:01Z</time>
      </trkpt>
      <trkpt lat="45.7092" lon="3.07">
        <ele>677.9</ele>
        <time>2022-08-06T10:24:03Z</time>
      </trkpt>
      <trkpt lat="45.7094" lon="3.0702">
        <ele>676.6</ele>
        <time>2022-08-06T10:24:05Z</time>
      </trkpt>
      <trkpt lat="45.7096" lon="3.0704">
        <ele>675.3</ele>
        <time>2022-08-06T10:24:07Z</time>
      </trkpt>
      <trkpt lat="45.70981" lon="3.0706">
        <ele>673.9</ele>
        <time>2022-08-06T10:24:09Z</time>
      </trkpt>
      <trkpt lat="45.71001" lon="3.07083">
        <ele>672.6</ele>
        <time>2022-08-06T10:24:11Z</time>
      </trkpt>
      <trkpt lat="45.71018" lon="3.07108">
        <ele>671.6</ele>
        <time>2022-08-06T10:24:13Z</time>
      </trkpt>
      <trkpt lat="45.71033" lon="3.07137">
        <ele>670.7</ele>
        <time>2022-08-06T10:24:15Z</time>
      </trkpt>
      <trkpt lat="45.71043" lon="3.0717">
        <ele>669.4</ele>
        <time>2022-08-06T10:24:17Z</time>
      </trkpt>
      <trkpt lat="45.71047" lon="3.07205">
        <ele>668</ele>
        <time>2022-08-06T10:24:19Z</time>
      </trkpt>
      <trkpt lat="45.71049" lon="3.0724">
        <ele>666.6</ele>
        <time>2022-08-06T10:24:21Z</time>
      </trkpt>
      <trkpt lat="45.7105" lon="3.07276">
        <ele>665.2</ele>
        <time>2022-08-06T10:24:23Z</time>
      </trkpt>
      <trkpt lat="45.71052" lon="3.07311">
        <ele>663.7</ele>
        <time>2022-08-06T10:24:25Z</time>
      </trkpt>
      <trkpt lat="45.71055" lon="3.07344">
        <ele>662.4</ele>
        <time>2022-08-06T10:24:27Z</time>
      </trkpt>
      <trkpt lat="45.7106" lon="3.07377">
        <ele>661</ele>
        <time>2022-08-06T10:24:29Z</time>
      </trkpt>
      <trkpt lat="45.7107" lon="3.07408">
        <ele>659.7</ele>
        <time>2022-08-06T10:24:31Z</time>
      </trkpt>
      <trkpt lat="45.71085" lon="3.07434">
        <ele>658.4</ele>
        <time>2022-08-06T10:24:33Z</time>
      </trkpt>
      <trkpt lat="45.71105" lon="3.07454">
        <ele>657.1</ele>
        <time>2022-08-06T10:24:35Z</time>
      </trkpt>
      <trkpt lat="45.71127" lon="3.07466">
        <ele>655.9</ele>
        <time>2022-08-06T10:24:37Z</time>
      </trkpt>
      <trkpt lat="45.71151" lon="3.07472">
        <ele>654.6</ele>
        <time>2022-08-06T10:24:39Z</time>
      </trkpt>
      <trkpt lat="45.71176" lon="3.07469">
        <ele>653.7</ele>
        <time>2022-08-06T10:24:41Z</time>
      </trkpt>
      <trkpt lat="45.712" lon="3.0746">
        <ele>652.3</ele>
        <time>2022-08-06T10:24:43Z</time>
      </trkpt>
      <trkpt lat="45.71222" lon="3.07441">
        <ele>651</ele>
        <time>2022-08-06T10:24:45Z</time>
      </trkpt>
      <trkpt lat="45.71239" lon="3.07414">
        <ele>649.7</ele>
        <time>2022-08-06T10:24:47Z</time>
      </trkpt>
      <trkpt lat="45.71253" lon="3.07384">
        <ele>648.4</ele>
        <time>2022-08-06T10:24:49Z</time>
      </trkpt>
      <trkpt lat="45.71265" lon="3.07353">
        <ele>647.3</ele>
        <time>2022-08-06T10:24:51Z</time>
      </trkpt>
      <trkpt lat="45.71276" lon="3.07322">
        <ele>646.1</ele>
        <time>2022-08-06T10:24:53Z</time>
      </trkpt>
      <trkpt lat="45.71288" lon="3.07291">
        <ele>645</ele>
        <time>2022-08-06T10:24:55Z</time>
      </trkpt>
      <trkpt lat="45.713" lon="3.07259">
        <ele>643.9</ele>
        <time>2022-08-06T10:24:57Z</time>
      </trkpt>
      <trkpt lat="45.71311" lon="3.07228">
        <ele>642.8</ele>
        <time>2022-08-06T10:24:59Z</time>
      </trkpt>
      <trkpt lat="45.71322" lon="3.07199">
        <ele>641.8</ele>
        <time>2022-08-06T10:25:01Z</time>
      </trkpt>
      <trkpt lat="45.71334" lon="3.07168">
        <ele>640.8</ele>
        <time>2022-08-06T10:25:03Z</time>
      </trkpt>
      <trkpt lat="45.71345" lon="3.07138">
        <ele>639.7</ele>
        <time>2022-08-06T10:25:05Z</time>
      </trkpt>
      <trkpt lat="45.71357" lon="3.07107">
        <ele>638.6</ele>
        <time>2022-08-06T10:25:07Z</time>
      </trkpt>
      <trkpt lat="45.71368" lon="3.07077">
        <ele>637.5</ele>
        <time>2022-08-06T10:25:09Z</time>
      </trkpt>
      <trkpt lat="45.71384" lon="3.07053">
        <ele>636.5</ele>
        <time>2022-08-06T10:25:11Z</time>
      </trkpt>
      <trkpt lat="45.71406" lon="3.07038">
        <ele>635.6</ele>
        <time>2022-08-06T10:25:13Z</time>
      </trkpt>
      <trkpt lat="45.71429" lon="3.0703">
        <ele>634.7</ele>
        <time>2022-08-06T10:25:15Z</time>
      </trkpt>
      <trkpt lat="45.71452" lon="3.07023">
        <ele>633.5</ele>
        <time>2022-08-06T10:25:17Z</time>
      </trkpt>
      <trkpt lat="45.71476" lon="3.07015">
        <ele>632.6</ele>
        <time>2022-08-06T10:25:19Z</time>
      </trkpt>
      <trkpt lat="45.71499" lon="3.07008">
        <ele>631.7</ele>
        <time>2022-08-06T10:25:21Z</time>
      </trkpt>
      <trkpt lat="45.71523" lon="3.07001">
        <ele>630.8</ele>
        <time>2022-08-06T10:25:23Z</time>
      </trkpt>
      <trkpt lat="45.71546" lon="3.06993">
        <ele>629.8</ele>
        <time>2022-08-06T10:25:25Z</time>
      </trkpt>
      <trkpt lat="45.7157" lon="3.06987">
        <ele>629.3</ele>
        <time>2022-08-06T10:25:27Z</time>
      </trkpt>
      <trkpt lat="45.71593" lon="3.06982">
        <ele>628.3</ele>
        <time>2022-08-06T10:25:29Z</time>
      </trkpt>
      <trkpt lat="45.71616" lon="3.06976">
        <ele>627</ele>
        <time>2022-08-06T10:25:31Z</time>
      </trkpt>
      <trkpt lat="45.71639" lon="3.06973">
        <ele>625.8</ele>
        <time>2022-08-06T10:25:33Z</time>
      </trkpt>
      <trkpt lat="45.71663" lon="3.06972">
        <ele>624.6</ele>
        <time>2022-08-06T10:25:35Z</time>
      </trkpt>
      <trkpt lat="45.71686" lon="3.0697">
        <ele>623.3</ele>
        <time>2022-08-06T10:25:37Z</time>
      </trkpt>
      <trkpt lat="45.71709" lon="3.06967">
        <ele>622</ele>
        <time>2022-08-06T10:25:39Z</time>
      </trkpt>
      <trkpt lat="45.71731" lon="3.06966">
        <ele>620.8</ele>
        <time>2022-08-06T10:25:41Z</time>
      </trkpt>
      <trkpt lat="45.71753" lon="3.06969">
        <ele>619.7</ele>
        <time>2022-08-06T10:25:43Z</time>
      </trkpt>
      <trkpt lat="45.71775" lon="3.06974">
        <ele>618.8</ele>
        <time>2022-08-06T10:25:45Z</time>
      </trkpt>
      <trkpt lat="45.71794" lon="3.06975">
        <ele>618</ele>
        <time>2022-08-06T10:25:47Z</time>
      </trkpt>
      <trkpt lat="45.71805" lon="3.06963">
        <ele>617.3</ele>
        <time>2022-08-06T10:25:49Z</time>
      </trkpt>
      <trkpt lat="45.71808" lon="3.06942">
        <ele>616.7</ele>
        <time>2022-08-06T10:25:51Z</time>
      </trkpt>
      <trkpt lat="45.71809" lon="3.06921">
        <ele>616.3</ele>
        <time>2022-08-06T10:25:53Z</time>
      </trkpt>
      <trkpt lat="45.71811" lon="3.06901">
        <ele>615.9</ele>
        <time>2022-08-06T10:25:55Z</time>
      </trkpt>
      <trkpt lat="45.71815" lon="3.06881">
        <ele>615.5</ele>
        <time>2022-08-06T10:25:57Z</time>
      </trkpt>
      <trkpt lat="45.71822" lon="3.06862">
        <ele>615</ele>
        <time>2022-08-06T10:25:59Z</time>
      </trkpt>
      <trkpt lat="45.71832" lon="3.06845">
        <ele>614.4</ele>
        <time>2022-08-06T10:26:01Z</time>
      </trkpt>
      <trkpt lat="45.71845" lon="3.06829">
        <ele>613.4</ele>
        <time>2022-08-06T10:26:03Z</time>
      </trkpt>
      <trkpt lat="45.71859" lon="3.06815">
        <ele>612.4</ele>
        <time>2022-08-06T10:26:05Z</time>
      </trkpt>
      <trkpt lat="45.71875" lon="3.06802">
        <ele>611.4</ele>
        <time>2022-08-06T10:26:07Z</time>
      </trkpt>
      <trkpt lat="45.71892" lon="3.06793">
        <ele>610.3</ele>
        <time>2022-08-06T10:26:09Z</time>
      </trkpt>
      <trkpt lat="45.71911" lon="3.06789">
        <ele>609.2</ele>
        <time>2022-08-06T10:26:11Z</time>
      </trkpt>
      <trkpt lat="45.71931" lon="3.06789">
        <ele>607.9</ele>
        <time>2022-08-06T10:26:13Z</time>
      </trkpt>
      <trkpt lat="45.71952" lon="3.06792">
        <ele>606.6</ele>
        <time>2022-08-06T10:26:15Z</time>
      </trkpt>
      <trkpt lat="45.71973" lon="3.06794">
        <ele>605.6</ele>
        <time>2022-08-06T10:26:17Z</time>
      </trkpt>
      <trkpt lat="45.71993" lon="3.06798">
        <ele>605.2</ele>
        <time>2022-08-06T10:26:19Z</time>
      </trkpt>
      <trkpt lat="45.72011" lon="3.0681">
        <ele>604.9</ele>
        <time>2022-08-06T10:26:21Z</time>
      </trkpt>
      <trkpt lat="45.72026" lon="3.06824">
        <ele>604.6</ele>
        <time>2022-08-06T10:26:23Z</time>
      </trkpt>
      <trkpt lat="45.72043" lon="3.06819">
        <ele>603.8</ele>
        <time>2022-08-06T10:26:25Z</time>
      </trkpt>
      <trkpt lat="45.7206" lon="3.06812">
        <ele>602.8</ele>
        <time>2022-08-06T10:26:27Z</time>
      </trkpt>
      <trkpt lat="45.72079" lon="3.06811">
        <ele>601.8</ele>
        <time>2022-08-06T10:26:29Z</time>
      </trkpt>
      <trkpt lat="45.72098" lon="3.0681">
        <ele>600.8</ele>
        <time>2022-08-06T10:26:31Z</time>
      </trkpt>
      <trkpt lat="45.72119" lon="3.06806">
        <ele>599.7</ele>
        <time>2022-08-06T10:26:33Z</time>
      </trkpt>
      <trkpt lat="45.72139" lon="3.06801">
        <ele>598.6</ele>
        <time>2022-08-06T10:26:35Z</time>
      </trkpt>
      <trkpt lat="45.7216" lon="3.06793">
        <ele>597.4</ele>
        <time>2022-08-06T10:26:37Z</time>
      </trkpt>
      <trkpt lat="45.72181" lon="3.06783">
        <ele>596.3</ele>
        <time>2022-08-06T10:26:39Z</time>
      </trkpt>
      <trkpt lat="45.72201" lon="3.06772">
        <ele>595.2</ele>
        <time>2022-08-06T10:26:41Z</time>
      </trkpt>
      <trkpt lat="45.72222" lon="3.06764">
        <ele>594.2</ele>
        <time>2022-08-06T10:26:43Z</time>
      </trkpt>
      <trkpt lat="45.72244" lon="3.06755">
        <ele>593.1</ele>
        <time>2022-08-06T10:26:45Z</time>
      </trkpt>
      <trkpt lat="45.72264" lon="3.06748">
        <ele>592</ele>
        <time>2022-08-06T10:26:47Z</time>
      </trkpt>
      <trkpt lat="45.72285" lon="3.06743">
        <ele>591.2</ele>
        <time>2022-08-06T10:26:49Z</time>
      </trkpt>
      <trkpt lat="45.72305" lon="3.06737">
        <ele>590.7</ele>
        <time>2022-08-06T10:26:51Z</time>
      </trkpt>
      <trkpt lat="45.72326" lon="3.06731">
        <ele>589.9</ele>
        <time>2022-08-06T10:26:53Z</time>
      </trkpt>
      <trkpt lat="45.72345" lon="3.06727">
        <ele>589</ele>
        <time>2022-08-06T10:26:55Z</time>
      </trkpt>
      <trkpt lat="45.72365" lon="3.06722">
        <ele>588</ele>
        <time>2022-08-06T10:26:57Z</time>
      </trkpt>
      <trkpt lat="45.72385" lon="3.06716">
        <ele>587.2</ele>
        <time>2022-08-06T10:26:59Z</time>
      </trkpt>
      <trkpt lat="45.72405" lon="3.06709">
        <ele>586.6</ele>
        <time>2022-08-06T10:27:01Z</time>
      </trkpt>
      <trkpt lat="45.72422" lon="3.06695">
        <ele>585.8</ele>
        <time>2022-08-06T10:27:03Z</time>
      </trkpt>
      <trkpt lat="45.72436" lon="3.06673">
        <ele>585</ele>
        <time>2022-08-06T10:27:05Z</time>
      </trkpt>
      <trkpt lat="45.72443" lon="3.06647">
        <ele>584.3</ele>
        <time>2022-08-06T10:27:07Z</time>
      </trkpt>
      <trkpt lat="45.72447" lon="3.06618">
        <ele>583.7</ele>
        <time>2022-08-06T10:27:09Z</time>
      </trkpt>
      <trkpt lat="45.7245" lon="3.06588">
        <ele>583</ele>
        <time>2022-08-06T10:27:11Z</time>
      </trkpt>
      <trkpt lat="45.72452" lon="3.06559">
        <ele>582.5</ele>
        <time>2022-08-06T10:27:13Z</time>
      </trkpt>
      <trkpt lat="45.72455" lon="3.06531">
        <ele>581.9</ele>
        <time>2022-08-06T10:27:15Z</time>
      </trkpt>
      <trkpt lat="45.72458" lon="3.06502">
        <ele>581.4</ele>
        <time>2022-08-06T10:27:17Z</time>
      </trkpt>
      <trkpt lat="45.72462" lon="3.06473">
        <ele>580.9</ele>
        <time>2022-08-06T10:27:19Z</time>
      </trkpt>
      <trkpt lat="45.72465" lon="3.06445">
        <ele>580.5</ele>
        <time>2022-08-06T10:27:21Z</time>
      </trkpt>
      <trkpt lat="45.72468" lon="3.06417">
        <ele>580.1</ele>
        <time>2022-08-06T10:27:23Z</time>
      </trkpt>
      <trkpt lat="45.72475" lon="3.06391">
        <ele>579.6</ele>
        <time>2022-08-06T10:27:25Z</time>
      </trkpt>
      <trkpt lat="45.72489" lon="3.06372">
        <ele>579.3</ele>
        <time>2022-08-06T10:27:27Z</time>
      </trkpt>
      <trkpt lat="45.72508" lon="3.06367">
        <ele>579.1</ele>
        <time>2022-08-06T10:27:29Z</time>
      </trkpt>
      <trkpt lat="45.72528" lon="3.06365">
        <ele>579</ele>
        <time>2022-08-06T10:27:31Z</time>
      </trkpt>
      <trkpt lat="45.72547" lon="3.06363">
        <ele>579</ele>
        <time>2022-08-06T10:27:33Z</time>
      </trkpt>
      <trkpt lat="45.72565" lon="3.06359">
        <ele>579</ele>
        <time>2022-08-06T10:27:35Z</time>
      </trkpt>
      <trkpt lat="45.72582" lon="3.06357">
        <ele>578.9</ele>
        <time>2022-08-06T10:27:37Z</time>
      </trkpt>
      <trkpt lat="45.72598" lon="3.06354">
        <ele>578.9</ele>
        <time>2022-08-06T10:27:39Z</time>
      </trkpt>
      <trkpt lat="45.72614" lon="3.0635">
        <ele>578.8</ele>
        <time>2022-08-06T10:27:41Z</time>
      </trkpt>
      <trkpt lat="45.72629" lon="3.06348">
        <ele>578.7</ele>
        <time>2022-08-06T10:27:43Z</time>
      </trkpt>
      <trkpt lat="45.72644" lon="3.06348">
        <ele>578.6</ele>
        <time>2022-08-06T10:27:45Z</time>
      </trkpt>
      <trkpt lat="45.7266" lon="3.06348">
        <ele>578.5</ele>
        <time>2022-08-06T10:27:47Z</time>
      </trkpt>
      <trkpt lat="45.72675" lon="3.06351">
        <ele>578.5</ele>
        <time>2022-08-06T10:27:49Z</time>
      </trkpt>
      <trkpt lat="45.7269" lon="3.06355">
        <ele>578.4</ele>
        <time>2022-08-06T10:27:51Z</time>
      </trkpt>
      <trkpt lat="45.72705" lon="3.0636">
        <ele>578.4</ele>
        <time>2022-08-06T10:27:53Z</time>
      </trkpt>
      <trkpt lat="45.7272" lon="3.06367">
        <ele>578.3</ele>
        <time>2022-08-06T10:27:55Z</time>
      </trkpt>
      <trkpt lat="45.72735" lon="3.06373">
        <ele>578.2</ele>
        <time>2022-08-06T10:27:57Z</time>
      </trkpt>
      <trkpt lat="45.7275" lon="3.06379">
        <ele>578.1</ele>
        <time>2022-08-06T10:27:59Z</time>
      </trkpt>
      <trkpt lat="45.72765" lon="3.06385">
        <ele>578.1</ele>
        <time>2022-08-06T10:28:01Z</time>
      </trkpt>
      <trkpt lat="45.72781" lon="3.0639">
        <ele>578</ele>
        <time>2022-08-06T10:28:03Z</time>
      </trkpt>
      <trkpt lat="45.72797" lon="3.06396">
        <ele>577.9</ele>
        <time>2022-08-06T10:28:05Z</time>
      </trkpt>
      <trkpt lat="45.72812" lon="3.06402">
        <ele>577.9</ele>
        <time>2022-08-06T10:28:07Z</time>
      </trkpt>
      <trkpt lat="45.72828" lon="3.06409">
        <ele>577.8</ele>
        <time>2022-08-06T10:28:09Z</time>
      </trkpt>
      <trkpt lat="45.72843" lon="3.06416">
        <ele>577.7</ele>
        <time>2022-08-06T10:28:11Z</time>
      </trkpt>
      <trkpt lat="45.72858" lon="3.06422">
        <ele>577.7</ele>
        <time>2022-08-06T10:28:13Z</time>
      </trkpt>
      <trkpt lat="45.72874" lon="3.06429">
        <ele>577.7</ele>
        <time>2022-08-06T10:28:15Z</time>
      </trkpt>
      <trkpt lat="45.72888" lon="3.06436">
        <ele>577.6</ele>
        <time>2022-08-06T10:28:17Z</time>
      </trkpt>
      <trkpt lat="45.72903" lon="3.06441">
        <ele>577.4</ele>
        <time>2022-08-06T10:28:19Z</time>
      </trkpt>
      <trkpt lat="45.72919" lon="3.06444">
        <ele>577.1</ele>
        <time>2022-08-06T10:28:21Z</time>
      </trkpt>
      <trkpt lat="45.72934" lon="3.06445">
        <ele>576.8</ele>
        <time>2022-08-06T10:28:23Z</time>
      </trkpt>
      <trkpt lat="45.72949" lon="3.06446">
        <ele>576.5</ele>
        <time>2022-08-06T10:28:25Z</time>
      </trkpt>
      <trkpt lat="45.72964" lon="3.06445">
        <ele>576.2</ele>
        <time>2022-08-06T10:28:27Z</time>
      </trkpt>
      <trkpt lat="45.72979" lon="3.06442">
        <ele>575.8</ele>
        <time>2022-08-06T10:28:29Z</time>
      </trkpt>
      <trkpt lat="45.72995" lon="3.06439">
        <ele>575.3</ele>
        <time>2022-08-06T10:28:31Z</time>
      </trkpt>
      <trkpt lat="45.7301" lon="3.06433">
        <ele>575</ele>
        <time>2022-08-06T10:28:33Z</time>
      </trkpt>
      <trkpt lat="45.73026" lon="3.06425">
        <ele>574.5</ele>
        <time>2022-08-06T10:28:35Z</time>
      </trkpt>
      <trkpt lat="45.73042" lon="3.06418">
        <ele>573.7</ele>
        <time>2022-08-06T10:28:37Z</time>
      </trkpt>
      <trkpt lat="45.73058" lon="3.06411">
        <ele>573</ele>
        <time>2022-08-06T10:28:39Z</time>
      </trkpt>
      <trkpt lat="45.73073" lon="3.06404">
        <ele>572.2</ele>
        <time>2022-08-06T10:28:41Z</time>
      </trkpt>
      <trkpt lat="45.73089" lon="3.06398">
        <ele>571.4</ele>
        <time>2022-08-06T10:28:43Z</time>
      </trkpt>
      <trkpt lat="45.73106" lon="3.06391">
        <ele>570.5</ele>
        <time>2022-08-06T10:28:45Z</time>
      </trkpt>
      <trkpt lat="45.73122" lon="3.06384">
        <ele>569.7</ele>
        <time>2022-08-06T10:28:47Z</time>
      </trkpt>
      <trkpt lat="45.7314" lon="3.06378">
        <ele>569.2</ele>
        <time>2022-08-06T10:28:49Z</time>
      </trkpt>
      <trkpt lat="45.73154" lon="3.06373">
        <ele>568.7</ele>
        <time>2022-08-06T10:28:51Z</time>
      </trkpt>
      <trkpt lat="45.73169" lon="3.0637">
        <ele>568</ele>
        <time>2022-08-06T10:28:53Z</time>
      </trkpt>
      <trkpt lat="45.73186" lon="3.06369">
        <ele>567.1</ele>
        <time>2022-08-06T10:28:55Z</time>
      </trkpt>
      <trkpt lat="45.73203" lon="3.06368">
        <ele>566.1</ele>
        <time>2022-08-06T10:28:57Z</time>
      </trkpt>
      <trkpt lat="45.73221" lon="3.06369">
        <ele>565.1</ele>
        <time>2022-08-06T10:28:59Z</time>
      </trkpt>
      <trkpt lat="45.7324" lon="3.06373">
        <ele>564.6</ele>
        <time>2022-08-06T10:29:01Z</time>
      </trkpt>
      <trkpt lat="45.73258" lon="3.06377">
        <ele>564.3</ele>
        <time>2022-08-06T10:29:03Z</time>
      </trkpt>
      <trkpt lat="45.73276" lon="3.06382">
        <ele>563.3</ele>
        <time>2022-08-06T10:29:05Z</time>
      </trkpt>
      <trkpt lat="45.73294" lon="3.06388">
        <ele>562.4</ele>
        <time>2022-08-06T10:29:07Z</time>
      </trkpt>
      <trkpt lat="45.73312" lon="3.06391">
        <ele>561.5</ele>
        <time>2022-08-06T10:29:09Z</time>
      </trkpt>
      <trkpt lat="45.73328" lon="3.06393">
        <ele>560.7</ele>
        <time>2022-08-06T10:29:11Z</time>
      </trkpt>
      <trkpt lat="45.73342" lon="3.06394">
        <ele>560</ele>
        <time>2022-08-06T10:29:13Z</time>
      </trkpt>
      <trkpt lat="45.7335" lon="3.06397">
        <ele>559.8</ele>
        <time>2022-08-06T10:29:15Z</time>
      </trkpt>
      <trkpt lat="45.73354" lon="3.064">
        <ele>559.7</ele>
        <time>2022-08-06T10:29:17Z</time>
      </trkpt>
      <trkpt lat="45.73359" lon="3.06403">
        <ele>559.6</ele>
        <time>2022-08-06T10:29:19Z</time>
      </trkpt>
      <trkpt lat="45.73368" lon="3.06406">
        <ele>559.5</ele>
        <time>2022-08-06T10:29:21Z</time>
      </trkpt>
      <trkpt lat="45.73378" lon="3.06409">
        <ele>559.3</ele>
        <time>2022-08-06T10:29:23Z</time>
      </trkpt>
      <trkpt lat="45.7339" lon="3.06408">
        <ele>558.9</ele>
        <time>2022-08-06T10:29:25Z</time>
      </trkpt>
      <trkpt lat="45.73405" lon="3.0641">
        <ele>558.1</ele>
        <time>2022-08-06T10:29:27Z</time>
      </trkpt>
      <trkpt lat="45.7342" lon="3.06412">
        <ele>557.2</ele>
        <time>2022-08-06T10:29:29Z</time>
      </trkpt>
      <trkpt lat="45.73436" lon="3.06416">
        <ele>556.2</ele>
        <time>2022-08-06T10:29:31Z</time>
      </trkpt>
      <trkpt lat="45.73453" lon="3.0642">
        <ele>555.3</ele>
        <time>2022-08-06T10:29:33Z</time>
      </trkpt>
      <trkpt lat="45.7347" lon="3.06424">
        <ele>554.3</ele>
        <time>2022-08-06T10:29:35Z</time>
      </trkpt>
      <trkpt lat="45.73489" lon="3.06428">
        <ele>553.3</ele>
        <time>2022-08-06T10:29:37Z</time>
      </trkpt>
      <trkpt lat="45.73509" lon="3.06433">
        <ele>552.3</ele>
        <time>2022-08-06T10:29:39Z</time>
      </trkpt>
      <trkpt lat="45.73528" lon="3.06437">
        <ele>551.3</ele>
        <time>2022-08-06T10:29:41Z</time>
      </trkpt>
      <trkpt lat="45.73547" lon="3.06443">
        <ele>550.4</ele>
        <time>2022-08-06T10:29:43Z</time>
      </trkpt>
      <trkpt lat="45.73566" lon="3.06454">
        <ele>549.4</ele>
        <time>2022-08-06T10:29:45Z</time>
      </trkpt>
      <trkpt lat="45.73584" lon="3.06467">
        <ele>548.3</ele>
        <time>2022-08-06T10:29:47Z</time>
      </trkpt>
      <trkpt lat="45.736" lon="3.06484">
        <ele>547.3</ele>
        <time>2022-08-06T10:29:49Z</time>
      </trkpt>
      <trkpt lat="45.73614" lon="3.06505">
        <ele>546.3</ele>
        <time>2022-08-06T10:29:51Z</time>
      </trkpt>
      <trkpt lat="45.73626" lon="3.0653">
        <ele>545.4</ele>
        <time>2022-08-06T10:29:53Z</time>
      </trkpt>
      <trkpt lat="45.73635" lon="3.06558">
        <ele>544.4</ele>
        <time>2022-08-06T10:29:55Z</time>
      </trkpt>
      <trkpt lat="45.73642" lon="3.06587">
        <ele>543.5</ele>
        <time>2022-08-06T10:29:57Z</time>
      </trkpt>
      <trkpt lat="45.7365" lon="3.06615">
        <ele>542.6</ele>
        <time>2022-08-06T10:29:59Z</time>
      </trkpt>
      <trkpt lat="45.73658" lon="3.06642">
        <ele>541.7</ele>
        <time>2022-08-06T10:30:01Z</time>
      </trkpt>
      <trkpt lat="45.73668" lon="3.06669">
        <ele>540.7</ele>
        <time>2022-08-06T10:30:03Z</time>
      </trkpt>
      <trkpt lat="45.7368" lon="3.06694">
        <ele>539.7</ele>
        <time>2022-08-06T10:30:05Z</time>
      </trkpt>
      <trkpt lat="45.73695" lon="3.06718">
        <ele>538.7</ele>
        <time>2022-08-06T10:30:07Z</time>
      </trkpt>
      <trkpt lat="45.73711" lon="3.0674">
        <ele>537.7</ele>
        <time>2022-08-06T10:30:09Z</time>
      </trkpt>
      <trkpt lat="45.73729" lon="3.06761">
        <ele>536.7</ele>
        <time>2022-08-06T10:30:11Z</time>
      </trkpt>
      <trkpt lat="45.73748" lon="3.06778">
        <ele>535.6</ele>
        <time>2022-08-06T10:30:13Z</time>
      </trkpt>
      <trkpt lat="45.73767" lon="3.06794">
        <ele>534.5</ele>
        <time>2022-08-06T10:30:15Z</time>
      </trkpt>
      <trkpt lat="45.73786" lon="3.0681">
        <ele>533.5</ele>
        <time>2022-08-06T10:30:17Z</time>
      </trkpt>
      <trkpt lat="45.73805" lon="3.06826">
        <ele>532.5</ele>
        <time>2022-08-06T10:30:19Z</time>
      </trkpt>
      <trkpt lat="45.73825" lon="3.06841">
        <ele>531.4</ele>
        <time>2022-08-06T10:30:21Z</time>
      </trkpt>
      <trkpt lat="45.73844" lon="3.06857">
        <ele>530.3</ele>
        <time>2022-08-06T10:30:23Z</time>
      </trkpt>
      <trkpt lat="45.73863" lon="3.06872">
        <ele>529.2</ele>
        <time>2022-08-06T10:30:25Z</time>
      </trkpt>
      <trkpt lat="45.73883" lon="3.06885">
        <ele>528.2</ele>
        <time>2022-08-06T10:30:27Z</time>
      </trkpt>
      <trkpt lat="45.73904" lon="3.06895">
        <ele>527.2</ele>
        <time>2022-08-06T10:30:29Z</time>
      </trkpt>
      <trkpt lat="45.73926" lon="3.06905">
        <ele>526.2</ele>
        <time>2022-08-06T10:30:31Z</time>
      </trkpt>
      <trkpt lat="45.73946" lon="3.06915">
        <ele>525.2</ele>
        <time>2022-08-06T10:30:33Z</time>
      </trkpt>
      <trkpt lat="45.73967" lon="3.06924">
        <ele>525.4</ele>
        <time>2022-08-06T10:30:35Z</time>
      </trkpt>
      <trkpt lat="45.73987" lon="3.06932">
        <ele>525.3</ele>
        <time>2022-08-06T10:30:37Z</time>
      </trkpt>
      <trkpt lat="45.74008" lon="3.0694">
        <ele>523.8</ele>
        <time>2022-08-06T10:30:39Z</time>
      </trkpt>
      <trkpt lat="45.74027" lon="3.06952">
        <ele>522.6</ele>
        <time>2022-08-06T10:30:41Z</time>
      </trkpt>
      <trkpt lat="45.74045" lon="3.06965">
        <ele>521.6</ele>
        <time>2022-08-06T10:30:43Z</time>
      </trkpt>
      <trkpt lat="45.74065" lon="3.06976">
        <ele>520.7</ele>
        <time>2022-08-06T10:30:45Z</time>
      </trkpt>
      <trkpt lat="45.74085" lon="3.06985">
        <ele>519.6</ele>
        <time>2022-08-06T10:30:47Z</time>
      </trkpt>
      <trkpt lat="45.74106" lon="3.06993">
        <ele>518.4</ele>
        <time>2022-08-06T10:30:49Z</time>
      </trkpt>
      <trkpt lat="45.74127" lon="3.07003">
        <ele>517.3</ele>
        <time>2022-08-06T10:30:51Z</time>
      </trkpt>
      <trkpt lat="45.74149" lon="3.07012">
        <ele>516.2</ele>
        <time>2022-08-06T10:30:53Z</time>
      </trkpt>
      <trkpt lat="45.74171" lon="3.07019">
        <ele>515.2</ele>
        <time>2022-08-06T10:30:55Z</time>
      </trkpt>
      <trkpt lat="45.74193" lon="3.07026">
        <ele>513.9</ele>
        <time>2022-08-06T10:30:57Z</time>
      </trkpt>
      <trkpt lat="45.74216" lon="3.0703">
        <ele>512.8</ele>
        <time>2022-08-06T10:30:59Z</time>
      </trkpt>
      <trkpt lat="45.74239" lon="3.07034">
        <ele>511.8</ele>
        <time>2022-08-06T10:31:01Z</time>
      </trkpt>
      <trkpt lat="45.74261" lon="3.07036">
        <ele>510.8</ele>
        <time>2022-08-06T10:31:03Z</time>
      </trkpt>
      <trkpt lat="45.74284" lon="3.07035">
        <ele>509.9</ele>
        <time>2022-08-06T10:31:05Z</time>
      </trkpt>
      <trkpt lat="45.74307" lon="3.07033">
        <ele>508.9</ele>
        <time>2022-08-06T10:31:07Z</time>
      </trkpt>
      <trkpt lat="45.74329" lon="3.07029">
        <ele>508.1</ele>
        <time>2022-08-06T10:31:09Z</time>
      </trkpt>
      <trkpt lat="45.74351" lon="3.07026">
        <ele>507.3</ele>
        <time>2022-08-06T10:31:11Z</time>
      </trkpt>
      <trkpt lat="45.74372" lon="3.07023">
        <ele>506.5</ele>
        <time>2022-08-06T10:31:13Z</time>
      </trkpt>
      <trkpt lat="45.74394" lon="3.07019">
        <ele>505.6</ele>
        <time>2022-08-06T10:31:15Z</time>
      </trkpt>
      <trkpt lat="45.74417" lon="3.07016">
        <ele>504.8</ele>
        <time>2022-08-06T10:31:17Z</time>
      </trkpt>
      <trkpt lat="45.74438" lon="3.07012">
        <ele>504</ele>
        <time>2022-08-06T10:31:19Z</time>
      </trkpt>
      <trkpt lat="45.7446" lon="3.07009">
        <ele>503.2</ele>
        <time>2022-08-06T10:31:21Z</time>
      </trkpt>
      <trkpt lat="45.74483" lon="3.07005">
        <ele>502.3</ele>
        <time>2022-08-06T10:31:23Z</time>
      </trkpt>
      <trkpt lat="45.74504" lon="3.07002">
        <ele>501.4</ele>
        <time>2022-08-06T10:31:25Z</time>
      </trkpt>
      <trkpt lat="45.74526" lon="3.06999">
        <ele>500.4</ele>
        <time>2022-08-06T10:31:27Z</time>
      </trkpt>
      <trkpt lat="45.74547" lon="3.06996">
        <ele>499.4</ele>
        <time>2022-08-06T10:31:29Z</time>
      </trkpt>
      <trkpt lat="45.74569" lon="3.06994">
        <ele>498.4</ele>
        <time>2022-08-06T10:31:31Z</time>
      </trkpt>
      <trkpt lat="45.74591" lon="3.06994">
        <ele>497.4</ele>
        <time>2022-08-06T10:31:33Z</time>
      </trkpt>
      <trkpt lat="45.74613" lon="3.06998">
        <ele>496.4</ele>
        <time>2022-08-06T10:31:35Z</time>
      </trkpt>
      <trkpt lat="45.74634" lon="3.07004">
        <ele>495.5</ele>
        <time>2022-08-06T10:31:37Z</time>
      </trkpt>
      <trkpt lat="45.74655" lon="3.07012">
        <ele>495</ele>
        <time>2022-08-06T10:31:39Z</time>
      </trkpt>
      <trkpt lat="45.74676" lon="3.0702">
        <ele>494.3</ele>
        <time>2022-08-06T10:31:41Z</time>
      </trkpt>
      <trkpt lat="45.74696" lon="3.07031">
        <ele>493.7</ele>
        <time>2022-08-06T10:31:43Z</time>
      </trkpt>
      <trkpt lat="45.74714" lon="3.07046">
        <ele>492.9</ele>
        <time>2022-08-06T10:31:45Z</time>
      </trkpt>
      <trkpt lat="45.74728" lon="3.07068">
        <ele>492.3</ele>
        <time>2022-08-06T10:31:47Z</time>
      </trkpt>
      <trkpt lat="45.74737" lon="3.07095">
        <ele>491.4</ele>
        <time>2022-08-06T10:31:49Z</time>
      </trkpt>
      <trkpt lat="45.7474" lon="3.07126">
        <ele>490.1</ele>
        <time>2022-08-06T10:31:51Z</time>
      </trkpt>
      <trkpt lat="45.74739" lon="3.07156">
        <ele>489.1</ele>
        <time>2022-08-06T10:31:53Z</time>
      </trkpt>
      <trkpt lat="45.7474" lon="3.07186">
        <ele>488.1</ele>
        <time>2022-08-06T10:31:55Z</time>
      </trkpt>
      <trkpt lat="45.74742" lon="3.07216">
        <ele>487.1</ele>
        <time>2022-08-06T10:31:57Z</time>
      </trkpt>
      <trkpt lat="45.74746" lon="3.07246">
        <ele>486.1</ele>
        <time>2022-08-06T10:31:59Z</time>
      </trkpt>
      <trkpt lat="45.74751" lon="3.07276">
        <ele>485</ele>
        <time>2022-08-06T10:32:01Z</time>
      </trkpt>
      <trkpt lat="45.74756" lon="3.07306">
        <ele>484</ele>
        <time>2022-08-06T10:32:03Z</time>
      </trkpt>
      <trkpt lat="45.74761" lon="3.07336">
        <ele>483</ele>
        <time>2022-08-06T10:32:05Z</time>
      </trkpt>
      <trkpt lat="45.74767" lon="3.07365">
        <ele>482</ele>
        <time>2022-08-06T10:32:07Z</time>
      </trkpt>
      <trkpt lat="45.74772" lon="3.07394">
        <ele>481.1</ele>
        <time>2022-08-06T10:32:09Z</time>
      </trkpt>
      <trkpt lat="45.74776" lon="3.07423">
        <ele>480.1</ele>
        <time>2022-08-06T10:32:11Z</time>
      </trkpt>
      <trkpt lat="45.74781" lon="3.07452">
        <ele>479.1</ele>
        <time>2022-08-06T10:32:13Z</time>
      </trkpt>
      <trkpt lat="45.74786" lon="3.0748">
        <ele>478.1</ele>
        <time>2022-08-06T10:32:15Z</time>
      </trkpt>
      <trkpt lat="45.74791" lon="3.07509">
        <ele>477.1</ele>
        <time>2022-08-06T10:32:17Z</time>
      </trkpt>
      <trkpt lat="45.74796" lon="3.07537">
        <ele>476.2</ele>
        <time>2022-08-06T10:32:19Z</time>
      </trkpt>
      <trkpt lat="45.74802" lon="3.07567">
        <ele>475.5</ele>
        <time>2022-08-06T10:32:21Z</time>
      </trkpt>
      <trkpt lat="45.74807" lon="3.07595">
        <ele>474.8</ele>
        <time>2022-08-06T10:32:23Z</time>
      </trkpt>
      <trkpt lat="45.74811" lon="3.07624">
        <ele>473.7</ele>
        <time>2022-08-06T10:32:25Z</time>
      </trkpt>
      <trkpt lat="45.74815" lon="3.07653">
        <ele>472.7</ele>
        <time>2022-08-06T10:32:27Z</time>
      </trkpt>
      <trkpt lat="45.74821" lon="3.07681">
        <ele>471.7</ele>
        <time>2022-08-06T10:32:29Z</time>
      </trkpt>
      <trkpt lat="45.74825" lon="3.0771">
        <ele>470.7</ele>
        <time>2022-08-06T10:32:31Z</time>
      </trkpt>
      <trkpt lat="45.7483" lon="3.07739">
        <ele>469.8</ele>
        <time>2022-08-06T10:32:33Z</time>
      </trkpt>
      <trkpt lat="45.74834" lon="3.07767">
        <ele>469</ele>
        <time>2022-08-06T10:32:35Z</time>
      </trkpt>
      <trkpt lat="45.74839" lon="3.07795">
        <ele>468.2</ele>
        <time>2022-08-06T10:32:37Z</time>
      </trkpt>
      <trkpt lat="45.74845" lon="3.07824">
        <ele>467.6</ele>
        <time>2022-08-06T10:32:39Z</time>
      </trkpt>
      <trkpt lat="45.74855" lon="3.07848">
        <ele>467</ele>
        <time>2022-08-06T10:32:41Z</time>
      </trkpt>
      <trkpt lat="45.74873" lon="3.07864">
        <ele>466.5</ele>
        <time>2022-08-06T10:32:43Z</time>
      </trkpt>
      <trkpt lat="45.74891" lon="3.07874">
        <ele>465.4</ele>
        <time>2022-08-06T10:32:45Z</time>
      </trkpt>
      <trkpt lat="45.7491" lon="3.07884">
        <ele>464.1</ele>
        <time>2022-08-06T10:32:47Z</time>
      </trkpt>
      <trkpt lat="45.74927" lon="3.07894">
        <ele>463.1</ele>
        <time>2022-08-06T10:32:49Z</time>
      </trkpt>
      <trkpt lat="45.74941" lon="3.07902">
        <ele>462.6</ele>
        <time>2022-08-06T10:32:51Z</time>
      </trkpt>
      <trkpt lat="45.74949" lon="3.07906">
        <ele>462.2</ele>
        <time>2022-08-06T10:32:53Z</time>
      </trkpt>
      <trkpt lat="45.74959" lon="3.07911">
        <ele>461.8</ele>
        <time>2022-08-06T10:32:55Z</time>
      </trkpt>
      <trkpt lat="45.74968" lon="3.07917">
        <ele>461.5</ele>
        <time>2022-08-06T10:32:57Z</time>
      </trkpt>
      <trkpt lat="45.74979" lon="3.07922">
        <ele>461.2</ele>
        <time>2022-08-06T10:32:59Z</time>
      </trkpt>
      <trkpt lat="45.7499" lon="3.07927">
        <ele>460.7</ele>
        <time>2022-08-06T10:33:01Z</time>
      </trkpt>
      <trkpt lat="45.75002" lon="3.07936">
        <ele>460</ele>
        <time>2022-08-06T10:33:03Z</time>
      </trkpt>
      <trkpt lat="45.75017" lon="3.07942">
        <ele>459.5</ele>
        <time>2022-08-06T10:33:05Z</time>
      </trkpt>
      <trkpt lat="45.75032" lon="3.07951">
        <ele>459</ele>
        <time>2022-08-06T10:33:07Z</time>
      </trkpt>
      <trkpt lat="45.75047" lon="3.07958">
        <ele>458.3</ele>
        <time>2022-08-06T10:33:09Z</time>
      </trkpt>
      <trkpt lat="45.75063" lon="3.07966">
        <ele>457.6</ele>
        <time>2022-08-06T10:33:11Z</time>
      </trkpt>
      <trkpt lat="45.75079" lon="3.07975">
        <ele>456.9</ele>
        <time>2022-08-06T10:33:13Z</time>
      </trkpt>
      <trkpt lat="45.75096" lon="3.07984">
        <ele>456.2</ele>
        <time>2022-08-06T10:33:15Z</time>
      </trkpt>
      <trkpt lat="45.75114" lon="3.07993">
        <ele>455.4</ele>
        <time>2022-08-06T10:33:17Z</time>
      </trkpt>
      <trkpt lat="45.7513" lon="3.08005">
        <ele>454.8</ele>
        <time>2022-08-06T10:33:19Z</time>
      </trkpt>
      <trkpt lat="45.75146" lon="3.08021">
        <ele>454.2</ele>
        <time>2022-08-06T10:33:21Z</time>
      </trkpt>
      <trkpt lat="45.75159" lon="3.08039">
        <ele>453.7</ele>
        <time>2022-08-06T10:33:23Z</time>
      </trkpt>
      <trkpt lat="45.7517" lon="3.08061">
        <ele>453.1</ele>
        <time>2022-08-06T10:33:25Z</time>
      </trkpt>
      <trkpt lat="45.75179" lon="3.08084">
        <ele>452.5</ele>
        <time>2022-08-06T10:33:27Z</time>
      </trkpt>
      <trkpt lat="45.75187" lon="3.08108">
        <ele>451.8</ele>
        <time>2022-08-06T10:33:29Z</time>
      </trkpt>
      <trkpt lat="45.75196" lon="3.08132">
        <ele>451.2</ele>
        <time>2022-08-06T10:33:31Z</time>
      </trkpt>
      <trkpt lat="45.75203" lon="3.08157">
        <ele>450.6</ele>
        <time>2022-08-06T10:33:33Z</time>
      </trkpt>
      <trkpt lat="45.75212" lon="3.0818">
        <ele>450</ele>
        <time>2022-08-06T10:33:35Z</time>
      </trkpt>
      <trkpt lat="45.7522" lon="3.08203">
        <ele>449.4</ele>
        <time>2022-08-06T10:33:37Z</time>
      </trkpt>
      <trkpt lat="45.75229" lon="3.08228">
        <ele>448.8</ele>
        <time>2022-08-06T10:33:39Z</time>
      </trkpt>
      <trkpt lat="45.75237" lon="3.08251">
        <ele>448.2</ele>
        <time>2022-08-06T10:33:41Z</time>
      </trkpt>
      <trkpt lat="45.75244" lon="3.08274">
        <ele>447.7</ele>
        <time>2022-08-06T10:33:43Z</time>
      </trkpt>
      <trkpt lat="45.7525" lon="3.08295">
        <ele>447.1</ele>
        <time>2022-08-06T10:33:45Z</time>
      </trkpt>
      <trkpt lat="45.75253" lon="3.08307">
        <ele>446.9</ele>
        <time>2022-08-06T10:33:47Z</time>
      </trkpt>
      <trkpt lat="45.75255" lon="3.08314">
        <ele>446.7</ele>
        <time>2022-08-06T10:33:49Z</time>
      </trkpt>
      <trkpt lat="45.75258" lon="3.08324">
        <ele>446.5</ele>
        <time>2022-08-06T10:33:51Z</time>
      </trkpt>
      <trkpt lat="45.75264" lon="3.08337">
        <ele>446.3</ele>
        <time>2022-08-06T10:33:53Z</time>
      </trkpt>
      <trkpt lat="45.7527" lon="3.08351">
        <ele>445.9</ele>
        <time>2022-08-06T10:33:55Z</time>
      </trkpt>
      <trkpt lat="45.75275" lon="3.08367">
        <ele>445.6</ele>
        <time>2022-08-06T10:33:57Z</time>
      </trkpt>
      <trkpt lat="45.75281" lon="3.08383">
        <ele>445.3</ele>
        <time>2022-08-06T10:33:59Z</time>
      </trkpt>
      <trkpt lat="45.75288" lon="3.08402">
        <ele>444.9</ele>
        <time>2022-08-06T10:34:01Z</time>
      </trkpt>
      <trkpt lat="45.75295" lon="3.08421">
        <ele>444.5</ele>
        <time>2022-08-06T10:34:03Z</time>
      </trkpt>
      <trkpt lat="45.75302" lon="3.08438">
        <ele>444.2</ele>
        <time>2022-08-06T10:34:05Z</time>
      </trkpt>
      <trkpt lat="45.75309" lon="3.08455">
        <ele>444</ele>
        <time>2022-08-06T10:34:07Z</time>
      </trkpt>
      <trkpt lat="45.75318" lon="3.08473">
        <ele>443.7</ele>
        <time>2022-08-06T10:34:09Z</time>
      </trkpt>
      <trkpt lat="45.75329" lon="3.08489">
        <ele>443.3</ele>
        <time>2022-08-06T10:34:11Z</time>
      </trkpt>
      <trkpt lat="45.7534" lon="3.08503">
        <ele>442.9</ele>
        <time>2022-08-06T10:34:13Z</time>
      </trkpt>
      <trkpt lat="45.75353" lon="3.08515">
        <ele>442.4</ele>
        <time>2022-08-06T10:34:15Z</time>
      </trkpt>
      <trkpt lat="45.75367" lon="3.08527">
        <ele>442</ele>
        <time>2022-08-06T10:34:17Z</time>
      </trkpt>
      <trkpt lat="45.75381" lon="3.08536">
        <ele>441.7</ele>
        <time>2022-08-06T10:34:19Z</time>
      </trkpt>
      <trkpt lat="45.75396" lon="3.08535">
        <ele>441.4</ele>
        <time>2022-08-06T10:34:21Z</time>
      </trkpt>
      <trkpt lat="45.75412" lon="3.08532">
        <ele>440.7</ele>
        <time>2022-08-06T10:34:23Z</time>
      </trkpt>
      <trkpt lat="45.75427" lon="3.08526">
        <ele>439.9</ele>
        <time>2022-08-06T10:34:25Z</time>
      </trkpt>
      <trkpt lat="45.75444" lon="3.08519">
        <ele>439.1</ele>
        <time>2022-08-06T10:34:27Z</time>
      </trkpt>
      <trkpt lat="45.75461" lon="3.08512">
        <ele>438.2</ele>
        <time>2022-08-06T10:34:29Z</time>
      </trkpt>
      <trkpt lat="45.75478" lon="3.08505">
        <ele>437.4</ele>
        <time>2022-08-06T10:34:31Z</time>
      </trkpt>
      <trkpt lat="45.75495" lon="3.08497">
        <ele>436.6</ele>
        <time>2022-08-06T10:34:33Z</time>
      </trkpt>
      <trkpt lat="45.75512" lon="3.08491">
        <ele>435.7</ele>
        <time>2022-08-06T10:34:35Z</time>
      </trkpt>
      <trkpt lat="45.75529" lon="3.08484">
        <ele>435.2</ele>
        <time>2022-08-06T10:34:37Z</time>
      </trkpt>
      <trkpt lat="45.75545" lon="3.08479">
        <ele>434.8</ele>
        <time>2022-08-06T10:34:39Z</time>
      </trkpt>
      <trkpt lat="45.75558" lon="3.08474">
        <ele>434.7</ele>
        <time>2022-08-06T10:34:41Z</time>
      </trkpt>
      <trkpt lat="45.75567" lon="3.08471">
        <ele>434.5</ele>
        <time>2022-08-06T10:34:43Z</time>
      </trkpt>
      <trkpt lat="45.75575" lon="3.08468">
        <ele>434.1</ele>
        <time>2022-08-06T10:34:45Z</time>
      </trkpt>
      <trkpt lat="45.75583" lon="3.08465">
        <ele>433.6</ele>
        <time>2022-08-06T10:34:47Z</time>
      </trkpt>
      <trkpt lat="45.75592" lon="3.08461">
        <ele>433.3</ele>
        <time>2022-08-06T10:34:49Z</time>
      </trkpt>
      <trkpt lat="45.75601" lon="3.08457">
        <ele>432.8</ele>
        <time>2022-08-06T10:34:51Z</time>
      </trkpt>
      <trkpt lat="45.75607" lon="3.08454">
        <ele>432.5</ele>
        <time>2022-08-06T10:34:53Z</time>
      </trkpt>
      <trkpt lat="45.75616" lon="3.08451">
        <ele>432.2</ele>
        <time>2022-08-06T10:34:55Z</time>
      </trkpt>
      <trkpt lat="45.75627" lon="3.08446">
        <ele>431.9</ele>
        <time>2022-08-06T10:34:57Z</time>
      </trkpt>
      <trkpt lat="45.7564" lon="3.0844">
        <ele>431.4</ele>
        <time>2022-08-06T10:34:59Z</time>
      </trkpt>
      <trkpt lat="45.75653" lon="3.08434">
        <ele>430.7</ele>
        <time>2022-08-06T10:35:01Z</time>
      </trkpt>
      <trkpt lat="45.75668" lon="3.08429">
        <ele>429.9</ele>
        <time>2022-08-06T10:35:03Z</time>
      </trkpt>
      <trkpt lat="45.75683" lon="3.08422">
        <ele>429.1</ele>
        <time>2022-08-06T10:35:05Z</time>
      </trkpt>
      <trkpt lat="45.75698" lon="3.08414">
        <ele>428.2</ele>
        <time>2022-08-06T10:35:07Z</time>
      </trkpt>
      <trkpt lat="45.75713" lon="3.08404">
        <ele>427.4</ele>
        <time>2022-08-06T10:35:09Z</time>
      </trkpt>
      <trkpt lat="45.75724" lon="3.08385">
        <ele>426.7</ele>
        <time>2022-08-06T10:35:11Z</time>
      </trkpt>
      <trkpt lat="45.75729" lon="3.08361">
        <ele>425.9</ele>
        <time>2022-08-06T10:35:13Z</time>
      </trkpt>
      <trkpt lat="45.7573" lon="3.08336">
        <ele>425.1</ele>
        <time>2022-08-06T10:35:15Z</time>
      </trkpt>
      <trkpt lat="45.7573" lon="3.0831">
        <ele>424.2</ele>
        <time>2022-08-06T10:35:17Z</time>
      </trkpt>
      <trkpt lat="45.75729" lon="3.08284">
        <ele>423.4</ele>
        <time>2022-08-06T10:35:19Z</time>
      </trkpt>
      <trkpt lat="45.75728" lon="3.08258">
        <ele>422.6</ele>
        <time>2022-08-06T10:35:21Z</time>
      </trkpt>
      <trkpt lat="45.75727" lon="3.0823">
        <ele>421.8</ele>
        <time>2022-08-06T10:35:23Z</time>
      </trkpt>
      <trkpt lat="45.75727" lon="3.08203">
        <ele>420.9</ele>
        <time>2022-08-06T10:35:25Z</time>
      </trkpt>
      <trkpt lat="45.75726" lon="3.08177">
        <ele>420.2</ele>
        <time>2022-08-06T10:35:27Z</time>
      </trkpt>
      <trkpt lat="45.75728" lon="3.08151">
        <ele>419.5</ele>
        <time>2022-08-06T10:35:29Z</time>
      </trkpt>
      <trkpt lat="45.75734" lon="3.0813">
        <ele>419</ele>
        <time>2022-08-06T10:35:31Z</time>
      </trkpt>
      <trkpt lat="45.75743" lon="3.08111">
        <ele>418.5</ele>
        <time>2022-08-06T10:35:33Z</time>
      </trkpt>
      <trkpt lat="45.75755" lon="3.08096">
        <ele>417.9</ele>
        <time>2022-08-06T10:35:35Z</time>
      </trkpt>
      <trkpt lat="45.75771" lon="3.08089">
        <ele>417.2</ele>
        <time>2022-08-06T10:35:37Z</time>
      </trkpt>
      <trkpt lat="45.75788" lon="3.0809">
        <ele>416.6</ele>
        <time>2022-08-06T10:35:39Z</time>
      </trkpt>
      <trkpt lat="45.75805" lon="3.08097">
        <ele>415.9</ele>
        <time>2022-08-06T10:35:41Z</time>
      </trkpt>
      <trkpt lat="45.75822" lon="3.08104">
        <ele>415.1</ele>
        <time>2022-08-06T10:35:43Z</time>
      </trkpt>
      <trkpt lat="45.75839" lon="3.0811">
        <ele>414.4</ele>
        <time>2022-08-06T10:35:45Z</time>
      </trkpt>
      <trkpt lat="45.75856" lon="3.08117">
        <ele>413.8</ele>
        <time>2022-08-06T10:35:47Z</time>
      </trkpt>
      <trkpt lat="45.75873" lon="3.08124">
        <ele>412.9</ele>
        <time>2022-08-06T10:35:49Z</time>
      </trkpt>
      <trkpt lat="45.7589" lon="3.08131">
        <ele>412.2</ele>
        <time>2022-08-06T10:35:51Z</time>
      </trkpt>
      <trkpt lat="45.75906" lon="3.08139">
        <ele>411.9</ele>
        <time>2022-08-06T10:35:53Z</time>
      </trkpt>
      <trkpt lat="45.75924" lon="3.08146">
        <ele>411.5</ele>
        <time>2022-08-06T10:35:55Z</time>
      </trkpt>
      <trkpt lat="45.7594" lon="3.08153">
        <ele>410.8</ele>
        <time>2022-08-06T10:35:57Z</time>
      </trkpt>
      <trkpt lat="45.75957" lon="3.0816">
        <ele>410</ele>
        <time>2022-08-06T10:35:59Z</time>
      </trkpt>
      <trkpt lat="45.75974" lon="3.08166">
        <ele>409.2</ele>
        <time>2022-08-06T10:36:01Z</time>
      </trkpt>
      <trkpt lat="45.75991" lon="3.08172">
        <ele>408.4</ele>
        <time>2022-08-06T10:36:03Z</time>
      </trkpt>
      <trkpt lat="45.76008" lon="3.08178">
        <ele>407.6</ele>
        <time>2022-08-06T10:36:05Z</time>
      </trkpt>
      <trkpt lat="45.76025" lon="3.08185">
        <ele>406.9</ele>
        <time>2022-08-06T10:36:07Z</time>
      </trkpt>
      <trkpt lat="45.76041" lon="3.08192">
        <ele>406.2</ele>
        <time>2022-08-06T10:36:09Z</time>
      </trkpt>
      <trkpt lat="45.76058" lon="3.08197">
        <ele>405.5</ele>
        <time>2022-08-06T10:36:11Z</time>
      </trkpt>
      <trkpt lat="45.76076" lon="3.08205">
        <ele>405.1</ele>
        <time>2022-08-06T10:36:13Z</time>
      </trkpt>
      <trkpt lat="45.76094" lon="3.08213">
        <ele>404.4</ele>
        <time>2022-08-06T10:36:15Z</time>
      </trkpt>
      <trkpt lat="45.76111" lon="3.08219">
        <ele>403.7</ele>
        <time>2022-08-06T10:36:17Z</time>
      </trkpt>
      <trkpt lat="45.76129" lon="3.08226">
        <ele>403.1</ele>
        <time>2022-08-06T10:36:19Z</time>
      </trkpt>
      <trkpt lat="45.76147" lon="3.08233">
        <ele>402.6</ele>
        <time>2022-08-06T10:36:21Z</time>
      </trkpt>
      <trkpt lat="45.76164" lon="3.0824">
        <ele>402.2</ele>
        <time>2022-08-06T10:36:23Z</time>
      </trkpt>
      <trkpt lat="45.76181" lon="3.08247">
        <ele>401.4</ele>
        <time>2022-08-06T10:36:25Z</time>
      </trkpt>
      <trkpt lat="45.76198" lon="3.08252">
        <ele>400.6</ele>
        <time>2022-08-06T10:36:27Z</time>
      </trkpt>
      <trkpt lat="45.76216" lon="3.08258">
        <ele>399.8</ele>
        <time>2022-08-06T10:36:29Z</time>
      </trkpt>
      <trkpt lat="45.76232" lon="3.08264">
        <ele>399</ele>
        <time>2022-08-06T10:36:31Z</time>
      </trkpt>
      <trkpt lat="45.7625" lon="3.08271">
        <ele>398.5</ele>
        <time>2022-08-06T10:36:33Z</time>
      </trkpt>
      <trkpt lat="45.76267" lon="3.08275">
        <ele>398.2</ele>
        <time>2022-08-06T10:36:35Z</time>
      </trkpt>
      <trkpt lat="45.76285" lon="3.08279">
        <ele>397.9</ele>
        <time>2022-08-06T10:36:37Z</time>
      </trkpt>
      <trkpt lat="45.76302" lon="3.08282">
        <ele>396.9</ele>
        <time>2022-08-06T10:36:39Z</time>
      </trkpt>
      <trkpt lat="45.76321" lon="3.08283">
        <ele>396.1</ele>
        <time>2022-08-06T10:36:41Z</time>
      </trkpt>
      <trkpt lat="45.76339" lon="3.08284">
        <ele>395.3</ele>
        <time>2022-08-06T10:36:43Z</time>
      </trkpt>
      <trkpt lat="45.76358" lon="3.08285">
        <ele>394.4</ele>
        <time>2022-08-06T10:36:45Z</time>
      </trkpt>
      <trkpt lat="45.76377" lon="3.08286">
        <ele>393.6</ele>
        <time>2022-08-06T10:36:47Z</time>
      </trkpt>
      <trkpt lat="45.76397" lon="3.08287">
        <ele>392.7</ele>
        <time>2022-08-06T10:36:49Z</time>
      </trkpt>
      <trkpt lat="45.76415" lon="3.08288">
        <ele>391.9</ele>
        <time>2022-08-06T10:36:51Z</time>
      </trkpt>
      <trkpt lat="45.76434" lon="3.08289">
        <ele>391.1</ele>
        <time>2022-08-06T10:36:53Z</time>
      </trkpt>
      <trkpt lat="45.76453" lon="3.08291">
        <ele>390.6</ele>
        <time>2022-08-06T10:36:55Z</time>
      </trkpt>
      <trkpt lat="45.76471" lon="3.08291">
        <ele>390</ele>
        <time>2022-08-06T10:36:57Z</time>
      </trkpt>
      <trkpt lat="45.76487" lon="3.0829">
        <ele>389.4</ele>
        <time>2022-08-06T10:36:59Z</time>
      </trkpt>
      <trkpt lat="45.765" lon="3.0829">
        <ele>388.9</ele>
        <time>2022-08-06T10:37:01Z</time>
      </trkpt>
      <trkpt lat="45.76509" lon="3.0829">
        <ele>388.7</ele>
        <time>2022-08-06T10:37:03Z</time>
      </trkpt>
      <trkpt lat="45.76514" lon="3.0829">
        <ele>388.6</ele>
        <time>2022-08-06T10:37:05Z</time>
      </trkpt>
      <trkpt lat="45.76521" lon="3.08291">
        <ele>388.3</ele>
        <time>2022-08-06T10:37:07Z</time>
      </trkpt>
      <trkpt lat="45.76528" lon="3.08291">
        <ele>388.1</ele>
        <time>2022-08-06T10:37:09Z</time>
      </trkpt>
      <trkpt lat="45.76537" lon="3.08291">
        <ele>387.9</ele>
        <time>2022-08-06T10:37:11Z</time>
      </trkpt>
      <trkpt lat="45.76546" lon="3.08288">
        <ele>387.9</ele>
        <time>2022-08-06T10:37:13Z</time>
      </trkpt>
      <trkpt lat="45.7655" lon="3.08277">
        <ele>387.8</ele>
        <time>2022-08-06T10:37:15Z</time>
      </trkpt>
      <trkpt lat="45.7655" lon="3.08263">
        <ele>387.7</ele>
        <time>2022-08-06T10:37:17Z</time>
      </trkpt>
      <trkpt lat="45.76548" lon="3.08246">
        <ele>387.9</ele>
        <time>2022-08-06T10:37:19Z</time>
      </trkpt>
      <trkpt lat="45.76547" lon="3.08231">
        <ele>388.1</ele>
        <time>2022-08-06T10:37:21Z</time>
      </trkpt>
      <trkpt lat="45.76549" lon="3.08216">
        <ele>388.2</ele>
        <time>2022-08-06T10:37:23Z</time>
      </trkpt>
      <trkpt lat="45.76555" lon="3.08206">
        <ele>388.1</ele>
        <time>2022-08-06T10:37:25Z</time>
      </trkpt>
      <trkpt lat="45.76563" lon="3.08196">
        <ele>388.1</ele>
        <time>2022-08-06T10:37:27Z</time>
      </trkpt>
      <trkpt lat="45.76571" lon="3.08185">
        <ele>388</ele>
        <time>2022-08-06T10:37:29Z</time>
      </trkpt>
      <trkpt lat="45.76579" lon="3.08174">
        <ele>387.9</ele>
        <time>2022-08-06T10:37:31Z</time>
      </trkpt>
      <trkpt lat="45.76588" lon="3.08163">
        <ele>387.9</ele>
        <time>2022-08-06T10:37:33Z</time>
      </trkpt>
      <trkpt lat="45.76597" lon="3.08152">
        <ele>387.8</ele>
        <time>2022-08-06T10:37:35Z</time>
      </trkpt>
      <trkpt lat="45.76605" lon="3.08141">
        <ele>387.7</ele>
        <time>2022-08-06T10:37:37Z</time>
      </trkpt>
      <trkpt lat="45.76615" lon="3.08128">
        <ele>387.6</ele>
        <time>2022-08-06T10:37:39Z</time>
      </trkpt>
      <trkpt lat="45.76626" lon="3.08117">
        <ele>387.5</ele>
        <time>2022-08-06T10:37:41Z</time>
      </trkpt>
      <trkpt lat="45.76636" lon="3.08107">
        <ele>387.4</ele>
        <time>2022-08-06T10:37:43Z</time>
      </trkpt>
      <trkpt lat="45.76647" lon="3.08096">
        <ele>387.2</ele>
        <time>2022-08-06T10:37:45Z</time>
      </trkpt>
      <trkpt lat="45.76657" lon="3.08084">
        <ele>387.2</ele>
        <time>2022-08-06T10:37:47Z</time>
      </trkpt>
      <trkpt lat="45.76666" lon="3.08072">
        <ele>387.2</ele>
        <time>2022-08-06T10:37:49Z</time>
      </trkpt>
      <trkpt lat="45.76677" lon="3.08061">
        <ele>387.1</ele>
        <time>2022-08-06T10:37:51Z</time>
      </trkpt>
      <trkpt lat="45.76687" lon="3.0805">
        <ele>387.1</ele>
        <time>2022-08-06T10:37:53Z</time>
      </trkpt>
      <trkpt lat="45.76698" lon="3.08038">
        <ele>387</ele>
        <time>2022-08-06T10:37:55Z</time>
      </trkpt>
      <trkpt lat="45.76707" lon="3.08025">
        <ele>387</ele>
        <time>2022-08-06T10:37:57Z</time>
      </trkpt>
      <trkpt lat="45.76716" lon="3.08013">
        <ele>387.1</ele>
        <time>2022-08-06T10:37:59Z</time>
      </trkpt>
      <trkpt lat="45.76726" lon="3.08002">
        <ele>387.1</ele>
        <time>2022-08-06T10:38:01Z</time>
      </trkpt>
      <trkpt lat="45.76737" lon="3.07995">
        <ele>387.2</ele>
        <time>2022-08-06T10:38:03Z</time>
      </trkpt>
      <trkpt lat="45.76747" lon="3.07986">
        <ele>387.3</ele>
        <time>2022-08-06T10:38:05Z</time>
      </trkpt>
      <trkpt lat="45.76757" lon="3.07977">
        <ele>387.4</ele>
        <time>2022-08-06T10:38:07Z</time>
      </trkpt>
      <trkpt lat="45.76766" lon="3.0797">
        <ele>387.5</ele>
        <time>2022-08-06T10:38:09Z</time>
      </trkpt>
      <trkpt lat="45.76775" lon="3.07962">
        <ele>387.6</ele>
        <time>2022-08-06T10:38:11Z</time>
      </trkpt>
      <trkpt lat="45.76783" lon="3.07955">
        <ele>387.8</ele>
        <time>2022-08-06T10:38:13Z</time>
      </trkpt>
      <trkpt lat="45.76791" lon="3.07949">
        <ele>387.9</ele>
        <time>2022-08-06T10:38:15Z</time>
      </trkpt>
      <trkpt lat="45.76797" lon="3.07941">
        <ele>388</ele>
        <time>2022-08-06T10:38:17Z</time>
      </trkpt>
      <trkpt lat="45.76803" lon="3.07931">
        <ele>388.2</ele>
        <time>2022-08-06T10:38:19Z</time>
      </trkpt>
      <trkpt lat="45.76809" lon="3.07921">
        <ele>388.3</ele>
        <time>2022-08-06T10:38:21Z</time>
      </trkpt>
      <trkpt lat="45.76816" lon="3.07913">
        <ele>388.4</ele>
        <time>2022-08-06T10:38:23Z</time>
      </trkpt>
      <trkpt lat="45.76821" lon="3.07905">
        <ele>388.5</ele>
        <time>2022-08-06T10:38:25Z</time>
      </trkpt>
      <trkpt lat="45.76826" lon="3.07895">
        <ele>388.6</ele>
        <time>2022-08-06T10:38:27Z</time>
      </trkpt>
      <trkpt lat="45.76831" lon="3.07885">
        <ele>388.7</ele>
        <time>2022-08-06T10:38:29Z</time>
      </trkpt>
      <trkpt lat="45.76836" lon="3.07878">
        <ele>388.8</ele>
        <time>2022-08-06T10:38:31Z</time>
      </trkpt>
      <trkpt lat="45.76838" lon="3.07874">
        <ele>388.9</ele>
        <time>2022-08-06T10:38:33Z</time>
      </trkpt>
      <trkpt lat="45.76838" lon="3.07874">
        <ele>388.9</ele>
        <time>2022-08-06T10:38:35Z</time>
      </trkpt>
      <trkpt lat="45.76838" lon="3.07874">
        <ele>388.9</ele>
        <time>2022-08-06T10:38:37Z</time>
      </trkpt>
    </trkseg>
  </trk>
</gpx>